Wetterdaten: Samstag, 29.04.2017
Datum Zeit Temp. A. Temp. A. max Feuchte A. Luftdruck Regen Wind Richtung Richtung Sonnenschein ET UV Solar Taupunkt Windchill Windböen
29.04.2017 00:00 0,3 °C 0,4 °C 96 % 1019,5 hPa 0,0 mm 0,0 km/h (0 Bft) S 182 ° 0 min 0,000 mm 0,0 UV-I 0 W/m² -0,3 °C 0,3 °C 0,0 km/h (0 Bft)
29.04.2017 00:01 0,4 °C 0,4 °C 96 % 1019,5 hPa 0,0 mm 1,1 km/h (1 Bft) S 182 ° 0 min 0,000 mm 0,0 UV-I 0 W/m² -0,2 °C 0,4 °C 3,2 km/h (1 Bft)
29.04.2017 00:02 0,4 °C 0,4 °C 96 % 1019,5 hPa 0,0 mm 1,9 km/h (1 Bft) S 182 ° 0 min 0,000 mm 0,0 UV-I 0 W/m² -0,2 °C 0,4 °C 3,2 km/h (1 Bft)
29.04.2017 00:03 0,4 °C 0,4 °C 96 % 1019,5 hPa 0,0 mm 1,4 km/h (1 Bft) S 182 ° 0 min 0,000 mm 0,0 UV-I 0 W/m² -0,2 °C 0,4 °C 3,2 km/h (1 Bft)
29.04.2017 00:04 0,4 °C 0,4 °C 96 % 1019,5 hPa 0,0 mm 2,7 km/h (1 Bft) S 182 ° 0 min 0,000 mm 0,0 UV-I 0 W/m² -0,2 °C 0,4 °C 4,8 km/h (1 Bft)
29.04.2017 00:05 0,5 °C 0,5 °C 96 % 1019,5 hPa 0,0 mm 3,6 km/h (1 Bft) SW 227 ° 0 min 0,000 mm 0,0 UV-I 0 W/m² -0,1 °C 0,5 °C 6,4 km/h (2 Bft)
29.04.2017 00:06 0,6 °C 0,6 °C 96 % 1019,5 hPa 0,0 mm 1,1 km/h (1 Bft) S 189 ° 0 min 0,000 mm 0,0 UV-I 0 W/m² 0,0 °C 0,6 °C 3,2 km/h (1 Bft)
29.04.2017 00:07 0,6 °C 0,6 °C 96 % 1019,5 hPa 0,0 mm 4,2 km/h (1 Bft) S-SW 195 ° 0 min 0,000 mm 0,0 UV-I 0 W/m² 0,0 °C 0,6 °C 6,4 km/h (2 Bft)
29.04.2017 00:08 0,6 °C 0,6 °C 96 % 1019,4 hPa 0,0 mm 5,6 km/h (1 Bft) S-SW 193 ° 0 min 0,000 mm 0,0 UV-I 0 W/m² 0,0 °C -1,2 °C 9,7 km/h (2 Bft)
29.04.2017 00:09 0,7 °C 0,7 °C 96 % 1019,4 hPa 0,0 mm 5,0 km/h (1 Bft) S 176 ° 0 min 0,000 mm 0,0 UV-I 0 W/m² 0,1 °C -0,8 °C 8,0 km/h (2 Bft)
29.04.2017 00:10 0,7 °C 0,7 °C 96 % 1019,4 hPa 0,0 mm 3,3 km/h (1 Bft) S-SW 200 ° 0 min 0,000 mm 0,0 UV-I 0 W/m² 0,1 °C 0,7 °C 6,4 km/h (2 Bft)
29.04.2017 00:11 0,7 °C 0,7 °C 96 % 1019,4 hPa 0,0 mm 3,8 km/h (1 Bft) S-SW 198 ° 0 min 0,000 mm 0,0 UV-I 0 W/m² 0,1 °C 0,7 °C 6,4 km/h (2 Bft)
29.04.2017 00:12 0,7 °C 0,7 °C 96 % 1019,4 hPa 0,0 mm 6,6 km/h (2 Bft) SW 229 ° 0 min 0,000 mm 0,0 UV-I 0 W/m² 0,1 °C -1,4 °C 11,3 km/h (2 Bft)
29.04.2017 00:13 0,8 °C 0,8 °C 96 % 1019,4 hPa 0,0 mm 3,0 km/h (1 Bft) SW 217 ° 0 min 0,000 mm 0,0 UV-I 0 W/m² 0,2 °C 0,8 °C 4,8 km/h (1 Bft)
29.04.2017 00:14 0,8 °C 0,8 °C 95 % 1019,4 hPa 0,0 mm 1,5 km/h (1 Bft) SW 217 ° 0 min 0,000 mm 0,0 UV-I 0 W/m² 0,1 °C 0,8 °C 3,2 km/h (1 Bft)
29.04.2017 00:15 0,8 °C 0,8 °C 95 % 1019,4 hPa 0,0 mm 3,4 km/h (1 Bft) S 184 ° 0 min 0,000 mm 0,0 UV-I 0 W/m² 0,1 °C 0,8 °C 6,4 km/h (2 Bft)
29.04.2017 00:16 0,8 °C 0,8 °C 95 % 1019,4 hPa 0,0 mm 1,4 km/h (1 Bft) S 185 ° 0 min 0,000 mm 0,0 UV-I 0 W/m² 0,1 °C 0,8 °C 3,2 km/h (1 Bft)
29.04.2017 00:17 0,8 °C 0,8 °C 95 % 1019,4 hPa 0,0 mm 3,2 km/h (1 Bft) S-SW 207 ° 0 min 0,000 mm 0,0 UV-I 0 W/m² 0,1 °C 0,8 °C 4,8 km/h (1 Bft)
29.04.2017 00:18 0,8 °C 0,8 °C 95 % 1019,4 hPa 0,0 mm 3,4 km/h (1 Bft) S-SW 207 ° 0 min 0,000 mm 0,0 UV-I 0 W/m² 0,1 °C 0,8 °C 4,8 km/h (1 Bft)
29.04.2017 00:19 0,8 °C 0,8 °C 95 % 1019,4 hPa 0,0 mm 5,1 km/h (1 Bft) S-SW 197 ° 0 min 0,000 mm 0,0 UV-I 0 W/m² 0,1 °C -0,7 °C 8,0 km/h (2 Bft)
29.04.2017 00:20 0,8 °C 0,9 °C 95 % 1019,4 hPa 0,0 mm 5,2 km/h (1 Bft) SW 214 ° 0 min 0,000 mm 0,0 UV-I 0 W/m² 0,1 °C -0,8 °C 8,0 km/h (2 Bft)
29.04.2017 00:21 0,8 °C 0,9 °C 95 % 1019,4 hPa 0,0 mm 4,6 km/h (1 Bft) SW 214 ° 0 min 0,000 mm 0,0 UV-I 0 W/m² 0,1 °C -0,5 °C 8,0 km/h (2 Bft)
29.04.2017 00:22 0,9 °C 0,9 °C 95 % 1019,4 hPa 0,0 mm 2,0 km/h (1 Bft) SW 219 ° 0 min 0,000 mm 0,0 UV-I 0 W/m² 0,2 °C 0,9 °C 4,8 km/h (1 Bft)
29.04.2017 00:23 0,8 °C 0,9 °C 95 % 1019,4 hPa 0,0 mm 2,4 km/h (1 Bft) S-SW 212 ° 0 min 0,000 mm 0,0 UV-I 0 W/m² 0,1 °C 0,8 °C 3,2 km/h (1 Bft)
29.04.2017 00:24 0,8 °C 0,8 °C 94 % 1019,4 hPa 0,0 mm 4,0 km/h (1 Bft) S-SW 195 ° 0 min 0,000 mm 0,0 UV-I 0 W/m² -0,1 °C 0,8 °C 6,4 km/h (2 Bft)
29.04.2017 00:25 0,8 °C 0,9 °C 94 % 1019,4 hPa 0,0 mm 4,7 km/h (1 Bft) S-SW 198 ° 0 min 0,000 mm 0,0 UV-I 0 W/m² -0,1 °C -0,5 °C 6,4 km/h (2 Bft)
29.04.2017 00:26 0,8 °C 0,8 °C 94 % 1019,4 hPa 0,0 mm 1,8 km/h (1 Bft) SW 215 ° 0 min 0,000 mm 0,0 UV-I 0 W/m² -0,1 °C 0,8 °C 3,2 km/h (1 Bft)
29.04.2017 00:27 0,9 °C 0,9 °C 94 % 1019,4 hPa 0,0 mm 1,1 km/h (1 Bft) S-SW 210 ° 0 min 0,000 mm 0,0 UV-I 0 W/m² 0,0 °C 0,9 °C 4,8 km/h (1 Bft)
29.04.2017 00:28 0,8 °C 0,9 °C 94 % 1019,4 hPa 0,0 mm 3,6 km/h (1 Bft) S 190 ° 0 min 0,000 mm 0,0 UV-I 0 W/m² -0,1 °C 0,8 °C 4,8 km/h (1 Bft)
29.04.2017 00:29 0,8 °C 0,9 °C 94 % 1019,4 hPa 0,0 mm 1,5 km/h (1 Bft) W 259 ° 0 min 0,000 mm 0,0 UV-I 0 W/m² -0,1 °C 0,8 °C 3,2 km/h (1 Bft)
29.04.2017 00:30 0,8 °C 0,9 °C 94 % 1019,4 hPa 0,0 mm 3,4 km/h (1 Bft) S-SW 213 ° 0 min 0,000 mm 0,0 UV-I 0 W/m² -0,1 °C 0,8 °C 4,8 km/h (1 Bft)
29.04.2017 00:31 0,8 °C 0,8 °C 94 % 1019,4 hPa 0,0 mm 2,7 km/h (1 Bft) S-SW 213 ° 0 min 0,000 mm 0,0 UV-I 0 W/m² -0,1 °C 0,8 °C 4,8 km/h (1 Bft)
29.04.2017 00:32 0,8 °C 0,8 °C 94 % 1019,4 hPa 0,0 mm 3,6 km/h (1 Bft) S 189 ° 0 min 0,000 mm 0,0 UV-I 0 W/m² -0,1 °C 0,8 °C 8,0 km/h (2 Bft)
29.04.2017 00:33 0,8 °C 0,8 °C 94 % 1019,4 hPa 0,0 mm 3,0 km/h (1 Bft) S-SW 192 ° 0 min 0,000 mm 0,0 UV-I 0 W/m² -0,1 °C 0,8 °C 6,4 km/h (2 Bft)
29.04.2017 00:34 0,8 °C 0,8 °C 94 % 1019,5 hPa 0,0 mm 1,1 km/h (1 Bft) S-SW 192 ° 0 min 0,000 mm 0,0 UV-I 0 W/m² -0,1 °C 0,8 °C 3,2 km/h (1 Bft)
29.04.2017 00:35 0,7 °C 0,8 °C 94 % 1019,5 hPa 0,0 mm 0,0 km/h (0 Bft) S-SW 192 ° 0 min 0,000 mm 0,0 UV-I 0 W/m² -0,2 °C 0,7 °C 0,0 km/h (0 Bft)
29.04.2017 00:36 0,7 °C 0,7 °C 94 % 1019,4 hPa 0,0 mm 0,0 km/h (0 Bft) S-SW 192 ° 0 min 0,000 mm 0,0 UV-I 0 W/m² -0,2 °C 0,7 °C 0,0 km/h (0 Bft)
29.04.2017 00:37 0,6 °C 0,7 °C 94 % 1019,4 hPa 0,0 mm 0,4 km/h (0 Bft) S-SW 192 ° 0 min 0,000 mm 0,0 UV-I 0 W/m² -0,3 °C 0,6 °C 1,6 km/h (1 Bft)
29.04.2017 00:38 0,6 °C 0,6 °C 94 % 1019,4 hPa 0,0 mm 0,2 km/h (0 Bft) S 191 ° 0 min 0,000 mm 0,0 UV-I 0 W/m² -0,3 °C 0,6 °C 1,6 km/h (1 Bft)
29.04.2017 00:39 0,6 °C 0,6 °C 94 % 1019,4 hPa 0,0 mm 0,0 km/h (0 Bft) S 191 ° 0 min 0,000 mm 0,0 UV-I 0 W/m² -0,3 °C 0,6 °C 0,0 km/h (0 Bft)
29.04.2017 00:40 0,5 °C 0,6 °C 94 % 1019,4 hPa 0,0 mm 0,7 km/h (0 Bft) S 191 ° 0 min 0,000 mm 0,0 UV-I 0 W/m² -0,4 °C 0,5 °C 3,2 km/h (1 Bft)
29.04.2017 00:41 0,5 °C 0,6 °C 94 % 1019,3 hPa 0,0 mm 0,0 km/h (0 Bft) S 191 ° 0 min 0,000 mm 0,0 UV-I 0 W/m² -0,4 °C 0,5 °C 0,0 km/h (0 Bft)
29.04.2017 00:42 0,5 °C 0,5 °C 95 % 1019,3 hPa 0,0 mm 1,1 km/h (1 Bft) W-SW 252 ° 0 min 0,000 mm 0,0 UV-I 0 W/m² -0,2 °C 0,5 °C 3,2 km/h (1 Bft)
29.04.2017 00:43 0,4 °C 0,5 °C 94 % 1019,3 hPa 0,0 mm 0,9 km/h (0 Bft) SW 218 ° 0 min 0,000 mm 0,0 UV-I 0 W/m² -0,5 °C 0,4 °C 3,2 km/h (1 Bft)
29.04.2017 00:44 0,4 °C 0,4 °C 95 % 1019,3 hPa 0,0 mm 3,8 km/h (1 Bft) S-SO 147 ° 0 min 0,000 mm 0,0 UV-I 0 W/m² -0,3 °C 0,4 °C 4,8 km/h (1 Bft)
29.04.2017 00:45 0,4 °C 0,4 °C 95 % 1019,3 hPa 0,0 mm 1,0 km/h (0 Bft) S-SO 147 ° 0 min 0,000 mm 0,0 UV-I 0 W/m² -0,3 °C 0,4 °C 3,2 km/h (1 Bft)
29.04.2017 00:46 0,4 °C 0,4 °C 95 % 1019,3 hPa 0,0 mm 0,7 km/h (0 Bft) S-SO 164 ° 0 min 0,000 mm 0,0 UV-I 0 W/m² -0,3 °C 0,4 °C 1,6 km/h (1 Bft)
29.04.2017 00:47 0,4 °C 0,4 °C 95 % 1019,3 hPa 0,0 mm 0,9 km/h (0 Bft) S-SO 164 ° 0 min 0,000 mm 0,0 UV-I 0 W/m² -0,3 °C 0,4 °C 3,2 km/h (1 Bft)
29.04.2017 00:48 0,3 °C 0,4 °C 95 % 1019,4 hPa 0,0 mm 0,5 km/h (0 Bft) SO 125 ° 0 min 0,000 mm 0,0 UV-I 0 W/m² -0,4 °C 0,3 °C 3,2 km/h (1 Bft)
29.04.2017 00:49 0,3 °C 0,3 °C 95 % 1019,3 hPa 0,0 mm 3,4 km/h (1 Bft) NW 317 ° 0 min 0,000 mm 0,0 UV-I 0 W/m² -0,4 °C 0,3 °C 4,8 km/h (1 Bft)
29.04.2017 00:50 0,3 °C 0,3 °C 95 % 1019,4 hPa 0,0 mm 0,9 km/h (0 Bft) NW 317 ° 0 min 0,000 mm 0,0 UV-I 0 W/m² -0,4 °C 0,3 °C 3,2 km/h (1 Bft)
29.04.2017 00:51 0,3 °C 0,3 °C 95 % 1019,4 hPa 0,0 mm 3,3 km/h (1 Bft) W-SW 255 ° 0 min 0,000 mm 0,0 UV-I 0 W/m² -0,4 °C 0,3 °C 4,8 km/h (1 Bft)
29.04.2017 00:52 0,3 °C 0,3 °C 95 % 1019,3 hPa 0,0 mm 3,0 km/h (1 Bft) S-SW 207 ° 0 min 0,000 mm 0,0 UV-I 0 W/m² -0,4 °C 0,3 °C 4,8 km/h (1 Bft)
29.04.2017 00:53 0,3 °C 0,3 °C 95 % 1019,3 hPa 0,0 mm 1,1 km/h (1 Bft) S-SW 207 ° 0 min 0,000 mm 0,0 UV-I 0 W/m² -0,4 °C 0,3 °C 3,2 km/h (1 Bft)
29.04.2017 00:54 0,3 °C 0,3 °C 95 % 1019,3 hPa 0,0 mm 0,9 km/h (0 Bft) S-SW 207 ° 0 min 0,000 mm 0,0 UV-I 0 W/m² -0,4 °C 0,3 °C 3,2 km/h (1 Bft)
29.04.2017 00:55 0,3 °C 0,3 °C 95 % 1019,4 hPa 0,0 mm 0,0 km/h (0 Bft) S-SW 207 ° 0 min 0,000 mm 0,0 UV-I 0 W/m² -0,4 °C 0,3 °C 0,0 km/h (0 Bft)
29.04.2017 00:56 0,3 °C 0,3 °C 95 % 1019,3 hPa 0,0 mm 0,0 km/h (0 Bft) S-SW 207 ° 0 min 0,000 mm 0,0 UV-I 0 W/m² -0,4 °C 0,3 °C 0,0 km/h (0 Bft)
29.04.2017 00:57 0,3 °C 0,3 °C 95 % 1019,3 hPa 0,0 mm 1,1 km/h (1 Bft) S-SW 207 ° 0 min 0,000 mm 0,0 UV-I 0 W/m² -0,4 °C 0,3 °C 3,2 km/h (1 Bft)
29.04.2017 00:58 0,3 °C 0,3 °C 95 % 1019,3 hPa 0,0 mm 3,2 km/h (1 Bft) SW 220 ° 0 min 0,000 mm 0,0 UV-I 0 W/m² -0,4 °C 0,3 °C 6,4 km/h (2 Bft)
29.04.2017 00:59 0,3 °C 0,3 °C 95 % 1019,3 hPa 0,0 mm 1,9 km/h (1 Bft) SW 220 ° 0 min 0,000 mm 0,0 UV-I 0 W/m² -0,4 °C 0,3 °C 3,2 km/h (1 Bft)
29.04.2017 01:00 0,3 °C 0,3 °C 95 % 1019,3 hPa 0,0 mm 0,1 km/h (0 Bft) SW 220 ° 0 min 0,000 mm 0,0 UV-I 0 W/m² -0,4 °C 0,3 °C 1,6 km/h (1 Bft)
29.04.2017 01:01 0,3 °C 0,3 °C 95 % 1019,3 hPa 0,0 mm 0,0 km/h (0 Bft) SW 220 ° 0 min 0,000 mm 0,0 UV-I 0 W/m² -0,4 °C 0,3 °C 0,0 km/h (0 Bft)
29.04.2017 01:02 0,2 °C 0,3 °C 95 % 1019,3 hPa 0,0 mm 1,2 km/h (1 Bft) SW 227 ° 0 min 0,000 mm 0,0 UV-I 0 W/m² -0,5 °C 0,2 °C 3,2 km/h (1 Bft)
29.04.2017 01:03 0,2 °C 0,2 °C 95 % 1019,3 hPa 0,0 mm 2,5 km/h (1 Bft) SW 233 ° 0 min 0,000 mm 0,0 UV-I 0 W/m² -0,5 °C 0,2 °C 4,8 km/h (1 Bft)
29.04.2017 01:04 0,2 °C 0,2 °C 95 % 1019,3 hPa 0,0 mm 2,1 km/h (1 Bft) SW 233 ° 0 min 0,000 mm 0,0 UV-I 0 W/m² -0,5 °C 0,2 °C 4,8 km/h (1 Bft)
29.04.2017 01:05 0,3 °C 0,3 °C 95 % 1019,3 hPa 0,0 mm 2,7 km/h (1 Bft) W-SW 247 ° 0 min 0,000 mm 0,0 UV-I 0 W/m² -0,4 °C 0,3 °C 6,4 km/h (2 Bft)
29.04.2017 01:06 0,3 °C 0,3 °C 95 % 1019,2 hPa 0,0 mm 3,4 km/h (1 Bft) S-SW 213 ° 0 min 0,000 mm 0,0 UV-I 0 W/m² -0,4 °C 0,3 °C 4,8 km/h (1 Bft)
29.04.2017 01:07 0,3 °C 0,3 °C 95 % 1019,2 hPa 0,0 mm 1,3 km/h (1 Bft) S-SW 213 ° 0 min 0,000 mm 0,0 UV-I 0 W/m² -0,4 °C 0,3 °C 3,2 km/h (1 Bft)
29.04.2017 01:08 0,3 °C 0,3 °C 95 % 1019,3 hPa 0,0 mm 3,0 km/h (1 Bft) S-SW 213 ° 0 min 0,000 mm 0,0 UV-I 0 W/m² -0,4 °C 0,3 °C 4,8 km/h (1 Bft)
29.04.2017 01:09 0,4 °C 0,4 °C 95 % 1019,3 hPa 0,0 mm 2,6 km/h (1 Bft) S-SW 213 ° 0 min 0,000 mm 0,0 UV-I 0 W/m² -0,3 °C 0,4 °C 3,2 km/h (1 Bft)
29.04.2017 01:10 0,4 °C 0,4 °C 95 % 1019,3 hPa 0,0 mm 2,9 km/h (1 Bft) S-SW 213 ° 0 min 0,000 mm 0,0 UV-I 0 W/m² -0,3 °C 0,4 °C 4,8 km/h (1 Bft)
29.04.2017 01:11 0,4 °C 0,4 °C 94 % 1019,3 hPa 0,0 mm 3,4 km/h (1 Bft) SW 220 ° 0 min 0,000 mm 0,0 UV-I 0 W/m² -0,5 °C 0,4 °C 4,8 km/h (1 Bft)
29.04.2017 01:12 0,4 °C 0,4 °C 94 % 1019,3 hPa 0,0 mm 6,0 km/h (2 Bft) S-SW 211 ° 0 min 0,000 mm 0,0 UV-I 0 W/m² -0,5 °C -1,6 °C 9,7 km/h (2 Bft)
29.04.2017 01:13 0,4 °C 0,4 °C 94 % 1019,3 hPa 0,0 mm 3,8 km/h (1 Bft) S 169 ° 0 min 0,000 mm 0,0 UV-I 0 W/m² -0,5 °C 0,4 °C 6,4 km/h (2 Bft)
29.04.2017 01:14 0,4 °C 0,4 °C 94 % 1019,3 hPa 0,0 mm 1,9 km/h (1 Bft) S 169 ° 0 min 0,000 mm 0,0 UV-I 0 W/m² -0,5 °C 0,4 °C 6,4 km/h (2 Bft)
29.04.2017 01:15 0,4 °C 0,4 °C 94 % 1019,3 hPa 0,0 mm 3,7 km/h (1 Bft) W-SW 250 ° 0 min 0,000 mm 0,0 UV-I 0 W/m² -0,5 °C 0,4 °C 8,0 km/h (2 Bft)
29.04.2017 01:16 0,4 °C 0,4 °C 94 % 1019,3 hPa 0,0 mm 4,0 km/h (1 Bft) W 270 ° 0 min 0,000 mm 0,0 UV-I 0 W/m² -0,5 °C 0,4 °C 4,8 km/h (1 Bft)
29.04.2017 01:17 0,4 °C 0,4 °C 94 % 1019,3 hPa 0,0 mm 2,3 km/h (1 Bft) S-SW 208 ° 0 min 0,000 mm 0,0 UV-I 0 W/m² -0,5 °C 0,4 °C 4,8 km/h (1 Bft)
29.04.2017 01:18 0,4 °C 0,4 °C 94 % 1019,3 hPa 0,0 mm 2,7 km/h (1 Bft) S-SW 194 ° 0 min 0,000 mm 0,0 UV-I 0 W/m² -0,5 °C 0,4 °C 6,4 km/h (2 Bft)
29.04.2017 01:19 0,4 °C 0,4 °C 94 % 1019,3 hPa 0,0 mm 3,4 km/h (1 Bft) S-SW 206 ° 0 min 0,000 mm 0,0 UV-I 0 W/m² -0,5 °C 0,4 °C 4,8 km/h (1 Bft)
29.04.2017 01:20 0,4 °C 0,4 °C 94 % 1019,3 hPa 0,0 mm 2,7 km/h (1 Bft) S-SW 206 ° 0 min 0,000 mm 0,0 UV-I 0 W/m² -0,5 °C 0,4 °C 4,8 km/h (1 Bft)
29.04.2017 01:21 0,4 °C 0,4 °C 94 % 1019,3 hPa 0,0 mm 4,4 km/h (1 Bft) S 184 ° 0 min 0,000 mm 0,0 UV-I 0 W/m² -0,5 °C 0,4 °C 6,4 km/h (2 Bft)
29.04.2017 01:22 0,4 °C 0,4 °C 94 % 1019,3 hPa 0,0 mm 1,5 km/h (1 Bft) S 178 ° 0 min 0,000 mm 0,0 UV-I 0 W/m² -0,5 °C 0,4 °C 4,8 km/h (1 Bft)
29.04.2017 01:23 0,3 °C 0,4 °C 94 % 1019,3 hPa 0,0 mm 1,5 km/h (1 Bft) S 178 ° 0 min 0,000 mm 0,0 UV-I 0 W/m² -0,5 °C 0,3 °C 3,2 km/h (1 Bft)
29.04.2017 01:24 0,3 °C 0,3 °C 94 % 1019,3 hPa 0,0 mm 1,0 km/h (0 Bft) S 178 ° 0 min 0,000 mm 0,0 UV-I 0 W/m² -0,5 °C 0,3 °C 3,2 km/h (1 Bft)
29.04.2017 01:25 0,3 °C 0,3 °C 94 % 1019,3 hPa 0,0 mm 0,6 km/h (0 Bft) S 178 ° 0 min 0,000 mm 0,0 UV-I 0 W/m² -0,5 °C 0,3 °C 1,6 km/h (1 Bft)
29.04.2017 01:26 0,2 °C 0,3 °C 94 % 1019,3 hPa 0,0 mm 0,1 km/h (0 Bft) S 178 ° 0 min 0,000 mm 0,0 UV-I 0 W/m² -0,6 °C 0,2 °C 1,6 km/h (1 Bft)
29.04.2017 01:27 0,2 °C 0,2 °C 94 % 1019,3 hPa 0,0 mm 0,6 km/h (0 Bft) S 178 ° 0 min 0,000 mm 0,0 UV-I 0 W/m² -0,6 °C 0,2 °C 1,6 km/h (1 Bft)
29.04.2017 01:28 0,2 °C 0,2 °C 94 % 1019,3 hPa 0,0 mm 0,1 km/h (0 Bft) S 178 ° 0 min 0,000 mm 0,0 UV-I 0 W/m² -0,6 °C 0,2 °C 1,6 km/h (1 Bft)
29.04.2017 01:29 0,2 °C 0,2 °C 94 % 1019,3 hPa 0,0 mm 0,1 km/h (0 Bft) S 178 ° 0 min 0,000 mm 0,0 UV-I 0 W/m² -0,6 °C 0,2 °C 1,6 km/h (1 Bft)
29.04.2017 01:30 0,1 °C 0,2 °C 94 % 1019,3 hPa 0,0 mm 0,1 km/h (0 Bft) S 178 ° 0 min 0,000 mm 0,0 UV-I 0 W/m² -0,7 °C 0,1 °C 1,6 km/h (1 Bft)
29.04.2017 01:31 0,1 °C 0,2 °C 94 % 1019,3 hPa 0,0 mm 0,5 km/h (0 Bft) S 178 ° 0 min 0,000 mm 0,0 UV-I 0 W/m² -0,7 °C 0,1 °C 1,6 km/h (1 Bft)
29.04.2017 01:32 0,1 °C 0,1 °C 95 % 1019,3 hPa 0,0 mm 0,0 km/h (0 Bft) S 178 ° 0 min 0,000 mm 0,0 UV-I 0 W/m² -0,6 °C 0,1 °C 0,0 km/h (0 Bft)
29.04.2017 01:33 0,1 °C 0,1 °C 95 % 1019,4 hPa 0,0 mm 0,0 km/h (0 Bft) S 178 ° 0 min 0,000 mm 0,0 UV-I 0 W/m² -0,6 °C 0,1 °C 0,0 km/h (0 Bft)
29.04.2017 01:34 0,1 °C 0,2 °C 95 % 1019,4 hPa 0,0 mm 0,0 km/h (0 Bft) S 178 ° 0 min 0,000 mm 0,0 UV-I 0 W/m² -0,6 °C 0,1 °C 0,0 km/h (0 Bft)
29.04.2017 01:35 0,1 °C 0,1 °C 95 % 1019,4 hPa 0,0 mm 0,0 km/h (0 Bft) S 178 ° 0 min 0,000 mm 0,0 UV-I 0 W/m² -0,6 °C 0,1 °C 0,0 km/h (0 Bft)
29.04.2017 01:36 0,1 °C 0,1 °C 95 % 1019,3 hPa 0,0 mm 0,0 km/h (0 Bft) S 178 ° 0 min 0,000 mm 0,0 UV-I 0 W/m² -0,6 °C 0,1 °C 0,0 km/h (0 Bft)
29.04.2017 01:37 0,1 °C 0,1 °C 95 % 1019,4 hPa 0,0 mm 0,0 km/h (0 Bft) S 178 ° 0 min 0,000 mm 0,0 UV-I 0 W/m² -0,6 °C 0,1 °C 0,0 km/h (0 Bft)
29.04.2017 01:38 0,2 °C 0,2 °C 95 % 1019,4 hPa 0,0 mm 0,0 km/h (0 Bft) S 178 ° 0 min 0,000 mm 0,0 UV-I 0 W/m² -0,5 °C 0,2 °C 0,0 km/h (0 Bft)
29.04.2017 01:39 0,1 °C 0,2 °C 95 % 1019,3 hPa 0,0 mm 0,0 km/h (0 Bft) S 178 ° 0 min 0,000 mm 0,0 UV-I 0 W/m² -0,6 °C 0,1 °C 0,0 km/h (0 Bft)
29.04.2017 01:40 0,1 °C 0,1 °C 95 % 1019,3 hPa 0,0 mm 0,0 km/h (0 Bft) S 178 ° 0 min 0,000 mm 0,0 UV-I 0 W/m² -0,6 °C 0,1 °C 0,0 km/h (0 Bft)
29.04.2017 01:41 0,1 °C 0,1 °C 95 % 1019,4 hPa 0,0 mm 0,0 km/h (0 Bft) S 178 ° 0 min 0,000 mm 0,0 UV-I 0 W/m² -0,6 °C 0,1 °C 0,0 km/h (0 Bft)
29.04.2017 01:42 0,1 °C 0,1 °C 95 % 1019,4 hPa 0,0 mm 0,0 km/h (0 Bft) S 178 ° 0 min 0,000 mm 0,0 UV-I 0 W/m² -0,6 °C 0,1 °C 0,0 km/h (0 Bft)
29.04.2017 01:43 0,1 °C 0,1 °C 95 % 1019,4 hPa 0,0 mm 1,1 km/h (1 Bft) S 178 ° 0 min 0,000 mm 0,0 UV-I 0 W/m² -0,6 °C 0,1 °C 3,2 km/h (1 Bft)
29.04.2017 01:44 0,1 °C 0,1 °C 95 % 1019,4 hPa 0,0 mm 0,8 km/h (0 Bft) S 178 ° 0 min 0,000 mm 0,0 UV-I 0 W/m² -0,6 °C 0,1 °C 1,6 km/h (1 Bft)
29.04.2017 01:45 0,2 °C 0,2 °C 95 % 1019,4 hPa 0,0 mm 0,0 km/h (0 Bft) S 178 ° 0 min 0,000 mm 0,0 UV-I 0 W/m² -0,5 °C 0,2 °C 0,0 km/h (0 Bft)
29.04.2017 01:46 0,2 °C 0,2 °C 95 % 1019,4 hPa 0,0 mm 0,0 km/h (0 Bft) S 178 ° 0 min 0,000 mm 0,0 UV-I 0 W/m² -0,5 °C 0,2 °C 0,0 km/h (0 Bft)
29.04.2017 01:47 0,2 °C 0,2 °C 95 % 1019,4 hPa 0,0 mm 0,0 km/h (0 Bft) S 178 ° 0 min 0,000 mm 0,0 UV-I 0 W/m² -0,5 °C 0,2 °C 0,0 km/h (0 Bft)
29.04.2017 01:48 0,2 °C 0,2 °C 95 % 1019,4 hPa 0,0 mm 0,0 km/h (0 Bft) S 178 ° 0 min 0,000 mm 0,0 UV-I 0 W/m² -0,5 °C 0,2 °C 0,0 km/h (0 Bft)
29.04.2017 01:49 0,1 °C 0,2 °C 95 % 1019,4 hPa 0,0 mm 0,0 km/h (0 Bft) S 178 ° 0 min 0,000 mm 0,0 UV-I 0 W/m² -0,6 °C 0,1 °C 0,0 km/h (0 Bft)
29.04.2017 01:50 0,1 °C 0,1 °C 95 % 1019,4 hPa 0,0 mm 0,0 km/h (0 Bft) S 178 ° 0 min 0,000 mm 0,0 UV-I 0 W/m² -0,6 °C 0,1 °C 0,0 km/h (0 Bft)
29.04.2017 01:51 0,1 °C 0,1 °C 95 % 1019,4 hPa 0,0 mm 0,0 km/h (0 Bft) S 178 ° 0 min 0,000 mm 0,0 UV-I 0 W/m² -0,6 °C 0,1 °C 0,0 km/h (0 Bft)
29.04.2017 01:52 0,0 °C 0,1 °C 95 % 1019,4 hPa 0,0 mm 0,0 km/h (0 Bft) S 178 ° 0 min 0,000 mm 0,0 UV-I 0 W/m² -0,7 °C 0,0 °C 0,0 km/h (0 Bft)
29.04.2017 01:53 0,0 °C 0,1 °C 95 % 1019,4 hPa 0,0 mm 0,0 km/h (0 Bft) S 178 ° 0 min 0,000 mm 0,0 UV-I 0 W/m² -0,7 °C 0,0 °C 0,0 km/h (0 Bft)
29.04.2017 01:54 0,1 °C 0,1 °C 95 % 1019,4 hPa 0,0 mm 0,0 km/h (0 Bft) S 178 ° 0 min 0,000 mm 0,0 UV-I 0 W/m² -0,6 °C 0,1 °C 0,0 km/h (0 Bft)
29.04.2017 01:55 0,1 °C 0,1 °C 96 % 1019,4 hPa 0,0 mm 0,0 km/h (0 Bft) S 178 ° 0 min 0,000 mm 0,0 UV-I 0 W/m² -0,5 °C 0,1 °C 0,0 km/h (0 Bft)
29.04.2017 01:56 0,1 °C 0,1 °C 96 % 1019,4 hPa 0,0 mm 0,0 km/h (0 Bft) S 178 ° 0 min 0,000 mm 0,0 UV-I 0 W/m² -0,5 °C 0,1 °C 0,0 km/h (0 Bft)
29.04.2017 01:57 0,0 °C 0,1 °C 95 % 1019,4 hPa 0,0 mm 0,0 km/h (0 Bft) S 178 ° 0 min 0,000 mm 0,0 UV-I 0 W/m² -0,7 °C 0,0 °C 0,0 km/h (0 Bft)
29.04.2017 01:58 0,0 °C 0,0 °C 95 % 1019,4 hPa 0,0 mm 0,0 km/h (0 Bft) S 178 ° 0 min 0,000 mm 0,0 UV-I 0 W/m² -0,7 °C 0,0 °C 0,0 km/h (0 Bft)
29.04.2017 01:59 -0,1 °C 0,0 °C 95 % 1019,5 hPa 0,0 mm 0,0 km/h (0 Bft) S 178 ° 0 min 0,000 mm 0,0 UV-I 0 W/m² -0,8 °C -0,1 °C 0,0 km/h (0 Bft)
29.04.2017 02:00 -0,1 °C -0,1 °C 95 % 1019,5 hPa 0,0 mm 0,0 km/h (0 Bft) S 178 ° 0 min 0,000 mm 0,0 UV-I 0 W/m² -0,8 °C -0,1 °C 0,0 km/h (0 Bft)
29.04.2017 02:01 -0,2 °C -0,1 °C 95 % 1019,5 hPa 0,0 mm 0,0 km/h (0 Bft) S 178 ° 0 min 0,000 mm 0,0 UV-I 0 W/m² -0,9 °C -0,2 °C 0,0 km/h (0 Bft)
29.04.2017 02:02 -0,2 °C -0,2 °C 95 % 1019,5 hPa 0,0 mm 0,0 km/h (0 Bft) S 178 ° 0 min 0,000 mm 0,0 UV-I 0 W/m² -0,9 °C -0,2 °C 0,0 km/h (0 Bft)
29.04.2017 02:03 -0,2 °C -0,2 °C 95 % 1019,5 hPa 0,0 mm 0,0 km/h (0 Bft) S 178 ° 0 min 0,000 mm 0,0 UV-I 0 W/m² -0,9 °C -0,2 °C 0,0 km/h (0 Bft)
29.04.2017 02:04 -0,2 °C -0,2 °C 95 % 1019,5 hPa 0,0 mm 0,0 km/h (0 Bft) S 178 ° 0 min 0,000 mm 0,0 UV-I 0 W/m² -0,9 °C -0,2 °C 0,0 km/h (0 Bft)
29.04.2017 02:05 -0,2 °C -0,2 °C 95 % 1019,5 hPa 0,0 mm 0,0 km/h (0 Bft) S 178 ° 0 min 0,000 mm 0,0 UV-I 0 W/m² -0,9 °C -0,2 °C 0,0 km/h (0 Bft)
29.04.2017 02:06 -0,2 °C -0,2 °C 95 % 1019,5 hPa 0,0 mm 0,0 km/h (0 Bft) S 178 ° 0 min 0,000 mm 0,0 UV-I 0 W/m² -0,9 °C -0,2 °C 0,0 km/h (0 Bft)
29.04.2017 02:07 -0,2 °C -0,2 °C 96 % 1019,4 hPa 0,0 mm 0,0 km/h (0 Bft) S 178 ° 0 min 0,000 mm 0,0 UV-I 0 W/m² -0,8 °C -0,2 °C 0,0 km/h (0 Bft)
29.04.2017 02:08 -0,1 °C -0,1 °C 96 % 1019,4 hPa 0,0 mm 0,0 km/h (0 Bft) S 178 ° 0 min 0,000 mm 0,0 UV-I 0 W/m² -0,7 °C -0,1 °C 0,0 km/h (0 Bft)
29.04.2017 02:09 -0,1 °C -0,1 °C 96 % 1019,5 hPa 0,0 mm 0,0 km/h (0 Bft) S 178 ° 0 min 0,000 mm 0,0 UV-I 0 W/m² -0,7 °C -0,1 °C 0,0 km/h (0 Bft)
29.04.2017 02:10 -0,1 °C -0,1 °C 96 % 1019,5 hPa 0,0 mm 0,0 km/h (0 Bft) S 178 ° 0 min 0,000 mm 0,0 UV-I 0 W/m² -0,7 °C -0,1 °C 0,0 km/h (0 Bft)
29.04.2017 02:11 -0,2 °C -0,1 °C 96 % 1019,4 hPa 0,0 mm 0,3 km/h (0 Bft) S 178 ° 0 min 0,000 mm 0,0 UV-I 0 W/m² -0,8 °C -0,2 °C 1,6 km/h (1 Bft)
29.04.2017 02:12 -0,2 °C -0,2 °C 95 % 1019,4 hPa 0,0 mm 0,3 km/h (0 Bft) S 178 ° 0 min 0,000 mm 0,0 UV-I 0 W/m² -0,9 °C -0,2 °C 1,6 km/h (1 Bft)
29.04.2017 02:13 -0,1 °C -0,1 °C 96 % 1019,5 hPa 0,0 mm 0,5 km/h (0 Bft) S 178 ° 0 min 0,000 mm 0,0 UV-I 0 W/m² -0,7 °C -0,1 °C 1,6 km/h (1 Bft)
29.04.2017 02:14 -0,1 °C -0,1 °C 96 % 1019,5 hPa 0,0 mm 0,0 km/h (0 Bft) S 178 ° 0 min 0,000 mm 0,0 UV-I 0 W/m² -0,7 °C -0,1 °C 0,0 km/h (0 Bft)
29.04.2017 02:15 -0,1 °C -0,1 °C 96 % 1019,4 hPa 0,0 mm 0,0 km/h (0 Bft) S 178 ° 0 min 0,000 mm 0,0 UV-I 0 W/m² -0,7 °C -0,1 °C 0,0 km/h (0 Bft)
29.04.2017 02:16 -0,1 °C -0,1 °C 96 % 1019,4 hPa 0,0 mm 0,1 km/h (0 Bft) S 178 ° 0 min 0,000 mm 0,0 UV-I 0 W/m² -0,7 °C -0,1 °C 1,6 km/h (1 Bft)
29.04.2017 02:17 -0,1 °C -0,1 °C 96 % 1019,4 hPa 0,0 mm 0,0 km/h (0 Bft) S 178 ° 0 min 0,000 mm 0,0 UV-I 0 W/m² -0,7 °C -0,1 °C 0,0 km/h (0 Bft)
29.04.2017 02:18 0,0 °C 0,0 °C 96 % 1019,4 hPa 0,0 mm 0,0 km/h (0 Bft) S 178 ° 0 min 0,000 mm 0,0 UV-I 0 W/m² -0,6 °C 0,0 °C 0,0 km/h (0 Bft)
29.04.2017 02:19 0,0 °C 0,0 °C 96 % 1019,4 hPa 0,0 mm 0,0 km/h (0 Bft) S 178 ° 0 min 0,000 mm 0,0 UV-I 0 W/m² -0,6 °C 0,0 °C 0,0 km/h (0 Bft)
29.04.2017 02:20 0,0 °C 0,0 °C 96 % 1019,4 hPa 0,0 mm 0,0 km/h (0 Bft) S 178 ° 0 min 0,000 mm 0,0 UV-I 0 W/m² -0,6 °C 0,0 °C 0,0 km/h (0 Bft)
29.04.2017 02:21 0,1 °C 0,1 °C 96 % 1019,4 hPa 0,0 mm 1,6 km/h (1 Bft) S-SW 196 ° 0 min 0,000 mm 0,0 UV-I 0 W/m² -0,5 °C 0,1 °C 4,8 km/h (1 Bft)
29.04.2017 02:22 0,1 °C 0,1 °C 96 % 1019,4 hPa 0,0 mm 2,1 km/h (1 Bft) S 177 ° 0 min 0,000 mm 0,0 UV-I 0 W/m² -0,5 °C 0,1 °C 4,8 km/h (1 Bft)
29.04.2017 02:23 0,1 °C 0,1 °C 96 % 1019,4 hPa 0,0 mm 2,9 km/h (1 Bft) S 177 ° 0 min 0,000 mm 0,0 UV-I 0 W/m² -0,5 °C 0,1 °C 3,2 km/h (1 Bft)
29.04.2017 02:24 0,1 °C 0,1 °C 96 % 1019,4 hPa 0,0 mm 0,9 km/h (0 Bft) S 177 ° 0 min 0,000 mm 0,0 UV-I 0 W/m² -0,5 °C 0,1 °C 3,2 km/h (1 Bft)
29.04.2017 02:25 0,1 °C 0,1 °C 96 % 1019,4 hPa 0,0 mm 0,0 km/h (0 Bft) S 177 ° 0 min 0,000 mm 0,0 UV-I 0 W/m² -0,5 °C 0,1 °C 0,0 km/h (0 Bft)
29.04.2017 02:26 0,1 °C 0,1 °C 96 % 1019,4 hPa 0,0 mm 0,0 km/h (0 Bft) S 177 ° 0 min 0,000 mm 0,0 UV-I 0 W/m² -0,5 °C 0,1 °C 0,0 km/h (0 Bft)
29.04.2017 02:27 0,1 °C 0,1 °C 96 % 1019,4 hPa 0,0 mm 0,7 km/h (0 Bft) S 177 ° 0 min 0,000 mm 0,0 UV-I 0 W/m² -0,5 °C 0,1 °C 3,2 km/h (1 Bft)
29.04.2017 02:28 0,1 °C 0,1 °C 96 % 1019,4 hPa 0,0 mm 2,1 km/h (1 Bft) S 177 ° 0 min 0,000 mm 0,0 UV-I 0 W/m² -0,5 °C 0,1 °C 3,2 km/h (1 Bft)
29.04.2017 02:29 0,2 °C 0,2 °C 96 % 1019,4 hPa 0,0 mm 0,9 km/h (0 Bft) S 177 ° 0 min 0,000 mm 0,0 UV-I 0 W/m² -0,4 °C 0,2 °C 3,2 km/h (1 Bft)
29.04.2017 02:30 0,2 °C 0,2 °C 96 % 1019,4 hPa 0,0 mm 0,1 km/h (0 Bft) S 177 ° 0 min 0,000 mm 0,0 UV-I 0 W/m² -0,4 °C 0,2 °C 3,2 km/h (1 Bft)
29.04.2017 02:31 0,1 °C 0,2 °C 96 % 1019,4 hPa 0,0 mm 1,7 km/h (1 Bft) S-SW 200 ° 0 min 0,000 mm 0,0 UV-I 0 W/m² -0,5 °C 0,1 °C 3,2 km/h (1 Bft)
29.04.2017 02:32 0,1 °C 0,1 °C 96 % 1019,4 hPa 0,0 mm 0,0 km/h (0 Bft) S-SW 200 ° 0 min 0,000 mm 0,0 UV-I 0 W/m² -0,5 °C 0,1 °C 0,0 km/h (0 Bft)
29.04.2017 02:33 0,1 °C 0,1 °C 96 % 1019,5 hPa 0,0 mm 1,7 km/h (1 Bft) NW 323 ° 0 min 0,000 mm 0,0 UV-I 0 W/m² -0,5 °C 0,1 °C 4,8 km/h (1 Bft)
29.04.2017 02:34 0,1 °C 0,1 °C 96 % 1019,5 hPa 0,0 mm 1,3 km/h (1 Bft) SW 222 ° 0 min 0,000 mm 0,0 UV-I 0 W/m² -0,5 °C 0,1 °C 3,2 km/h (1 Bft)
29.04.2017 02:35 0,2 °C 0,2 °C 96 % 1019,4 hPa 0,0 mm 1,6 km/h (1 Bft) SW 222 ° 0 min 0,000 mm 0,0 UV-I 0 W/m² -0,4 °C 0,2 °C 1,6 km/h (1 Bft)
29.04.2017 02:36 0,2 °C 0,2 °C 96 % 1019,4 hPa 0,0 mm 1,1 km/h (1 Bft) SW 222 ° 0 min 0,000 mm 0,0 UV-I 0 W/m² -0,4 °C 0,2 °C 1,6 km/h (1 Bft)
29.04.2017 02:37 0,3 °C 0,3 °C 96 % 1019,4 hPa 0,0 mm 1,7 km/h (1 Bft) SW 216 ° 0 min 0,000 mm 0,0 UV-I 0 W/m² -0,3 °C 0,3 °C 3,2 km/h (1 Bft)
29.04.2017 02:38 0,3 °C 0,3 °C 96 % 1019,4 hPa 0,0 mm 0,9 km/h (0 Bft) SW 216 ° 0 min 0,000 mm 0,0 UV-I 0 W/m² -0,3 °C 0,3 °C 3,2 km/h (1 Bft)
29.04.2017 02:39 0,3 °C 0,3 °C 96 % 1019,4 hPa 0,0 mm 0,0 km/h (0 Bft) SW 216 ° 0 min 0,000 mm 0,0 UV-I 0 W/m² -0,3 °C 0,3 °C 0,0 km/h (0 Bft)
29.04.2017 02:40 0,3 °C 0,3 °C 96 % 1019,5 hPa 0,0 mm 0,0 km/h (0 Bft) SW 216 ° 0 min 0,000 mm 0,0 UV-I 0 W/m² -0,3 °C 0,3 °C 0,0 km/h (0 Bft)
29.04.2017 02:41 0,3 °C 0,3 °C 96 % 1019,4 hPa 0,0 mm 0,0 km/h (0 Bft) SW 216 ° 0 min 0,000 mm 0,0 UV-I 0 W/m² -0,3 °C 0,3 °C 0,0 km/h (0 Bft)
29.04.2017 02:42 0,3 °C 0,3 °C 96 % 1019,4 hPa 0,0 mm 0,0 km/h (0 Bft) SW 216 ° 0 min 0,000 mm 0,0 UV-I 0 W/m² -0,3 °C 0,3 °C 0,0 km/h (0 Bft)
29.04.2017 02:43 0,3 °C 0,3 °C 96 % 1019,4 hPa 0,0 mm 0,0 km/h (0 Bft) SW 216 ° 0 min 0,000 mm 0,0 UV-I 0 W/m² -0,3 °C 0,3 °C 0,0 km/h (0 Bft)
29.04.2017 02:44 0,3 °C 0,3 °C 96 % 1019,4 hPa 0,0 mm 0,0 km/h (0 Bft) SW 216 ° 0 min 0,000 mm 0,0 UV-I 0 W/m² -0,3 °C 0,3 °C 0,0 km/h (0 Bft)
29.04.2017 02:45 0,2 °C 0,3 °C 96 % 1019,5 hPa 0,0 mm 0,0 km/h (0 Bft) SW 216 ° 0 min 0,000 mm 0,0 UV-I 0 W/m² -0,4 °C 0,2 °C 0,0 km/h (0 Bft)
29.04.2017 02:46 0,2 °C 0,2 °C 96 % 1019,5 hPa 0,0 mm 0,0 km/h (0 Bft) SW 216 ° 0 min 0,000 mm 0,0 UV-I 0 W/m² -0,4 °C 0,2 °C 0,0 km/h (0 Bft)
29.04.2017 02:47 0,2 °C 0,2 °C 96 % 1019,4 hPa 0,0 mm 0,0 km/h (0 Bft) SW 216 ° 0 min 0,000 mm 0,0 UV-I 0 W/m² -0,4 °C 0,2 °C 0,0 km/h (0 Bft)
29.04.2017 02:48 0,3 °C 0,3 °C 96 % 1019,4 hPa 0,0 mm 0,0 km/h (0 Bft) SW 216 ° 0 min 0,000 mm 0,0 UV-I 0 W/m² -0,3 °C 0,3 °C 0,0 km/h (0 Bft)
29.04.2017 02:49 0,2 °C 0,3 °C 96 % 1019,5 hPa 0,0 mm 0,0 km/h (0 Bft) SW 216 ° 0 min 0,000 mm 0,0 UV-I 0 W/m² -0,4 °C 0,2 °C 0,0 km/h (0 Bft)
29.04.2017 02:50 0,2 °C 0,2 °C 96 % 1019,4 hPa 0,0 mm 0,0 km/h (0 Bft) SW 216 ° 0 min 0,000 mm 0,0 UV-I 0 W/m² -0,4 °C 0,2 °C 0,0 km/h (0 Bft)
29.04.2017 02:51 0,3 °C 0,3 °C 96 % 1019,5 hPa 0,0 mm 0,0 km/h (0 Bft) SW 216 ° 0 min 0,000 mm 0,0 UV-I 0 W/m² -0,3 °C 0,3 °C 0,0 km/h (0 Bft)
29.04.2017 02:52 0,2 °C 0,3 °C 96 % 1019,5 hPa 0,0 mm 0,0 km/h (0 Bft) SW 216 ° 0 min 0,000 mm 0,0 UV-I 0 W/m² -0,4 °C 0,2 °C 0,0 km/h (0 Bft)
29.04.2017 02:53 0,2 °C 0,3 °C 96 % 1019,5 hPa 0,0 mm 0,0 km/h (0 Bft) SW 216 ° 0 min 0,000 mm 0,0 UV-I 0 W/m² -0,4 °C 0,2 °C 0,0 km/h (0 Bft)
29.04.2017 02:54 0,2 °C 0,3 °C 96 % 1019,5 hPa 0,0 mm 0,0 km/h (0 Bft) SW 216 ° 0 min 0,000 mm 0,0 UV-I 0 W/m² -0,4 °C 0,2 °C 0,0 km/h (0 Bft)
29.04.2017 02:55 0,2 °C 0,2 °C 96 % 1019,5 hPa 0,0 mm 0,0 km/h (0 Bft) SW 216 ° 0 min 0,000 mm 0,0 UV-I 0 W/m² -0,4 °C 0,2 °C 0,0 km/h (0 Bft)
29.04.2017 02:56 0,2 °C 0,2 °C 96 % 1019,5 hPa 0,0 mm 0,0 km/h (0 Bft) SW 216 ° 0 min 0,000 mm 0,0 UV-I 0 W/m² -0,4 °C 0,2 °C 0,0 km/h (0 Bft)
29.04.2017 02:57 0,2 °C 0,2 °C 96 % 1019,5 hPa 0,0 mm 0,0 km/h (0 Bft) SW 216 ° 0 min 0,000 mm 0,0 UV-I 0 W/m² -0,4 °C 0,2 °C 0,0 km/h (0 Bft)
29.04.2017 02:58 0,2 °C 0,2 °C 96 % 1019,5 hPa 0,0 mm 0,0 km/h (0 Bft) SW 216 ° 0 min 0,000 mm 0,0 UV-I 0 W/m² -0,4 °C 0,2 °C 0,0 km/h (0 Bft)
29.04.2017 02:59 0,3 °C 0,3 °C 96 % 1019,5 hPa 0,0 mm 0,0 km/h (0 Bft) SW 216 ° 0 min 0,000 mm 0,0 UV-I 0 W/m² -0,3 °C 0,3 °C 0,0 km/h (0 Bft)
29.04.2017 03:00 0,2 °C 0,3 °C 96 % 1019,5 hPa 0,0 mm 0,0 km/h (0 Bft) SW 216 ° 0 min 0,000 mm 0,0 UV-I 0 W/m² -0,4 °C 0,2 °C 0,0 km/h (0 Bft)
29.04.2017 03:01 0,2 °C 0,2 °C 96 % 1019,6 hPa 0,0 mm 0,0 km/h (0 Bft) SW 216 ° 0 min 0,000 mm 0,0 UV-I 0 W/m² -0,4 °C 0,2 °C 0,0 km/h (0 Bft)
29.04.2017 03:02 0,2 °C 0,2 °C 96 % 1019,6 hPa 0,0 mm 0,0 km/h (0 Bft) SW 216 ° 0 min 0,000 mm 0,0 UV-I 0 W/m² -0,4 °C 0,2 °C 0,0 km/h (0 Bft)
29.04.2017 03:04 0,2 °C 0,2 °C 96 % 1019,6 hPa 0,0 mm 0,0 km/h (0 Bft) SW 216 ° 0 min 0,000 mm 0,0 UV-I 0 W/m² -0,4 °C 0,2 °C 0,0 km/h (0 Bft)
29.04.2017 03:05 0,2 °C 0,2 °C 96 % 1019,6 hPa 0,0 mm 0,0 km/h (0 Bft) SW 216 ° 0 min 0,000 mm 0,0 UV-I 0 W/m² -0,4 °C 0,2 °C 0,0 km/h (0 Bft)
29.04.2017 03:06 0,2 °C 0,2 °C 96 % 1019,6 hPa 0,0 mm 0,0 km/h (0 Bft) SW 216 ° 0 min 0,000 mm 0,0 UV-I 0 W/m² -0,4 °C 0,2 °C 0,0 km/h (0 Bft)
29.04.2017 03:07 0,1 °C 0,2 °C 96 % 1019,6 hPa 0,0 mm 0,0 km/h (0 Bft) SW 216 ° 0 min 0,000 mm 0,0 UV-I 0 W/m² -0,5 °C 0,1 °C 0,0 km/h (0 Bft)
29.04.2017 03:08 0,1 °C 0,1 °C 96 % 1019,6 hPa 0,0 mm 0,0 km/h (0 Bft) SW 216 ° 0 min 0,000 mm 0,0 UV-I 0 W/m² -0,5 °C 0,1 °C 0,0 km/h (0 Bft)
29.04.2017 03:09 0,1 °C 0,1 °C 96 % 1019,6 hPa 0,0 mm 0,0 km/h (0 Bft) SW 216 ° 0 min 0,000 mm 0,0 UV-I 0 W/m² -0,5 °C 0,1 °C 0,0 km/h (0 Bft)
29.04.2017 03:10 0,0 °C 0,1 °C 96 % 1019,6 hPa 0,0 mm 0,0 km/h (0 Bft) SW 216 ° 0 min 0,000 mm 0,0 UV-I 0 W/m² -0,6 °C 0,0 °C 0,0 km/h (0 Bft)
29.04.2017 03:11 -0,1 °C 0,0 °C 96 % 1019,6 hPa 0,0 mm 0,0 km/h (0 Bft) SW 216 ° 0 min 0,000 mm 0,0 UV-I 0 W/m² -0,7 °C -0,1 °C 0,0 km/h (0 Bft)
29.04.2017 03:12 -0,1 °C -0,1 °C 96 % 1019,7 hPa 0,0 mm 0,0 km/h (0 Bft) SW 216 ° 0 min 0,000 mm 0,0 UV-I 0 W/m² -0,7 °C -0,1 °C 0,0 km/h (0 Bft)
29.04.2017 03:13 -0,1 °C -0,1 °C 96 % 1019,6 hPa 0,0 mm 0,0 km/h (0 Bft) SW 216 ° 0 min 0,000 mm 0,0 UV-I 0 W/m² -0,7 °C -0,1 °C 0,0 km/h (0 Bft)
29.04.2017 03:14 -0,1 °C -0,1 °C 96 % 1019,6 hPa 0,0 mm 0,1 km/h (0 Bft) SW 216 ° 0 min 0,000 mm 0,0 UV-I 0 W/m² -0,7 °C -0,1 °C 1,6 km/h (1 Bft)
29.04.2017 03:15 -0,1 °C -0,1 °C 96 % 1019,6 hPa 0,0 mm 0,5 km/h (0 Bft) SW 216 ° 0 min 0,000 mm 0,0 UV-I 0 W/m² -0,7 °C -0,1 °C 1,6 km/h (1 Bft)
29.04.2017 03:16 -0,1 °C -0,1 °C 96 % 1019,6 hPa 0,0 mm 2,5 km/h (1 Bft) SW 217 ° 0 min 0,000 mm 0,0 UV-I 0 W/m² -0,7 °C -0,1 °C 3,2 km/h (1 Bft)
29.04.2017 03:17 -0,1 °C -0,1 °C 96 % 1019,6 hPa 0,0 mm 1,0 km/h (0 Bft) SW 217 ° 0 min 0,000 mm 0,0 UV-I 0 W/m² -0,7 °C -0,1 °C 3,2 km/h (1 Bft)
29.04.2017 03:18 -0,1 °C -0,1 °C 96 % 1019,6 hPa 0,0 mm 0,7 km/h (0 Bft) W-SW 257 ° 0 min 0,000 mm 0,0 UV-I 0 W/m² -0,7 °C -0,1 °C 4,8 km/h (1 Bft)
29.04.2017 03:19 0,0 °C 0,0 °C 96 % 1019,6 hPa 0,0 mm 4,2 km/h (1 Bft) W 270 ° 0 min 0,000 mm 0,0 UV-I 0 W/m² -0,6 °C 0,0 °C 6,4 km/h (2 Bft)
29.04.2017 03:20 -0,1 °C 0,0 °C 96 % 1019,6 hPa 0,0 mm 3,8 km/h (1 Bft) W 270 ° 0 min 0,000 mm 0,0 UV-I 0 W/m² -0,7 °C -0,1 °C 4,8 km/h (1 Bft)
29.04.2017 03:21 -0,1 °C -0,1 °C 96 % 1019,6 hPa 0,0 mm 3,0 km/h (1 Bft) W 269 ° 0 min 0,000 mm 0,0 UV-I 0 W/m² -0,7 °C -0,1 °C 4,8 km/h (1 Bft)
29.04.2017 03:22 -0,1 °C -0,1 °C 96 % 1019,6 hPa 0,0 mm 1,4 km/h (1 Bft) W 269 ° 0 min 0,000 mm 0,0 UV-I 0 W/m² -0,7 °C -0,1 °C 3,2 km/h (1 Bft)
29.04.2017 03:23 -0,2 °C -0,1 °C 96 % 1019,7 hPa 0,0 mm 2,3 km/h (1 Bft) W 269 ° 0 min 0,000 mm 0,0 UV-I 0 W/m² -0,8 °C -0,2 °C 3,2 km/h (1 Bft)
29.04.2017 03:24 -0,2 °C -0,1 °C 96 % 1019,6 hPa 0,0 mm 3,1 km/h (1 Bft) SW 219 ° 0 min 0,000 mm 0,0 UV-I 0 W/m² -0,8 °C -0,2 °C 4,8 km/h (1 Bft)
29.04.2017 03:25 -0,2 °C -0,2 °C 96 % 1019,6 hPa 0,0 mm 3,0 km/h (1 Bft) SW 219 ° 0 min 0,000 mm 0,0 UV-I 0 W/m² -0,8 °C -0,2 °C 4,8 km/h (1 Bft)
29.04.2017 03:26 -0,2 °C -0,2 °C 96 % 1019,7 hPa 0,0 mm 3,2 km/h (1 Bft) SW 218 ° 0 min 0,000 mm 0,0 UV-I 0 W/m² -0,8 °C -0,2 °C 4,8 km/h (1 Bft)
29.04.2017 03:27 -0,2 °C -0,2 °C 96 % 1019,7 hPa 0,0 mm 4,3 km/h (1 Bft) S-SW 202 ° 0 min 0,000 mm 0,0 UV-I 0 W/m² -0,8 °C -0,2 °C 4,8 km/h (1 Bft)
29.04.2017 03:28 -0,2 °C -0,2 °C 96 % 1019,6 hPa 0,0 mm 3,6 km/h (1 Bft) S-SW 210 ° 0 min 0,000 mm 0,0 UV-I 0 W/m² -0,8 °C -0,2 °C 6,4 km/h (2 Bft)
29.04.2017 03:29 -0,2 °C -0,1 °C 96 % 1019,6 hPa 0,0 mm 1,2 km/h (1 Bft) S-SW 210 ° 0 min 0,000 mm 0,0 UV-I 0 W/m² -0,8 °C -0,2 °C 3,2 km/h (1 Bft)
29.04.2017 03:30 -0,2 °C -0,2 °C 96 % 1019,6 hPa 0,0 mm 0,9 km/h (0 Bft) S-SW 210 ° 0 min 0,000 mm 0,0 UV-I 0 W/m² -0,8 °C -0,2 °C 1,6 km/h (1 Bft)
29.04.2017 03:31 -0,3 °C -0,2 °C 96 % 1019,6 hPa 0,0 mm 2,0 km/h (1 Bft) S-SW 210 ° 0 min 0,000 mm 0,0 UV-I 0 W/m² -0,9 °C -0,3 °C 4,8 km/h (1 Bft)
29.04.2017 03:32 -0,3 °C -0,3 °C 96 % 1019,6 hPa 0,0 mm 2,9 km/h (1 Bft) S-SW 210 ° 0 min 0,000 mm 0,0 UV-I 0 W/m² -0,9 °C -0,3 °C 4,8 km/h (1 Bft)
29.04.2017 03:33 -0,3 °C -0,3 °C 96 % 1019,6 hPa 0,0 mm 0,5 km/h (0 Bft) S-SW 210 ° 0 min 0,000 mm 0,0 UV-I 0 W/m² -0,9 °C -0,3 °C 1,6 km/h (1 Bft)
29.04.2017 03:34 -0,3 °C -0,3 °C 96 % 1019,6 hPa 0,0 mm 0,0 km/h (0 Bft) S-SW 210 ° 0 min 0,000 mm 0,0 UV-I 0 W/m² -0,9 °C -0,3 °C 0,0 km/h (0 Bft)
29.04.2017 03:35 -0,4 °C -0,3 °C 96 % 1019,6 hPa 0,0 mm 0,0 km/h (0 Bft) S-SW 210 ° 0 min 0,000 mm 0,0 UV-I 0 W/m² -1,0 °C -0,4 °C 0,0 km/h (0 Bft)
29.04.2017 03:36 -0,4 °C -0,3 °C 96 % 1019,6 hPa 0,0 mm 0,2 km/h (0 Bft) S-SW 210 ° 0 min 0,000 mm 0,0 UV-I 0 W/m² -1,0 °C -0,4 °C 1,6 km/h (1 Bft)
29.04.2017 03:37 -0,5 °C -0,4 °C 96 % 1019,6 hPa 0,0 mm 0,8 km/h (0 Bft) S-SW 210 ° 0 min 0,000 mm 0,0 UV-I 0 W/m² -1,1 °C -0,5 °C 1,6 km/h (1 Bft)
29.04.2017 03:38 -0,5 °C -0,5 °C 95 % 1019,6 hPa 0,0 mm 1,0 km/h (0 Bft) S-SW 210 ° 0 min 0,000 mm 0,0 UV-I 0 W/m² -1,2 °C -0,5 °C 3,2 km/h (1 Bft)
29.04.2017 03:39 -0,6 °C -0,5 °C 95 % 1019,6 hPa 0,0 mm 3,2 km/h (1 Bft) S-SW 210 ° 0 min 0,000 mm 0,0 UV-I 0 W/m² -1,3 °C -0,6 °C 4,8 km/h (1 Bft)
29.04.2017 03:40 -0,6 °C -0,6 °C 96 % 1019,7 hPa 0,0 mm 2,3 km/h (1 Bft) S-SW 210 ° 0 min 0,000 mm 0,0 UV-I 0 W/m² -1,2 °C -0,6 °C 4,8 km/h (1 Bft)
29.04.2017 03:41 -0,6 °C -0,6 °C 96 % 1019,6 hPa 0,0 mm 2,5 km/h (1 Bft) S-SW 210 ° 0 min 0,000 mm 0,0 UV-I 0 W/m² -1,2 °C -0,6 °C 3,2 km/h (1 Bft)
29.04.2017 03:42 -0,6 °C -0,6 °C 96 % 1019,6 hPa 0,0 mm 1,9 km/h (1 Bft) S-SW 210 ° 0 min 0,000 mm 0,0 UV-I 0 W/m² -1,2 °C -0,6 °C 3,2 km/h (1 Bft)
29.04.2017 03:43 -0,6 °C -0,6 °C 96 % 1019,7 hPa 0,0 mm 2,4 km/h (1 Bft) S-SW 210 ° 0 min 0,000 mm 0,0 UV-I 0 W/m² -1,2 °C -0,6 °C 4,8 km/h (1 Bft)
29.04.2017 03:44 -0,6 °C -0,6 °C 96 % 1019,7 hPa 0,0 mm 3,0 km/h (1 Bft) S-SW 210 ° 0 min 0,000 mm 0,0 UV-I 0 W/m² -1,2 °C -0,6 °C 4,8 km/h (1 Bft)
29.04.2017 03:45 -0,6 °C -0,6 °C 96 % 1019,7 hPa 0,0 mm 2,6 km/h (1 Bft) S-SW 210 ° 0 min 0,000 mm 0,0 UV-I 0 W/m² -1,2 °C -0,6 °C 4,8 km/h (1 Bft)
29.04.2017 03:46 -0,6 °C -0,6 °C 96 % 1019,7 hPa 0,0 mm 2,7 km/h (1 Bft) S-SW 210 ° 0 min 0,000 mm 0,0 UV-I 0 W/m² -1,2 °C -0,6 °C 4,8 km/h (1 Bft)
29.04.2017 03:47 -0,5 °C -0,5 °C 96 % 1019,7 hPa 0,0 mm 3,5 km/h (1 Bft) S-SW 210 ° 0 min 0,000 mm 0,0 UV-I 0 W/m² -1,1 °C -0,5 °C 4,8 km/h (1 Bft)
29.04.2017 03:48 -0,6 °C -0,5 °C 96 % 1019,7 hPa 0,0 mm 3,4 km/h (1 Bft) S-SW 210 ° 0 min 0,000 mm 0,0 UV-I 0 W/m² -1,2 °C -0,6 °C 6,4 km/h (2 Bft)
29.04.2017 03:49 -0,7 °C -0,6 °C 96 % 1019,7 hPa 0,0 mm 3,8 km/h (1 Bft) S-SW 210 ° 0 min 0,000 mm 0,0 UV-I 0 W/m² -1,3 °C -0,7 °C 4,8 km/h (1 Bft)
29.04.2017 03:50 -0,8 °C -0,7 °C 95 % 1019,7 hPa 0,0 mm 2,8 km/h (1 Bft) S-SW 210 ° 0 min 0,000 mm 0,0 UV-I 0 W/m² -1,5 °C -0,8 °C 4,8 km/h (1 Bft)
29.04.2017 03:51 -0,8 °C -0,8 °C 95 % 1019,7 hPa 0,0 mm 2,2 km/h (1 Bft) S-SW 210 ° 0 min 0,000 mm 0,0 UV-I 0 W/m² -1,5 °C -0,8 °C 3,2 km/h (1 Bft)
29.04.2017 03:52 -0,9 °C -0,8 °C 95 % 1019,7 hPa 0,0 mm 1,8 km/h (1 Bft) S-SW 210 ° 0 min 0,000 mm 0,0 UV-I 0 W/m² -1,6 °C -0,9 °C 3,2 km/h (1 Bft)
29.04.2017 03:53 -0,8 °C -0,8 °C 95 % 1019,7 hPa 0,0 mm 0,0 km/h (0 Bft) S-SW 210 ° 0 min 0,000 mm 0,0 UV-I 0 W/m² -1,5 °C -0,8 °C 0,0 km/h (0 Bft)
29.04.2017 03:54 -0,9 °C -0,8 °C 95 % 1019,7 hPa 0,0 mm 0,0 km/h (0 Bft) S-SW 210 ° 0 min 0,000 mm 0,0 UV-I 0 W/m² -1,6 °C -0,9 °C 0,0 km/h (0 Bft)
29.04.2017 03:55 -0,9 °C -0,9 °C 95 % 1019,7 hPa 0,0 mm 0,0 km/h (0 Bft) S-SW 210 ° 0 min 0,000 mm 0,0 UV-I 0 W/m² -1,6 °C -0,9 °C 0,0 km/h (0 Bft)
29.04.2017 03:56 -0,9 °C -0,9 °C 95 % 1019,7 hPa 0,0 mm 0,2 km/h (0 Bft) S-SW 210 ° 0 min 0,000 mm 0,0 UV-I 0 W/m² -1,6 °C -0,9 °C 1,6 km/h (1 Bft)
29.04.2017 03:57 -0,8 °C -0,8 °C 95 % 1019,7 hPa 0,0 mm 0,0 km/h (0 Bft) S-SW 210 ° 0 min 0,000 mm 0,0 UV-I 0 W/m² -1,5 °C -0,8 °C 0,0 km/h (0 Bft)
29.04.2017 03:58 -0,7 °C -0,7 °C 96 % 1019,7 hPa 0,0 mm 0,0 km/h (0 Bft) S-SW 210 ° 0 min 0,000 mm 0,0 UV-I 0 W/m² -1,3 °C -0,7 °C 0,0 km/h (0 Bft)
29.04.2017 03:59 -0,7 °C -0,7 °C 96 % 1019,7 hPa 0,0 mm 0,0 km/h (0 Bft) S-SW 210 ° 0 min 0,000 mm 0,0 UV-I 0 W/m² -1,3 °C -0,7 °C 0,0 km/h (0 Bft)
29.04.2017 04:00 -0,7 °C -0,7 °C 96 % 1019,7 hPa 0,0 mm 0,0 km/h (0 Bft) S-SW 210 ° 0 min 0,000 mm 0,0 UV-I 0 W/m² -1,3 °C -0,7 °C 0,0 km/h (0 Bft)
29.04.2017 04:01 -0,7 °C -0,7 °C 96 % 1019,7 hPa 0,0 mm 0,0 km/h (0 Bft) S-SW 210 ° 0 min 0,000 mm 0,0 UV-I 0 W/m² -1,3 °C -0,7 °C 0,0 km/h (0 Bft)
29.04.2017 04:02 -0,8 °C -0,7 °C 96 % 1019,7 hPa 0,0 mm 0,0 km/h (0 Bft) S-SW 210 ° 0 min 0,000 mm 0,0 UV-I 0 W/m² -1,4 °C -0,8 °C 0,0 km/h (0 Bft)
29.04.2017 04:03 -0,8 °C -0,7 °C 96 % 1019,7 hPa 0,0 mm 0,0 km/h (0 Bft) S-SW 210 ° 0 min 0,000 mm 0,0 UV-I 0 W/m² -1,4 °C -0,8 °C 0,0 km/h (0 Bft)
29.04.2017 04:04 -0,7 °C -0,7 °C 96 % 1019,7 hPa 0,0 mm 0,0 km/h (0 Bft) S-SW 210 ° 0 min 0,000 mm 0,0 UV-I 0 W/m² -1,3 °C -0,7 °C 0,0 km/h (0 Bft)
29.04.2017 04:05 -0,7 °C -0,7 °C 96 % 1019,7 hPa 0,0 mm 0,0 km/h (0 Bft) S-SW 210 ° 0 min 0,000 mm 0,0 UV-I 0 W/m² -1,3 °C -0,7 °C 0,0 km/h (0 Bft)
29.04.2017 04:06 -0,7 °C -0,7 °C 96 % 1019,7 hPa 0,0 mm 0,0 km/h (0 Bft) S-SW 210 ° 0 min 0,000 mm 0,0 UV-I 0 W/m² -1,3 °C -0,7 °C 0,0 km/h (0 Bft)
29.04.2017 04:07 -0,7 °C -0,7 °C 96 % 1019,6 hPa 0,0 mm 0,0 km/h (0 Bft) S-SW 210 ° 0 min 0,000 mm 0,0 UV-I 0 W/m² -1,3 °C -0,7 °C 0,0 km/h (0 Bft)
29.04.2017 04:08 -0,8 °C -0,7 °C 96 % 1019,7 hPa 0,0 mm 0,0 km/h (0 Bft) S-SW 210 ° 0 min 0,000 mm 0,0 UV-I 0 W/m² -1,4 °C -0,8 °C 0,0 km/h (0 Bft)
29.04.2017 04:09 -0,8 °C -0,8 °C 95 % 1019,7 hPa 0,0 mm 0,0 km/h (0 Bft) S-SW 210 ° 0 min 0,000 mm 0,0 UV-I 0 W/m² -1,5 °C -0,8 °C 0,0 km/h (0 Bft)
29.04.2017 04:10 -0,9 °C -0,8 °C 95 % 1019,7 hPa 0,0 mm 0,0 km/h (0 Bft) S-SW 210 ° 0 min 0,000 mm 0,0 UV-I 0 W/m² -1,6 °C -0,9 °C 0,0 km/h (0 Bft)
29.04.2017 04:11 -0,9 °C -0,9 °C 95 % 1019,7 hPa 0,0 mm 0,0 km/h (0 Bft) S-SW 210 ° 0 min 0,000 mm 0,0 UV-I 0 W/m² -1,6 °C -0,9 °C 0,0 km/h (0 Bft)
29.04.2017 04:12 -0,9 °C -0,9 °C 96 % 1019,7 hPa 0,0 mm 0,0 km/h (0 Bft) S-SW 210 ° 0 min 0,000 mm 0,0 UV-I 0 W/m² -1,5 °C -0,9 °C 0,0 km/h (0 Bft)
29.04.2017 04:13 -0,9 °C -0,9 °C 96 % 1019,7 hPa 0,0 mm 0,0 km/h (0 Bft) S-SW 210 ° 0 min 0,000 mm 0,0 UV-I 0 W/m² -1,5 °C -0,9 °C 0,0 km/h (0 Bft)
29.04.2017 04:14 -0,9 °C -0,9 °C 96 % 1019,7 hPa 0,0 mm 0,0 km/h (0 Bft) S-SW 210 ° 0 min 0,000 mm 0,0 UV-I 0 W/m² -1,5 °C -0,9 °C 0,0 km/h (0 Bft)
29.04.2017 04:15 -0,9 °C -0,9 °C 96 % 1019,7 hPa 0,0 mm 0,0 km/h (0 Bft) S-SW 210 ° 0 min 0,000 mm 0,0 UV-I 0 W/m² -1,5 °C -0,9 °C 0,0 km/h (0 Bft)
29.04.2017 04:16 -1,0 °C -0,9 °C 95 % 1019,7 hPa 0,0 mm 0,5 km/h (0 Bft) S-SW 210 ° 0 min 0,000 mm 0,0 UV-I 0 W/m² -1,7 °C -1,0 °C 1,6 km/h (1 Bft)
29.04.2017 04:17 -1,0 °C -1,0 °C 96 % 1019,7 hPa 0,0 mm 2,0 km/h (1 Bft) S-SW 210 ° 0 min 0,000 mm 0,0 UV-I 0 W/m² -1,6 °C -1,0 °C 3,2 km/h (1 Bft)
29.04.2017 04:18 -0,9 °C -0,9 °C 95 % 1019,7 hPa 0,0 mm 3,2 km/h (1 Bft) S 187 ° 0 min 0,000 mm 0,0 UV-I 0 W/m² -1,6 °C -0,9 °C 4,8 km/h (1 Bft)
29.04.2017 04:19 -0,8 °C -0,8 °C 96 % 1019,7 hPa 0,0 mm 2,9 km/h (1 Bft) S 186 ° 0 min 0,000 mm 0,0 UV-I 0 W/m² -1,4 °C -0,8 °C 4,8 km/h (1 Bft)
29.04.2017 04:20 -0,7 °C -0,7 °C 96 % 1019,7 hPa 0,0 mm 0,9 km/h (0 Bft) S 187 ° 0 min 0,000 mm 0,0 UV-I 0 W/m² -1,3 °C -0,7 °C 1,6 km/h (1 Bft)
29.04.2017 04:21 -0,7 °C -0,7 °C 96 % 1019,7 hPa 0,0 mm 0,0 km/h (0 Bft) S 186 ° 0 min 0,000 mm 0,0 UV-I 0 W/m² -1,3 °C -0,7 °C 0,0 km/h (0 Bft)
29.04.2017 04:22 -0,7 °C -0,7 °C 96 % 1019,7 hPa 0,0 mm 0,0 km/h (0 Bft) S 187 ° 0 min 0,000 mm 0,0 UV-I 0 W/m² -1,3 °C -0,7 °C 0,0 km/h (0 Bft)
29.04.2017 04:23 -0,7 °C -0,7 °C 96 % 1019,7 hPa 0,0 mm 0,0 km/h (0 Bft) S 187 ° 0 min 0,000 mm 0,0 UV-I 0 W/m² -1,3 °C -0,7 °C 0,0 km/h (0 Bft)
29.04.2017 04:24 -0,7 °C -0,7 °C 96 % 1019,7 hPa 0,0 mm 0,0 km/h (0 Bft) S 187 ° 0 min 0,000 mm 0,0 UV-I 0 W/m² -1,3 °C -0,7 °C 0,0 km/h (0 Bft)
29.04.2017 04:25 -0,7 °C -0,7 °C 96 % 1019,7 hPa 0,0 mm 0,0 km/h (0 Bft) S 187 ° 0 min 0,000 mm 0,0 UV-I 0 W/m² -1,3 °C -0,7 °C 0,0 km/h (0 Bft)
29.04.2017 04:26 -0,7 °C -0,7 °C 96 % 1019,7 hPa 0,0 mm 0,0 km/h (0 Bft) S 186 ° 0 min 0,000 mm 0,0 UV-I 0 W/m² -1,3 °C -0,7 °C 0,0 km/h (0 Bft)
29.04.2017 04:27 -0,8 °C -0,7 °C 96 % 1019,8 hPa 0,0 mm 0,0 km/h (0 Bft) S 186 ° 0 min 0,000 mm 0,0 UV-I 0 W/m² -1,4 °C -0,8 °C 0,0 km/h (0 Bft)
29.04.2017 04:28 -0,8 °C -0,8 °C 96 % 1019,8 hPa 0,0 mm 0,0 km/h (0 Bft) S 186 ° 0 min 0,000 mm 0,0 UV-I 0 W/m² -1,4 °C -0,8 °C 0,0 km/h (0 Bft)
29.04.2017 04:29 -0,8 °C -0,8 °C 96 % 1019,8 hPa 0,0 mm 0,0 km/h (0 Bft) S 187 ° 0 min 0,000 mm 0,0 UV-I 0 W/m² -1,4 °C -0,8 °C 0,0 km/h (0 Bft)
29.04.2017 04:30 -0,8 °C -0,8 °C 95 % 1019,7 hPa 0,0 mm 0,0 km/h (0 Bft) S 186 ° 0 min 0,000 mm 0,0 UV-I 0 W/m² -1,5 °C -0,8 °C 0,0 km/h (0 Bft)
29.04.2017 04:31 -0,9 °C -0,8 °C 95 % 1019,8 hPa 0,0 mm 0,0 km/h (0 Bft) S 187 ° 0 min 0,000 mm 0,0 UV-I 0 W/m² -1,6 °C -0,9 °C 0,0 km/h (0 Bft)
29.04.2017 04:32 -0,9 °C -0,9 °C 95 % 1019,9 hPa 0,0 mm 0,0 km/h (0 Bft) S 187 ° 0 min 0,000 mm 0,0 UV-I 0 W/m² -1,6 °C -0,9 °C 0,0 km/h (0 Bft)
29.04.2017 04:33 -0,9 °C -0,9 °C 96 % 1019,9 hPa 0,0 mm 0,0 km/h (0 Bft) S 187 ° 0 min 0,000 mm 0,0 UV-I 0 W/m² -1,5 °C -0,9 °C 0,0 km/h (0 Bft)
29.04.2017 04:34 -0,9 °C -0,8 °C 96 % 1019,8 hPa 0,0 mm 0,0 km/h (0 Bft) S 187 ° 0 min 0,000 mm 0,0 UV-I 0 W/m² -1,5 °C -0,9 °C 0,0 km/h (0 Bft)
29.04.2017 04:35 -0,9 °C -0,9 °C 96 % 1019,9 hPa 0,0 mm 0,0 km/h (0 Bft) S 186 ° 0 min 0,000 mm 0,0 UV-I 0 W/m² -1,5 °C -0,9 °C 0,0 km/h (0 Bft)
29.04.2017 04:36 -0,9 °C -0,9 °C 96 % 1019,9 hPa 0,0 mm 0,0 km/h (0 Bft) S 186 ° 0 min 0,000 mm 0,0 UV-I 0 W/m² -1,5 °C -0,9 °C 0,0 km/h (0 Bft)
29.04.2017 04:37 -0,9 °C -0,9 °C 96 % 1019,8 hPa 0,0 mm 0,0 km/h (0 Bft) S 187 ° 0 min 0,000 mm 0,0 UV-I 0 W/m² -1,5 °C -0,9 °C 0,0 km/h (0 Bft)
29.04.2017 04:38 -0,8 °C -0,8 °C 96 % 1019,8 hPa 0,0 mm 0,0 km/h (0 Bft) S 187 ° 0 min 0,000 mm 0,0 UV-I 0 W/m² -1,4 °C -0,8 °C 0,0 km/h (0 Bft)
29.04.2017 04:39 -0,8 °C -0,8 °C 96 % 1019,7 hPa 0,0 mm 0,0 km/h (0 Bft) S 186 ° 0 min 0,000 mm 0,0 UV-I 0 W/m² -1,4 °C -0,8 °C 0,0 km/h (0 Bft)
29.04.2017 04:40 -0,7 °C -0,7 °C 96 % 1019,8 hPa 0,0 mm 0,0 km/h (0 Bft) S 187 ° 0 min 0,000 mm 0,0 UV-I 0 W/m² -1,3 °C -0,7 °C 0,0 km/h (0 Bft)
29.04.2017 04:41 -0,7 °C -0,7 °C 96 % 1019,8 hPa 0,0 mm 0,0 km/h (0 Bft) S 187 ° 0 min 0,000 mm 0,0 UV-I 0 W/m² -1,3 °C -0,7 °C 0,0 km/h (0 Bft)
29.04.2017 04:42 -0,8 °C -0,7 °C 96 % 1019,7 hPa 0,0 mm 0,0 km/h (0 Bft) S 187 ° 0 min 0,000 mm 0,0 UV-I 0 W/m² -1,4 °C -0,8 °C 0,0 km/h (0 Bft)
29.04.2017 04:43 -0,8 °C -0,8 °C 95 % 1019,8 hPa 0,0 mm 0,0 km/h (0 Bft) S 187 ° 0 min 0,000 mm 0,0 UV-I 0 W/m² -1,5 °C -0,8 °C 0,0 km/h (0 Bft)
29.04.2017 04:44 -0,8 °C -0,8 °C 95 % 1019,8 hPa 0,0 mm 0,0 km/h (0 Bft) S 187 ° 0 min 0,000 mm 0,0 UV-I 0 W/m² -1,5 °C -0,8 °C 0,0 km/h (0 Bft)
29.04.2017 04:45 -0,8 °C -0,8 °C 96 % 1019,8 hPa 0,0 mm 0,0 km/h (0 Bft) S 187 ° 0 min 0,000 mm 0,0 UV-I 0 W/m² -1,4 °C -0,8 °C 0,0 km/h (0 Bft)
29.04.2017 04:46 -0,9 °C -0,8 °C 96 % 1019,8 hPa 0,0 mm 0,7 km/h (0 Bft) S 187 ° 0 min 0,000 mm 0,0 UV-I 0 W/m² -1,5 °C -0,9 °C 3,2 km/h (1 Bft)
29.04.2017 04:47 -0,9 °C -0,9 °C 95 % 1019,7 hPa 0,0 mm 3,0 km/h (1 Bft) S-SW 207 ° 0 min 0,000 mm 0,0 UV-I 0 W/m² -1,6 °C -0,9 °C 4,8 km/h (1 Bft)
29.04.2017 04:48 -0,9 °C -0,9 °C 95 % 1019,7 hPa 0,0 mm 0,5 km/h (0 Bft) S-SW 207 ° 0 min 0,000 mm 0,0 UV-I 0 W/m² -1,6 °C -0,9 °C 1,6 km/h (1 Bft)
29.04.2017 04:49 -0,8 °C -0,8 °C 95 % 1019,8 hPa 0,0 mm 0,1 km/h (0 Bft) S-SW 207 ° 0 min 0,000 mm 0,0 UV-I 0 W/m² -1,5 °C -0,8 °C 1,6 km/h (1 Bft)
29.04.2017 04:50 -0,8 °C -0,8 °C 96 % 1019,8 hPa 0,0 mm 0,0 km/h (0 Bft) S-SW 207 ° 0 min 0,000 mm 0,0 UV-I 0 W/m² -1,4 °C -0,8 °C 0,0 km/h (0 Bft)
29.04.2017 04:51 -0,8 °C -0,8 °C 96 % 1019,8 hPa 0,0 mm 0,0 km/h (0 Bft) S-SW 207 ° 0 min 0,000 mm 0,0 UV-I 0 W/m² -1,4 °C -0,8 °C 0,0 km/h (0 Bft)
29.04.2017 04:52 -0,7 °C -0,7 °C 95 % 1019,8 hPa 0,0 mm 0,0 km/h (0 Bft) S-SW 207 ° 0 min 0,000 mm 0,0 UV-I 0 W/m² -1,4 °C -0,7 °C 0,0 km/h (0 Bft)
29.04.2017 04:53 -0,7 °C -0,7 °C 96 % 1019,8 hPa 0,0 mm 0,0 km/h (0 Bft) S-SW 207 ° 0 min 0,000 mm 0,0 UV-I 0 W/m² -1,3 °C -0,7 °C 0,0 km/h (0 Bft)
29.04.2017 04:54 -0,8 °C -0,7 °C 95 % 1019,8 hPa 0,0 mm 0,0 km/h (0 Bft) S-SW 207 ° 0 min 0,000 mm 0,0 UV-I 0 W/m² -1,5 °C -0,8 °C 0,0 km/h (0 Bft)
29.04.2017 04:55 -0,8 °C -0,8 °C 95 % 1019,8 hPa 0,0 mm 0,0 km/h (0 Bft) S-SW 207 ° 0 min 0,000 mm 0,0 UV-I 0 W/m² -1,5 °C -0,8 °C 0,0 km/h (0 Bft)
29.04.2017 04:56 -0,8 °C -0,8 °C 95 % 1019,8 hPa 0,0 mm 1,9 km/h (1 Bft) S-SW 207 ° 0 min 0,000 mm 0,0 UV-I 0 W/m² -1,5 °C -0,8 °C 4,8 km/h (1 Bft)
29.04.2017 04:57 -0,8 °C -0,8 °C 95 % 1019,8 hPa 0,0 mm 2,4 km/h (1 Bft) S-SW 204 ° 0 min 0,000 mm 0,0 UV-I 0 W/m² -1,5 °C -0,8 °C 6,4 km/h (2 Bft)
29.04.2017 04:58 -0,8 °C -0,8 °C 95 % 1019,8 hPa 0,0 mm 1,9 km/h (1 Bft) S-SW 204 ° 0 min 0,000 mm 0,0 UV-I 0 W/m² -1,5 °C -0,8 °C 3,2 km/h (1 Bft)
29.04.2017 04:59 -0,8 °C -0,8 °C 95 % 1019,9 hPa 0,0 mm 1,0 km/h (0 Bft) S-SW 204 ° 0 min 0,000 mm 0,0 UV-I 0 W/m² -1,5 °C -0,8 °C 1,6 km/h (1 Bft)
29.04.2017 05:00 -0,8 °C -0,8 °C 95 % 1019,8 hPa 0,0 mm 1,0 km/h (0 Bft) S-SW 204 ° 0 min 0,000 mm 0,0 UV-I 0 W/m² -1,5 °C -0,8 °C 3,2 km/h (1 Bft)
29.04.2017 05:01 -0,8 °C -0,8 °C 95 % 1019,9 hPa 0,0 mm 1,0 km/h (0 Bft) S-SW 204 ° 0 min 0,000 mm 0,0 UV-I 0 W/m² -1,5 °C -0,8 °C 1,6 km/h (1 Bft)
29.04.2017 05:02 -0,7 °C -0,7 °C 95 % 1019,9 hPa 0,0 mm 0,1 km/h (0 Bft) S-SW 204 ° 0 min 0,000 mm 0,0 UV-I 0 W/m² -1,4 °C -0,7 °C 1,6 km/h (1 Bft)
29.04.2017 05:03 -0,8 °C -0,7 °C 95 % 1019,9 hPa 0,0 mm 0,0 km/h (0 Bft) S-SW 204 ° 0 min 0,000 mm 0,0 UV-I 0 W/m² -1,5 °C -0,8 °C 0,0 km/h (0 Bft)
29.04.2017 05:04 -0,8 °C -0,8 °C 95 % 1019,9 hPa 0,0 mm 0,0 km/h (0 Bft) S-SW 204 ° 0 min 0,000 mm 0,0 UV-I 0 W/m² -1,5 °C -0,8 °C 0,0 km/h (0 Bft)
29.04.2017 05:05 -0,7 °C -0,7 °C 95 % 1019,9 hPa 0,0 mm 0,6 km/h (0 Bft) S-SW 204 ° 0 min 0,000 mm 0,0 UV-I 0 W/m² -1,4 °C -0,7 °C 1,6 km/h (1 Bft)
29.04.2017 05:06 -0,7 °C -0,7 °C 95 % 1019,9 hPa 0,0 mm 0,9 km/h (0 Bft) S-SW 204 ° 0 min 0,000 mm 0,0 UV-I 0 W/m² -1,4 °C -0,7 °C 3,2 km/h (1 Bft)
29.04.2017 05:07 -0,7 °C -0,7 °C 95 % 1019,9 hPa 0,0 mm 2,1 km/h (1 Bft) S-SW 204 ° 0 min 0,000 mm 0,0 UV-I 0 W/m² -1,4 °C -0,7 °C 3,2 km/h (1 Bft)
29.04.2017 05:08 -0,7 °C -0,7 °C 95 % 1019,9 hPa 0,0 mm 2,4 km/h (1 Bft) S-SW 204 ° 0 min 0,000 mm 0,0 UV-I 0 W/m² -1,4 °C -0,7 °C 6,4 km/h (2 Bft)
29.04.2017 05:09 -0,7 °C -0,6 °C 95 % 1019,9 hPa 0,0 mm 3,7 km/h (1 Bft) S-SW 193 ° 0 min 0,000 mm 0,0 UV-I 0 W/m² -1,4 °C -0,7 °C 4,8 km/h (1 Bft)
29.04.2017 05:10 -0,6 °C -0,6 °C 95 % 1019,8 hPa 0,0 mm 2,7 km/h (1 Bft) S 182 ° 0 min 0,000 mm 0,0 UV-I 0 W/m² -1,3 °C -0,6 °C 4,8 km/h (1 Bft)
29.04.2017 05:11 -0,6 °C -0,6 °C 95 % 1019,8 hPa 0,0 mm 1,1 km/h (1 Bft) S 182 ° 0 min 0,000 mm 0,0 UV-I 0 W/m² -1,3 °C -0,6 °C 1,6 km/h (1 Bft)
29.04.2017 05:12 -0,6 °C -0,6 °C 95 % 1019,9 hPa 0,0 mm 1,8 km/h (1 Bft) S 182 ° 0 min 0,000 mm 0,0 UV-I 0 W/m² -1,3 °C -0,6 °C 4,8 km/h (1 Bft)
29.04.2017 05:13 -0,6 °C -0,6 °C 95 % 1019,9 hPa 0,0 mm 4,9 km/h (1 Bft) S-SW 194 ° 0 min 0,000 mm 0,0 UV-I 0 W/m² -1,3 °C -2,2 °C 9,7 km/h (2 Bft)
29.04.2017 05:14 -0,7 °C -0,6 °C 95 % 1019,9 hPa 0,0 mm 5,8 km/h (2 Bft) S 176 ° 0 min 0,000 mm 0,0 UV-I 0 W/m² -1,4 °C -2,7 °C 8,0 km/h (2 Bft)
29.04.2017 05:15 -0,7 °C -0,6 °C 95 % 1019,9 hPa 0,0 mm 3,2 km/h (1 Bft) S 176 ° 0 min 0,000 mm 0,0 UV-I 0 W/m² -1,4 °C -0,7 °C 4,8 km/h (1 Bft)
29.04.2017 05:16 -0,6 °C -0,6 °C 95 % 1019,8 hPa 0,0 mm 3,4 km/h (1 Bft) S 175 ° 0 min 0,000 mm 0,0 UV-I 0 W/m² -1,3 °C -0,6 °C 4,8 km/h (1 Bft)
29.04.2017 05:17 -0,6 °C -0,6 °C 95 % 1019,8 hPa 0,0 mm 2,3 km/h (1 Bft) S 175 ° 0 min 0,000 mm 0,0 UV-I 0 W/m² -1,3 °C -0,6 °C 4,8 km/h (1 Bft)
29.04.2017 05:18 -0,6 °C -0,6 °C 95 % 1019,9 hPa 0,0 mm 4,5 km/h (1 Bft) SW 215 ° 0 min 0,000 mm 0,0 UV-I 0 W/m² -1,3 °C -0,6 °C 6,4 km/h (2 Bft)
29.04.2017 05:19 -0,6 °C -0,6 °C 95 % 1019,9 hPa 0,0 mm 3,4 km/h (1 Bft) S 172 ° 0 min 0,000 mm 0,0 UV-I 0 W/m² -1,3 °C -0,6 °C 4,8 km/h (1 Bft)
29.04.2017 05:20 -0,6 °C -0,6 °C 95 % 1019,8 hPa 0,0 mm 3,0 km/h (1 Bft) S 172 ° 0 min 0,000 mm 0,0 UV-I 0 W/m² -1,3 °C -0,6 °C 4,8 km/h (1 Bft)
29.04.2017 05:21 -0,6 °C -0,6 °C 95 % 1019,8 hPa 0,0 mm 1,8 km/h (1 Bft) S 172 ° 0 min 0,000 mm 0,0 UV-I 0 W/m² -1,3 °C -0,6 °C 3,2 km/h (1 Bft)
29.04.2017 05:22 -0,6 °C -0,6 °C 95 % 1019,8 hPa 0,0 mm 1,6 km/h (1 Bft) S 172 ° 0 min 0,000 mm 0,0 UV-I 0 W/m² -1,3 °C -0,6 °C 3,2 km/h (1 Bft)
29.04.2017 05:23 -0,6 °C -0,6 °C 95 % 1019,9 hPa 0,0 mm 2,1 km/h (1 Bft) S 172 ° 0 min 0,000 mm 0,0 UV-I 0 W/m² -1,3 °C -0,6 °C 3,2 km/h (1 Bft)
29.04.2017 05:24 -0,6 °C -0,6 °C 95 % 1019,8 hPa 0,0 mm 1,7 km/h (1 Bft) S 172 ° 0 min 0,000 mm 0,0 UV-I 0 W/m² -1,3 °C -0,6 °C 3,2 km/h (1 Bft)
29.04.2017 05:25 -0,6 °C -0,6 °C 95 % 1019,8 hPa 0,0 mm 0,5 km/h (0 Bft) S 172 ° 0 min 0,000 mm 0,0 UV-I 0 W/m² -1,3 °C -0,6 °C 1,6 km/h (1 Bft)
29.04.2017 05:26 -0,6 °C -0,6 °C 95 % 1019,9 hPa 0,0 mm 1,1 km/h (1 Bft) S 172 ° 0 min 0,000 mm 0,0 UV-I 0 W/m² -1,3 °C -0,6 °C 3,2 km/h (1 Bft)
29.04.2017 05:27 -0,6 °C -0,6 °C 95 % 1019,8 hPa 0,0 mm 0,6 km/h (0 Bft) S 172 ° 0 min 0,000 mm 0,0 UV-I 0 W/m² -1,3 °C -0,6 °C 3,2 km/h (1 Bft)
29.04.2017 05:28 -0,6 °C -0,6 °C 95 % 1019,8 hPa 0,0 mm 3,1 km/h (1 Bft) S 172 ° 0 min 0,000 mm 0,0 UV-I 0 W/m² -1,3 °C -0,6 °C 4,8 km/h (1 Bft)
29.04.2017 05:29 -0,6 °C -0,6 °C 95 % 1019,8 hPa 0,0 mm 2,1 km/h (1 Bft) S 172 ° 0 min 0,000 mm 0,0 UV-I 0 W/m² -1,3 °C -0,6 °C 3,2 km/h (1 Bft)
29.04.2017 05:30 -0,6 °C -0,6 °C 95 % 1019,8 hPa 0,0 mm 3,2 km/h (1 Bft) S 172 ° 0 min 0,000 mm 0,0 UV-I 0 W/m² -1,3 °C -0,6 °C 4,8 km/h (1 Bft)
29.04.2017 05:31 -0,6 °C -0,6 °C 95 % 1019,9 hPa 0,0 mm 1,0 km/h (0 Bft) S 172 ° 0 min 0,000 mm 0,0 UV-I 0 W/m² -1,3 °C -0,6 °C 1,6 km/h (1 Bft)
29.04.2017 05:32 -0,7 °C -0,6 °C 95 % 1019,8 hPa 0,0 mm 0,0 km/h (0 Bft) S 172 ° 0 min 0,000 mm 0,0 UV-I 0 W/m² -1,4 °C -0,7 °C 0,0 km/h (0 Bft)
29.04.2017 05:33 -0,7 °C -0,7 °C 95 % 1019,8 hPa 0,0 mm 1,7 km/h (1 Bft) O-SO 122 ° 0 min 0,000 mm 0,0 UV-I 0 W/m² -1,4 °C -0,7 °C 3,2 km/h (1 Bft)
29.04.2017 05:34 -0,7 °C -0,7 °C 95 % 1019,9 hPa 0,0 mm 0,8 km/h (0 Bft) O-SO 122 ° 0 min 0,000 mm 0,0 UV-I 0 W/m² -1,4 °C -0,7 °C 1,6 km/h (1 Bft)
29.04.2017 05:35 -0,7 °C -0,7 °C 95 % 1019,8 hPa 0,0 mm 0,6 km/h (0 Bft) O-SO 122 ° 0 min 0,000 mm 0,0 UV-I 0 W/m² -1,4 °C -0,7 °C 1,6 km/h (1 Bft)
29.04.2017 05:36 -0,7 °C -0,7 °C 95 % 1019,8 hPa 0,0 mm 0,8 km/h (0 Bft) O-SO 122 ° 0 min 0,000 mm 0,0 UV-I 0 W/m² -1,4 °C -0,7 °C 1,6 km/h (1 Bft)
29.04.2017 05:37 -0,7 °C -0,7 °C 95 % 1019,9 hPa 0,0 mm 0,3 km/h (0 Bft) O-SO 122 ° 0 min 0,000 mm 0,0 UV-I 0 W/m² -1,4 °C -0,7 °C 1,6 km/h (1 Bft)
29.04.2017 05:38 -0,7 °C -0,7 °C 95 % 1019,9 hPa 0,0 mm 0,0 km/h (0 Bft) O-SO 122 ° 0 min 0,000 mm 0,0 UV-I 0 W/m² -1,4 °C -0,7 °C 0,0 km/h (0 Bft)
29.04.2017 05:39 -0,8 °C -0,7 °C 95 % 1019,8 hPa 0,0 mm 0,0 km/h (0 Bft) O-SO 122 ° 0 min 0,000 mm 0,0 UV-I 0 W/m² -1,5 °C -0,8 °C 0,0 km/h (0 Bft)
29.04.2017 05:40 -0,8 °C -0,7 °C 95 % 1019,9 hPa 0,0 mm 0,0 km/h (0 Bft) O-SO 122 ° 0 min 0,000 mm 0,0 UV-I 0 W/m² -1,5 °C -0,8 °C 0,0 km/h (0 Bft)
29.04.2017 05:41 -0,8 °C -0,8 °C 95 % 1019,8 hPa 0,0 mm 0,0 km/h (0 Bft) O-SO 122 ° 0 min 0,000 mm 0,0 UV-I 0 W/m² -1,5 °C -0,8 °C 0,0 km/h (0 Bft)
29.04.2017 05:42 -0,8 °C -0,8 °C 95 % 1019,8 hPa 0,0 mm 0,0 km/h (0 Bft) O-SO 122 ° 0 min 0,000 mm 0,0 UV-I 0 W/m² -1,5 °C -0,8 °C 0,0 km/h (0 Bft)
29.04.2017 05:43 -0,8 °C -0,8 °C 95 % 1019,8 hPa 0,0 mm 0,0 km/h (0 Bft) O-SO 122 ° 0 min 0,000 mm 0,0 UV-I 0 W/m² -1,5 °C -0,8 °C 0,0 km/h (0 Bft)
29.04.2017 05:44 -0,8 °C -0,8 °C 95 % 1019,8 hPa 0,0 mm 0,0 km/h (0 Bft) O-SO 122 ° 0 min 0,000 mm 0,0 UV-I 0 W/m² -1,5 °C -0,8 °C 0,0 km/h (0 Bft)
29.04.2017 05:45 -0,8 °C -0,8 °C 95 % 1019,8 hPa 0,0 mm 0,0 km/h (0 Bft) O-SO 122 ° 0 min 0,000 mm 0,0 UV-I 0 W/m² -1,5 °C -0,8 °C 0,0 km/h (0 Bft)
29.04.2017 05:46 -0,9 °C -0,8 °C 95 % 1019,8 hPa 0,0 mm 0,6 km/h (0 Bft) S-SO 163 ° 0 min 0,000 mm 0,0 UV-I 0 W/m² -1,6 °C -0,9 °C 1,6 km/h (1 Bft)
29.04.2017 05:47 -1,0 °C -0,9 °C 94 % 1019,7 hPa 0,0 mm 0,0 km/h (0 Bft) S-SO 163 ° 0 min 0,000 mm 0,0 UV-I 0 W/m² -1,8 °C -1,0 °C 0,0 km/h (0 Bft)
29.04.2017 05:48 -1,0 °C -1,0 °C 94 % 1019,7 hPa 0,0 mm 0,6 km/h (0 Bft) S-SO 163 ° 0 min 0,000 mm 0,0 UV-I 0 W/m² -1,8 °C -1,0 °C 3,2 km/h (1 Bft)
29.04.2017 05:49 -1,0 °C -1,0 °C 95 % 1019,8 hPa 0,0 mm 0,8 km/h (0 Bft) S-SO 163 ° 0 min 0,000 mm 0,0 UV-I 0 W/m² -1,7 °C -1,0 °C 1,6 km/h (1 Bft)
29.04.2017 05:50 -1,1 °C -1,0 °C 95 % 1019,8 hPa 0,0 mm 0,0 km/h (0 Bft) S-SO 163 ° 0 min 0,000 mm 0,0 UV-I 0 W/m² -1,8 °C -1,1 °C 0,0 km/h (0 Bft)
29.04.2017 05:51 -1,0 °C -1,0 °C 95 % 1019,7 hPa 0,0 mm 0,0 km/h (0 Bft) S-SO 163 ° 0 min 0,000 mm 0,0 UV-I 0 W/m² -1,7 °C -1,0 °C 0,0 km/h (0 Bft)
29.04.2017 05:52 -1,1 °C -1,0 °C 95 % 1019,7 hPa 0,0 mm 0,0 km/h (0 Bft) S-SO 163 ° 0 min 0,000 mm 0,0 UV-I 0 W/m² -1,8 °C -1,1 °C 0,0 km/h (0 Bft)
29.04.2017 05:53 -1,0 °C -1,0 °C 95 % 1019,7 hPa 0,0 mm 0,0 km/h (0 Bft) S-SO 163 ° 0 min 0,000 mm 0,0 UV-I 0 W/m² -1,7 °C -1,0 °C 0,0 km/h (0 Bft)
29.04.2017 05:54 -1,1 °C -1,0 °C 95 % 1019,7 hPa 0,0 mm 0,0 km/h (0 Bft) S-SO 163 ° 0 min 0,000 mm 0,0 UV-I 0 W/m² -1,8 °C -1,1 °C 0,0 km/h (0 Bft)
29.04.2017 05:55 -1,1 °C -1,1 °C 95 % 1019,8 hPa 0,0 mm 0,0 km/h (0 Bft) S-SO 163 ° 0 min 0,000 mm 0,0 UV-I 0 W/m² -1,8 °C -1,1 °C 0,0 km/h (0 Bft)
29.04.2017 05:56 -1,1 °C -1,1 °C 95 % 1019,8 hPa 0,0 mm 0,2 km/h (0 Bft) S-SO 155 ° 0 min 0,000 mm 0,0 UV-I 0 W/m² -1,8 °C -1,1 °C 1,6 km/h (1 Bft)
29.04.2017 05:57 -1,1 °C -1,1 °C 95 % 1019,8 hPa 0,0 mm 0,0 km/h (0 Bft) S-SO 155 ° 0 min 0,000 mm 0,0 UV-I 0 W/m² -1,8 °C -1,1 °C 0,0 km/h (0 Bft)
29.04.2017 05:58 -1,1 °C -1,1 °C 95 % 1019,7 hPa 0,0 mm 0,0 km/h (0 Bft) S-SO 155 ° 0 min 0,000 mm 0,0 UV-I 0 W/m² -1,8 °C -1,1 °C 0,0 km/h (0 Bft)
29.04.2017 05:59 -1,1 °C -1,1 °C 95 % 1019,8 hPa 0,0 mm 0,0 km/h (0 Bft) S-SO 155 ° 0 min 0,000 mm 0,0 UV-I 0 W/m² -1,8 °C -1,1 °C 0,0 km/h (0 Bft)
29.04.2017 06:00 -1,1 °C -1,1 °C 95 % 1019,8 hPa 0,0 mm 0,0 km/h (0 Bft) S-SO 155 ° 0 min 0,000 mm 0,0 UV-I 0 W/m² -1,8 °C -1,1 °C 0,0 km/h (0 Bft)
29.04.2017 06:01 -1,1 °C -1,1 °C 95 % 1019,7 hPa 0,0 mm 0,0 km/h (0 Bft) S-SO 155 ° 0 min 0,000 mm 0,0 UV-I 0 W/m² -1,8 °C -1,1 °C 0,0 km/h (0 Bft)
29.04.2017 06:02 -1,1 °C -1,1 °C 95 % 1019,8 hPa 0,0 mm 0,0 km/h (0 Bft) S-SO 155 ° 0 min 0,000 mm 0,0 UV-I 0 W/m² -1,8 °C -1,1 °C 0,0 km/h (0 Bft)
29.04.2017 06:03 -1,1 °C -1,1 °C 95 % 1019,7 hPa 0,0 mm 0,0 km/h (0 Bft) S-SO 155 ° 0 min 0,000 mm 0,0 UV-I 0 W/m² -1,8 °C -1,1 °C 0,0 km/h (0 Bft)
29.04.2017 06:04 -1,1 °C -1,1 °C 95 % 1019,8 hPa 0,0 mm 0,0 km/h (0 Bft) S-SO 155 ° 0 min 0,000 mm 0,0 UV-I 0 W/m² -1,8 °C -1,1 °C 0,0 km/h (0 Bft)
29.04.2017 06:05 -1,1 °C -1,1 °C 95 % 1019,8 hPa 0,0 mm 0,0 km/h (0 Bft) S-SO 155 ° 0 min 0,000 mm 0,0 UV-I 5 W/m² -1,8 °C -1,1 °C 0,0 km/h (0 Bft)
29.04.2017 06:06 -1,1 °C -1,1 °C 95 % 1019,8 hPa 0,0 mm 0,0 km/h (0 Bft) S-SO 155 ° 0 min 0,000 mm 0,0 UV-I 5 W/m² -1,8 °C -1,1 °C 0,0 km/h (0 Bft)
29.04.2017 06:07 -1,1 °C -1,0 °C 95 % 1019,8 hPa 0,0 mm 0,0 km/h (0 Bft) S-SO 155 ° 0 min 0,000 mm 0,0 UV-I 5 W/m² -1,8 °C -1,1 °C 0,0 km/h (0 Bft)
29.04.2017 06:08 -1,1 °C -1,0 °C 95 % 1019,8 hPa 0,0 mm 0,0 km/h (0 Bft) S-SO 155 ° 0 min 0,000 mm 0,0 UV-I 5 W/m² -1,8 °C -1,1 °C 0,0 km/h (0 Bft)
29.04.2017 06:09 -1,1 °C -1,1 °C 95 % 1019,8 hPa 0,0 mm 0,0 km/h (0 Bft) S-SO 155 ° 0 min 0,000 mm 0,0 UV-I 5 W/m² -1,8 °C -1,1 °C 0,0 km/h (0 Bft)
29.04.2017 06:10 -1,1 °C -1,1 °C 95 % 1019,8 hPa 0,0 mm 0,0 km/h (0 Bft) S-SO 155 ° 0 min 0,000 mm 0,0 UV-I 7 W/m² -1,8 °C -1,1 °C 0,0 km/h (0 Bft)
29.04.2017 06:11 -1,1 °C -1,1 °C 95 % 1019,8 hPa 0,0 mm 0,0 km/h (0 Bft) S-SO 155 ° 0 min 0,000 mm 0,0 UV-I 7 W/m² -1,8 °C -1,1 °C 0,0 km/h (0 Bft)
29.04.2017 06:12 -1,1 °C -1,1 °C 95 % 1019,8 hPa 0,0 mm 0,0 km/h (0 Bft) S-SO 155 ° 0 min 0,000 mm 0,0 UV-I 7 W/m² -1,8 °C -1,1 °C 0,0 km/h (0 Bft)
29.04.2017 06:13 -1,1 °C -1,1 °C 95 % 1019,8 hPa 0,0 mm 0,0 km/h (0 Bft) S-SO 155 ° 0 min 0,000 mm 0,0 UV-I 7 W/m² -1,8 °C -1,1 °C 0,0 km/h (0 Bft)
29.04.2017 06:14 -1,2 °C -1,1 °C 95 % 1019,7 hPa 0,0 mm 0,0 km/h (0 Bft) S-SO 155 ° 0 min 0,000 mm 0,0 UV-I 7 W/m² -1,9 °C -1,2 °C 0,0 km/h (0 Bft)
29.04.2017 06:15 -1,2 °C -1,2 °C 95 % 1019,7 hPa 0,0 mm 0,0 km/h (0 Bft) S-SO 155 ° 0 min 0,000 mm 0,0 UV-I 9 W/m² -1,9 °C -1,2 °C 0,0 km/h (0 Bft)
29.04.2017 06:16 -1,3 °C -1,2 °C 95 % 1019,8 hPa 0,0 mm 0,0 km/h (0 Bft) S-SO 155 ° 0 min 0,000 mm 0,0 UV-I 9 W/m² -2,0 °C -1,3 °C 0,0 km/h (0 Bft)
29.04.2017 06:17 -1,3 °C -1,3 °C 95 % 1019,7 hPa 0,0 mm 0,0 km/h (0 Bft) S-SO 155 ° 0 min 0,000 mm 0,0 UV-I 9 W/m² -2,0 °C -1,3 °C 0,0 km/h (0 Bft)
29.04.2017 06:18 -1,2 °C -1,2 °C 95 % 1019,7 hPa 0,0 mm 0,0 km/h (0 Bft) S-SO 155 ° 0 min 0,000 mm 0,0 UV-I 11 W/m² -1,9 °C -1,2 °C 0,0 km/h (0 Bft)
29.04.2017 06:19 -1,2 °C -1,2 °C 95 % 1019,8 hPa 0,0 mm 0,0 km/h (0 Bft) S-SO 155 ° 0 min 0,000 mm 0,0 UV-I 11 W/m² -1,9 °C -1,2 °C 0,0 km/h (0 Bft)
29.04.2017 06:20 -1,2 °C -1,2 °C 95 % 1019,7 hPa 0,0 mm 0,0 km/h (0 Bft) S-SO 155 ° 0 min 0,000 mm 0,0 UV-I 11 W/m² -1,9 °C -1,2 °C 0,0 km/h (0 Bft)
29.04.2017 06:21 -1,3 °C -1,2 °C 95 % 1019,8 hPa 0,0 mm 0,0 km/h (0 Bft) S-SO 155 ° 0 min 0,000 mm 0,0 UV-I 12 W/m² -2,0 °C -1,3 °C 0,0 km/h (0 Bft)
29.04.2017 06:22 -1,3 °C -1,3 °C 95 % 1019,7 hPa 0,0 mm 0,0 km/h (0 Bft) S-SO 155 ° 0 min 0,000 mm 0,0 UV-I 12 W/m² -2,0 °C -1,3 °C 0,0 km/h (0 Bft)
29.04.2017 06:23 -1,3 °C -1,2 °C 95 % 1019,8 hPa 0,0 mm 0,0 km/h (0 Bft) S-SO 155 ° 0 min 0,000 mm 0,0 UV-I 12 W/m² -2,0 °C -1,3 °C 0,0 km/h (0 Bft)
29.04.2017 06:24 -1,2 °C -1,2 °C 95 % 1019,8 hPa 0,0 mm 0,0 km/h (0 Bft) S-SO 155 ° 0 min 0,000 mm 0,0 UV-I 14 W/m² -1,9 °C -1,2 °C 0,0 km/h (0 Bft)
29.04.2017 06:25 -1,2 °C -1,2 °C 96 % 1019,8 hPa 0,0 mm 0,0 km/h (0 Bft) S-SO 155 ° 0 min 0,000 mm 0,0 UV-I 14 W/m² -1,8 °C -1,2 °C 0,0 km/h (0 Bft)
29.04.2017 06:26 -1,2 °C -1,2 °C 96 % 1019,8 hPa 0,0 mm 0,0 km/h (0 Bft) S-SO 155 ° 0 min 0,000 mm 0,0 UV-I 14 W/m² -1,8 °C -1,2 °C 0,0 km/h (0 Bft)
29.04.2017 06:27 -1,2 °C -1,2 °C 96 % 1019,8 hPa 0,0 mm 0,0 km/h (0 Bft) S-SO 155 ° 0 min 0,000 mm 0,0 UV-I 16 W/m² -1,8 °C -1,2 °C 0,0 km/h (0 Bft)
29.04.2017 06:28 -1,2 °C -1,2 °C 96 % 1019,8 hPa 0,0 mm 0,0 km/h (0 Bft) S-SO 155 ° 0 min 0,000 mm 0,0 UV-I 16 W/m² -1,8 °C -1,2 °C 0,0 km/h (0 Bft)
29.04.2017 06:29 -1,2 °C -1,2 °C 96 % 1019,8 hPa 0,0 mm 0,1 km/h (0 Bft) W 265 ° 0 min 0,000 mm 0,0 UV-I 18 W/m² -1,8 °C -1,2 °C 1,6 km/h (1 Bft)
29.04.2017 06:30 -1,2 °C -1,2 °C 96 % 1019,8 hPa 0,0 mm 0,3 km/h (0 Bft) W 277 ° 0 min 0,000 mm 0,0 UV-I 18 W/m² -1,8 °C -1,2 °C 1,6 km/h (1 Bft)
29.04.2017 06:31 -1,2 °C -1,2 °C 96 % 1019,8 hPa 0,0 mm 0,0 km/h (0 Bft) W 277 ° 0 min 0,000 mm 0,0 UV-I 18 W/m² -1,8 °C -1,2 °C 0,0 km/h (0 Bft)
29.04.2017 06:32 -1,2 °C -1,2 °C 96 % 1019,8 hPa 0,0 mm 0,0 km/h (0 Bft) W 277 ° 0 min 0,000 mm 0,0 UV-I 19 W/m² -1,8 °C -1,2 °C 0,0 km/h (0 Bft)
29.04.2017 06:33 -1,2 °C -1,2 °C 96 % 1019,7 hPa 0,0 mm 0,1 km/h (0 Bft) W 277 ° 0 min 0,000 mm 0,0 UV-I 19 W/m² -1,8 °C -1,2 °C 1,6 km/h (1 Bft)
29.04.2017 06:34 -1,2 °C -1,2 °C 96 % 1019,8 hPa 0,0 mm 0,1 km/h (0 Bft) W 277 ° 0 min 0,000 mm 0,0 UV-I 21 W/m² -1,8 °C -1,2 °C 1,6 km/h (1 Bft)
29.04.2017 06:35 -1,2 °C -1,2 °C 96 % 1019,8 hPa 0,0 mm 0,0 km/h (0 Bft) W 277 ° 0 min 0,000 mm 0,0 UV-I 23 W/m² -1,8 °C -1,2 °C 0,0 km/h (0 Bft)
29.04.2017 06:36 -1,1 °C -1,1 °C 96 % 1019,8 hPa 0,0 mm 0,0 km/h (0 Bft) W 277 ° 0 min 0,000 mm 0,0 UV-I 23 W/m² -1,7 °C -1,1 °C 0,0 km/h (0 Bft)
29.04.2017 06:37 -1,1 °C -1,1 °C 96 % 1019,9 hPa 0,0 mm 0,0 km/h (0 Bft) W 277 ° 0 min 0,000 mm 0,0 UV-I 23 W/m² -1,7 °C -1,1 °C 0,0 km/h (0 Bft)
29.04.2017 06:38 -1,2 °C -1,1 °C 96 % 1019,8 hPa 0,0 mm 0,0 km/h (0 Bft) W 277 ° 0 min 0,000 mm 0,0 UV-I 23 W/m² -1,8 °C -1,2 °C 0,0 km/h (0 Bft)
29.04.2017 06:39 -1,1 °C -1,1 °C 96 % 1019,8 hPa 0,0 mm 0,0 km/h (0 Bft) W 277 ° 0 min 0,000 mm 0,0 UV-I 23 W/m² -1,7 °C -1,1 °C 0,0 km/h (0 Bft)
29.04.2017 06:40 -1,1 °C -1,1 °C 96 % 1019,8 hPa 0,0 mm 0,0 km/h (0 Bft) W 277 ° 0 min 0,000 mm 0,0 UV-I 25 W/m² -1,7 °C -1,1 °C 0,0 km/h (0 Bft)
29.04.2017 06:41 -1,1 °C -1,1 °C 96 % 1019,9 hPa 0,0 mm 0,0 km/h (0 Bft) W 277 ° 0 min 0,000 mm 0,0 UV-I 25 W/m² -1,7 °C -1,1 °C 0,0 km/h (0 Bft)
29.04.2017 06:42 -1,1 °C -1,1 °C 96 % 1019,8 hPa 0,0 mm 0,0 km/h (0 Bft) W 277 ° 0 min 0,000 mm 0,0 UV-I 25 W/m² -1,7 °C -1,1 °C 0,0 km/h (0 Bft)
29.04.2017 06:43 -1,1 °C -1,1 °C 96 % 1019,8 hPa 0,0 mm 0,0 km/h (0 Bft) W 277 ° 0 min 0,000 mm 0,0 UV-I 26 W/m² -1,7 °C -1,1 °C 0,0 km/h (0 Bft)
29.04.2017 06:44 -1,1 °C -1,1 °C 96 % 1019,8 hPa 0,0 mm 0,0 km/h (0 Bft) W 277 ° 0 min 0,000 mm 0,0 UV-I 28 W/m² -1,7 °C -1,1 °C 0,0 km/h (0 Bft)
29.04.2017 06:45 -1,1 °C -1,1 °C 96 % 1019,8 hPa 0,0 mm 0,0 km/h (0 Bft) W 277 ° 0 min 0,000 mm 0,0 UV-I 28 W/m² -1,7 °C -1,1 °C 0,0 km/h (0 Bft)
29.04.2017 06:46 -1,1 °C -1,1 °C 96 % 1019,8 hPa 0,0 mm 0,0 km/h (0 Bft) W 277 ° 0 min 0,000 mm 0,0 UV-I 30 W/m² -1,7 °C -1,1 °C 0,0 km/h (0 Bft)
29.04.2017 06:47 -1,1 °C -1,1 °C 96 % 1019,8 hPa 0,0 mm 0,0 km/h (0 Bft) W 277 ° 0 min 0,000 mm 0,0 UV-I 32 W/m² -1,7 °C -1,1 °C 0,0 km/h (0 Bft)
29.04.2017 06:48 -1,1 °C -1,0 °C 96 % 1019,8 hPa 0,0 mm 0,0 km/h (0 Bft) W 277 ° 0 min 0,000 mm 0,0 UV-I 32 W/m² -1,7 °C -1,1 °C 0,0 km/h (0 Bft)
29.04.2017 06:49 -1,1 °C -1,1 °C 96 % 1019,8 hPa 0,0 mm 0,0 km/h (0 Bft) W 277 ° 0 min 0,000 mm 0,0 UV-I 33 W/m² -1,7 °C -1,1 °C 0,0 km/h (0 Bft)
29.04.2017 06:50 -1,1 °C -1,1 °C 96 % 1019,8 hPa 0,0 mm 0,0 km/h (0 Bft) W 277 ° 0 min 0,000 mm 0,0 UV-I 35 W/m² -1,7 °C -1,1 °C 0,0 km/h (0 Bft)
29.04.2017 06:51 -1,0 °C -0,9 °C 96 % 1019,8 hPa 0,0 mm 0,0 km/h (0 Bft) W 277 ° 0 min 0,000 mm 0,0 UV-I 37 W/m² -1,6 °C -1,0 °C 0,0 km/h (0 Bft)
29.04.2017 06:52 -1,0 °C -1,0 °C 96 % 1019,8 hPa 0,0 mm 0,0 km/h (0 Bft) W 277 ° 0 min 0,000 mm 0,0 UV-I 39 W/m² -1,6 °C -1,0 °C 0,0 km/h (0 Bft)
29.04.2017 06:53 -1,0 °C -0,9 °C 96 % 1019,8 hPa 0,0 mm 0,0 km/h (0 Bft) W 277 ° 0 min 0,000 mm 0,0 UV-I 39 W/m² -1,6 °C -1,0 °C 0,0 km/h (0 Bft)
29.04.2017 06:54 -0,9 °C -0,9 °C 96 % 1019,8 hPa 0,0 mm 0,0 km/h (0 Bft) W 277 ° 0 min 0,000 mm 0,0 UV-I 37 W/m² -1,5 °C -0,9 °C 0,0 km/h (0 Bft)
29.04.2017 06:55 -0,8 °C -0,8 °C 96 % 1019,8 hPa 0,0 mm 0,0 km/h (0 Bft) W 277 ° 0 min 0,000 mm 0,0 UV-I 35 W/m² -1,4 °C -0,8 °C 0,0 km/h (0 Bft)
29.04.2017 06:56 -0,8 °C -0,8 °C 96 % 1019,7 hPa 0,0 mm 0,0 km/h (0 Bft) W 277 ° 0 min 0,000 mm 0,0 UV-I 33 W/m² -1,4 °C -0,8 °C 0,0 km/h (0 Bft)
29.04.2017 06:57 -0,8 °C -0,8 °C 96 % 1019,7 hPa 0,0 mm 0,0 km/h (0 Bft) W 277 ° 0 min 0,000 mm 0,0 UV-I 35 W/m² -1,4 °C -0,8 °C 0,0 km/h (0 Bft)
29.04.2017 06:58 -0,8 °C -0,8 °C 96 % 1019,7 hPa 0,0 mm 0,1 km/h (0 Bft) W 277 ° 0 min 0,000 mm 0,0 UV-I 37 W/m² -1,4 °C -0,8 °C 1,6 km/h (1 Bft)
29.04.2017 06:59 -0,9 °C -0,8 °C 96 % 1019,7 hPa 0,0 mm 0,0 km/h (0 Bft) W 277 ° 0 min 0,000 mm 0,0 UV-I 35 W/m² -1,5 °C -0,9 °C 0,0 km/h (0 Bft)
29.04.2017 07:00 -0,9 °C -0,9 °C 96 % 1019,8 hPa 0,0 mm 0,0 km/h (0 Bft) W 277 ° 0 min 0,000 mm 0,0 UV-I 33 W/m² -1,5 °C -0,9 °C 0,0 km/h (0 Bft)
29.04.2017 07:01 -1,0 °C -0,9 °C 95 % 1019,7 hPa 0,0 mm 0,0 km/h (0 Bft) W 277 ° 0 min 0,000 mm 0,0 UV-I 33 W/m² -1,7 °C -1,0 °C 0,0 km/h (0 Bft)
29.04.2017 07:02 -0,9 °C -0,9 °C 95 % 1019,7 hPa 0,0 mm 0,3 km/h (0 Bft) W 277 ° 0 min 0,000 mm 0,0 UV-I 35 W/m² -1,6 °C -0,9 °C 3,2 km/h (1 Bft)
29.04.2017 07:03 -0,9 °C -0,9 °C 96 % 1019,8 hPa 0,0 mm 2,0 km/h (1 Bft) W 280 ° 0 min 0,000 mm 0,0 UV-I 35 W/m² -1,5 °C -0,9 °C 3,2 km/h (1 Bft)
29.04.2017 07:04 -0,9 °C -0,9 °C 96 % 1019,8 hPa 0,0 mm 1,9 km/h (1 Bft) NW 304 ° 0 min 0,000 mm 0,0 UV-I 35 W/m² -1,5 °C -0,9 °C 4,8 km/h (1 Bft)
29.04.2017 07:05 -0,8 °C -0,8 °C 96 % 1019,8 hPa 0,0 mm 0,2 km/h (0 Bft) NW 304 ° 0 min 0,000 mm 0,0 UV-I 35 W/m² -1,4 °C -0,8 °C 1,6 km/h (1 Bft)
29.04.2017 07:06 -0,8 °C -0,8 °C 96 % 1019,8 hPa 0,0 mm 0,0 km/h (0 Bft) NW 304 ° 0 min 0,000 mm 0,0 UV-I 37 W/m² -1,4 °C -0,8 °C 0,0 km/h (0 Bft)
29.04.2017 07:07 -0,8 °C -0,8 °C 96 % 1019,7 hPa 0,0 mm 0,0 km/h (0 Bft) NW 304 ° 0 min 0,000 mm 0,0 UV-I 37 W/m² -1,4 °C -0,8 °C 0,0 km/h (0 Bft)
29.04.2017 07:08 -0,7 °C -0,7 °C 96 % 1019,8 hPa 0,0 mm 0,3 km/h (0 Bft) NW 304 ° 0 min 0,000 mm 0,0 UV-I 37 W/m² -1,3 °C -0,7 °C 1,6 km/h (1 Bft)
29.04.2017 07:09 -0,7 °C -0,7 °C 96 % 1019,8 hPa 0,0 mm 0,0 km/h (0 Bft) NW 304 ° 0 min 0,000 mm 0,0 UV-I 39 W/m² -1,3 °C -0,7 °C 0,0 km/h (0 Bft)
29.04.2017 07:10 -0,7 °C -0,7 °C 96 % 1019,7 hPa 0,0 mm 0,0 km/h (0 Bft) NW 304 ° 0 min 0,000 mm 0,0 UV-I 39 W/m² -1,3 °C -0,7 °C 0,0 km/h (0 Bft)
29.04.2017 07:11 -0,6 °C -0,6 °C 96 % 1019,8 hPa 0,0 mm 0,0 km/h (0 Bft) NW 304 ° 0 min 0,000 mm 0,0 UV-I 40 W/m² -1,2 °C -0,6 °C 0,0 km/h (0 Bft)
29.04.2017 07:12 -0,6 °C -0,6 °C 96 % 1019,8 hPa 0,0 mm 0,0 km/h (0 Bft) NW 304 ° 0 min 0,000 mm 0,0 UV-I 39 W/m² -1,2 °C -0,6 °C 0,0 km/h (0 Bft)
29.04.2017 07:13 -0,4 °C -0,4 °C 96 % 1019,8 hPa 0,0 mm 0,0 km/h (0 Bft) NW 304 ° 0 min 0,000 mm 0,0 UV-I 40 W/m² -1,0 °C -0,4 °C 0,0 km/h (0 Bft)
29.04.2017 07:14 -0,4 °C -0,4 °C 96 % 1019,8 hPa 0,0 mm 0,0 km/h (0 Bft) NW 304 ° 0 min 0,000 mm 0,0 UV-I 42 W/m² -1,0 °C -0,4 °C 0,0 km/h (0 Bft)
29.04.2017 07:15 -0,4 °C -0,4 °C 95 % 1019,8 hPa 0,0 mm 0,0 km/h (0 Bft) NW 304 ° 0 min 0,000 mm 0,0 UV-I 42 W/m² -1,1 °C -0,4 °C 0,0 km/h (0 Bft)
29.04.2017 07:16 -0,4 °C -0,4 °C 95 % 1019,8 hPa 0,0 mm 0,0 km/h (0 Bft) NW 304 ° 0 min 0,000 mm 0,0 UV-I 42 W/m² -1,1 °C -0,4 °C 0,0 km/h (0 Bft)
29.04.2017 07:17 -0,4 °C -0,4 °C 95 % 1019,8 hPa 0,0 mm 0,0 km/h (0 Bft) NW 304 ° 0 min 0,000 mm 0,0 UV-I 44 W/m² -1,1 °C -0,4 °C 0,0 km/h (0 Bft)
29.04.2017 07:18 -0,4 °C -0,4 °C 95 % 1019,8 hPa 0,0 mm 0,0 km/h (0 Bft) NW 304 ° 0 min 0,000 mm 0,0 UV-I 44 W/m² -1,1 °C -0,4 °C 0,0 km/h (0 Bft)
29.04.2017 07:19 -0,4 °C -0,4 °C 95 % 1019,9 hPa 0,0 mm 0,0 km/h (0 Bft) NW 304 ° 0 min 0,000 mm 0,0 UV-I 49 W/m² -1,1 °C -0,4 °C 0,0 km/h (0 Bft)
29.04.2017 07:20 -0,4 °C -0,4 °C 95 % 1019,8 hPa 0,0 mm 0,0 km/h (0 Bft) NW 304 ° 0 min 0,000 mm 0,5 UV-I 63 W/m² -1,1 °C -0,4 °C 0,0 km/h (0 Bft)
29.04.2017 07:21 -0,4 °C -0,4 °C 95 % 1019,8 hPa 0,0 mm 0,0 km/h (0 Bft) NW 304 ° 0 min 0,000 mm 0,5 UV-I 72 W/m² -1,1 °C -0,4 °C 0,0 km/h (0 Bft)
29.04.2017 07:22 -0,4 °C -0,4 °C 95 % 1019,9 hPa 0,0 mm 0,0 km/h (0 Bft) NW 304 ° 0 min 0,000 mm 0,5 UV-I 81 W/m² -1,1 °C -0,4 °C 0,0 km/h (0 Bft)
29.04.2017 07:23 -0,4 °C -0,4 °C 95 % 1019,9 hPa 0,0 mm 0,0 km/h (0 Bft) NW 304 ° 0 min 0,000 mm 0,5 UV-I 91 W/m² -1,1 °C -0,4 °C 0,0 km/h (0 Bft)
29.04.2017 07:24 -0,4 °C -0,4 °C 95 % 1019,8 hPa 0,0 mm 0,0 km/h (0 Bft) NW 304 ° 0 min 0,000 mm 0,6 UV-I 93 W/m² -1,1 °C -0,4 °C 0,0 km/h (0 Bft)
29.04.2017 07:25 -0,3 °C -0,3 °C 95 % 1019,8 hPa 0,0 mm 0,0 km/h (0 Bft) NW 304 ° 0 min 0,000 mm 0,6 UV-I 93 W/m² -1,0 °C -0,3 °C 0,0 km/h (0 Bft)
29.04.2017 07:26 -0,3 °C -0,3 °C 95 % 1019,9 hPa 0,0 mm 0,0 km/h (0 Bft) NW 304 ° 0 min 0,000 mm 0,6 UV-I 98 W/m² -1,0 °C -0,3 °C 0,0 km/h (0 Bft)
29.04.2017 07:27 -0,4 °C -0,3 °C 95 % 1019,9 hPa 0,0 mm 0,0 km/h (0 Bft) NW 304 ° 0 min 0,000 mm 0,6 UV-I 102 W/m² -1,1 °C -0,4 °C 0,0 km/h (0 Bft)
29.04.2017 07:28 -0,4 °C -0,4 °C 95 % 1019,9 hPa 0,0 mm 0,0 km/h (0 Bft) NW 304 ° 0 min 0,000 mm 0,6 UV-I 111 W/m² -1,1 °C -0,4 °C 0,0 km/h (0 Bft)
29.04.2017 07:29 -0,3 °C -0,3 °C 95 % 1019,9 hPa 0,0 mm 0,0 km/h (0 Bft) NW 304 ° 0 min 0,000 mm 0,6 UV-I 120 W/m² -1,0 °C -0,3 °C 0,0 km/h (0 Bft)
29.04.2017 07:30 -0,3 °C -0,3 °C 95 % 1019,9 hPa 0,0 mm 0,0 km/h (0 Bft) NW 304 ° 0 min 0,000 mm 0,6 UV-I 128 W/m² -1,0 °C -0,3 °C 0,0 km/h (0 Bft)
29.04.2017 07:31 -0,2 °C -0,2 °C 95 % 1019,9 hPa 0,0 mm 0,0 km/h (0 Bft) NW 304 ° 0 min 0,000 mm 0,6 UV-I 139 W/m² -0,9 °C -0,2 °C 0,0 km/h (0 Bft)
29.04.2017 07:32 -0,2 °C -0,2 °C 95 % 1019,9 hPa 0,0 mm 0,0 km/h (0 Bft) NW 304 ° 0 min 0,000 mm 0,7 UV-I 144 W/m² -0,9 °C -0,2 °C 0,0 km/h (0 Bft)
29.04.2017 07:33 -0,1 °C -0,1 °C 95 % 1019,9 hPa 0,0 mm 0,1 km/h (0 Bft) SW 217 ° 0 min 0,000 mm 0,7 UV-I 149 W/m² -0,8 °C -0,1 °C 1,6 km/h (1 Bft)
29.04.2017 07:34 0,0 °C 0,0 °C 95 % 1019,9 hPa 0,0 mm 0,0 km/h (0 Bft) SW 217 ° 0 min 0,000 mm 0,7 UV-I 153 W/m² -0,7 °C 0,0 °C 0,0 km/h (0 Bft)
29.04.2017 07:35 0,0 °C 0,0 °C 95 % 1019,9 hPa 0,0 mm 0,0 km/h (0 Bft) SW 217 ° 0 min 0,000 mm 0,7 UV-I 156 W/m² -0,7 °C 0,0 °C 0,0 km/h (0 Bft)
29.04.2017 07:36 -0,1 °C 0,0 °C 95 % 1019,9 hPa 0,0 mm 0,0 km/h (0 Bft) SW 217 ° 0 min 0,000 mm 0,7 UV-I 156 W/m² -0,8 °C -0,1 °C 0,0 km/h (0 Bft)
29.04.2017 07:37 0,0 °C 0,0 °C 95 % 1020,0 hPa 0,0 mm 0,0 km/h (0 Bft) SW 217 ° 0 min 0,000 mm 0,7 UV-I 167 W/m² -0,7 °C 0,0 °C 0,0 km/h (0 Bft)
29.04.2017 07:38 0,0 °C 0,0 °C 95 % 1020,0 hPa 0,0 mm 0,0 km/h (0 Bft) SW 217 ° 0 min 0,000 mm 0,7 UV-I 179 W/m² -0,7 °C 0,0 °C 0,0 km/h (0 Bft)
29.04.2017 07:39 0,0 °C 0,1 °C 95 % 1019,9 hPa 0,0 mm 0,0 km/h (0 Bft) SW 217 ° 0 min 0,000 mm 0,7 UV-I 183 W/m² -0,7 °C 0,0 °C 0,0 km/h (0 Bft)
29.04.2017 07:40 0,1 °C 0,1 °C 94 % 1019,9 hPa 0,0 mm 0,0 km/h (0 Bft) SW 217 ° 0 min 0,000 mm 0,8 UV-I 174 W/m² -0,7 °C 0,1 °C 0,0 km/h (0 Bft)
29.04.2017 07:41 0,2 °C 0,2 °C 94 % 1019,9 hPa 0,0 mm 0,6 km/h (0 Bft) W-NW 283 ° 0 min 0,000 mm 0,8 UV-I 181 W/m² -0,6 °C 0,2 °C 3,2 km/h (1 Bft)
29.04.2017 07:42 0,2 °C 0,2 °C 94 % 1019,9 hPa 0,0 mm 0,1 km/h (0 Bft) W-NW 283 ° 0 min 0,000 mm 0,8 UV-I 192 W/m² -0,6 °C 0,2 °C 1,6 km/h (1 Bft)
29.04.2017 07:43 0,2 °C 0,2 °C 94 % 1019,9 hPa 0,2 mm 0,0 km/h (0 Bft) W-NW 283 ° 0 min 0,000 mm 0,8 UV-I 158 W/m² -0,6 °C 0,2 °C 0,0 km/h (0 Bft)
29.04.2017 07:44 0,2 °C 0,2 °C 94 % 1019,9 hPa 0,0 mm 0,1 km/h (0 Bft) W-NW 283 ° 0 min 0,000 mm 0,7 UV-I 125 W/m² -0,6 °C 0,2 °C 1,6 km/h (1 Bft)
29.04.2017 07:45 0,2 °C 0,2 °C 94 % 1019,9 hPa 0,0 mm 0,5 km/h (0 Bft) W-NW 283 ° 0 min 0,000 mm 0,8 UV-I 132 W/m² -0,6 °C 0,2 °C 1,6 km/h (1 Bft)
29.04.2017 07:46 0,2 °C 0,2 °C 94 % 1020,0 hPa 0,0 mm 0,2 km/h (0 Bft) W-NW 283 ° 0 min 0,000 mm 0,8 UV-I 128 W/m² -0,6 °C 0,2 °C 1,6 km/h (1 Bft)
29.04.2017 07:47 0,2 °C 0,2 °C 93 % 1020,0 hPa 0,0 mm 0,0 km/h (0 Bft) W-NW 283 ° 0 min 0,000 mm 0,8 UV-I 178 W/m² -0,8 °C 0,2 °C 0,0 km/h (0 Bft)
29.04.2017 07:48 0,2 °C 0,2 °C 93 % 1020,0 hPa 0,0 mm 0,0 km/h (0 Bft) W-NW 283 ° 0 min 0,000 mm 0,8 UV-I 158 W/m² -0,8 °C 0,2 °C 0,0 km/h (0 Bft)
29.04.2017 07:49 0,2 °C 0,2 °C 93 % 1020,0 hPa 0,2 mm 0,0 km/h (0 Bft) W-NW 283 ° 0 min 0,000 mm 0,8 UV-I 200 W/m² -0,8 °C 0,2 °C 0,0 km/h (0 Bft)
29.04.2017 07:50 0,2 °C 0,2 °C 94 % 1020,0 hPa 0,0 mm 0,0 km/h (0 Bft) W-NW 283 ° 0 min 0,000 mm 0,8 UV-I 202 W/m² -0,6 °C 0,2 °C 0,0 km/h (0 Bft)
29.04.2017 07:51 0,2 °C 0,2 °C 93 % 1020,0 hPa 0,0 mm 0,0 km/h (0 Bft) W-NW 283 ° 0 min 0,000 mm 0,8 UV-I 202 W/m² -0,8 °C 0,2 °C 0,0 km/h (0 Bft)
29.04.2017 07:52 0,2 °C 0,2 °C 93 % 1020,0 hPa 0,2 mm 0,1 km/h (0 Bft) W-NW 283 ° 0 min 0,000 mm 0,9 UV-I 190 W/m² -0,8 °C 0,2 °C 1,6 km/h (1 Bft)
29.04.2017 07:53 0,3 °C 0,3 °C 93 % 1020,0 hPa 0,0 mm 0,2 km/h (0 Bft) W-NW 283 ° 0 min 0,000 mm 0,9 UV-I 192 W/m² -0,7 °C 0,3 °C 1,6 km/h (1 Bft)
29.04.2017 07:54 0,3 °C 0,3 °C 93 % 1020,0 hPa 0,0 mm 0,0 km/h (0 Bft) W-NW 283 ° 0 min 0,000 mm 0,9 UV-I 223 W/m² -0,7 °C 0,3 °C 0,0 km/h (0 Bft)
29.04.2017 07:55 0,3 °C 0,3 °C 93 % 1019,9 hPa 0,0 mm 0,1 km/h (0 Bft) W-NW 283 ° 0 min 0,000 mm 0,9 UV-I 185 W/m² -0,7 °C 0,3 °C 1,6 km/h (1 Bft)
29.04.2017 07:56 0,3 °C 0,3 °C 93 % 1020,0 hPa 0,0 mm 0,0 km/h (0 Bft) W-NW 283 ° 0 min 0,000 mm 0,9 UV-I 172 W/m² -0,7 °C 0,3 °C 0,0 km/h (0 Bft)
29.04.2017 07:57 0,3 °C 0,3 °C 93 % 1019,9 hPa 0,2 mm 0,0 km/h (0 Bft) W-NW 283 ° 0 min 0,000 mm 0,9 UV-I 188 W/m² -0,7 °C 0,3 °C 0,0 km/h (0 Bft)
29.04.2017 07:58 0,3 °C 0,3 °C 92 % 1019,9 hPa 0,0 mm 0,0 km/h (0 Bft) W-NW 283 ° 0 min 0,000 mm 1,0 UV-I 229 W/m² -0,8 °C 0,3 °C 0,0 km/h (0 Bft)
29.04.2017 07:59 0,3 °C 0,3 °C 92 % 1019,9 hPa 0,0 mm 0,0 km/h (0 Bft) W-NW 283 ° 0 min 0,000 mm 1,0 UV-I 216 W/m² -0,8 °C 0,3 °C 0,0 km/h (0 Bft)
29.04.2017 08:00 0,3 °C 0,3 °C 93 % 1020,0 hPa 0,0 mm 0,3 km/h (0 Bft) W-NW 283 ° 0 min 0,051 mm 1,0 UV-I 232 W/m² -0,7 °C 0,3 °C 1,6 km/h (1 Bft)
29.04.2017 08:01 0,4 °C 0,4 °C 93 % 1020,0 hPa 0,0 mm 0,0 km/h (0 Bft) W-NW 283 ° 0 min 0,000 mm 1,0 UV-I 190 W/m² -0,6 °C 0,4 °C 0,0 km/h (0 Bft)
29.04.2017 08:02 0,4 °C 0,4 °C 93 % 1020,0 hPa 0,0 mm 0,0 km/h (0 Bft) W-NW 283 ° 0 min 0,000 mm 1,0 UV-I 190 W/m² -0,6 °C 0,4 °C 0,0 km/h (0 Bft)
29.04.2017 08:03 0,4 °C 0,4 °C 92 % 1020,0 hPa 0,2 mm 0,0 km/h (0 Bft) W-NW 283 ° 0 min 0,000 mm 1,1 UV-I 230 W/m² -0,7 °C 0,4 °C 0,0 km/h (0 Bft)
29.04.2017 08:04 0,4 °C 0,4 °C 92 % 1019,9 hPa 0,0 mm 0,0 km/h (0 Bft) W-NW 283 ° 0 min 0,000 mm 1,1 UV-I 258 W/m² -0,7 °C 0,4 °C 0,0 km/h (0 Bft)
29.04.2017 08:05 0,4 °C 0,4 °C 93 % 1020,0 hPa 0,0 mm 0,5 km/h (0 Bft) W-NW 283 ° 0 min 0,000 mm 1,1 UV-I 253 W/m² -0,6 °C 0,4 °C 1,6 km/h (1 Bft)
29.04.2017 08:06 0,5 °C 0,5 °C 93 % 1020,0 hPa 0,0 mm 0,7 km/h (0 Bft) W-NW 283 ° 0 min 0,000 mm 1,1 UV-I 264 W/m² -0,5 °C 0,5 °C 3,2 km/h (1 Bft)
29.04.2017 08:07 0,4 °C 0,5 °C 93 % 1020,0 hPa 0,0 mm 0,2 km/h (0 Bft) W-NW 283 ° 0 min 0,000 mm 1,1 UV-I 255 W/m² -0,6 °C 0,4 °C 1,6 km/h (1 Bft)
29.04.2017 08:08 0,4 °C 0,5 °C 93 % 1020,0 hPa 0,0 mm 0,0 km/h (0 Bft) W-NW 283 ° 0 min 0,000 mm 1,2 UV-I 260 W/m² -0,6 °C 0,4 °C 0,0 km/h (0 Bft)
29.04.2017 08:09 0,6 °C 0,6 °C 93 % 1020,0 hPa 0,0 mm 0,0 km/h (0 Bft) W-NW 283 ° 0 min 0,000 mm 1,2 UV-I 264 W/m² -0,4 °C 0,6 °C 0,0 km/h (0 Bft)
29.04.2017 08:10 0,7 °C 0,7 °C 92 % 1020,0 hPa 0,0 mm 0,0 km/h (0 Bft) W-NW 283 ° 0 min 0,000 mm 1,2 UV-I 274 W/m² -0,4 °C 0,7 °C 0,0 km/h (0 Bft)
29.04.2017 08:11 0,7 °C 0,7 °C 92 % 1020,0 hPa 0,0 mm 0,0 km/h (0 Bft) W-NW 283 ° 0 min 0,000 mm 1,2 UV-I 279 W/m² -0,4 °C 0,7 °C 0,0 km/h (0 Bft)
29.04.2017 08:12 0,8 °C 0,8 °C 91 % 1020,0 hPa 0,0 mm 0,0 km/h (0 Bft) W-NW 283 ° 0 min 0,000 mm 1,2 UV-I 285 W/m² -0,5 °C 0,8 °C 0,0 km/h (0 Bft)
29.04.2017 08:13 0,8 °C 0,8 °C 91 % 1020,0 hPa 0,0 mm 0,0 km/h (0 Bft) W-NW 283 ° 0 min 0,000 mm 1,3 UV-I 287 W/m² -0,5 °C 0,8 °C 0,0 km/h (0 Bft)
29.04.2017 08:14 0,8 °C 0,8 °C 92 % 1020,0 hPa 0,0 mm 0,0 km/h (0 Bft) W-NW 283 ° 0 min 0,000 mm 1,3 UV-I 288 W/m² -0,3 °C 0,8 °C 0,0 km/h (0 Bft)
29.04.2017 08:15 0,8 °C 0,8 °C 91 % 1020,0 hPa 0,0 mm 0,0 km/h (0 Bft) W-NW 283 ° 1 min 0,000 mm 1,3 UV-I 292 W/m² -0,5 °C 0,8 °C 0,0 km/h (0 Bft)
29.04.2017 08:16 0,8 °C 0,8 °C 91 % 1020,0 hPa 0,0 mm 0,0 km/h (0 Bft) W-NW 283 ° 1 min 0,000 mm 1,3 UV-I 294 W/m² -0,5 °C 0,8 °C 0,0 km/h (0 Bft)
29.04.2017 08:17 0,8 °C 0,8 °C 91 % 1020,0 hPa 0,0 mm 0,0 km/h (0 Bft) W-NW 283 ° 1 min 0,000 mm 1,3 UV-I 295 W/m² -0,5 °C 0,8 °C 0,0 km/h (0 Bft)
29.04.2017 08:18 0,8 °C 0,8 °C 91 % 1020,0 hPa 0,0 mm 0,0 km/h (0 Bft) W-NW 283 ° 1 min 0,000 mm 1,3 UV-I 299 W/m² -0,5 °C 0,8 °C 0,0 km/h (0 Bft)
29.04.2017 08:19 0,8 °C 0,8 °C 91 % 1020,0 hPa 0,0 mm 0,5 km/h (0 Bft) W-NW 283 ° 1 min 0,000 mm 1,3 UV-I 301 W/m² -0,5 °C 0,8 °C 1,6 km/h (1 Bft)
29.04.2017 08:20 0,8 °C 0,8 °C 91 % 1020,0 hPa 0,0 mm 0,7 km/h (0 Bft) W-NW 283 ° 1 min 0,000 mm 1,4 UV-I 304 W/m² -0,5 °C 0,8 °C 3,2 km/h (1 Bft)
29.04.2017 08:21 0,8 °C 0,8 °C 91 % 1020,0 hPa 0,0 mm 0,5 km/h (0 Bft) W-NW 283 ° 1 min 0,000 mm 1,4 UV-I 306 W/m² -0,5 °C 0,8 °C 1,6 km/h (1 Bft)
29.04.2017 08:22 0,8 °C 0,8 °C 91 % 1020,0 hPa 0,0 mm 0,6 km/h (0 Bft) W-NW 283 ° 1 min 0,000 mm 1,4 UV-I 308 W/m² -0,5 °C 0,8 °C 1,6 km/h (1 Bft)
29.04.2017 08:23 0,9 °C 0,9 °C 91 % 1020,0 hPa 0,0 mm 0,0 km/h (0 Bft) W-NW 283 ° 1 min 0,000 mm 1,4 UV-I 309 W/m² -0,4 °C 0,9 °C 0,0 km/h (0 Bft)
29.04.2017 08:24 0,9 °C 0,9 °C 91 % 1020,0 hPa 0,0 mm 0,0 km/h (0 Bft) W-NW 283 ° 1 min 0,000 mm 1,4 UV-I 315 W/m² -0,4 °C 0,9 °C 0,0 km/h (0 Bft)
29.04.2017 08:25 0,9 °C 1,0 °C 91 % 1020,0 hPa 0,0 mm 0,0 km/h (0 Bft) W-NW 283 ° 1 min 0,000 mm 1,4 UV-I 316 W/m² -0,4 °C 0,9 °C 0,0 km/h (0 Bft)
29.04.2017 08:26 0,9 °C 1,0 °C 91 % 1020,0 hPa 0,2 mm 0,0 km/h (0 Bft) W-NW 283 ° 1 min 0,000 mm 1,5 UV-I 318 W/m² -0,4 °C 0,9 °C 0,0 km/h (0 Bft)
29.04.2017 08:27 1,1 °C 1,1 °C 92 % 1020,0 hPa 0,0 mm 0,0 km/h (0 Bft) W-NW 283 ° 1 min 0,000 mm 1,5 UV-I 320 W/m² -0,1 °C 1,1 °C 0,0 km/h (0 Bft)
29.04.2017 08:28 1,1 °C 1,1 °C 91 % 1020,0 hPa 0,0 mm 0,0 km/h (0 Bft) W-NW 283 ° 1 min 0,000 mm 1,5 UV-I 323 W/m² -0,2 °C 1,1 °C 0,0 km/h (0 Bft)
29.04.2017 08:29 1,1 °C 1,1 °C 91 % 1020,1 hPa 0,0 mm 0,0 km/h (0 Bft) W-NW 283 ° 1 min 0,000 mm 1,5 UV-I 323 W/m² -0,2 °C 1,1 °C 0,0 km/h (0 Bft)
29.04.2017 08:30 1,1 °C 1,1 °C 91 % 1020,1 hPa 0,2 mm 0,0 km/h (0 Bft) W-NW 283 ° 1 min 0,000 mm 1,5 UV-I 329 W/m² -0,2 °C 1,1 °C 0,0 km/h (0 Bft)
29.04.2017 08:31 1,2 °C 1,2 °C 91 % 1020,0 hPa 0,0 mm 0,0 km/h (0 Bft) W-NW 283 ° 1 min 0,000 mm 1,6 UV-I 332 W/m² -0,1 °C 1,2 °C 0,0 km/h (0 Bft)
29.04.2017 08:32 1,2 °C 1,2 °C 90 % 1020,1 hPa 0,0 mm 0,0 km/h (0 Bft) W-NW 283 ° 1 min 0,000 mm 1,6 UV-I 334 W/m² -0,3 °C 1,2 °C 0,0 km/h (0 Bft)
29.04.2017 08:33 1,2 °C 1,2 °C 91 % 1020,0 hPa 0,0 mm 0,0 km/h (0 Bft) W-NW 283 ° 1 min 0,000 mm 1,6 UV-I 338 W/m² -0,1 °C 1,2 °C 0,0 km/h (0 Bft)
29.04.2017 08:34 1,2 °C 1,2 °C 91 % 1020,0 hPa 0,0 mm 0,0 km/h (0 Bft) W-NW 283 ° 1 min 0,000 mm 1,6 UV-I 341 W/m² -0,1 °C 1,2 °C 0,0 km/h (0 Bft)
29.04.2017 08:35 1,3 °C 1,3 °C 91 % 1020,0 hPa 0,0 mm 0,5 km/h (0 Bft) W-NW 283 ° 1 min 0,000 mm 1,6 UV-I 343 W/m² -0,0 °C 1,3 °C 1,6 km/h (1 Bft)
29.04.2017 08:36 1,3 °C 1,3 °C 91 % 1020,0 hPa 0,0 mm 0,3 km/h (0 Bft) W-NW 283 ° 1 min 0,000 mm 1,6 UV-I 346 W/m² -0,0 °C 1,3 °C 1,6 km/h (1 Bft)
29.04.2017 08:37 1,4 °C 1,4 °C 90 % 1020,0 hPa 0,0 mm 0,3 km/h (0 Bft) W-NW 283 ° 1 min 0,000 mm 1,7 UV-I 348 W/m² -0,1 °C 1,4 °C 1,6 km/h (1 Bft)
29.04.2017 08:38 1,4 °C 1,4 °C 90 % 1020,0 hPa 0,2 mm 0,0 km/h (0 Bft) W-NW 283 ° 1 min 0,000 mm 1,7 UV-I 352 W/m² -0,1 °C 1,4 °C 0,0 km/h (0 Bft)
29.04.2017 08:39 1,5 °C 1,5 °C 89 % 1020,1 hPa 0,0 mm 0,0 km/h (0 Bft) W-NW 283 ° 1 min 0,000 mm 1,7 UV-I 352 W/m² -0,1 °C 1,5 °C 0,0 km/h (0 Bft)
29.04.2017 08:40 1,5 °C 1,5 °C 90 % 1020,0 hPa 0,0 mm 0,0 km/h (0 Bft) W-NW 283 ° 1 min 0,000 mm 1,7 UV-I 355 W/m² 0,0 °C 1,5 °C 0,0 km/h (0 Bft)
29.04.2017 08:41 1,6 °C 1,6 °C 90 % 1020,0 hPa 0,0 mm 0,1 km/h (0 Bft) W-NW 283 ° 1 min 0,000 mm 1,7 UV-I 360 W/m² 0,1 °C 1,6 °C 1,6 km/h (1 Bft)
29.04.2017 08:42 1,6 °C 1,6 °C 89 % 1020,0 hPa 0,0 mm 0,0 km/h (0 Bft) W-NW 283 ° 1 min 0,000 mm 1,7 UV-I 362 W/m² -0,0 °C 1,6 °C 0,0 km/h (0 Bft)
29.04.2017 08:43 1,6 °C 1,6 °C 89 % 1020,0 hPa 0,2 mm 0,0 km/h (0 Bft) W-NW 283 ° 1 min 0,000 mm 1,8 UV-I 364 W/m² -0,0 °C 1,6 °C 0,0 km/h (0 Bft)
29.04.2017 08:44 1,6 °C 1,6 °C 89 % 1020,0 hPa 0,0 mm 0,0 km/h (0 Bft) W-NW 283 ° 1 min 0,000 mm 1,8 UV-I 366 W/m² -0,0 °C 1,6 °C 0,0 km/h (0 Bft)
29.04.2017 08:45 1,6 °C 1,6 °C 89 % 1020,0 hPa 0,0 mm 0,0 km/h (0 Bft) W-NW 283 ° 1 min 0,000 mm 1,8 UV-I 369 W/m² -0,0 °C 1,6 °C 0,0 km/h (0 Bft)
29.04.2017 08:46 1,6 °C 1,6 °C 89 % 1019,9 hPa 0,0 mm 0,0 km/h (0 Bft) W-NW 283 ° 1 min 0,000 mm 1,8 UV-I 371 W/m² -0,0 °C 1,6 °C 0,0 km/h (0 Bft)
29.04.2017 08:47 1,7 °C 1,7 °C 89 % 1019,9 hPa 0,2 mm 0,0 km/h (0 Bft) W-NW 283 ° 1 min 0,000 mm 1,9 UV-I 376 W/m² 0,1 °C 1,7 °C 0,0 km/h (0 Bft)
29.04.2017 08:48 1,7 °C 1,7 °C 90 % 1020,0 hPa 0,0 mm 0,0 km/h (0 Bft) W-NW 283 ° 1 min 0,000 mm 1,9 UV-I 380 W/m² 0,2 °C 1,7 °C 0,0 km/h (0 Bft)
29.04.2017 08:49 1,7 °C 1,7 °C 89 % 1020,0 hPa 0,0 mm 0,0 km/h (0 Bft) W-NW 283 ° 1 min 0,000 mm 1,9 UV-I 381 W/m² 0,1 °C 1,7 °C 0,0 km/h (0 Bft)
29.04.2017 08:50 1,7 °C 1,7 °C 89 % 1020,0 hPa 0,0 mm 0,5 km/h (0 Bft) W-NW 283 ° 1 min 0,000 mm 1,9 UV-I 385 W/m² 0,1 °C 1,7 °C 1,6 km/h (1 Bft)
29.04.2017 08:51 1,8 °C 1,8 °C 89 % 1020,0 hPa 0,0 mm 0,0 km/h (0 Bft) W-NW 283 ° 1 min 0,000 mm 1,9 UV-I 387 W/m² 0,2 °C 1,8 °C 0,0 km/h (0 Bft)
29.04.2017 08:52 1,8 °C 1,8 °C 89 % 1020,0 hPa 0,2 mm 0,0 km/h (0 Bft) W-NW 283 ° 1 min 0,000 mm 2,0 UV-I 390 W/m² 0,2 °C 1,8 °C 0,0 km/h (0 Bft)
29.04.2017 08:53 1,8 °C 1,8 °C 89 % 1020,0 hPa 0,0 mm 0,0 km/h (0 Bft) W-NW 283 ° 1 min 0,000 mm 2,0 UV-I 394 W/m² 0,2 °C 1,8 °C 0,0 km/h (0 Bft)
29.04.2017 08:54 1,8 °C 1,8 °C 89 % 1020,0 hPa 0,0 mm 2,1 km/h (1 Bft) W-NW 283 ° 1 min 0,000 mm 2,0 UV-I 396 W/m² 0,2 °C 1,8 °C 3,2 km/h (1 Bft)
29.04.2017 08:55 1,9 °C 1,9 °C 89 % 1020,1 hPa 0,0 mm 3,4 km/h (1 Bft) W-NW 282 ° 1 min 0,000 mm 2,0 UV-I 397 W/m² 0,3 °C 1,9 °C 4,8 km/h (1 Bft)
29.04.2017 08:56 1,9 °C 1,9 °C 88 % 1020,0 hPa 0,2 mm 0,9 km/h (0 Bft) W-NW 282 ° 1 min 0,000 mm 2,0 UV-I 401 W/m² 0,1 °C 1,9 °C 1,6 km/h (1 Bft)
29.04.2017 08:57 1,9 °C 1,9 °C 88 % 1020,1 hPa 0,0 mm 0,1 km/h (0 Bft) W 281 ° 1 min 0,000 mm 2,1 UV-I 401 W/m² 0,1 °C 1,9 °C 1,6 km/h (1 Bft)
29.04.2017 08:58 1,9 °C 1,9 °C 88 % 1020,1 hPa 0,0 mm 0,2 km/h (0 Bft) W-NW 282 ° 1 min 0,000 mm 2,1 UV-I 404 W/m² 0,1 °C 1,9 °C 3,2 km/h (1 Bft)
29.04.2017 08:59 2,0 °C 2,0 °C 87 % 1020,1 hPa 0,0 mm 0,6 km/h (0 Bft) W 281 ° 1 min 0,000 mm 2,1 UV-I 410 W/m² 0,1 °C 2,0 °C 1,6 km/h (1 Bft)
29.04.2017 09:00 2,0 °C 2,0 °C 88 % 1020,0 hPa 0,0 mm 0,3 km/h (0 Bft) W-NW 282 ° 1 min 0,000 mm 2,1 UV-I 411 W/m² 0,2 °C 2,0 °C 1,6 km/h (1 Bft)
29.04.2017 09:01 2,0 °C 2,0 °C 88 % 1020,1 hPa 0,2 mm 1,2 km/h (1 Bft) W-NW 282 ° 1 min 0,101 mm 2,1 UV-I 413 W/m² 0,2 °C 2,0 °C 3,2 km/h (1 Bft)
29.04.2017 09:02 2,0 °C 2,0 °C 88 % 1020,1 hPa 0,0 mm 0,0 km/h (0 Bft) W-NW 282 ° 1 min 0,000 mm 2,2 UV-I 417 W/m² 0,2 °C 2,0 °C 0,0 km/h (0 Bft)
29.04.2017 09:03 2,1 °C 2,1 °C 88 % 1020,1 hPa 0,0 mm 0,1 km/h (0 Bft) W-NW 282 ° 1 min 0,000 mm 2,2 UV-I 418 W/m² 0,3 °C 2,1 °C 1,6 km/h (1 Bft)
29.04.2017 09:04 2,1 °C 2,1 °C 88 % 1020,1 hPa 0,0 mm 0,7 km/h (0 Bft) W-NW 282 ° 1 min 0,000 mm 2,2 UV-I 422 W/m² 0,3 °C 2,1 °C 1,6 km/h (1 Bft)
29.04.2017 09:05 2,1 °C 2,1 °C 88 % 1020,1 hPa 0,2 mm 0,2 km/h (0 Bft) W-NW 282 ° 1 min 0,000 mm 2,2 UV-I 425 W/m² 0,3 °C 2,1 °C 1,6 km/h (1 Bft)
29.04.2017 09:06 2,0 °C 2,1 °C 88 % 1020,1 hPa 0,0 mm 1,1 km/h (1 Bft) W-NW 284 ° 1 min 0,000 mm 2,2 UV-I 429 W/m² 0,2 °C 2,0 °C 3,2 km/h (1 Bft)
29.04.2017 09:07 2,1 °C 2,1 °C 88 % 1020,0 hPa 0,0 mm 0,1 km/h (0 Bft) W-NW 284 ° 1 min 0,000 mm 2,3 UV-I 429 W/m² 0,3 °C 2,1 °C 1,6 km/h (1 Bft)
29.04.2017 09:08 2,0 °C 2,1 °C 87 % 1020,0 hPa 0,0 mm 1,3 km/h (1 Bft) W-NW 288 ° 1 min 0,000 mm 2,3 UV-I 432 W/m² 0,1 °C 2,0 °C 3,2 km/h (1 Bft)
29.04.2017 09:09 2,0 °C 2,0 °C 88 % 1020,1 hPa 0,0 mm 0,9 km/h (0 Bft) W 280 ° 1 min 0,000 mm 2,3 UV-I 434 W/m² 0,2 °C 2,0 °C 3,2 km/h (1 Bft)
29.04.2017 09:10 2,0 °C 2,0 °C 88 % 1020,1 hPa 0,2 mm 1,1 km/h (1 Bft) W 281 ° 1 min 0,000 mm 2,3 UV-I 438 W/m² 0,2 °C 2,0 °C 3,2 km/h (1 Bft)
29.04.2017 09:11 2,1 °C 2,1 °C 88 % 1020,0 hPa 0,0 mm 1,2 km/h (1 Bft) W 281 ° 1 min 0,000 mm 2,3 UV-I 441 W/m² 0,3 °C 2,1 °C 3,2 km/h (1 Bft)
29.04.2017 09:12 2,1 °C 2,1 °C 88 % 1019,9 hPa 0,0 mm 0,0 km/h (0 Bft) W 281 ° 1 min 0,000 mm 2,4 UV-I 443 W/m² 0,3 °C 2,1 °C 0,0 km/h (0 Bft)
29.04.2017 09:13 2,2 °C 2,2 °C 88 % 1020,0 hPa 0,0 mm 0,0 km/h (0 Bft) W 281 ° 1 min 0,000 mm 2,4 UV-I 445 W/m² 0,4 °C 2,2 °C 0,0 km/h (0 Bft)
29.04.2017 09:14 2,2 °C 2,2 °C 88 % 1020,0 hPa 0,2 mm 0,0 km/h (0 Bft) W 281 ° 1 min 0,000 mm 2,4 UV-I 448 W/m² 0,4 °C 2,2 °C 0,0 km/h (0 Bft)
29.04.2017 09:15 2,2 °C 2,2 °C 87 % 1019,9 hPa 0,0 mm 0,3 km/h (0 Bft) W 281 ° 1 min 0,000 mm 2,4 UV-I 450 W/m² 0,3 °C 2,2 °C 1,6 km/h (1 Bft)
29.04.2017 09:16 2,2 °C 2,2 °C 87 % 1019,9 hPa 0,0 mm 0,4 km/h (0 Bft) W 281 ° 1 min 0,000 mm 2,4 UV-I 452 W/m² 0,3 °C 2,2 °C 1,6 km/h (1 Bft)
29.04.2017 09:17 2,3 °C 2,3 °C 87 % 1020,0 hPa 0,0 mm 0,1 km/h (0 Bft) W 281 ° 1 min 0,000 mm 2,4 UV-I 457 W/m² 0,4 °C 2,3 °C 1,6 km/h (1 Bft)
29.04.2017 09:18 2,3 °C 2,3 °C 87 % 1020,0 hPa 0,2 mm 0,0 km/h (0 Bft) W 281 ° 1 min 0,000 mm 2,5 UV-I 459 W/m² 0,4 °C 2,3 °C 0,0 km/h (0 Bft)
29.04.2017 09:19 2,3 °C 2,3 °C 87 % 1020,0 hPa 0,0 mm 0,0 km/h (0 Bft) W 281 ° 1 min 0,000 mm 2,5 UV-I 461 W/m² 0,4 °C 2,3 °C 0,0 km/h (0 Bft)
29.04.2017 09:20 2,3 °C 2,3 °C 87 % 1020,0 hPa 0,0 mm 0,0 km/h (0 Bft) W 281 ° 1 min 0,000 mm 2,5 UV-I 462 W/m² 0,4 °C 2,3 °C 0,0 km/h (0 Bft)
29.04.2017 09:21 2,3 °C 2,4 °C 88 % 1020,0 hPa 0,0 mm 0,0 km/h (0 Bft) W 281 ° 1 min 0,000 mm 2,5 UV-I 464 W/m² 0,5 °C 2,3 °C 0,0 km/h (0 Bft)
29.04.2017 09:22 2,4 °C 2,4 °C 88 % 1020,1 hPa 0,2 mm 0,0 km/h (0 Bft) W 281 ° 1 min 0,000 mm 2,6 UV-I 469 W/m² 0,6 °C 2,4 °C 0,0 km/h (0 Bft)
29.04.2017 09:23 2,4 °C 2,4 °C 87 % 1020,0 hPa 0,0 mm 0,0 km/h (0 Bft) W 281 ° 1 min 0,000 mm 2,6 UV-I 473 W/m² 0,5 °C 2,4 °C 0,0 km/h (0 Bft)
29.04.2017 09:24 2,5 °C 2,5 °C 88 % 1020,0 hPa 0,0 mm 0,0 km/h (0 Bft) W 281 ° 1 min 0,000 mm 2,6 UV-I 473 W/m² 0,7 °C 2,5 °C 0,0 km/h (0 Bft)
29.04.2017 09:25 2,5 °C 2,5 °C 88 % 1020,1 hPa 0,0 mm 0,4 km/h (0 Bft) W 281 ° 1 min 0,000 mm 2,6 UV-I 476 W/m² 0,7 °C 2,5 °C 1,6 km/h (1 Bft)
29.04.2017 09:26 2,6 °C 2,6 °C 88 % 1020,0 hPa 0,2 mm 0,3 km/h (0 Bft) W 281 ° 1 min 0,000 mm 2,6 UV-I 478 W/m² 0,8 °C 2,6 °C 1,6 km/h (1 Bft)
29.04.2017 09:27 2,6 °C 2,6 °C 87 % 1020,0 hPa 0,0 mm 0,0 km/h (0 Bft) W 281 ° 1 min 0,000 mm 2,7 UV-I 482 W/m² 0,7 °C 2,6 °C 0,0 km/h (0 Bft)
29.04.2017 09:28 2,6 °C 2,6 °C 88 % 1020,1 hPa 0,0 mm 0,5 km/h (0 Bft) W 281 ° 1 min 0,000 mm 2,7 UV-I 487 W/m² 0,8 °C 2,6 °C 3,2 km/h (1 Bft)
29.04.2017 09:29 2,6 °C 2,6 °C 87 % 1020,0 hPa 0,0 mm 0,0 km/h (0 Bft) W 281 ° 1 min 0,000 mm 2,7 UV-I 490 W/m² 0,7 °C 2,6 °C 0,0 km/h (0 Bft)
29.04.2017 09:30 2,7 °C 2,7 °C 88 % 1020,0 hPa 0,2 mm 0,0 km/h (0 Bft) W 281 ° 1 min 0,000 mm 2,7 UV-I 494 W/m² 0,9 °C 2,7 °C 0,0 km/h (0 Bft)
29.04.2017 09:31 2,7 °C 2,7 °C 87 % 1020,1 hPa 0,0 mm 0,2 km/h (0 Bft) W 281 ° 1 min 0,000 mm 2,8 UV-I 496 W/m² 0,8 °C 2,7 °C 1,6 km/h (1 Bft)
29.04.2017 09:32 2,7 °C 2,7 °C 87 % 1020,0 hPa 0,0 mm 0,2 km/h (0 Bft) W 281 ° 1 min 0,000 mm 2,8 UV-I 499 W/m² 0,8 °C 2,7 °C 1,6 km/h (1 Bft)
29.04.2017 09:33 2,7 °C 2,7 °C 87 % 1020,0 hPa 0,0 mm 0,0 km/h (0 Bft) W 281 ° 1 min 0,000 mm 2,8 UV-I 503 W/m² 0,8 °C 2,7 °C 0,0 km/h (0 Bft)
29.04.2017 09:34 2,7 °C 2,7 °C 87 % 1020,0 hPa 0,2 mm 0,3 km/h (0 Bft) W-SW 239 ° 1 min 0,000 mm 2,8 UV-I 510 W/m² 0,8 °C 2,7 °C 1,6 km/h (1 Bft)
29.04.2017 09:35 2,7 °C 2,7 °C 87 % 1020,0 hPa 0,0 mm 0,0 km/h (0 Bft) W-SW 239 ° 1 min 0,000 mm 2,8 UV-I 513 W/m² 0,8 °C 2,7 °C 0,0 km/h (0 Bft)
29.04.2017 09:36 2,7 °C 2,7 °C 87 % 1020,0 hPa 0,0 mm 0,3 km/h (0 Bft) W-SW 239 ° 1 min 0,000 mm 2,9 UV-I 517 W/m² 0,8 °C 2,7 °C 1,6 km/h (1 Bft)
29.04.2017 09:37 2,8 °C 2,8 °C 86 % 1020,0 hPa 0,0 mm 0,0 km/h (0 Bft) W-SW 239 ° 1 min 0,000 mm 2,9 UV-I 520 W/m² 0,7 °C 2,8 °C 0,0 km/h (0 Bft)
29.04.2017 09:38 2,8 °C 2,8 °C 86 % 1020,0 hPa 0,2 mm 0,3 km/h (0 Bft) W-SW 239 ° 1 min 0,000 mm 2,9 UV-I 524 W/m² 0,7 °C 2,8 °C 1,6 km/h (1 Bft)
29.04.2017 09:39 2,8 °C 2,8 °C 86 % 1020,0 hPa 0,0 mm 1,2 km/h (1 Bft) W-SW 239 ° 1 min 0,000 mm 2,9 UV-I 526 W/m² 0,7 °C 2,8 °C 1,6 km/h (1 Bft)
29.04.2017 09:40 2,9 °C 2,9 °C 86 % 1020,0 hPa 0,0 mm 0,5 km/h (0 Bft) W-SW 239 ° 1 min 0,000 mm 3,0 UV-I 534 W/m² 0,8 °C 2,9 °C 1,6 km/h (1 Bft)
29.04.2017 09:41 2,9 °C 2,9 °C 86 % 1020,0 hPa 0,0 mm 1,1 km/h (1 Bft) W-SW 239 ° 1 min 0,000 mm 3,0 UV-I 540 W/m² 0,8 °C 2,9 °C 3,2 km/h (1 Bft)
29.04.2017 09:42 3,0 °C 3,0 °C 86 % 1020,0 hPa 0,2 mm 0,5 km/h (0 Bft) W-SW 239 ° 1 min 0,000 mm 3,0 UV-I 541 W/m² 0,9 °C 3,0 °C 1,6 km/h (1 Bft)
29.04.2017 09:43 3,1 °C 3,1 °C 86 % 1020,0 hPa 0,0 mm 1,0 km/h (0 Bft) W-SW 239 ° 1 min 0,000 mm 3,0 UV-I 547 W/m² 1,0 °C 3,1 °C 3,2 km/h (1 Bft)
29.04.2017 09:44 3,1 °C 3,1 °C 85 % 1020,0 hPa 0,0 mm 0,6 km/h (0 Bft) W-SW 239 ° 1 min 0,000 mm 3,1 UV-I 550 W/m² 0,8 °C 3,1 °C 1,6 km/h (1 Bft)
29.04.2017 09:45 3,1 °C 3,1 °C 85 % 1020,0 hPa 0,0 mm 0,1 km/h (0 Bft) W-SW 239 ° 1 min 0,000 mm 3,1 UV-I 554 W/m² 0,8 °C 3,1 °C 1,6 km/h (1 Bft)
29.04.2017 09:46 3,1 °C 3,1 °C 85 % 1020,0 hPa 0,2 mm 0,0 km/h (0 Bft) W-SW 239 ° 1 min 0,000 mm 3,1 UV-I 563 W/m² 0,8 °C 3,1 °C 0,0 km/h (0 Bft)
29.04.2017 09:47 3,2 °C 3,2 °C 85 % 1020,0 hPa 0,0 mm 0,6 km/h (0 Bft) W-SW 239 ° 1 min 0,000 mm 3,1 UV-I 564 W/m² 0,9 °C 3,2 °C 1,6 km/h (1 Bft)
29.04.2017 09:48 3,2 °C 3,2 °C 85 % 1020,0 hPa 0,0 mm 0,1 km/h (0 Bft) W-SW 239 ° 1 min 0,000 mm 3,1 UV-I 568 W/m² 0,9 °C 3,2 °C 1,6 km/h (1 Bft)
29.04.2017 09:49 3,2 °C 3,2 °C 86 % 1020,0 hPa 0,0 mm 0,1 km/h (0 Bft) W-SW 239 ° 1 min 0,000 mm 3,1 UV-I 570 W/m² 1,1 °C 3,2 °C 1,6 km/h (1 Bft)
29.04.2017 09:50 3,2 °C 3,3 °C 85 % 1020,1 hPa 0,2 mm 1,0 km/h (0 Bft) W-SW 239 ° 1 min 0,000 mm 3,2 UV-I 573 W/m² 0,9 °C 3,2 °C 3,2 km/h (1 Bft)
29.04.2017 09:51 3,3 °C 3,3 °C 84 % 1020,0 hPa 0,0 mm 0,4 km/h (0 Bft) W-SW 239 ° 1 min 0,000 mm 3,2 UV-I 575 W/m² 0,9 °C 3,3 °C 1,6 km/h (1 Bft)
29.04.2017 09:52 3,3 °C 3,3 °C 84 % 1020,0 hPa 0,0 mm 0,0 km/h (0 Bft) W-SW 239 ° 1 min 0,000 mm 3,2 UV-I 584 W/m² 0,9 °C 3,3 °C 0,0 km/h (0 Bft)
29.04.2017 09:53 3,4 °C 3,4 °C 84 % 1020,0 hPa 0,2 mm 0,0 km/h (0 Bft) W-SW 239 ° 1 min 0,000 mm 3,3 UV-I 584 W/m² 1,0 °C 3,4 °C 0,0 km/h (0 Bft)
29.04.2017 09:54 3,4 °C 3,4 °C 85 % 1020,1 hPa 0,0 mm 0,5 km/h (0 Bft) W-SW 239 ° 1 min 0,000 mm 3,3 UV-I 587 W/m² 1,1 °C 3,4 °C 1,6 km/h (1 Bft)
29.04.2017 09:55 3,5 °C 3,5 °C 84 % 1020,0 hPa 0,0 mm 0,0 km/h (0 Bft) W-SW 239 ° 1 min 0,000 mm 3,3 UV-I 589 W/m² 1,1 °C 3,5 °C 0,0 km/h (0 Bft)
29.04.2017 09:56 3,7 °C 3,7 °C 85 % 1020,0 hPa 0,0 mm 0,2 km/h (0 Bft) W-SW 239 ° 1 min 0,000 mm 3,3 UV-I 591 W/m² 1,4 °C 3,7 °C 1,6 km/h (1 Bft)
29.04.2017 09:57 3,7 °C 3,8 °C 84 % 1020,0 hPa 0,2 mm 0,0 km/h (0 Bft) W-SW 239 ° 1 min 0,000 mm 3,3 UV-I 594 W/m² 1,3 °C 3,7 °C 0,0 km/h (0 Bft)
29.04.2017 09:58 3,6 °C 3,7 °C 84 % 1020,0 hPa 0,0 mm 0,3 km/h (0 Bft) W-SW 239 ° 1 min 0,000 mm 3,4 UV-I 599 W/m² 1,2 °C 3,6 °C 1,6 km/h (1 Bft)
29.04.2017 09:59 3,6 °C 3,6 °C 84 % 1020,0 hPa 0,0 mm 1,6 km/h (1 Bft) W-SW 239 ° 1 min 0,000 mm 3,4 UV-I 601 W/m² 1,2 °C 3,6 °C 3,2 km/h (1 Bft)
29.04.2017 10:00 3,4 °C 3,6 °C 84 % 1020,0 hPa 0,0 mm 2,3 km/h (1 Bft) W-SW 239 ° 1 min 0,000 mm 3,4 UV-I 603 W/m² 1,0 °C 3,4 °C 3,2 km/h (1 Bft)
29.04.2017 10:01 3,4 °C 3,4 °C 85 % 1020,0 hPa 0,2 mm 2,8 km/h (1 Bft) W-NW 303 ° 1 min 0,178 mm 3,5 UV-I 606 W/m² 1,1 °C 3,4 °C 4,8 km/h (1 Bft)
29.04.2017 10:02 3,4 °C 3,4 °C 85 % 1020,1 hPa 0,0 mm 0,1 km/h (0 Bft) W-NW 303 ° 1 min 0,000 mm 3,5 UV-I 608 W/m² 1,1 °C 3,4 °C 1,6 km/h (1 Bft)
29.04.2017 10:03 3,5 °C 3,5 °C 85 % 1020,0 hPa 0,0 mm 2,5 km/h (1 Bft) W-NW 302 ° 1 min 0,000 mm 3,5 UV-I 610 W/m² 1,2 °C 3,5 °C 3,2 km/h (1 Bft)
29.04.2017 10:04 3,7 °C 3,7 °C 84 % 1020,1 hPa 0,0 mm 2,8 km/h (1 Bft) W-NW 302 ° 1 min 0,000 mm 3,5 UV-I 612 W/m² 1,3 °C 3,7 °C 3,2 km/h (1 Bft)
29.04.2017 10:05 3,8 °C 3,8 °C 85 % 1020,1 hPa 0,2 mm 2,5 km/h (1 Bft) W-NW 301 ° 1 min 0,000 mm 3,6 UV-I 615 W/m² 1,5 °C 3,8 °C 3,2 km/h (1 Bft)
29.04.2017 10:06 4,0 °C 4,0 °C 84 % 1020,1 hPa 0,0 mm 2,7 km/h (1 Bft) W-NW 301 ° 1 min 0,000 mm 3,6 UV-I 619 W/m² 1,5 °C 4,0 °C 4,8 km/h (1 Bft)
29.04.2017 10:07 4,1 °C 4,1 °C 82 % 1020,1 hPa 0,0 mm 1,8 km/h (1 Bft) W-NW 302 ° 1 min 0,000 mm 3,6 UV-I 621 W/m² 1,3 °C 4,1 °C 3,2 km/h (1 Bft)
29.04.2017 10:08 4,1 °C 4,1 °C 82 % 1020,1 hPa 0,0 mm 1,6 km/h (1 Bft) W-NW 302 ° 1 min 0,000 mm 3,6 UV-I 622 W/m² 1,3 °C 4,1 °C 3,2 km/h (1 Bft)
29.04.2017 10:09 4,2 °C 4,2 °C 82 % 1020,1 hPa 0,2 mm 2,8 km/h (1 Bft) W-NW 301 ° 1 min 0,000 mm 3,7 UV-I 626 W/m² 1,4 °C 4,2 °C 4,8 km/h (1 Bft)
29.04.2017 10:10 4,2 °C 4,2 °C 80 % 1020,1 hPa 0,0 mm 3,0 km/h (1 Bft) W-NW 302 ° 1 min 0,000 mm 3,7 UV-I 629 W/m² 1,1 °C 4,2 °C 4,8 km/h (1 Bft)
29.04.2017 10:11 4,3 °C 4,3 °C 80 % 1020,1 hPa 0,0 mm 2,9 km/h (1 Bft) W-NW 302 ° 1 min 0,000 mm 3,7 UV-I 631 W/m² 1,2 °C 4,3 °C 4,8 km/h (1 Bft)
29.04.2017 10:12 4,3 °C 4,3 °C 80 % 1020,1 hPa 0,2 mm 2,0 km/h (1 Bft) W-NW 302 ° 1 min 0,000 mm 3,8 UV-I 631 W/m² 1,2 °C 4,3 °C 3,2 km/h (1 Bft)
29.04.2017 10:13 4,4 °C 4,4 °C 79 % 1020,1 hPa 0,0 mm 1,3 km/h (1 Bft) W-NW 302 ° 1 min 0,000 mm 3,8 UV-I 633 W/m² 1,1 °C 4,4 °C 1,6 km/h (1 Bft)
29.04.2017 10:14 4,5 °C 4,5 °C 79 % 1020,1 hPa 0,0 mm 0,2 km/h (0 Bft) W-NW 302 ° 1 min 0,000 mm 3,8 UV-I 635 W/m² 1,2 °C 4,5 °C 1,6 km/h (1 Bft)
29.04.2017 10:15 4,5 °C 4,5 °C 78 % 1020,1 hPa 0,0 mm 0,3 km/h (0 Bft) W-NW 302 ° 1 min 0,000 mm 3,9 UV-I 638 W/m² 1,0 °C 4,5 °C 1,6 km/h (1 Bft)
29.04.2017 10:16 4,6 °C 4,6 °C 74 % 1020,1 hPa 0,2 mm 1,3 km/h (1 Bft) W-NW 302 ° 1 min 0,000 mm 3,9 UV-I 640 W/m² 0,4 °C 4,6 °C 1,6 km/h (1 Bft)
29.04.2017 10:17 4,7 °C 4,7 °C 74 % 1020,1 hPa 0,0 mm 0,0 km/h (0 Bft) W-NW 302 ° 1 min 0,000 mm 3,9 UV-I 643 W/m² 0,5 °C 4,7 °C 0,0 km/h (0 Bft)
29.04.2017 10:18 4,7 °C 4,7 °C 73 % 1020,1 hPa 0,0 mm 0,0 km/h (0 Bft) W-NW 302 ° 1 min 0,000 mm 4,0 UV-I 645 W/m² 0,3 °C 4,7 °C 0,0 km/h (0 Bft)
29.04.2017 10:19 4,6 °C 4,7 °C 71 % 1020,1 hPa 0,0 mm 0,1 km/h (0 Bft) W-NW 302 ° 1 min 0,000 mm 4,0 UV-I 649 W/m² -0,2 °C 4,6 °C 1,6 km/h (1 Bft)
29.04.2017 10:20 4,5 °C 4,6 °C 75 % 1020,1 hPa 0,2 mm 1,2 km/h (1 Bft) W-NW 302 ° 1 min 0,000 mm 4,0 UV-I 650 W/m² 0,5 °C 4,5 °C 3,2 km/h (1 Bft)
29.04.2017 10:21 4,5 °C 4,5 °C 75 % 1020,0 hPa 0,0 mm 1,4 km/h (1 Bft) W-NW 302 ° 1 min 0,000 mm 4,1 UV-I 657 W/m² 0,5 °C 4,5 °C 3,2 km/h (1 Bft)
29.04.2017 10:22 4,6 °C 4,6 °C 74 % 1020,1 hPa 0,0 mm 0,0 km/h (0 Bft) W-NW 302 ° 1 min 0,000 mm 4,1 UV-I 659 W/m² 0,4 °C 4,6 °C 0,0 km/h (0 Bft)
29.04.2017 10:23 4,6 °C 4,6 °C 72 % 1020,1 hPa 0,0 mm 0,0 km/h (0 Bft) W-NW 302 ° 1 min 0,000 mm 4,2 UV-I 661 W/m² -0,0 °C 4,6 °C 0,0 km/h (0 Bft)
29.04.2017 10:24 4,7 °C 4,7 °C 73 % 1020,0 hPa 0,2 mm 0,0 km/h (0 Bft) W-NW 302 ° 1 min 0,000 mm 4,2 UV-I 663 W/m² 0,3 °C 4,7 °C 0,0 km/h (0 Bft)
29.04.2017 10:25 4,7 °C 4,7 °C 72 % 1020,1 hPa 0,0 mm 0,1 km/h (0 Bft) W-NW 302 ° 1 min 0,000 mm 4,3 UV-I 666 W/m² 0,1 °C 4,7 °C 1,6 km/h (1 Bft)
29.04.2017 10:26 4,6 °C 4,7 °C 71 % 1020,1 hPa 0,0 mm 0,0 km/h (0 Bft) W-NW 302 ° 1 min 0,000 mm 4,3 UV-I 668 W/m² -0,2 °C 4,6 °C 0,0 km/h (0 Bft)
29.04.2017 10:27 4,4 °C 4,6 °C 73 % 1020,1 hPa 0,0 mm 0,0 km/h (0 Bft) W-NW 302 ° 1 min 0,000 mm 4,3 UV-I 673 W/m² -0,0 °C 4,4 °C 0,0 km/h (0 Bft)
29.04.2017 10:28 4,3 °C 4,4 °C 75 % 1020,1 hPa 0,2 mm 0,0 km/h (0 Bft) W-NW 302 ° 1 min 0,000 mm 4,3 UV-I 673 W/m² 0,3 °C 4,3 °C 0,0 km/h (0 Bft)
29.04.2017 10:29 4,3 °C 4,3 °C 75 % 1020,1 hPa 0,0 mm 0,0 km/h (0 Bft) W-NW 302 ° 1 min 0,000 mm 4,3 UV-I 675 W/m² 0,3 °C 4,3 °C 0,0 km/h (0 Bft)
29.04.2017 10:30 4,3 °C 4,3 °C 76 % 1020,1 hPa 0,0 mm 0,1 km/h (0 Bft) W-NW 302 ° 1 min 0,000 mm 4,3 UV-I 677 W/m² 0,5 °C 4,3 °C 1,6 km/h (1 Bft)
29.04.2017 10:31 4,3 °C 4,3 °C 76 % 1020,1 hPa 0,2 mm 1,3 km/h (1 Bft) W-NW 302 ° 1 min 0,000 mm 4,4 UV-I 677 W/m² 0,5 °C 4,3 °C 3,2 km/h (1 Bft)
29.04.2017 10:32 4,4 °C 4,4 °C 78 % 1020,1 hPa 0,0 mm 1,3 km/h (1 Bft) W-NW 302 ° 1 min 0,000 mm 4,4 UV-I 682 W/m² 0,9 °C 4,4 °C 3,2 km/h (1 Bft)
29.04.2017 10:33 4,5 °C 4,5 °C 77 % 1020,1 hPa 0,0 mm 0,0 km/h (0 Bft) W-NW 302 ° 1 min 0,000 mm 4,4 UV-I 684 W/m² 0,8 °C 4,5 °C 0,0 km/h (0 Bft)
29.04.2017 10:34 4,4 °C 4,5 °C 78 % 1020,0 hPa 0,0 mm 0,3 km/h (0 Bft) W-NW 302 ° 1 min 0,000 mm 4,4 UV-I 686 W/m² 0,9 °C 4,4 °C 1,6 km/h (1 Bft)
29.04.2017 10:35 4,4 °C 4,4 °C 78 % 1020,0 hPa 0,2 mm 0,0 km/h (0 Bft) W-NW 302 ° 1 min 0,000 mm 4,5 UV-I 691 W/m² 0,9 °C 4,4 °C 0,0 km/h (0 Bft)
29.04.2017 10:36 4,5 °C 4,5 °C 76 % 1020,0 hPa 0,0 mm 0,0 km/h (0 Bft) W-NW 302 ° 1 min 0,000 mm 4,5 UV-I 694 W/m² 0,6 °C 4,5 °C 0,0 km/h (0 Bft)
29.04.2017 10:37 4,5 °C 4,5 °C 75 % 1020,0 hPa 0,0 mm 0,0 km/h (0 Bft) W-NW 302 ° 1 min 0,000 mm 4,5 UV-I 691 W/m² 0,5 °C 4,5 °C 0,0 km/h (0 Bft)
29.04.2017 10:38 4,6 °C 4,6 °C 74 % 1020,0 hPa 0,0 mm 0,4 km/h (0 Bft) W-NW 301 ° 1 min 0,000 mm 4,5 UV-I 698 W/m² 0,4 °C 4,6 °C 1,6 km/h (1 Bft)
29.04.2017 10:39 4,6 °C 4,6 °C 74 % 1020,0 hPa 0,2 mm 0,3 km/h (0 Bft) W-NW 301 ° 1 min 0,000 mm 4,6 UV-I 703 W/m² 0,4 °C 4,6 °C 1,6 km/h (1 Bft)
29.04.2017 10:40 4,6 °C 4,6 °C 73 % 1020,1 hPa 0,0 mm 1,3 km/h (1 Bft) W-NW 302 ° 1 min 0,000 mm 4,6 UV-I 705 W/m² 0,2 °C 4,6 °C 1,6 km/h (1 Bft)
29.04.2017 10:41 4,6 °C 4,6 °C 73 % 1020,0 hPa 0,0 mm 1,5 km/h (1 Bft) W-NW 301 ° 1 min 0,000 mm 4,7 UV-I 705 W/m² 0,2 °C 4,6 °C 3,2 km/h (1 Bft)
29.04.2017 10:42 4,6 °C 4,7 °C 72 % 1020,0 hPa 0,2 mm 0,4 km/h (0 Bft) W-NW 302 ° 1 min 0,000 mm 4,7 UV-I 705 W/m² -0,0 °C 4,6 °C 1,6 km/h (1 Bft)
29.04.2017 10:43 4,7 °C 4,7 °C 72 % 1020,0 hPa 0,0 mm 0,8 km/h (0 Bft) W-NW 301 ° 1 min 0,000 mm 4,7 UV-I 710 W/m² 0,1 °C 4,7 °C 1,6 km/h (1 Bft)
29.04.2017 10:44 4,6 °C 4,7 °C 72 % 1020,0 hPa 0,0 mm 0,7 km/h (0 Bft) W-NW 302 ° 1 min 0,000 mm 4,7 UV-I 708 W/m² -0,0 °C 4,6 °C 1,6 km/h (1 Bft)
29.04.2017 10:45 4,6 °C 4,7 °C 73 % 1020,0 hPa 0,0 mm 0,0 km/h (0 Bft) W-NW 302 ° 1 min 0,000 mm 4,8 UV-I 715 W/m² 0,2 °C 4,6 °C 0,0 km/h (0 Bft)
29.04.2017 10:46 4,7 °C 4,7 °C 72 % 1020,0 hPa 0,2 mm 0,0 km/h (0 Bft) W-NW 301 ° 1 min 0,000 mm 4,8 UV-I 719 W/m² 0,1 °C 4,7 °C 0,0 km/h (0 Bft)
29.04.2017 10:47 4,7 °C 4,7 °C 72 % 1020,0 hPa 0,0 mm 0,0 km/h (0 Bft) W-NW 302 ° 1 min 0,000 mm 4,8 UV-I 719 W/m² 0,1 °C 4,7 °C 0,0 km/h (0 Bft)
29.04.2017 10:48 4,7 °C 4,7 °C 72 % 1020,0 hPa 0,0 mm 0,0 km/h (0 Bft) W-NW 301 ° 1 min 0,000 mm 4,9 UV-I 722 W/m² 0,1 °C 4,7 °C 0,0 km/h (0 Bft)
29.04.2017 10:49 4,8 °C 4,8 °C 72 % 1020,0 hPa 0,0 mm 0,1 km/h (0 Bft) W-NW 301 ° 1 min 0,000 mm 4,9 UV-I 726 W/m² 0,2 °C 4,8 °C 1,6 km/h (1 Bft)
29.04.2017 10:50 5,0 °C 5,0 °C 72 % 1020,0 hPa 0,2 mm 0,0 km/h (0 Bft) W-NW 301 ° 1 min 0,000 mm 4,9 UV-I 719 W/m² 0,4 °C 5,0 °C 0,0 km/h (0 Bft)
29.04.2017 10:51 5,1 °C 5,1 °C 71 % 1020,0 hPa 0,0 mm 0,0 km/h (0 Bft) W-NW 301 ° 1 min 0,000 mm 4,8 UV-I 722 W/m² 0,3 °C 5,1 °C 0,0 km/h (0 Bft)
29.04.2017 10:52 4,9 °C 5,1 °C 71 % 1020,0 hPa 0,0 mm 1,1 km/h (1 Bft) W-NW 301 ° 1 min 0,000 mm 4,9 UV-I 728 W/m² 0,1 °C 4,9 °C 1,6 km/h (1 Bft)
29.04.2017 10:53 5,0 °C 5,0 °C 71 % 1020,0 hPa 0,2 mm 0,6 km/h (0 Bft) W-NW 301 ° 1 min 0,000 mm 5,0 UV-I 733 W/m² 0,2 °C 5,0 °C 1,6 km/h (1 Bft)
29.04.2017 10:54 5,0 °C 5,0 °C 71 % 1020,0 hPa 0,0 mm 0,1 km/h (0 Bft) W-NW 301 ° 1 min 0,000 mm 5,0 UV-I 735 W/m² 0,2 °C 5,0 °C 1,6 km/h (1 Bft)
29.04.2017 10:55 5,0 °C 5,0 °C 71 % 1019,9 hPa 0,0 mm 4,0 km/h (1 Bft) O 85 ° 1 min 0,000 mm 5,0 UV-I 735 W/m² 0,2 °C 5,0 °C 6,4 km/h (2 Bft)
29.04.2017 10:56 4,8 °C 5,0 °C 76 % 1019,9 hPa 0,0 mm 3,5 km/h (1 Bft) O 85 ° 1 min 0,000 mm 5,0 UV-I 742 W/m² 0,9 °C 4,8 °C 4,8 km/h (1 Bft)
29.04.2017 10:57 4,8 °C 4,8 °C 75 % 1019,9 hPa 0,2 mm 2,1 km/h (1 Bft) O 85 ° 1 min 0,000 mm 5,1 UV-I 742 W/m² 0,8 °C 4,8 °C 3,2 km/h (1 Bft)
29.04.2017 10:58 4,9 °C 4,9 °C 74 % 1019,9 hPa 0,0 mm 3,4 km/h (1 Bft) O 85 ° 1 min 0,000 mm 5,1 UV-I 744 W/m² 0,7 °C 4,9 °C 4,8 km/h (1 Bft)
29.04.2017 10:59 4,7 °C 4,9 °C 77 % 1019,9 hPa 0,0 mm 3,1 km/h (1 Bft) O 85 ° 1 min 0,000 mm 5,1 UV-I 747 W/m² 1,0 °C 4,7 °C 4,8 km/h (1 Bft)
29.04.2017 11:00 4,7 °C 4,7 °C 72 % 1020,0 hPa 0,0 mm 2,1 km/h (1 Bft) O 85 ° 1 min 0,000 mm 5,1 UV-I 749 W/m² 0,1 °C 4,7 °C 3,2 km/h (1 Bft)
29.04.2017 11:01 4,7 °C 4,7 °C 73 % 1020,0 hPa 0,2 mm 2,0 km/h (1 Bft) O 85 ° 1 min 0,254 mm 5,1 UV-I 751 W/m² 0,3 °C 4,7 °C 3,2 km/h (1 Bft)
29.04.2017 11:02 4,7 °C 4,7 °C 72 % 1020,0 hPa 0,0 mm 2,1 km/h (1 Bft) O 85 ° 1 min 0,000 mm 5,1 UV-I 754 W/m² 0,1 °C 4,7 °C 3,2 km/h (1 Bft)
29.04.2017 11:03 4,7 °C 4,7 °C 74 % 1019,9 hPa 0,0 mm 2,3 km/h (1 Bft) O 85 ° 1 min 0,000 mm 5,2 UV-I 758 W/m² 0,5 °C 4,7 °C 3,2 km/h (1 Bft)
29.04.2017 11:04 4,8 °C 4,8 °C 73 % 1019,9 hPa 0,0 mm 0,8 km/h (0 Bft) O 85 ° 1 min 0,000 mm 5,2 UV-I 758 W/m² 0,4 °C 4,8 °C 3,2 km/h (1 Bft)
29.04.2017 11:05 5,0 °C 5,0 °C 72 % 1020,0 hPa 0,2 mm 2,8 km/h (1 Bft) N-NW 330 ° 1 min 0,000 mm 5,2 UV-I 759 W/m² 0,4 °C 5,0 °C 4,8 km/h (1 Bft)
29.04.2017 11:06 5,1 °C 5,1 °C 71 % 1019,9 hPa 0,0 mm 4,8 km/h (1 Bft) W-NW 303 ° 1 min 0,000 mm 5,2 UV-I 761 W/m² 0,3 °C 4,3 °C 6,4 km/h (2 Bft)
29.04.2017 11:07 5,3 °C 5,3 °C 71 % 1019,9 hPa 0,0 mm 4,1 km/h (1 Bft) NW 308 ° 1 min 0,000 mm 5,2 UV-I 761 W/m² 0,5 °C 5,3 °C 6,4 km/h (2 Bft)
29.04.2017 11:08 5,3 °C 5,3 °C 71 % 1019,9 hPa 0,0 mm 3,1 km/h (1 Bft) NW 309 ° 1 min 0,000 mm 5,3 UV-I 763 W/m² 0,5 °C 5,3 °C 4,8 km/h (1 Bft)
29.04.2017 11:09 5,3 °C 5,4 °C 71 % 1019,9 hPa 0,2 mm 2,9 km/h (1 Bft) NW 309 ° 1 min 0,000 mm 5,3 UV-I 765 W/m² 0,5 °C 5,3 °C 3,2 km/h (1 Bft)
29.04.2017 11:10 5,2 °C 5,3 °C 71 % 1019,9 hPa 0,0 mm 2,3 km/h (1 Bft) NW 309 ° 1 min 0,000 mm 5,3 UV-I 765 W/m² 0,4 °C 5,2 °C 4,8 km/h (1 Bft)
29.04.2017 11:11 5,2 °C 5,2 °C 72 % 1019,9 hPa 0,0 mm 0,1 km/h (0 Bft) NW 309 ° 1 min 0,000 mm 5,3 UV-I 768 W/m² 0,6 °C 5,2 °C 1,6 km/h (1 Bft)
29.04.2017 11:12 5,1 °C 5,2 °C 73 % 1019,9 hPa 0,0 mm 0,0 km/h (0 Bft) NW 309 ° 1 min 0,000 mm 5,4 UV-I 770 W/m² 0,7 °C 5,1 °C 0,0 km/h (0 Bft)
29.04.2017 11:13 5,0 °C 5,1 °C 71 % 1019,9 hPa 0,2 mm 0,0 km/h (0 Bft) NW 309 ° 1 min 0,000 mm 5,4 UV-I 773 W/m² 0,2 °C 5,0 °C 0,0 km/h (0 Bft)
29.04.2017 11:14 5,1 °C 5,1 °C 71 % 1019,9 hPa 0,0 mm 0,6 km/h (0 Bft) NW 309 ° 1 min 0,000 mm 5,4 UV-I 779 W/m² 0,3 °C 5,1 °C 1,6 km/h (1 Bft)
29.04.2017 11:15 5,2 °C 5,2 °C 71 % 1019,9 hPa 0,0 mm 2,3 km/h (1 Bft) NW 310 ° 1 min 0,000 mm 5,5 UV-I 779 W/m² 0,4 °C 5,2 °C 3,2 km/h (1 Bft)
29.04.2017 11:16 5,3 °C 5,3 °C 71 % 1019,8 hPa 0,0 mm 1,5 km/h (1 Bft) N 5 ° 1 min 0,000 mm 5,5 UV-I 780 W/m² 0,5 °C 5,3 °C 3,2 km/h (1 Bft)
29.04.2017 11:17 5,3 °C 5,3 °C 71 % 1019,9 hPa 0,2 mm 0,5 km/h (0 Bft) N 5 ° 1 min 0,000 mm 5,5 UV-I 782 W/m² 0,5 °C 5,3 °C 3,2 km/h (1 Bft)
29.04.2017 11:18 5,3 °C 5,3 °C 72 % 1019,9 hPa 0,0 mm 2,1 km/h (1 Bft) N 5 ° 1 min 0,000 mm 5,5 UV-I 782 W/m² 0,7 °C 5,3 °C 3,2 km/h (1 Bft)
29.04.2017 11:19 5,4 °C 5,4 °C 71 % 1019,9 hPa 0,0 mm 3,4 km/h (1 Bft) N 5 ° 1 min 0,000 mm 5,5 UV-I 784 W/m² 0,6 °C 5,4 °C 4,8 km/h (1 Bft)
29.04.2017 11:20 5,6 °C 5,6 °C 70 % 1019,9 hPa 0,0 mm 1,3 km/h (1 Bft) N 5 ° 1 min 0,000 mm 5,5 UV-I 788 W/m² 0,6 °C 5,6 °C 3,2 km/h (1 Bft)
29.04.2017 11:21 5,7 °C 5,7 °C 70 % 1019,9 hPa 0,2 mm 1,0 km/h (0 Bft) N 5 ° 1 min 0,000 mm 5,6 UV-I 789 W/m² 0,7 °C 5,7 °C 3,2 km/h (1 Bft)
29.04.2017 11:22 5,7 °C 5,8 °C 70 % 1019,9 hPa 0,0 mm 2,7 km/h (1 Bft) N 5 ° 1 min 0,000 mm 5,6 UV-I 793 W/m² 0,7 °C 5,7 °C 3,2 km/h (1 Bft)
29.04.2017 11:23 5,7 °C 5,8 °C 72 % 1019,9 hPa 0,0 mm 3,0 km/h (1 Bft) N 5 ° 1 min 0,000 mm 5,6 UV-I 795 W/m² 1,1 °C 5,7 °C 3,2 km/h (1 Bft)
29.04.2017 11:24 5,8 °C 5,8 °C 67 % 1019,9 hPa 0,0 mm 3,8 km/h (1 Bft) N 5 ° 1 min 0,000 mm 5,6 UV-I 796 W/m² 0,2 °C 5,8 °C 4,8 km/h (1 Bft)
29.04.2017 11:25 5,7 °C 5,8 °C 66 % 1019,9 hPa 0,0 mm 1,4 km/h (1 Bft) N 5 ° 1 min 0,000 mm 5,7 UV-I 805 W/m² -0,1 °C 5,7 °C 4,8 km/h (1 Bft)
29.04.2017 11:26 5,6 °C 5,7 °C 66 % 1019,9 hPa 0,2 mm 0,0 km/h (0 Bft) N 5 ° 1 min 0,000 mm 5,7 UV-I 807 W/m² -0,2 °C 5,6 °C 0,0 km/h (0 Bft)
29.04.2017 11:27 5,6 °C 5,6 °C 66 % 1019,9 hPa 0,0 mm 0,9 km/h (0 Bft) N 5 ° 1 min 0,000 mm 5,7 UV-I 807 W/m² -0,2 °C 5,6 °C 3,2 km/h (1 Bft)
29.04.2017 11:28 5,6 °C 5,6 °C 65 % 1019,9 hPa 0,0 mm 2,9 km/h (1 Bft) N 5 ° 1 min 0,000 mm 5,7 UV-I 807 W/m² -0,4 °C 5,6 °C 4,8 km/h (1 Bft)
29.04.2017 11:29 5,6 °C 5,6 °C 67 % 1019,9 hPa 0,0 mm 2,9 km/h (1 Bft) N 5 ° 1 min 0,000 mm 5,7 UV-I 809 W/m² -0,0 °C 5,6 °C 4,8 km/h (1 Bft)
29.04.2017 11:30 5,7 °C 5,7 °C 66 % 1019,9 hPa 0,2 mm 1,5 km/h (1 Bft) N 5 ° 1 min 0,000 mm 5,8 UV-I 812 W/m² -0,1 °C 5,7 °C 3,2 km/h (1 Bft)
29.04.2017 11:31 5,8 °C 5,8 °C 67 % 1019,8 hPa 0,0 mm 0,6 km/h (0 Bft) N 5 ° 1 min 0,000 mm 5,8 UV-I 812 W/m² 0,2 °C 5,8 °C 3,2 km/h (1 Bft)
29.04.2017 11:32 5,8 °C 5,8 °C 66 % 1019,8 hPa 0,0 mm 3,6 km/h (1 Bft) N 5 ° 1 min 0,000 mm 5,8 UV-I 810 W/m² -0,0 °C 5,8 °C 4,8 km/h (1 Bft)
29.04.2017 11:33 5,9 °C 5,9 °C 67 % 1019,8 hPa 0,0 mm 1,1 km/h (1 Bft) N 5 ° 1 min 0,000 mm 5,8 UV-I 809 W/m² 0,3 °C 5,9 °C 3,2 km/h (1 Bft)
29.04.2017 11:34 5,9 °C 5,9 °C 67 % 1019,8 hPa 0,0 mm 1,9 km/h (1 Bft) N 5 ° 1 min 0,000 mm 5,8 UV-I 809 W/m² 0,3 °C 5,9 °C 3,2 km/h (1 Bft)
29.04.2017 11:35 6,1 °C 6,1 °C 69 % 1019,8 hPa 0,0 mm 4,4 km/h (1 Bft) N 5 ° 1 min 0,000 mm 5,8 UV-I 810 W/m² 0,8 °C 6,1 °C 6,4 km/h (2 Bft)
29.04.2017 11:36 6,1 °C 6,1 °C 67 % 1019,8 hPa 0,2 mm 5,2 km/h (1 Bft) N 5 ° 1 min 0,000 mm 5,8 UV-I 812 W/m² 0,4 °C 5,3 °C 6,4 km/h (2 Bft)
29.04.2017 11:37 6,0 °C 6,1 °C 65 % 1019,8 hPa 0,0 mm 2,6 km/h (1 Bft) N 5 ° 1 min 0,000 mm 5,8 UV-I 816 W/m² -0,1 °C 6,0 °C 4,8 km/h (1 Bft)
29.04.2017 11:38 5,9 °C 6,0 °C 65 % 1019,8 hPa 0,0 mm 3,7 km/h (1 Bft) N-NO 27 ° 1 min 0,000 mm 5,8 UV-I 816 W/m² -0,2 °C 5,9 °C 6,4 km/h (2 Bft)
29.04.2017 11:39 5,9 °C 5,9 °C 66 % 1019,8 hPa 0,0 mm 2,6 km/h (1 Bft) NO 44 ° 1 min 0,000 mm 5,8 UV-I 817 W/m² 0,0 °C 5,9 °C 4,8 km/h (1 Bft)
29.04.2017 11:40 5,8 °C 5,9 °C 66 % 1019,8 hPa 0,2 mm 2,1 km/h (1 Bft) NO 44 ° 1 min 0,000 mm 5,8 UV-I 819 W/m² -0,0 °C 5,8 °C 3,2 km/h (1 Bft)
29.04.2017 11:41 5,8 °C 5,8 °C 67 % 1019,8 hPa 0,0 mm 2,3 km/h (1 Bft) NO 44 ° 1 min 0,000 mm 5,8 UV-I 819 W/m² 0,2 °C 5,8 °C 4,8 km/h (1 Bft)
29.04.2017 11:42 5,8 °C 5,8 °C 67 % 1019,7 hPa 0,0 mm 0,4 km/h (0 Bft) NO 44 ° 1 min 0,000 mm 5,8 UV-I 821 W/m² 0,2 °C 5,8 °C 1,6 km/h (1 Bft)
29.04.2017 11:43 5,9 °C 5,9 °C 68 % 1019,8 hPa 0,0 mm 2,7 km/h (1 Bft) NW 305 ° 1 min 0,000 mm 5,9 UV-I 824 W/m² 0,5 °C 5,9 °C 4,8 km/h (1 Bft)
29.04.2017 11:44 5,9 °C 5,9 °C 69 % 1019,8 hPa 0,0 mm 3,9 km/h (1 Bft) NW 321 ° 1 min 0,000 mm 5,9 UV-I 828 W/m² 0,7 °C 5,9 °C 6,4 km/h (2 Bft)
29.04.2017 11:45 6,0 °C 6,0 °C 66 % 1019,7 hPa 0,2 mm 5,0 km/h (1 Bft) NW 319 ° 1 min 0,000 mm 5,9 UV-I 830 W/m² 0,1 °C 5,2 °C 6,4 km/h (2 Bft)
29.04.2017 11:46 6,1 °C 6,1 °C 64 % 1019,8 hPa 0,0 mm 2,5 km/h (1 Bft) NW 319 ° 1 min 0,000 mm 5,9 UV-I 830 W/m² -0,2 °C 6,1 °C 4,8 km/h (1 Bft)
29.04.2017 11:47 6,1 °C 6,1 °C 63 % 1019,7 hPa 0,0 mm 3,4 km/h (1 Bft) NW 321 ° 1 min 0,000 mm 5,9 UV-I 830 W/m² -0,4 °C 6,1 °C 4,8 km/h (1 Bft)
29.04.2017 11:48 6,0 °C 6,1 °C 64 % 1019,7 hPa 0,0 mm 5,5 km/h (1 Bft) NW 324 ° 1 min 0,000 mm 5,9 UV-I 831 W/m² -0,3 °C 5,0 °C 6,4 km/h (2 Bft)
29.04.2017 11:49 6,0 °C 6,0 °C 66 % 1019,7 hPa 0,0 mm 5,2 km/h (1 Bft) NW 318 ° 1 min 0,000 mm 6,0 UV-I 831 W/m² 0,1 °C 5,1 °C 6,4 km/h (2 Bft)
29.04.2017 11:50 6,0 °C 6,1 °C 65 % 1019,7 hPa 0,2 mm 3,2 km/h (1 Bft) NW 318 ° 1 min 0,000 mm 6,0 UV-I 831 W/m² -0,1 °C 6,0 °C 4,8 km/h (1 Bft)
29.04.2017 11:51 6,1 °C 6,1 °C 64 % 1019,7 hPa 0,0 mm 3,2 km/h (1 Bft) NW 318 ° 1 min 0,000 mm 6,0 UV-I 833 W/m² -0,2 °C 6,1 °C 4,8 km/h (1 Bft)
29.04.2017 11:52 6,1 °C 6,1 °C 63 % 1019,7 hPa 0,0 mm 2,1 km/h (1 Bft) NW 318 ° 1 min 0,000 mm 6,0 UV-I 831 W/m² -0,4 °C 6,1 °C 3,2 km/h (1 Bft)
29.04.2017 11:53 6,2 °C 6,2 °C 63 % 1019,8 hPa 0,0 mm 1,0 km/h (0 Bft) NW 318 ° 1 min 0,000 mm 6,0 UV-I 833 W/m² -0,3 °C 6,2 °C 3,2 km/h (1 Bft)
29.04.2017 11:54 6,1 °C 6,2 °C 62 % 1019,8 hPa 0,0 mm 1,6 km/h (1 Bft) NW 318 ° 1 min 0,000 mm 6,0 UV-I 835 W/m² -0,6 °C 6,1 °C 3,2 km/h (1 Bft)
29.04.2017 11:55 6,0 °C 6,1 °C 63 % 1019,7 hPa 0,2 mm 4,2 km/h (1 Bft) N-NW 329 ° 1 min 0,000 mm 6,0 UV-I 833 W/m² -0,5 °C 6,0 °C 6,4 km/h (2 Bft)
29.04.2017 11:56 6,1 °C 6,1 °C 62 % 1019,7 hPa 0,0 mm 3,8 km/h (1 Bft) N-NW 334 ° 1 min 0,000 mm 6,1 UV-I 835 W/m² -0,6 °C 6,1 °C 4,8 km/h (1 Bft)
29.04.2017 11:57 6,1 °C 6,1 °C 61 % 1019,7 hPa 0,0 mm 3,7 km/h (1 Bft) NW 315 ° 1 min 0,000 mm 6,1 UV-I 837 W/m² -0,8 °C 6,1 °C 4,8 km/h (1 Bft)
29.04.2017 11:58 6,1 °C 6,1 °C 63 % 1019,7 hPa 0,0 mm 3,0 km/h (1 Bft) N-NW 331 ° 1 min 0,000 mm 6,1 UV-I 837 W/m² -0,4 °C 6,1 °C 4,8 km/h (1 Bft)
29.04.2017 11:59 6,1 °C 6,1 °C 64 % 1019,7 hPa 0,0 mm 1,9 km/h (1 Bft) N-NW 331 ° 1 min 0,000 mm 6,1 UV-I 837 W/m² -0,2 °C 6,1 °C 4,8 km/h (1 Bft)
29.04.2017 12:00 6,2 °C 6,2 °C 61 % 1019,7 hPa 0,0 mm 0,0 km/h (0 Bft) N-NW 331 ° 1 min 0,000 mm 6,1 UV-I 838 W/m² -0,7 °C 6,2 °C 0,0 km/h (0 Bft)
29.04.2017 12:01 5,9 °C 6,2 °C 60 % 1019,7 hPa 0,2 mm 2,7 km/h (1 Bft) O-NO 73 ° 1 min 0,330 mm 6,1 UV-I 844 W/m² -1,3 °C 5,9 °C 6,4 km/h (2 Bft)
29.04.2017 12:02 5,8 °C 5,9 °C 61 % 1019,7 hPa 0,0 mm 4,8 km/h (1 Bft) NO 54 ° 1 min 0,000 mm 6,2 UV-I 847 W/m² -1,1 °C 5,1 °C 6,4 km/h (2 Bft)
29.04.2017 12:03 5,7 °C 5,8 °C 61 % 1019,7 hPa 0,0 mm 3,1 km/h (1 Bft) NO 54 ° 1 min 0,000 mm 6,2 UV-I 847 W/m² -1,2 °C 5,7 °C 6,4 km/h (2 Bft)
29.04.2017 12:04 5,8 °C 5,8 °C 61 % 1019,7 hPa 0,0 mm 1,8 km/h (1 Bft) NO 54 ° 1 min 0,000 mm 6,2 UV-I 849 W/m² -1,1 °C 5,8 °C 3,2 km/h (1 Bft)
29.04.2017 12:05 5,8 °C 5,8 °C 61 % 1019,7 hPa 0,0 mm 1,2 km/h (1 Bft) NO 51 ° 1 min 0,000 mm 6,2 UV-I 849 W/m² -1,1 °C 5,8 °C 3,2 km/h (1 Bft)
29.04.2017 12:06 5,9 °C 5,9 °C 62 % 1019,6 hPa 0,0 mm 1,1 km/h (1 Bft) NO 51 ° 1 min 0,000 mm 6,2 UV-I 849 W/m² -0,8 °C 5,9 °C 3,2 km/h (1 Bft)
29.04.2017 12:07 6,1 °C 6,1 °C 62 % 1019,6 hPa 0,2 mm 2,3 km/h (1 Bft) N 355 ° 1 min 0,000 mm 6,2 UV-I 853 W/m² -0,6 °C 6,1 °C 3,2 km/h (1 Bft)
29.04.2017 12:08 6,1 °C 6,1 °C 60 % 1019,7 hPa 0,0 mm 1,1 km/h (1 Bft) N 355 ° 1 min 0,000 mm 6,2 UV-I 853 W/m² -1,1 °C 6,1 °C 3,2 km/h (1 Bft)
29.04.2017 12:09 6,1 °C 6,1 °C 60 % 1019,7 hPa 0,0 mm 0,7 km/h (0 Bft) N 355 ° 1 min 0,000 mm 6,2 UV-I 854 W/m² -1,1 °C 6,1 °C 3,2 km/h (1 Bft)
29.04.2017 12:10 6,0 °C 6,1 °C 60 % 1019,7 hPa 0,0 mm 1,6 km/h (1 Bft) N 355 ° 1 min 0,000 mm 6,2 UV-I 856 W/m² -1,2 °C 6,0 °C 3,2 km/h (1 Bft)
29.04.2017 12:11 5,8 °C 6,0 °C 60 % 1019,7 hPa 0,0 mm 2,2 km/h (1 Bft) N 355 ° 1 min 0,000 mm 6,3 UV-I 856 W/m² -1,4 °C 5,8 °C 3,2 km/h (1 Bft)
29.04.2017 12:12 5,8 °C 5,8 °C 63 % 1019,6 hPa 0,0 mm 0,3 km/h (0 Bft) N 355 ° 1 min 0,000 mm 6,3 UV-I 854 W/m² -0,7 °C 5,8 °C 1,6 km/h (1 Bft)
29.04.2017 12:13 5,7 °C 5,8 °C 66 % 1019,6 hPa 0,2 mm 0,0 km/h (0 Bft) N 355 ° 1 min 0,000 mm 6,3 UV-I 861 W/m² -0,1 °C 5,7 °C 0,0 km/h (0 Bft)
29.04.2017 12:14 5,6 °C 5,7 °C 64 % 1019,5 hPa 0,0 mm 0,4 km/h (0 Bft) O-SO 102 ° 1 min 0,000 mm 6,3 UV-I 865 W/m² -0,7 °C 5,6 °C 3,2 km/h (1 Bft)
29.04.2017 12:15 5,5 °C 5,6 °C 63 % 1019,6 hPa 0,0 mm 3,6 km/h (1 Bft) SO 142 ° 1 min 0,000 mm 6,3 UV-I 865 W/m² -1,0 °C 5,5 °C 4,8 km/h (1 Bft)
29.04.2017 12:16 5,6 °C 5,6 °C 59 % 1019,6 hPa 0,0 mm 2,7 km/h (1 Bft) SO 142 ° 1 min 0,000 mm 6,4 UV-I 867 W/m² -1,8 °C 5,6 °C 4,8 km/h (1 Bft)
29.04.2017 12:17 5,7 °C 5,7 °C 59 % 1019,6 hPa 0,0 mm 0,9 km/h (0 Bft) SO 142 ° 1 min 0,000 mm 6,3 UV-I 867 W/m² -1,7 °C 5,7 °C 1,6 km/h (1 Bft)
29.04.2017 12:18 5,8 °C 5,8 °C 58 % 1019,6 hPa 0,0 mm 1,5 km/h (1 Bft) SO 142 ° 1 min 0,000 mm 6,3 UV-I 868 W/m² -1,8 °C 5,8 °C 3,2 km/h (1 Bft)
29.04.2017 12:19 5,8 °C 5,8 °C 58 % 1019,5 hPa 0,0 mm 0,9 km/h (0 Bft) SO 142 ° 1 min 0,000 mm 6,4 UV-I 870 W/m² -1,8 °C 5,8 °C 1,6 km/h (1 Bft)
29.04.2017 12:20 5,7 °C 5,8 °C 59 % 1019,5 hPa 0,2 mm 0,1 km/h (0 Bft) SO 142 ° 1 min 0,000 mm 6,4 UV-I 868 W/m² -1,7 °C 5,7 °C 1,6 km/h (1 Bft)
29.04.2017 12:21 5,7 °C 5,7 °C 59 % 1019,5 hPa 0,0 mm 0,0 km/h (0 Bft) SO 142 ° 1 min 0,000 mm 6,4 UV-I 870 W/m² -1,7 °C 5,7 °C 0,0 km/h (0 Bft)
29.04.2017 12:22 5,7 °C 5,7 °C 59 % 1019,5 hPa 0,0 mm 0,0 km/h (0 Bft) SO 142 ° 1 min 0,000 mm 6,4 UV-I 870 W/m² -1,7 °C 5,7 °C 0,0 km/h (0 Bft)
29.04.2017 12:23 5,8 °C 5,8 °C 59 % 1019,5 hPa 0,0 mm 0,0 km/h (0 Bft) SO 142 ° 1 min 0,000 mm 6,4 UV-I 874 W/m² -1,6 °C 5,8 °C 0,0 km/h (0 Bft)
29.04.2017 12:24 5,8 °C 5,8 °C 61 % 1019,5 hPa 0,0 mm 0,0 km/h (0 Bft) SO 142 ° 1 min 0,000 mm 6,4 UV-I 877 W/m² -1,1 °C 5,8 °C 0,0 km/h (0 Bft)
29.04.2017 12:25 5,7 °C 5,8 °C 62 % 1019,5 hPa 0,0 mm 0,6 km/h (0 Bft) O-SO 115 ° 1 min 0,000 mm 6,5 UV-I 879 W/m² -1,0 °C 5,7 °C 4,8 km/h (1 Bft)
29.04.2017 12:26 5,8 °C 5,8 °C 61 % 1019,4 hPa 0,0 mm 3,1 km/h (1 Bft) O-SO 112 ° 1 min 0,000 mm 6,5 UV-I 881 W/m² -1,1 °C 5,8 °C 4,8 km/h (1 Bft)
29.04.2017 12:27 5,9 °C 5,9 °C 59 % 1019,4 hPa 0,0 mm 2,7 km/h (1 Bft) O-SO 112 ° 1 min 0,000 mm 6,5 UV-I 882 W/m² -1,5 °C 5,9 °C 4,8 km/h (1 Bft)
29.04.2017 12:28 6,0 °C 6,0 °C 58 % 1019,4 hPa 0,0 mm 0,6 km/h (0 Bft) O-SO 112 ° 1 min 0,000 mm 6,5 UV-I 882 W/m² -1,6 °C 6,0 °C 1,6 km/h (1 Bft)
29.04.2017 12:29 6,1 °C 6,1 °C 57 % 1019,5 hPa 0,0 mm 1,5 km/h (1 Bft) O-SO 112 ° 1 min 0,000 mm 6,5 UV-I 886 W/m² -1,8 °C 6,1 °C 3,2 km/h (1 Bft)
29.04.2017 12:30 5,9 °C 6,1 °C 61 % 1019,5 hPa 0,0 mm 3,5 km/h (1 Bft) O 93 ° 1 min 0,000 mm 6,5 UV-I 888 W/m² -1,0 °C 5,9 °C 6,4 km/h (2 Bft)
29.04.2017 12:31 5,9 °C 5,9 °C 60 % 1019,5 hPa 0,0 mm 2,7 km/h (1 Bft) O 93 ° 1 min 0,000 mm 6,5 UV-I 891 W/m² -1,3 °C 5,9 °C 4,8 km/h (1 Bft)
29.04.2017 12:32 5,9 °C 5,9 °C 60 % 1019,5 hPa 0,0 mm 1,1 km/h (1 Bft) O 93 ° 1 min 0,000 mm 6,5 UV-I 891 W/m² -1,3 °C 5,9 °C 3,2 km/h (1 Bft)
29.04.2017 12:33 5,9 °C 5,9 °C 58 % 1019,5 hPa 0,2 mm 0,7 km/h (0 Bft) O 93 ° 1 min 0,000 mm 6,5 UV-I 891 W/m² -1,7 °C 5,9 °C 1,6 km/h (1 Bft)
29.04.2017 12:34 6,1 °C 6,1 °C 58 % 1019,4 hPa 0,0 mm 0,4 km/h (0 Bft) O 93 ° 1 min 0,000 mm 6,5 UV-I 886 W/m² -1,5 °C 6,1 °C 3,2 km/h (1 Bft)
29.04.2017 12:35 6,2 °C 6,2 °C 58 % 1019,4 hPa 0,0 mm 1,9 km/h (1 Bft) O 90 ° 1 min 0,000 mm 6,5 UV-I 879 W/m² -1,4 °C 6,2 °C 3,2 km/h (1 Bft)
29.04.2017 12:36 6,3 °C 6,3 °C 60 % 1019,5 hPa 0,0 mm 0,7 km/h (0 Bft) O 90 ° 1 min 0,000 mm 6,5 UV-I 875 W/m² -0,9 °C 6,3 °C 3,2 km/h (1 Bft)
29.04.2017 12:37 6,3 °C 6,3 °C 58 % 1019,4 hPa 0,0 mm 0,8 km/h (0 Bft) O 90 ° 1 min 0,000 mm 6,5 UV-I 875 W/m² -1,3 °C 6,3 °C 3,2 km/h (1 Bft)
29.04.2017 12:38 6,3 °C 6,3 °C 59 % 1019,4 hPa 0,0 mm 0,1 km/h (0 Bft) O 90 ° 1 min 0,000 mm 6,6 UV-I 879 W/m² -1,1 °C 6,3 °C 1,6 km/h (1 Bft)
29.04.2017 12:39 6,3 °C 6,3 °C 59 % 1019,4 hPa 0,0 mm 0,0 km/h (0 Bft) O 90 ° 1 min 0,000 mm 6,6 UV-I 884 W/m² -1,1 °C 6,3 °C 0,0 km/h (0 Bft)
29.04.2017 12:40 6,2 °C 6,3 °C 58 % 1019,3 hPa 0,0 mm 0,0 km/h (0 Bft) O 90 ° 1 min 0,000 mm 6,6 UV-I 889 W/m² -1,4 °C 6,2 °C 0,0 km/h (0 Bft)
29.04.2017 12:41 6,1 °C 6,2 °C 58 % 1019,4 hPa 0,0 mm 0,0 km/h (0 Bft) O 90 ° 1 min 0,000 mm 6,6 UV-I 888 W/m² -1,5 °C 6,1 °C 0,0 km/h (0 Bft)
29.04.2017 12:42 6,2 °C 6,2 °C 59 % 1019,3 hPa 0,0 mm 3,4 km/h (1 Bft) W-SW 252 ° 1 min 0,000 mm 6,6 UV-I 875 W/m² -1,2 °C 6,2 °C 4,8 km/h (1 Bft)
29.04.2017 12:43 6,2 °C 6,2 °C 60 % 1019,3 hPa 0,2 mm 2,7 km/h (1 Bft) W-SW 252 ° 1 min 0,000 mm 6,6 UV-I 881 W/m² -1,0 °C 6,2 °C 4,8 km/h (1 Bft)
29.04.2017 12:44 6,2 °C 6,2 °C 60 % 1019,3 hPa 0,0 mm 4,4 km/h (1 Bft) W 281 ° 1 min 0,000 mm 6,6 UV-I 886 W/m² -1,0 °C 6,2 °C 6,4 km/h (2 Bft)
29.04.2017 12:45 6,2 °C 6,2 °C 59 % 1019,3 hPa 0,0 mm 3,4 km/h (1 Bft) W 281 ° 1 min 0,000 mm 6,6 UV-I 888 W/m² -1,2 °C 6,2 °C 4,8 km/h (1 Bft)
29.04.2017 12:46 6,2 °C 6,2 °C 61 % 1019,3 hPa 0,0 mm 3,2 km/h (1 Bft) W-NW 282 ° 1 min 0,000 mm 6,6 UV-I 889 W/m² -0,7 °C 6,2 °C 4,8 km/h (1 Bft)
29.04.2017 12:47 6,3 °C 6,3 °C 61 % 1019,3 hPa 0,0 mm 2,8 km/h (1 Bft) W-NW 283 ° 1 min 0,000 mm 6,7 UV-I 886 W/m² -0,7 °C 6,3 °C 4,8 km/h (1 Bft)
29.04.2017 12:48 6,4 °C 6,4 °C 60 % 1019,2 hPa 0,0 mm 3,2 km/h (1 Bft) W-NW 296 ° 1 min 0,000 mm 6,6 UV-I 882 W/m² -0,8 °C 6,4 °C 4,8 km/h (1 Bft)
29.04.2017 12:49 6,4 °C 6,4 °C 60 % 1019,2 hPa 0,0 mm 1,5 km/h (1 Bft) W-NW 296 ° 1 min 0,000 mm 6,6 UV-I 882 W/m² -0,8 °C 6,4 °C 3,2 km/h (1 Bft)
29.04.2017 12:50 6,4 °C 6,5 °C 59 % 1019,3 hPa 0,0 mm 2,1 km/h (1 Bft) W-NW 297 ° 1 min 0,000 mm 6,6 UV-I 884 W/m² -1,0 °C 6,4 °C 3,2 km/h (1 Bft)
29.04.2017 12:51 6,6 °C 6,6 °C 61 % 1019,2 hPa 0,0 mm 3,7 km/h (1 Bft) NW 320 ° 1 min 0,000 mm 6,7 UV-I 888 W/m² -0,4 °C 6,6 °C 4,8 km/h (1 Bft)
29.04.2017 12:52 6,6 °C 6,6 °C 61 % 1019,2 hPa 0,0 mm 3,4 km/h (1 Bft) NW 317 ° 1 min 0,000 mm 6,6 UV-I 889 W/m² -0,4 °C 6,6 °C 4,8 km/h (1 Bft)
29.04.2017 12:53 6,7 °C 6,7 °C 61 % 1019,2 hPa 0,0 mm 2,7 km/h (1 Bft) N-NW 340 ° 1 min 0,000 mm 6,7 UV-I 888 W/m² -0,3 °C 6,7 °C 4,8 km/h (1 Bft)
29.04.2017 12:54 6,7 °C 6,7 °C 61 % 1019,1 hPa 0,0 mm 5,2 km/h (1 Bft) N-NO 14 ° 1 min 0,000 mm 6,7 UV-I 888 W/m² -0,3 °C 5,9 °C 6,4 km/h (2 Bft)
29.04.2017 12:55 6,7 °C 6,7 °C 61 % 1019,2 hPa 0,0 mm 5,7 km/h (1 Bft) O-NO 62 ° 1 min 0,000 mm 6,6 UV-I 879 W/m² -0,3 °C 5,8 °C 8,0 km/h (2 Bft)
29.04.2017 12:56 6,7 °C 6,7 °C 60 % 1019,2 hPa 0,0 mm 4,4 km/h (1 Bft) O-NO 73 ° 1 min 0,000 mm 6,6 UV-I 884 W/m² -0,5 °C 6,7 °C 6,4 km/h (2 Bft)
29.04.2017 12:57 6,6 °C 6,7 °C 62 % 1019,2 hPa 0,0 mm 4,6 km/h (1 Bft) O-NO 74 ° 1 min 0,000 mm 6,6 UV-I 884 W/m² -0,1 °C 6,0 °C 6,4 km/h (2 Bft)
29.04.2017 12:58 6,5 °C 6,6 °C 62 % 1019,2 hPa 0,0 mm 3,0 km/h (1 Bft) W-NW 298 ° 1 min 0,000 mm 6,6 UV-I 882 W/m² -0,2 °C 6,5 °C 6,4 km/h (2 Bft)
29.04.2017 12:59 6,5 °C 6,5 °C 63 % 1019,2 hPa 0,0 mm 2,3 km/h (1 Bft) N-NO 13 ° 1 min 0,000 mm 6,6 UV-I 882 W/m² -0,0 °C 6,5 °C 4,8 km/h (1 Bft)
29.04.2017 13:00 6,4 °C 6,5 °C 61 % 1019,2 hPa 0,2 mm 3,7 km/h (1 Bft) N-NW 327 ° 1 min 0,000 mm 6,6 UV-I 882 W/m² -0,6 °C 6,4 °C 4,8 km/h (1 Bft)
29.04.2017 13:01 6,5 °C 6,5 °C 62 % 1019,1 hPa 0,0 mm 3,8 km/h (1 Bft) NW 326 ° 1 min 0,356 mm 6,6 UV-I 877 W/m² -0,2 °C 6,5 °C 6,4 km/h (2 Bft)
29.04.2017 13:02 6,7 °C 6,7 °C 62 % 1019,2 hPa 0,0 mm 5,0 km/h (1 Bft) N-NW 344 ° 1 min 0,000 mm 6,6 UV-I 882 W/m² -0,1 °C 6,0 °C 8,0 km/h (2 Bft)
29.04.2017 13:03 6,8 °C 6,8 °C 62 % 1019,1 hPa 0,0 mm 2,7 km/h (1 Bft) N-NW 344 ° 1 min 0,000 mm 6,6 UV-I 874 W/m² 0,0 °C 6,8 °C 4,8 km/h (1 Bft)
29.04.2017 13:04 6,8 °C 6,8 °C 61 % 1019,1 hPa 0,0 mm 1,7 km/h (1 Bft) N-NW 342 ° 1 min 0,000 mm 6,5 UV-I 874 W/m² -0,2 °C 6,8 °C 3,2 km/h (1 Bft)
29.04.2017 13:05 6,8 °C 6,8 °C 61 % 1019,1 hPa 0,0 mm 5,7 km/h (1 Bft) NW 310 ° 1 min 0,000 mm 6,6 UV-I 884 W/m² -0,2 °C 5,9 °C 8,0 km/h (2 Bft)
29.04.2017 13:06 6,9 °C 6,9 °C 64 % 1019,1 hPa 0,0 mm 3,2 km/h (1 Bft) N-NW 330 ° 1 min 0,000 mm 6,7 UV-I 889 W/m² 0,6 °C 6,9 °C 4,8 km/h (1 Bft)
29.04.2017 13:07 6,9 °C 6,9 °C 60 % 1019,1 hPa 0,0 mm 3,4 km/h (1 Bft) NW 321 ° 1 min 0,000 mm 6,7 UV-I 889 W/m² -0,3 °C 6,9 °C 6,4 km/h (2 Bft)
29.04.2017 13:08 6,9 °C 6,9 °C 63 % 1019,0 hPa 0,0 mm 5,0 km/h (1 Bft) N-NW 346 ° 1 min 0,000 mm 6,7 UV-I 889 W/m² 0,4 °C 6,2 °C 8,0 km/h (2 Bft)
29.04.2017 13:09 6,9 °C 6,9 °C 62 % 1019,0 hPa 0,0 mm 3,0 km/h (1 Bft) N 355 ° 1 min 0,000 mm 6,7 UV-I 888 W/m² 0,1 °C 6,9 °C 3,2 km/h (1 Bft)
29.04.2017 13:10 6,9 °C 6,9 °C 61 % 1019,0 hPa 0,0 mm 4,2 km/h (1 Bft) NW 304 ° 1 min 0,000 mm 6,7 UV-I 888 W/m² -0,1 °C 6,9 °C 6,4 km/h (2 Bft)
29.04.2017 13:11 6,9 °C 6,9 °C 61 % 1019,0 hPa 0,0 mm 4,2 km/h (1 Bft) NW 318 ° 1 min 0,000 mm 6,7 UV-I 874 W/m² -0,1 °C 6,9 °C 4,8 km/h (1 Bft)
29.04.2017 13:12 6,9 °C 6,9 °C 62 % 1018,9 hPa 0,0 mm 3,9 km/h (1 Bft) NW 318 ° 1 min 0,000 mm 6,6 UV-I 872 W/m² 0,1 °C 6,9 °C 4,8 km/h (1 Bft)
29.04.2017 13:13 6,9 °C 6,9 °C 61 % 1019,0 hPa 0,0 mm 3,1 km/h (1 Bft) NW 318 ° 1 min 0,000 mm 6,6 UV-I 881 W/m² -0,1 °C 6,9 °C 4,8 km/h (1 Bft)
29.04.2017 13:14 6,9 °C 6,9 °C 60 % 1019,0 hPa 0,0 mm 1,0 km/h (0 Bft) NW 318 ° 1 min 0,000 mm 6,6 UV-I 884 W/m² -0,3 °C 6,9 °C 1,6 km/h (1 Bft)
29.04.2017 13:15 6,8 °C 6,9 °C 60 % 1019,0 hPa 0,0 mm 0,3 km/h (0 Bft) NW 318 ° 1 min 0,000 mm 6,7 UV-I 893 W/m² -0,4 °C 6,8 °C 1,6 km/h (1 Bft)
29.04.2017 13:16 6,8 °C 6,8 °C 61 % 1018,9 hPa 0,0 mm 2,3 km/h (1 Bft) N-NO 26 ° 1 min 0,000 mm 6,7 UV-I 898 W/m² -0,2 °C 6,8 °C 4,8 km/h (1 Bft)
29.04.2017 13:17 6,8 °C 6,8 °C 61 % 1018,9 hPa 0,0 mm 3,0 km/h (1 Bft) N-NO 26 ° 1 min 0,000 mm 6,7 UV-I 893 W/m² -0,2 °C 6,8 °C 4,8 km/h (1 Bft)
29.04.2017 13:18 6,7 °C 6,8 °C 61 % 1018,9 hPa 0,0 mm 3,0 km/h (1 Bft) N-NO 32 ° 1 min 0,000 mm 6,7 UV-I 891 W/m² -0,3 °C 6,7 °C 4,8 km/h (1 Bft)
29.04.2017 13:19 6,7 °C 6,7 °C 61 % 1018,9 hPa 0,0 mm 0,4 km/h (0 Bft) N-NO 32 ° 1 min 0,000 mm 6,7 UV-I 902 W/m² -0,3 °C 6,7 °C 1,6 km/h (1 Bft)
29.04.2017 13:20 6,6 °C 6,7 °C 60 % 1018,9 hPa 0,0 mm 0,1 km/h (0 Bft) N-NO 32 ° 1 min 0,000 mm 6,7 UV-I 912 W/m² -0,6 °C 6,6 °C 1,6 km/h (1 Bft)
29.04.2017 13:21 6,4 °C 6,6 °C 61 % 1018,8 hPa 0,0 mm 0,0 km/h (0 Bft) N-NO 32 ° 1 min 0,000 mm 6,7 UV-I 914 W/m² -0,6 °C 6,4 °C 0,0 km/h (0 Bft)
29.04.2017 13:22 6,4 °C 6,4 °C 61 % 1018,9 hPa 0,0 mm 0,0 km/h (0 Bft) N-NO 32 ° 1 min 0,000 mm 6,8 UV-I 921 W/m² -0,6 °C 6,4 °C 0,0 km/h (0 Bft)
29.04.2017 13:23 6,4 °C 6,4 °C 61 % 1018,9 hPa 0,0 mm 0,0 km/h (0 Bft) N-NO 32 ° 1 min 0,000 mm 6,8 UV-I 930 W/m² -0,6 °C 6,4 °C 0,0 km/h (0 Bft)
29.04.2017 13:24 6,3 °C 6,4 °C 60 % 1018,8 hPa 0,0 mm 3,1 km/h (1 Bft) S-SO 167 ° 1 min 0,000 mm 6,9 UV-I 932 W/m² -0,9 °C 6,3 °C 6,4 km/h (2 Bft)
29.04.2017 13:25 6,4 °C 6,4 °C 58 % 1018,8 hPa 0,0 mm 4,6 km/h (1 Bft) S-SO 167 ° 1 min 0,000 mm 6,9 UV-I 928 W/m² -1,2 °C 5,8 °C 6,4 km/h (2 Bft)
29.04.2017 13:26 6,4 °C 6,4 °C 58 % 1018,8 hPa 0,0 mm 3,5 km/h (1 Bft) S-SO 167 ° 1 min 0,000 mm 6,8 UV-I 921 W/m² -1,2 °C 6,4 °C 4,8 km/h (1 Bft)
29.04.2017 13:27 6,4 °C 6,4 °C 59 % 1018,8 hPa 0,0 mm 0,0 km/h (0 Bft) S-SO 167 ° 1 min 0,000 mm 6,8 UV-I 912 W/m² -1,0 °C 6,4 °C 0,0 km/h (0 Bft)
29.04.2017 13:28 6,3 °C 6,4 °C 59 % 1018,8 hPa 0,0 mm 1,1 km/h (1 Bft) O 90 ° 1 min 0,000 mm 6,7 UV-I 900 W/m² -1,1 °C 6,3 °C 1,6 km/h (1 Bft)
29.04.2017 13:29 6,4 °C 6,4 °C 60 % 1018,8 hPa 0,0 mm 4,2 km/h (1 Bft) O-NO 69 ° 1 min 0,000 mm 6,7 UV-I 898 W/m² -0,8 °C 6,4 °C 6,4 km/h (2 Bft)
29.04.2017 13:30 6,4 °C 6,4 °C 59 % 1018,8 hPa 0,0 mm 3,4 km/h (1 Bft) O-NO 61 ° 1 min 0,000 mm 6,7 UV-I 898 W/m² -1,0 °C 6,4 °C 6,4 km/h (2 Bft)
29.04.2017 13:31 6,3 °C 6,4 °C 62 % 1018,8 hPa 0,0 mm 2,1 km/h (1 Bft) O-NO 67 ° 1 min 0,000 mm 6,7 UV-I 895 W/m² -0,4 °C 6,3 °C 4,8 km/h (1 Bft)
29.04.2017 13:32 6,3 °C 6,3 °C 63 % 1018,8 hPa 0,0 mm 2,3 km/h (1 Bft) O-NO 77 ° 1 min 0,000 mm 6,7 UV-I 895 W/m² -0,2 °C 6,3 °C 6,4 km/h (2 Bft)
29.04.2017 13:33 6,4 °C 6,4 °C 62 % 1018,8 hPa 0,0 mm 4,9 km/h (1 Bft) O 84 ° 1 min 0,000 mm 6,7 UV-I 891 W/m² -0,3 °C 5,7 °C 8,0 km/h (2 Bft)
29.04.2017 13:34 6,4 °C 6,4 °C 63 % 1018,7 hPa 0,0 mm 4,5 km/h (1 Bft) O 80 ° 1 min 0,000 mm 6,7 UV-I 893 W/m² -0,1 °C 6,4 °C 6,4 km/h (2 Bft)
29.04.2017 13:35 6,5 °C 6,5 °C 63 % 1018,8 hPa 0,0 mm 4,0 km/h (1 Bft) O-NO 69 ° 1 min 0,000 mm 6,7 UV-I 893 W/m² -0,0 °C 6,5 °C 8,0 km/h (2 Bft)
29.04.2017 13:36 6,6 °C 6,6 °C 64 % 1018,8 hPa 0,0 mm 5,6 km/h (1 Bft) O 82 ° 1 min 0,000 mm 6,7 UV-I 893 W/m² 0,3 °C 5,7 °C 8,0 km/h (2 Bft)
29.04.2017 13:37 6,6 °C 6,7 °C 63 % 1018,8 hPa 0,0 mm 3,8 km/h (1 Bft) O 82 ° 1 min 0,000 mm 6,6 UV-I 893 W/m² 0,1 °C 6,6 °C 4,8 km/h (1 Bft)
29.04.2017 13:38 6,6 °C 6,6 °C 62 % 1018,8 hPa 0,0 mm 0,6 km/h (0 Bft) O 82 ° 1 min 0,000 mm 6,6 UV-I 893 W/m² -0,1 °C 6,6 °C 3,2 km/h (1 Bft)
29.04.2017 13:39 6,7 °C 6,7 °C 62 % 1018,7 hPa 0,0 mm 1,3 km/h (1 Bft) O 82 ° 1 min 0,000 mm 6,6 UV-I 891 W/m² -0,1 °C 6,7 °C 3,2 km/h (1 Bft)
29.04.2017 13:40 6,6 °C 6,7 °C 62 % 1018,7 hPa 0,0 mm 3,8 km/h (1 Bft) O 82 ° 1 min 0,000 mm 6,6 UV-I 888 W/m² -0,1 °C 6,6 °C 4,8 km/h (1 Bft)
29.04.2017 13:41 6,6 °C 6,6 °C 62 % 1018,7 hPa 0,0 mm 2,8 km/h (1 Bft) SO 143 ° 1 min 0,000 mm 6,5 UV-I 886 W/m² -0,1 °C 6,6 °C 4,8 km/h (1 Bft)
29.04.2017 13:42 6,7 °C 6,7 °C 62 % 1018,7 hPa 0,0 mm 5,4 km/h (1 Bft) SO 135 ° 1 min 0,000 mm 6,5 UV-I 888 W/m² -0,1 °C 5,9 °C 8,0 km/h (2 Bft)
29.04.2017 13:43 6,8 °C 6,8 °C 62 % 1018,7 hPa 0,0 mm 5,2 km/h (1 Bft) S-SW 195 ° 1 min 0,000 mm 6,5 UV-I 886 W/m² 0,0 °C 6,1 °C 6,4 km/h (2 Bft)
29.04.2017 13:44 6,8 °C 6,8 °C 61 % 1018,7 hPa 0,0 mm 2,7 km/h (1 Bft) S 178 ° 1 min 0,000 mm 6,6 UV-I 888 W/m² -0,2 °C 6,8 °C 4,8 km/h (1 Bft)
29.04.2017 13:45 6,9 °C 6,9 °C 63 % 1018,7 hPa 0,0 mm 0,5 km/h (0 Bft) S 178 ° 1 min 0,000 mm 6,5 UV-I 889 W/m² 0,4 °C 6,9 °C 1,6 km/h (1 Bft)
29.04.2017 13:46 6,9 °C 6,9 °C 61 % 1018,7 hPa 0,0 mm 3,0 km/h (1 Bft) S 178 ° 1 min 0,000 mm 6,6 UV-I 898 W/m² -0,1 °C 6,9 °C 4,8 km/h (1 Bft)
29.04.2017 13:47 6,8 °C 6,9 °C 62 % 1018,7 hPa 0,0 mm 2,0 km/h (1 Bft) S 183 ° 1 min 0,000 mm 6,5 UV-I 891 W/m² 0,0 °C 6,8 °C 3,2 km/h (1 Bft)
29.04.2017 13:48 6,9 °C 6,9 °C 63 % 1018,7 hPa 0,0 mm 1,6 km/h (1 Bft) S 183 ° 1 min 0,000 mm 6,5 UV-I 893 W/m² 0,4 °C 6,9 °C 3,2 km/h (1 Bft)
29.04.2017 13:49 6,8 °C 6,9 °C 62 % 1018,7 hPa 0,0 mm 0,0 km/h (0 Bft) S 183 ° 1 min 0,000 mm 6,5 UV-I 905 W/m² 0,0 °C 6,8 °C 0,0 km/h (0 Bft)
29.04.2017 13:50 6,8 °C 6,9 °C 64 % 1018,7 hPa 0,0 mm 0,0 km/h (0 Bft) S 183 ° 1 min 0,000 mm 6,6 UV-I 914 W/m² 0,5 °C 6,8 °C 0,0 km/h (0 Bft)
29.04.2017 13:51 6,8 °C 6,8 °C 64 % 1018,6 hPa 0,0 mm 0,0 km/h (0 Bft) S 183 ° 1 min 0,000 mm 6,6 UV-I 914 W/m² 0,5 °C 6,8 °C 0,0 km/h (0 Bft)
29.04.2017 13:52 6,8 °C 6,8 °C 65 % 1018,6 hPa 0,0 mm 1,7 km/h (1 Bft) SW 227 ° 1 min 0,000 mm 6,5 UV-I 911 W/m² 0,7 °C 6,8 °C 6,4 km/h (2 Bft)
29.04.2017 13:53 6,9 °C 6,9 °C 63 % 1018,6 hPa 0,0 mm 5,4 km/h (1 Bft) W-SW 248 ° 1 min 0,000 mm 6,6 UV-I 911 W/m² 0,4 °C 6,1 °C 6,4 km/h (2 Bft)
29.04.2017 13:54 7,0 °C 7,1 °C 64 % 1018,6 hPa 0,0 mm 2,4 km/h (1 Bft) S 191 ° 1 min 0,000 mm 6,4 UV-I 900 W/m² 0,7 °C 7,0 °C 4,8 km/h (1 Bft)
29.04.2017 13:55 7,0 °C 7,0 °C 62 % 1018,6 hPa 0,0 mm 6,0 km/h (2 Bft) S 181 ° 1 min 0,000 mm 6,5 UV-I 902 W/m² 0,2 °C 6,0 °C 8,0 km/h (2 Bft)
29.04.2017 13:56 6,9 °C 7,0 °C 62 % 1018,6 hPa 0,0 mm 3,7 km/h (1 Bft) S 180 ° 1 min 0,000 mm 6,5 UV-I 889 W/m² 0,1 °C 6,9 °C 4,8 km/h (1 Bft)
29.04.2017 13:57 6,8 °C 6,9 °C 62 % 1018,6 hPa 0,0 mm 3,4 km/h (1 Bft) S-SO 161 ° 1 min 0,000 mm 6,6 UV-I 891 W/m² 0,0 °C 6,8 °C 6,4 km/h (2 Bft)
29.04.2017 13:58 6,7 °C 6,8 °C 63 % 1018,6 hPa 0,0 mm 1,1 km/h (1 Bft) S-SO 161 ° 1 min 0,000 mm 6,5 UV-I 886 W/m² 0,2 °C 6,7 °C 3,2 km/h (1 Bft)
29.04.2017 13:59 6,8 °C 6,8 °C 66 % 1018,6 hPa 0,0 mm 1,1 km/h (1 Bft) SW 225 ° 1 min 0,000 mm 6,6 UV-I 889 W/m² 0,9 °C 6,8 °C 4,8 km/h (1 Bft)
29.04.2017 14:00 6,8 °C 6,8 °C 64 % 1018,6 hPa 0,0 mm 0,3 km/h (0 Bft) SW 225 ° 1 min 0,000 mm 6,6 UV-I 900 W/m² 0,5 °C 6,8 °C 1,6 km/h (1 Bft)
29.04.2017 14:01 6,7 °C 6,8 °C 63 % 1018,6 hPa 0,0 mm 2,3 km/h (1 Bft) O-NO 59 ° 1 min 0,381 mm 6,5 UV-I 918 W/m² 0,2 °C 6,7 °C 6,4 km/h (2 Bft)
29.04.2017 14:02 6,7 °C 6,7 °C 63 % 1018,6 hPa 0,0 mm 5,1 km/h (1 Bft) N-NW 348 ° 1 min 0,000 mm 6,6 UV-I 921 W/m² 0,2 °C 6,0 °C 8,0 km/h (2 Bft)
29.04.2017 14:03 6,7 °C 6,7 °C 66 % 1018,6 hPa 0,0 mm 4,8 km/h (1 Bft) N 350 ° 1 min 0,000 mm 6,5 UV-I 918 W/m² 0,8 °C 6,1 °C 6,4 km/h (2 Bft)
29.04.2017 14:04 6,7 °C 6,7 °C 69 % 1018,6 hPa 0,0 mm 4,3 km/h (1 Bft) N-NW 337 ° 1 min 0,000 mm 6,5 UV-I 905 W/m² 1,4 °C 6,7 °C 6,4 km/h (2 Bft)
29.04.2017 14:05 7,0 °C 7,0 °C 68 % 1018,6 hPa 0,0 mm 4,4 km/h (1 Bft) N-NW 344 ° 1 min 0,000 mm 6,5 UV-I 900 W/m² 1,5 °C 7,0 °C 6,4 km/h (2 Bft)
29.04.2017 14:06 7,3 °C 7,3 °C 66 % 1018,6 hPa 0,0 mm 3,0 km/h (1 Bft) N-NW 344 ° 1 min 0,000 mm 6,3 UV-I 879 W/m² 1,4 °C 7,3 °C 4,8 km/h (1 Bft)
29.04.2017 14:07 7,5 °C 7,5 °C 65 % 1018,6 hPa 0,0 mm 3,4 km/h (1 Bft) N-NO 15 ° 1 min 0,000 mm 6,3 UV-I 870 W/m² 1,4 °C 7,5 °C 4,8 km/h (1 Bft)
29.04.2017 14:08 7,7 °C 7,7 °C 64 % 1018,5 hPa 0,0 mm 3,8 km/h (1 Bft) N 5 ° 1 min 0,000 mm 6,3 UV-I 867 W/m² 1,3 °C 7,7 °C 4,8 km/h (1 Bft)
29.04.2017 14:09 7,7 °C 7,7 °C 61 % 1018,5 hPa 0,0 mm 2,5 km/h (1 Bft) O-NO 57 ° 1 min 0,000 mm 6,3 UV-I 870 W/m² 0,7 °C 7,7 °C 4,8 km/h (1 Bft)
29.04.2017 14:10 7,6 °C 7,7 °C 62 % 1018,5 hPa 0,0 mm 5,1 km/h (1 Bft) O 79 ° 1 min 0,000 mm 6,3 UV-I 872 W/m² 0,8 °C 7,0 °C 6,4 km/h (2 Bft)
29.04.2017 14:11 7,6 °C 7,6 °C 60 % 1018,5 hPa 0,0 mm 0,3 km/h (0 Bft) O-NO 78 ° 1 min 0,000 mm 6,3 UV-I 872 W/m² 0,3 °C 7,6 °C 1,6 km/h (1 Bft)
29.04.2017 14:12 7,4 °C 7,6 °C 61 % 1018,5 hPa 0,0 mm 1,0 km/h (0 Bft) O-NO 67 ° 1 min 0,000 mm 6,3 UV-I 872 W/m² 0,4 °C 7,4 °C 6,4 km/h (2 Bft)
29.04.2017 14:13 7,4 °C 7,4 °C 60 % 1018,5 hPa 0,0 mm 5,5 km/h (1 Bft) O 95 ° 1 min 0,000 mm 6,4 UV-I 877 W/m² 0,2 °C 6,6 °C 9,7 km/h (2 Bft)
29.04.2017 14:14 7,4 °C 7,4 °C 59 % 1018,5 hPa 0,0 mm 1,7 km/h (1 Bft) O 95 ° 1 min 0,000 mm 6,3 UV-I 877 W/m² -0,1 °C 7,4 °C 4,8 km/h (1 Bft)
29.04.2017 14:15 7,3 °C 7,4 °C 59 % 1018,5 hPa 0,0 mm 2,8 km/h (1 Bft) NO 38 ° 1 min 0,000 mm 6,3 UV-I 874 W/m² -0,2 °C 7,3 °C 11,3 km/h (2 Bft)
29.04.2017 14:16 7,4 °C 7,4 °C 60 % 1018,5 hPa 0,0 mm 7,2 km/h (2 Bft) NO 44 ° 1 min 0,000 mm 6,3 UV-I 874 W/m² 0,2 °C 6,1 °C 9,7 km/h (2 Bft)
29.04.2017 14:17 7,3 °C 7,4 °C 58 % 1018,5 hPa 0,0 mm 3,7 km/h (1 Bft) NO 55 ° 1 min 0,000 mm 6,3 UV-I 872 W/m² -0,4 °C 7,3 °C 6,4 km/h (2 Bft)
29.04.2017 14:18 7,3 °C 7,3 °C 59 % 1018,5 hPa 0,0 mm 1,1 km/h (1 Bft) NO 55 ° 1 min 0,000 mm 6,3 UV-I 872 W/m² -0,2 °C 7,3 °C 3,2 km/h (1 Bft)
29.04.2017 14:19 7,3 °C 7,3 °C 59 % 1018,4 hPa 0,0 mm 0,9 km/h (0 Bft) NO 55 ° 1 min 0,000 mm 6,2 UV-I 872 W/m² -0,2 °C 7,3 °C 3,2 km/h (1 Bft)
29.04.2017 14:20 7,3 °C 7,4 °C 59 % 1018,5 hPa 0,0 mm 0,5 km/h (0 Bft) NO 55 ° 1 min 0,000 mm 6,2 UV-I 865 W/m² -0,2 °C 7,3 °C 1,6 km/h (1 Bft)
29.04.2017 14:21 7,2 °C 7,3 °C 58 % 1018,5 hPa 0,0 mm 0,0 km/h (0 Bft) NO 55 ° 1 min 0,000 mm 6,2 UV-I 865 W/m² -0,5 °C 7,2 °C 0,0 km/h (0 Bft)
29.04.2017 14:22 7,1 °C 7,2 °C 58 % 1018,5 hPa 0,0 mm 0,0 km/h (0 Bft) NO 55 ° 1 min 0,000 mm 6,2 UV-I 863 W/m² -0,6 °C 7,1 °C 0,0 km/h (0 Bft)
29.04.2017 14:23 7,2 °C 7,2 °C 61 % 1018,5 hPa 0,0 mm 0,5 km/h (0 Bft) NO 46 ° 1 min 0,000 mm 6,2 UV-I 865 W/m² 0,2 °C 7,2 °C 3,2 km/h (1 Bft)
29.04.2017 14:24 7,4 °C 7,4 °C 64 % 1018,5 hPa 0,0 mm 3,6 km/h (1 Bft) O-NO 72 ° 1 min 0,000 mm 6,2 UV-I 868 W/m² 1,0 °C 7,4 °C 4,8 km/h (1 Bft)
29.04.2017 14:25 7,4 °C 7,4 °C 60 % 1018,5 hPa 0,0 mm 3,9 km/h (1 Bft) O-NO 60 ° 1 min 0,000 mm 6,2 UV-I 867 W/m² 0,2 °C 7,4 °C 4,8 km/h (1 Bft)
29.04.2017 14:26 7,6 °C 7,6 °C 61 % 1018,5 hPa 0,0 mm 4,4 km/h (1 Bft) O-SO 123 ° 1 min 0,000 mm 6,2 UV-I 865 W/m² 0,6 °C 7,6 °C 6,4 km/h (2 Bft)
29.04.2017 14:27 7,5 °C 7,6 °C 61 % 1018,5 hPa 0,0 mm 4,8 km/h (1 Bft) O-NO 76 ° 1 min 0,000 mm 6,2 UV-I 868 W/m² 0,5 °C 7,0 °C 8,0 km/h (2 Bft)
29.04.2017 14:28 7,5 °C 7,5 °C 62 % 1018,4 hPa 0,0 mm 3,4 km/h (1 Bft) O-NO 61 ° 1 min 0,000 mm 6,2 UV-I 870 W/m² 0,7 °C 7,5 °C 6,4 km/h (2 Bft)
29.04.2017 14:29 7,4 °C 7,5 °C 59 % 1018,4 hPa 0,0 mm 1,5 km/h (1 Bft) O-NO 61 ° 1 min 0,000 mm 6,2 UV-I 872 W/m² -0,1 °C 7,4 °C 3,2 km/h (1 Bft)
29.04.2017 14:30 7,6 °C 7,6 °C 61 % 1018,4 hPa 0,0 mm 2,6 km/h (1 Bft) O-NO 57 ° 1 min 0,000 mm 6,2 UV-I 877 W/m² 0,6 °C 7,6 °C 4,8 km/h (1 Bft)
29.04.2017 14:31 7,7 °C 7,7 °C 64 % 1018,4 hPa 0,0 mm 2,5 km/h (1 Bft) O-NO 57 ° 1 min 0,000 mm 6,2 UV-I 882 W/m² 1,3 °C 7,7 °C 3,2 km/h (1 Bft)
29.04.2017 14:32 7,8 °C 7,8 °C 63 % 1018,4 hPa 0,0 mm 1,1 km/h (1 Bft) O-NO 57 ° 1 min 0,000 mm 6,3 UV-I 891 W/m² 1,2 °C 7,8 °C 3,2 km/h (1 Bft)
29.04.2017 14:33 7,7 °C 7,8 °C 62 % 1018,4 hPa 0,0 mm 0,0 km/h (0 Bft) O-NO 57 ° 1 min 0,000 mm 6,3 UV-I 907 W/m² 0,9 °C 7,7 °C 0,0 km/h (0 Bft)
29.04.2017 14:34 7,7 °C 7,7 °C 60 % 1018,5 hPa 0,0 mm 1,1 km/h (1 Bft) O-SO 107 ° 1 min 0,000 mm 6,3 UV-I 911 W/m² 0,4 °C 7,7 °C 1,6 km/h (1 Bft)
29.04.2017 14:35 7,7 °C 7,7 °C 60 % 1018,4 hPa 0,0 mm 3,2 km/h (1 Bft) SO 144 ° 1 min 0,000 mm 6,3 UV-I 914 W/m² 0,4 °C 7,7 °C 4,8 km/h (1 Bft)
29.04.2017 14:36 7,6 °C 7,7 °C 59 % 1018,4 hPa 0,0 mm 2,3 km/h (1 Bft) SO 144 ° 1 min 0,000 mm 6,3 UV-I 916 W/m² 0,1 °C 7,6 °C 4,8 km/h (1 Bft)
29.04.2017 14:37 7,4 °C 7,6 °C 60 % 1018,5 hPa 0,0 mm 0,3 km/h (0 Bft) SO 144 ° 1 min 0,000 mm 6,3 UV-I 923 W/m² 0,2 °C 7,4 °C 1,6 km/h (1 Bft)
29.04.2017 14:38 7,6 °C 7,6 °C 62 % 1018,5 hPa 0,0 mm 0,1 km/h (0 Bft) S-SO 147 ° 1 min 0,000 mm 6,3 UV-I 932 W/m² 0,8 °C 7,6 °C 1,6 km/h (1 Bft)
29.04.2017 14:39 7,7 °C 7,7 °C 58 % 1018,4 hPa 0,0 mm 2,1 km/h (1 Bft) S 175 ° 1 min 0,000 mm 6,3 UV-I 939 W/m² -0,0 °C 7,7 °C 3,2 km/h (1 Bft)
29.04.2017 14:40 7,8 °C 7,8 °C 58 % 1018,4 hPa 0,0 mm 4,0 km/h (1 Bft) S-SW 194 ° 1 min 0,000 mm 6,4 UV-I 940 W/m² 0,1 °C 7,8 °C 6,4 km/h (2 Bft)
29.04.2017 14:41 7,9 °C 7,9 °C 59 % 1018,4 hPa 0,0 mm 0,9 km/h (0 Bft) S-SW 194 ° 1 min 0,000 mm 6,4 UV-I 932 W/m² 0,4 °C 7,9 °C 1,6 km/h (1 Bft)
29.04.2017 14:42 7,8 °C 7,9 °C 62 % 1018,4 hPa 0,0 mm 0,1 km/h (0 Bft) S-SW 194 ° 1 min 0,000 mm 6,3 UV-I 923 W/m² 1,0 °C 7,8 °C 1,6 km/h (1 Bft)
29.04.2017 14:43 7,9 °C 7,9 °C 65 % 1018,4 hPa 0,0 mm 0,0 km/h (0 Bft) S-SW 194 ° 1 min 0,000 mm 6,2 UV-I 916 W/m² 1,7 °C 7,9 °C 0,0 km/h (0 Bft)
29.04.2017 14:44 7,9 °C 7,9 °C 60 % 1018,4 hPa 0,0 mm 3,1 km/h (1 Bft) O 90 ° 1 min 0,000 mm 6,2 UV-I 909 W/m² 0,6 °C 7,9 °C 4,8 km/h (1 Bft)
29.04.2017 14:45 7,8 °C 7,9 °C 57 % 1018,4 hPa 0,0 mm 3,5 km/h (1 Bft) N-NO 13 ° 1 min 0,000 mm 6,2 UV-I 900 W/m² -0,2 °C 7,8 °C 8,0 km/h (2 Bft)
29.04.2017 14:46 7,8 °C 7,8 °C 60 % 1018,4 hPa 0,0 mm 9,0 km/h (2 Bft) N-NO 20 ° 1 min 0,000 mm 6,2 UV-I 900 W/m² 0,5 °C 6,2 °C 11,3 km/h (2 Bft)
29.04.2017 14:47 8,0 °C 8,0 °C 60 % 1018,4 hPa 0,0 mm 6,6 km/h (2 Bft) N-NO 22 ° 1 min 0,000 mm 6,1 UV-I 900 W/m² 0,7 °C 7,0 °C 11,3 km/h (2 Bft)
29.04.2017 14:48 8,1 °C 8,1 °C 59 % 1018,4 hPa 0,0 mm 6,4 km/h (2 Bft) N 5 ° 1 min 0,000 mm 6,1 UV-I 895 W/m² 0,6 °C 7,2 °C 9,7 km/h (2 Bft)
29.04.2017 14:49 8,2 °C 8,2 °C 60 % 1018,4 hPa 0,0 mm 5,2 km/h (1 Bft) N 360 ° 1 min 0,000 mm 6,1 UV-I 888 W/m² 0,9 °C 7,6 °C 6,4 km/h (2 Bft)
29.04.2017 14:50 8,3 °C 8,3 °C 59 % 1018,4 hPa 0,0 mm 6,4 km/h (2 Bft) N 360 ° 1 min 0,000 mm 6,0 UV-I 879 W/m² 0,8 °C 7,4 °C 8,0 km/h (2 Bft)
29.04.2017 14:51 8,3 °C 8,3 °C 59 % 1018,4 hPa 0,0 mm 8,7 km/h (2 Bft) N 355 ° 1 min 0,000 mm 6,0 UV-I 877 W/m² 0,8 °C 6,9 °C 12,9 km/h (3 Bft)
29.04.2017 14:52 8,2 °C 8,3 °C 56 % 1018,4 hPa 0,0 mm 4,1 km/h (1 Bft) N-NO 19 ° 1 min 0,000 mm 5,9 UV-I 874 W/m² -0,0 °C 8,2 °C 8,0 km/h (2 Bft)
29.04.2017 14:53 8,2 °C 8,2 °C 56 % 1018,3 hPa 0,0 mm 1,4 km/h (1 Bft) N-NO 19 ° 1 min 0,000 mm 5,9 UV-I 867 W/m² -0,0 °C 8,2 °C 1,6 km/h (1 Bft)
29.04.2017 14:54 8,2 °C 8,2 °C 58 % 1018,3 hPa 0,0 mm 3,4 km/h (1 Bft) NO 55 ° 1 min 0,000 mm 5,8 UV-I 863 W/m² 0,4 °C 8,2 °C 4,8 km/h (1 Bft)
29.04.2017 14:55 8,1 °C 8,2 °C 59 % 1018,3 hPa 0,0 mm 2,3 km/h (1 Bft) NO 44 ° 1 min 0,000 mm 5,8 UV-I 856 W/m² 0,6 °C 8,1 °C 3,2 km/h (1 Bft)
29.04.2017 14:56 8,2 °C 8,2 °C 62 % 1018,3 hPa 0,0 mm 5,4 km/h (1 Bft) N 9 ° 1 min 0,000 mm 5,8 UV-I 858 W/m² 1,4 °C 7,6 °C 8,0 km/h (2 Bft)
29.04.2017 14:57 8,6 °C 8,6 °C 62 % 1018,2 hPa 0,0 mm 8,2 km/h (2 Bft) N-NO 12 ° 1 min 0,000 mm 5,8 UV-I 858 W/m² 1,7 °C 7,3 °C 11,3 km/h (2 Bft)
29.04.2017 14:58 8,7 °C 8,7 °C 59 % 1018,3 hPa 0,0 mm 8,8 km/h (2 Bft) N-NW 344 ° 1 min 0,000 mm 5,8 UV-I 858 W/m² 1,1 °C 7,3 °C 11,3 km/h (2 Bft)
29.04.2017 14:59 8,7 °C 8,7 °C 57 % 1018,3 hPa 0,0 mm 5,9 km/h (2 Bft) N-NW 339 ° 1 min 0,000 mm 5,8 UV-I 863 W/m² 0,7 °C 8,0 °C 9,7 km/h (2 Bft)
29.04.2017 15:00 8,6 °C 8,7 °C 55 % 1018,3 hPa 0,0 mm 6,1 km/h (2 Bft) N-NW 338 ° 1 min 0,000 mm 5,8 UV-I 870 W/m² 0,1 °C 7,8 °C 8,0 km/h (2 Bft)
29.04.2017 15:01 8,6 °C 8,6 °C 58 % 1018,2 hPa 0,0 mm 5,4 km/h (1 Bft) N-NO 25 ° 1 min 0,381 mm 5,8 UV-I 872 W/m² 0,8 °C 8,0 °C 8,0 km/h (2 Bft)
29.04.2017 15:02 8,5 °C 8,6 °C 57 % 1018,3 hPa 0,0 mm 6,4 km/h (2 Bft) N-NW 334 ° 1 min 0,000 mm 5,8 UV-I 872 W/m² 0,5 °C 7,6 °C 12,9 km/h (3 Bft)
29.04.2017 15:03 8,5 °C 8,6 °C 59 % 1018,3 hPa 0,0 mm 3,9 km/h (1 Bft) O-NO 64 ° 1 min 0,000 mm 5,8 UV-I 870 W/m² 1,0 °C 8,5 °C 6,4 km/h (2 Bft)
29.04.2017 15:04 8,4 °C 8,5 °C 58 % 1018,2 hPa 0,0 mm 6,0 km/h (2 Bft) N-NO 17 ° 1 min 0,000 mm 5,8 UV-I 870 W/m² 0,6 °C 7,6 °C 11,3 km/h (2 Bft)
29.04.2017 15:05 8,3 °C 8,4 °C 57 % 1018,2 hPa 0,0 mm 6,7 km/h (2 Bft) N 10 ° 1 min 0,000 mm 5,7 UV-I 868 W/m² 0,3 °C 7,3 °C 11,3 km/h (2 Bft)
29.04.2017 15:06 8,2 °C 8,3 °C 57 % 1018,2 hPa 0,0 mm 4,1 km/h (1 Bft) NW 315 ° 1 min 0,000 mm 5,7 UV-I 865 W/m² 0,2 °C 8,2 °C 6,4 km/h (2 Bft)
29.04.2017 15:07 8,3 °C 8,3 °C 58 % 1018,2 hPa 0,0 mm 6,2 km/h (2 Bft) N-NW 345 ° 1 min 0,000 mm 5,7 UV-I 860 W/m² 0,5 °C 7,5 °C 8,0 km/h (2 Bft)
29.04.2017 15:08 8,3 °C 8,3 °C 57 % 1018,2 hPa 0,0 mm 3,8 km/h (1 Bft) N-NW 344 ° 1 min 0,000 mm 5,6 UV-I 853 W/m² 0,3 °C 8,3 °C 6,4 km/h (2 Bft)
29.04.2017 15:09 8,4 °C 8,4 °C 60 % 1018,2 hPa 0,0 mm 1,8 km/h (1 Bft) N-NW 344 ° 1 min 0,000 mm 5,6 UV-I 846 W/m² 1,1 °C 8,4 °C 3,2 km/h (1 Bft)
29.04.2017 15:10 8,3 °C 8,4 °C 55 % 1018,2 hPa 0,0 mm 0,3 km/h (0 Bft) N-NW 344 ° 1 min 0,000 mm 5,5 UV-I 838 W/m² -0,2 °C 8,3 °C 1,6 km/h (1 Bft)
29.04.2017 15:11 8,3 °C 8,3 °C 58 % 1018,1 hPa 0,0 mm 3,5 km/h (1 Bft) W-NW 288 ° 1 min 0,000 mm 5,5 UV-I 830 W/m² 0,5 °C 8,3 °C 6,4 km/h (2 Bft)
29.04.2017 15:12 8,3 °C 8,4 °C 56 % 1018,1 hPa 0,0 mm 3,6 km/h (1 Bft) W 278 ° 1 min 0,000 mm 5,4 UV-I 824 W/m² 0,0 °C 8,3 °C 4,8 km/h (1 Bft)
29.04.2017 15:13 8,4 °C 8,4 °C 57 % 1018,1 hPa 0,0 mm 3,4 km/h (1 Bft) N-NO 21 ° 1 min 0,000 mm 5,4 UV-I 821 W/m² 0,4 °C 8,4 °C 4,8 km/h (1 Bft)
29.04.2017 15:14 8,3 °C 8,4 °C 59 % 1018,1 hPa 0,0 mm 6,5 km/h (2 Bft) O-NO 64 ° 1 min 0,000 mm 5,3 UV-I 812 W/m² 0,8 °C 7,4 °C 9,7 km/h (2 Bft)
29.04.2017 15:15 8,2 °C 8,3 °C 55 % 1018,1 hPa 0,0 mm 5,6 km/h (1 Bft) O-NO 63 ° 1 min 0,000 mm 5,3 UV-I 814 W/m² -0,3 °C 7,5 °C 6,4 km/h (2 Bft)
29.04.2017 15:16 8,2 °C 8,2 °C 56 % 1018,2 hPa 0,0 mm 4,6 km/h (1 Bft) N-NO 20 ° 1 min 0,000 mm 5,3 UV-I 814 W/m² -0,0 °C 7,9 °C 6,4 km/h (2 Bft)
29.04.2017 15:17 8,3 °C 8,3 °C 57 % 1018,1 hPa 0,0 mm 7,1 km/h (2 Bft) N 9 ° 1 min 0,000 mm 5,3 UV-I 814 W/m² 0,3 °C 7,2 °C 11,3 km/h (2 Bft)
29.04.2017 15:18 8,3 °C 8,3 °C 58 % 1018,1 hPa 0,0 mm 7,6 km/h (2 Bft) N-NO 21 ° 1 min 0,000 mm 5,2 UV-I 809 W/m² 0,5 °C 7,1 °C 11,3 km/h (2 Bft)
29.04.2017 15:19 8,4 °C 8,4 °C 56 % 1018,1 hPa 0,0 mm 3,4 km/h (1 Bft) N-NO 27 ° 1 min 0,000 mm 5,1 UV-I 810 W/m² 0,1 °C 8,4 °C 9,7 km/h (2 Bft)
29.04.2017 15:20 8,4 °C 8,4 °C 55 % 1018,0 hPa 0,0 mm 3,6 km/h (1 Bft) N 10 ° 1 min 0,000 mm 5,2 UV-I 819 W/m² -0,1 °C 8,4 °C 8,0 km/h (2 Bft)
29.04.2017 15:21 8,4 °C 8,4 °C 55 % 1018,0 hPa 0,0 mm 3,1 km/h (1 Bft) N 5 ° 1 min 0,000 mm 5,1 UV-I 821 W/m² -0,1 °C 8,4 °C 4,8 km/h (1 Bft)
29.04.2017 15:22 8,3 °C 8,4 °C 56 % 1018,0 hPa 0,0 mm 4,5 km/h (1 Bft) N-NO 30 ° 1 min 0,000 mm 5,1 UV-I 819 W/m² 0,0 °C 8,3 °C 8,0 km/h (2 Bft)
29.04.2017 15:23 8,3 °C 8,3 °C 57 % 1018,0 hPa 0,0 mm 1,4 km/h (1 Bft) N-NO 30 ° 1 min 0,000 mm 5,1 UV-I 819 W/m² 0,3 °C 8,3 °C 3,2 km/h (1 Bft)
29.04.2017 15:24 8,3 °C 8,3 °C 56 % 1018,1 hPa 0,0 mm 6,6 km/h (2 Bft) N 360 ° 1 min 0,000 mm 5,2 UV-I 823 W/m² 0,0 °C 7,4 °C 9,7 km/h (2 Bft)
29.04.2017 15:25 8,4 °C 8,4 °C 58 % 1018,0 hPa 0,0 mm 9,4 km/h (2 Bft) N 360 ° 1 min 0,000 mm 5,2 UV-I 828 W/m² 0,6 °C 6,8 °C 14,5 km/h (3 Bft)
29.04.2017 15:26 8,6 °C 8,6 °C 59 % 1018,0 hPa 0,0 mm 8,3 km/h (2 Bft) NO 37 ° 1 min 0,000 mm 5,2 UV-I 821 W/m² 1,0 °C 7,3 °C 11,3 km/h (2 Bft)
29.04.2017 15:27 8,7 °C 8,7 °C 58 % 1017,9 hPa 0,0 mm 3,6 km/h (1 Bft) N-NO 20 ° 1 min 0,000 mm 5,1 UV-I 816 W/m² 0,9 °C 8,7 °C 6,4 km/h (2 Bft)
29.04.2017 15:28 8,7 °C 8,8 °C 56 % 1017,9 hPa 0,0 mm 4,4 km/h (1 Bft) NO 41 ° 1 min 0,000 mm 5,0 UV-I 805 W/m² 0,4 °C 8,7 °C 8,0 km/h (2 Bft)
29.04.2017 15:29 8,6 °C 8,7 °C 55 % 1017,9 hPa 0,0 mm 4,3 km/h (1 Bft) N-NO 31 ° 1 min 0,000 mm 4,9 UV-I 789 W/m² 0,1 °C 8,6 °C 6,4 km/h (2 Bft)
29.04.2017 15:30 8,6 °C 8,6 °C 57 % 1017,9 hPa 0,0 mm 3,9 km/h (1 Bft) NO 51 ° 1 min 0,000 mm 4,9 UV-I 779 W/m² 0,6 °C 8,6 °C 6,4 km/h (2 Bft)
29.04.2017 15:31 8,6 °C 8,6 °C 55 % 1017,9 hPa 0,0 mm 9,2 km/h (2 Bft) N 355 ° 1 min 0,000 mm 4,9 UV-I 761 W/m² 0,1 °C 7,1 °C 12,9 km/h (3 Bft)
29.04.2017 15:32 8,7 °C 8,7 °C 55 % 1017,9 hPa 0,0 mm 7,5 km/h (2 Bft) N 5 ° 1 min 0,000 mm 4,8 UV-I 759 W/m² 0,2 °C 7,6 °C 9,7 km/h (2 Bft)
29.04.2017 15:33 8,7 °C 8,7 °C 56 % 1017,9 hPa 0,0 mm 4,6 km/h (1 Bft) N 5 ° 1 min 0,000 mm 4,3 UV-I 759 W/m² 0,4 °C 8,4 °C 6,4 km/h (2 Bft)
29.04.2017 15:34 8,7 °C 8,8 °C 57 % 1017,9 hPa 0,0 mm 2,1 km/h (1 Bft) N 5 ° 1 min 0,000 mm 4,7 UV-I 759 W/m² 0,7 °C 8,7 °C 3,2 km/h (1 Bft)
29.04.2017 15:35 8,6 °C 8,7 °C 56 % 1017,8 hPa 0,0 mm 2,1 km/h (1 Bft) N-NO 14 ° 1 min 0,000 mm 4,7 UV-I 759 W/m² 0,3 °C 8,6 °C 4,8 km/h (1 Bft)
29.04.2017 15:36 8,7 °C 8,7 °C 55 % 1017,9 hPa 0,0 mm 1,2 km/h (1 Bft) N-NO 14 ° 1 min 0,000 mm 4,7 UV-I 754 W/m² 0,2 °C 8,7 °C 3,2 km/h (1 Bft)
29.04.2017 15:37 8,6 °C 8,7 °C 55 % 1017,8 hPa 0,0 mm 2,3 km/h (1 Bft) N-NO 14 ° 1 min 0,000 mm 4,7 UV-I 747 W/m² 0,1 °C 8,6 °C 3,2 km/h (1 Bft)
29.04.2017 15:38 8,7 °C 8,7 °C 57 % 1017,9 hPa 0,0 mm 4,0 km/h (1 Bft) O-NO 70 ° 1 min 0,000 mm 4,6 UV-I 742 W/m² 0,7 °C 8,7 °C 8,0 km/h (2 Bft)
29.04.2017 15:39 8,7 °C 8,8 °C 55 % 1017,8 hPa 0,0 mm 2,9 km/h (1 Bft) O-NO 71 ° 1 min 0,000 mm 4,6 UV-I 740 W/m² 0,2 °C 8,7 °C 8,0 km/h (2 Bft)
29.04.2017 15:40 8,5 °C 8,7 °C 51 % 1017,8 hPa 0,0 mm 0,3 km/h (0 Bft) NO 52 ° 1 min 0,000 mm 4,6 UV-I 747 W/m² -1,0 °C 8,5 °C 3,2 km/h (1 Bft)
29.04.2017 15:41 8,4 °C 8,5 °C 54 % 1017,8 hPa 0,0 mm 5,0 km/h (1 Bft) N-NW 338 ° 1 min 0,000 mm 4,5 UV-I 747 W/m² -0,4 °C 7,9 °C 6,4 km/h (2 Bft)
29.04.2017 15:42 8,6 °C 8,6 °C 54 % 1017,8 hPa 0,0 mm 4,5 km/h (1 Bft) N 360 ° 1 min 0,000 mm 4,6 UV-I 749 W/m² -0,2 °C 8,6 °C 6,4 km/h (2 Bft)
29.04.2017 15:43 8,6 °C 8,6 °C 55 % 1017,8 hPa 0,0 mm 6,9 km/h (2 Bft) N 349 ° 1 min 0,000 mm 4,6 UV-I 747 W/m² 0,1 °C 7,6 °C 9,7 km/h (2 Bft)
29.04.2017 15:44 8,7 °C 8,7 °C 53 % 1017,8 hPa 0,0 mm 4,5 km/h (1 Bft) N-NW 341 ° 1 min 0,000 mm 4,6 UV-I 752 W/m² -0,3 °C 8,7 °C 6,4 km/h (2 Bft)
29.04.2017 15:45 8,6 °C 8,7 °C 50 % 1017,8 hPa 0,0 mm 2,7 km/h (1 Bft) N-NW 341 ° 1 min 0,000 mm 4,6 UV-I 759 W/m² -1,2 °C 8,6 °C 4,8 km/h (1 Bft)
29.04.2017 15:46 8,6 °C 8,6 °C 52 % 1017,7 hPa 0,0 mm 0,6 km/h (0 Bft) N-NW 341 ° 1 min 0,000 mm 4,6 UV-I 765 W/m² -0,7 °C 8,6 °C 1,6 km/h (1 Bft)
29.04.2017 15:47 8,6 °C 8,6 °C 53 % 1017,7 hPa 0,0 mm 0,4 km/h (0 Bft) N-NW 341 ° 1 min 0,000 mm 4,6 UV-I 761 W/m² -0,4 °C 8,6 °C 1,6 km/h (1 Bft)
29.04.2017 15:48 8,4 °C 8,6 °C 54 % 1017,7 hPa 0,0 mm 0,9 km/h (0 Bft) N-NW 333 ° 1 min 0,000 mm 4,6 UV-I 758 W/m² -0,4 °C 8,4 °C 1,6 km/h (1 Bft)
29.04.2017 15:49 8,6 °C 8,6 °C 56 % 1017,7 hPa 0,0 mm 5,6 km/h (1 Bft) N 5 ° 1 min 0,000 mm 4,6 UV-I 754 W/m² 0,3 °C 8,0 °C 8,0 km/h (2 Bft)
29.04.2017 15:50 8,7 °C 8,7 °C 59 % 1017,7 hPa 0,0 mm 5,6 km/h (1 Bft) NW 323 ° 1 min 0,000 mm 4,6 UV-I 754 W/m² 1,1 °C 8,1 °C 8,0 km/h (2 Bft)
29.04.2017 15:51 8,7 °C 8,7 °C 56 % 1017,7 hPa 0,0 mm 2,7 km/h (1 Bft) NW 321 ° 1 min 0,000 mm 4,5 UV-I 754 W/m² 0,4 °C 8,7 °C 4,8 km/h (1 Bft)
29.04.2017 15:52 8,7 °C 8,7 °C 55 % 1017,7 hPa 0,0 mm 0,5 km/h (0 Bft) NW 321 ° 1 min 0,000 mm 4,6 UV-I 752 W/m² 0,2 °C 8,7 °C 1,6 km/h (1 Bft)
29.04.2017 15:53 8,5 °C 8,7 °C 53 % 1017,7 hPa 0,0 mm 0,5 km/h (0 Bft) NO 46 ° 1 min 0,000 mm 4,6 UV-I 756 W/m² -0,5 °C 8,5 °C 3,2 km/h (1 Bft)
29.04.2017 15:54 8,4 °C 8,5 °C 56 % 1017,8 hPa 0,0 mm 6,4 km/h (2 Bft) NO 48 ° 1 min 0,000 mm 4,6 UV-I 758 W/m² 0,1 °C 7,5 °C 9,7 km/h (2 Bft)
29.04.2017 15:55 8,4 °C 8,4 °C 56 % 1017,7 hPa 0,0 mm 4,3 km/h (1 Bft) O-SO 106 ° 1 min 0,000 mm 4,6 UV-I 761 W/m² 0,1 °C 8,4 °C 6,4 km/h (2 Bft)
29.04.2017 15:56 8,4 °C 8,4 °C 55 % 1017,7 hPa 0,0 mm 2,7 km/h (1 Bft) O-SO 106 ° 1 min 0,000 mm 4,6 UV-I 768 W/m² -0,1 °C 8,4 °C 3,2 km/h (1 Bft)
29.04.2017 15:57 8,4 °C 8,4 °C 54 % 1017,7 hPa 0,0 mm 0,7 km/h (0 Bft) O-SO 106 ° 1 min 0,000 mm 4,5 UV-I 768 W/m² -0,4 °C 8,4 °C 1,6 km/h (1 Bft)
29.04.2017 15:58 8,4 °C 8,4 °C 55 % 1017,7 hPa 0,0 mm 2,7 km/h (1 Bft) O-NO 74 ° 1 min 0,000 mm 4,6 UV-I 777 W/m² -0,1 °C 8,4 °C 4,8 km/h (1 Bft)
29.04.2017 15:59 8,5 °C 8,5 °C 55 % 1017,7 hPa 0,0 mm 6,8 km/h (2 Bft) O 98 ° 1 min 0,000 mm 4,6 UV-I 782 W/m² -0,0 °C 7,5 °C 9,7 km/h (2 Bft)
29.04.2017 16:00 8,4 °C 8,5 °C 54 % 1017,7 hPa 0,0 mm 6,4 km/h (2 Bft) SO 145 ° 1 min 0,000 mm 4,6 UV-I 786 W/m² -0,4 °C 7,5 °C 9,7 km/h (2 Bft)
29.04.2017 16:01 8,4 °C 8,4 °C 53 % 1017,7 hPa 0,0 mm 2,7 km/h (1 Bft) O-SO 115 ° 1 min 0,356 mm 4,5 UV-I 786 W/m² -0,6 °C 8,4 °C 4,8 km/h (1 Bft)
29.04.2017 16:02 8,4 °C 8,4 °C 54 % 1017,7 hPa 0,0 mm 1,0 km/h (0 Bft) O-SO 103 ° 1 min 0,000 mm 4,5 UV-I 789 W/m² -0,4 °C 8,4 °C 3,2 km/h (1 Bft)
29.04.2017 16:03 8,6 °C 8,6 °C 54 % 1017,6 hPa 0,0 mm 7,2 km/h (2 Bft) N 5 ° 1 min 0,000 mm 4,5 UV-I 791 W/m² -0,2 °C 7,5 °C 8,0 km/h (2 Bft)
29.04.2017 16:04 8,8 °C 8,8 °C 56 % 1017,6 hPa 0,0 mm 2,6 km/h (1 Bft) N-NO 32 ° 1 min 0,000 mm 4,5 UV-I 793 W/m² 0,5 °C 8,8 °C 8,0 km/h (2 Bft)
29.04.2017 16:05 8,8 °C 8,8 °C 56 % 1017,7 hPa 0,0 mm 3,3 km/h (1 Bft) O-NO 72 ° 1 min 0,000 mm 4,5 UV-I 795 W/m² 0,5 °C 8,8 °C 11,3 km/h (2 Bft)
29.04.2017 16:06 8,7 °C 8,8 °C 55 % 1017,6 hPa 0,0 mm 6,0 km/h (2 Bft) O-NO 65 ° 1 min 0,000 mm 4,4 UV-I 791 W/m² 0,2 °C 8,0 °C 8,0 km/h (2 Bft)
29.04.2017 16:07 8,7 °C 8,7 °C 54 % 1017,6 hPa 0,0 mm 5,4 km/h (1 Bft) NO 43 ° 1 min 0,000 mm 4,4 UV-I 788 W/m² -0,1 °C 8,2 °C 8,0 km/h (2 Bft)
29.04.2017 16:08 8,8 °C 8,8 °C 55 % 1017,6 hPa 0,0 mm 9,6 km/h (2 Bft) N 5 ° 1 min 0,000 mm 4,4 UV-I 793 W/m² 0,3 °C 7,3 °C 12,9 km/h (3 Bft)
29.04.2017 16:09 8,8 °C 8,8 °C 54 % 1017,7 hPa 0,0 mm 5,2 km/h (1 Bft) N 360 ° 1 min 0,000 mm 4,3 UV-I 780 W/m² 0,0 °C 8,3 °C 9,7 km/h (2 Bft)
29.04.2017 16:10 8,8 °C 8,8 °C 55 % 1017,6 hPa 0,0 mm 2,5 km/h (1 Bft) O 85 ° 1 min 0,000 mm 4,3 UV-I 693 W/m² 0,3 °C 8,8 °C 4,8 km/h (1 Bft)
29.04.2017 16:11 8,8 °C 8,8 °C 55 % 1017,6 hPa 0,0 mm 2,6 km/h (1 Bft) O-NO 67 ° 1 min 0,000 mm 4,1 UV-I 693 W/m² 0,3 °C 8,8 °C 4,8 km/h (1 Bft)
29.04.2017 16:12 8,9 °C 8,9 °C 54 % 1017,6 hPa 0,0 mm 6,8 km/h (2 Bft) NO 51 ° 1 min 0,000 mm 3,9 UV-I 540 W/m² 0,1 °C 8,0 °C 9,7 km/h (2 Bft)
29.04.2017 16:13 8,8 °C 8,9 °C 54 % 1017,6 hPa 0,0 mm 5,4 km/h (1 Bft) NO 36 ° 1 min 0,000 mm 3,7 UV-I 448 W/m² 0,0 °C 8,3 °C 9,7 km/h (2 Bft)
29.04.2017 16:14 8,8 °C 8,8 °C 54 % 1017,7 hPa 0,0 mm 7,2 km/h (2 Bft) NO 43 ° 1 min 0,000 mm 3,4 UV-I 439 W/m² 0,0 °C 7,8 °C 11,3 km/h (2 Bft)
29.04.2017 16:15 8,8 °C 8,8 °C 54 % 1017,6 hPa 0,0 mm 9,2 km/h (2 Bft) N-NO 19 ° 1 min 0,000 mm 3,1 UV-I 403 W/m² 0,0 °C 7,3 °C 12,9 km/h (3 Bft)
29.04.2017 16:16 8,8 °C 8,8 °C 53 % 1017,7 hPa 0,0 mm 7,7 km/h (2 Bft) NO 44 ° 1 min 0,000 mm 2,6 UV-I 403 W/m² -0,2 °C 7,7 °C 11,3 km/h (2 Bft)
29.04.2017 16:17 8,7 °C 8,8 °C 52 % 1017,7 hPa 0,0 mm 8,2 km/h (2 Bft) N-NO 28 ° 0 min 0,000 mm 2,4 UV-I 236 W/m² -0,6 °C 7,4 °C 12,9 km/h (3 Bft)
29.04.2017 16:18 8,7 °C 8,7 °C 53 % 1017,7 hPa 0,0 mm 5,3 km/h (1 Bft) NO 55 ° 0 min 0,000 mm 2,4 UV-I 232 W/m² -0,3 °C 8,2 °C 9,7 km/h (2 Bft)
29.04.2017 16:19 8,6 °C 8,7 °C 54 % 1017,7 hPa 0,0 mm 6,3 km/h (2 Bft) O-NO 57 ° 0 min 0,000 mm 2,4 UV-I 234 W/m² -0,2 °C 7,8 °C 9,7 km/h (2 Bft)
29.04.2017 16:20 8,6 °C 8,6 °C 53 % 1017,7 hPa 0,0 mm 5,7 km/h (1 Bft) N-NO 14 ° 0 min 0,000 mm 2,4 UV-I 234 W/m² -0,4 °C 7,9 °C 8,0 km/h (2 Bft)
29.04.2017 16:21 8,5 °C 8,6 °C 53 % 1017,7 hPa 0,0 mm 4,0 km/h (1 Bft) N-NO 30 ° 0 min 0,000 mm 2,3 UV-I 230 W/m² -0,5 °C 8,5 °C 8,0 km/h (2 Bft)
29.04.2017 16:22 8,4 °C 8,5 °C 55 % 1017,6 hPa 0,0 mm 6,1 km/h (2 Bft) NO 42 ° 0 min 0,000 mm 2,3 UV-I 223 W/m² -0,1 °C 7,6 °C 8,0 km/h (2 Bft)
29.04.2017 16:23 8,3 °C 8,4 °C 53 % 1017,7 hPa 0,0 mm 4,6 km/h (1 Bft) O 86 ° 0 min 0,000 mm 2,2 UV-I 216 W/m² -0,7 °C 8,0 °C 6,4 km/h (2 Bft)
29.04.2017 16:24 8,3 °C 8,3 °C 55 % 1017,6 hPa 0,0 mm 5,5 km/h (1 Bft) NO 35 ° 0 min 0,000 mm 2,2 UV-I 193 W/m² -0,2 °C 7,7 °C 8,0 km/h (2 Bft)
29.04.2017 16:25 8,3 °C 8,3 °C 55 % 1017,6 hPa 0,0 mm 7,7 km/h (2 Bft) NO 42 ° 0 min 0,000 mm 2,1 UV-I 185 W/m² -0,2 °C 7,1 °C 12,9 km/h (3 Bft)
29.04.2017 16:26 8,4 °C 8,4 °C 55 % 1017,5 hPa 0,0 mm 8,0 km/h (2 Bft) N 5 ° 0 min 0,000 mm 2,2 UV-I 186 W/m² -0,1 °C 7,1 °C 9,7 km/h (2 Bft)
29.04.2017 16:27 8,4 °C 8,4 °C 55 % 1017,6 hPa 0,0 mm 7,2 km/h (2 Bft) NO 37 ° 0 min 0,000 mm 2,5 UV-I 186 W/m² -0,1 °C 7,3 °C 12,9 km/h (3 Bft)
29.04.2017 16:28 8,4 °C 8,4 °C 55 % 1017,6 hPa 0,0 mm 1,6 km/h (1 Bft) NO 37 ° 1 min 0,000 mm 2,5 UV-I 397 W/m² -0,1 °C 8,4 °C 3,2 km/h (1 Bft)
29.04.2017 16:29 8,4 °C 8,4 °C 58 % 1017,6 hPa 0,0 mm 4,8 km/h (1 Bft) N-NO 28 ° 1 min 0,000 mm 2,4 UV-I 304 W/m² 0,6 °C 8,0 °C 8,0 km/h (2 Bft)
29.04.2017 16:30 8,6 °C 8,6 °C 58 % 1017,6 hPa 0,0 mm 4,0 km/h (1 Bft) NO 44 ° 0 min 0,000 mm 2,0 UV-I 137 W/m² 0,8 °C 8,6 °C 8,0 km/h (2 Bft)
29.04.2017 16:31 8,4 °C 8,6 °C 56 % 1017,5 hPa 0,0 mm 4,4 km/h (1 Bft) O 80 ° 0 min 0,000 mm 1,9 UV-I 134 W/m² 0,1 °C 8,4 °C 6,4 km/h (2 Bft)
29.04.2017 16:32 8,4 °C 8,4 °C 54 % 1017,6 hPa 0,0 mm 2,7 km/h (1 Bft) O-NO 73 ° 0 min 0,000 mm 1,9 UV-I 132 W/m² -0,4 °C 8,4 °C 3,2 km/h (1 Bft)
29.04.2017 16:33 8,3 °C 8,4 °C 56 % 1017,7 hPa 0,0 mm 2,7 km/h (1 Bft) O-NO 76 ° 0 min 0,000 mm 1,8 UV-I 128 W/m² 0,0 °C 8,3 °C 4,8 km/h (1 Bft)
29.04.2017 16:34 8,2 °C 8,3 °C 58 % 1017,6 hPa 0,0 mm 3,4 km/h (1 Bft) O-NO 74 ° 0 min 0,000 mm 1,8 UV-I 125 W/m² 0,4 °C 8,2 °C 4,8 km/h (1 Bft)
29.04.2017 16:35 8,1 °C 8,2 °C 56 % 1017,6 hPa 0,0 mm 3,7 km/h (1 Bft) O-NO 76 ° 0 min 0,000 mm 1,9 UV-I 125 W/m² -0,1 °C 8,1 °C 4,8 km/h (1 Bft)
29.04.2017 16:36 7,9 °C 8,1 °C 59 % 1017,6 hPa 0,0 mm 4,9 km/h (1 Bft) O 80 ° 0 min 0,000 mm 1,9 UV-I 114 W/m² 0,4 °C 7,4 °C 6,4 km/h (2 Bft)
29.04.2017 16:37 7,8 °C 7,9 °C 57 % 1017,6 hPa 0,0 mm 2,9 km/h (1 Bft) O 81 ° 0 min 0,000 mm 1,8 UV-I 104 W/m² -0,2 °C 7,8 °C 6,4 km/h (2 Bft)
29.04.2017 16:38 7,8 °C 7,8 °C 55 % 1017,6 hPa 0,0 mm 1,6 km/h (1 Bft) O 81 ° 0 min 0,000 mm 1,8 UV-I 100 W/m² -0,7 °C 7,8 °C 4,8 km/h (1 Bft)
29.04.2017 16:39 7,7 °C 7,8 °C 58 % 1017,6 hPa 0,0 mm 3,3 km/h (1 Bft) O 82 ° 0 min 0,000 mm 1,8 UV-I 97 W/m² -0,0 °C 7,7 °C 6,4 km/h (2 Bft)
29.04.2017 16:40 7,7 °C 7,7 °C 58 % 1017,6 hPa 0,0 mm 3,2 km/h (1 Bft) O-NO 59 ° 0 min 0,000 mm 1,8 UV-I 90 W/m² -0,0 °C 7,7 °C 4,8 km/h (1 Bft)
29.04.2017 16:41 7,6 °C 7,7 °C 58 % 1017,6 hPa 0,0 mm 1,1 km/h (1 Bft) O-NO 59 ° 0 min 0,000 mm 1,7 UV-I 83 W/m² -0,1 °C 7,6 °C 3,2 km/h (1 Bft)
29.04.2017 16:42 7,5 °C 7,6 °C 59 % 1017,6 hPa 0,0 mm 1,0 km/h (0 Bft) O-NO 59 ° 0 min 0,000 mm 1,7 UV-I 77 W/m² 0,0 °C 7,5 °C 4,8 km/h (1 Bft)
29.04.2017 16:43 7,6 °C 7,6 °C 58 % 1017,6 hPa 0,0 mm 2,5 km/h (1 Bft) NO 54 ° 0 min 0,000 mm 1,7 UV-I 77 W/m² -0,1 °C 7,6 °C 8,0 km/h (2 Bft)
29.04.2017 16:44 7,5 °C 7,6 °C 57 % 1017,5 hPa 0,0 mm 4,7 km/h (1 Bft) O-NO 57 ° 0 min 0,000 mm 1,8 UV-I 77 W/m² -0,5 °C 7,0 °C 6,4 km/h (2 Bft)
29.04.2017 16:45 7,6 °C 7,6 °C 55 % 1017,5 hPa 0,0 mm 0,7 km/h (0 Bft) O-NO 57 ° 0 min 0,000 mm 1,8 UV-I 81 W/m² -0,9 °C 7,6 °C 3,2 km/h (1 Bft)
29.04.2017 16:46 7,7 °C 7,7 °C 55 % 1017,5 hPa 0,0 mm 1,4 km/h (1 Bft) O-NO 57 ° 0 min 0,000 mm 2,2 UV-I 81 W/m² -0,8 °C 7,7 °C 3,2 km/h (1 Bft)
29.04.2017 16:47 7,7 °C 7,7 °C 56 % 1017,5 hPa 0,0 mm 4,0 km/h (1 Bft) N-NO 14 ° 1 min 0,000 mm 2,2 UV-I 343 W/m² -0,5 °C 7,7 °C 6,4 km/h (2 Bft)
29.04.2017 16:48 7,9 °C 7,9 °C 56 % 1017,5 hPa 0,0 mm 3,3 km/h (1 Bft) N 355 ° 1 min 0,000 mm 2,2 UV-I 290 W/m² -0,3 °C 7,9 °C 4,8 km/h (1 Bft)
29.04.2017 16:49 8,1 °C 8,1 °C 57 % 1017,5 hPa 0,0 mm 4,0 km/h (1 Bft) N 11 ° 1 min 0,000 mm 2,2 UV-I 313 W/m² 0,1 °C 8,1 °C 4,8 km/h (1 Bft)
29.04.2017 16:50 8,2 °C 8,2 °C 57 % 1017,5 hPa 0,0 mm 3,1 km/h (1 Bft) N 10 ° 0 min 0,000 mm 2,1 UV-I 260 W/m² 0,2 °C 8,2 °C 6,4 km/h (2 Bft)
29.04.2017 16:51 8,3 °C 8,3 °C 57 % 1017,5 hPa 0,0 mm 0,9 km/h (0 Bft) N 10 ° 0 min 0,000 mm 2,0 UV-I 169 W/m² 0,3 °C 8,3 °C 3,2 km/h (1 Bft)
29.04.2017 16:52 8,3 °C 8,3 °C 55 % 1017,5 hPa 0,0 mm 4,6 km/h (1 Bft) N 5 ° 0 min 0,000 mm 1,9 UV-I 116 W/m² -0,2 °C 8,0 °C 6,4 km/h (2 Bft)
29.04.2017 16:53 8,5 °C 8,5 °C 55 % 1017,5 hPa 0,0 mm 4,7 km/h (1 Bft) O-NO 67 ° 0 min 0,000 mm 1,9 UV-I 130 W/m² -0,0 °C 8,2 °C 6,4 km/h (2 Bft)
29.04.2017 16:54 8,6 °C 8,6 °C 53 % 1017,5 hPa 0,0 mm 2,5 km/h (1 Bft) O-NO 72 ° 0 min 0,000 mm 1,9 UV-I 102 W/m² -0,4 °C 8,6 °C 4,8 km/h (1 Bft)
29.04.2017 16:55 8,5 °C 8,6 °C 52 % 1017,5 hPa 0,0 mm 5,5 km/h (1 Bft) O-NO 71 ° 0 min 0,000 mm 1,8 UV-I 105 W/m² -0,8 °C 7,9 °C 8,0 km/h (2 Bft)
29.04.2017 16:56 8,5 °C 8,5 °C 53 % 1017,5 hPa 0,0 mm 3,9 km/h (1 Bft) O-NO 78 ° 0 min 0,000 mm 1,8 UV-I 158 W/m² -0,5 °C 8,5 °C 4,8 km/h (1 Bft)
29.04.2017 16:57 8,4 °C 8,5 °C 52 % 1017,5 hPa 0,0 mm 1,8 km/h (1 Bft) O-NO 78 ° 0 min 0,000 mm 2,0 UV-I 216 W/m² -0,9 °C 8,4 °C 3,2 km/h (1 Bft)
29.04.2017 16:58 8,3 °C 8,4 °C 52 % 1017,4 hPa 0,0 mm 3,7 km/h (1 Bft) O 90 ° 0 min 0,000 mm 2,1 UV-I 255 W/m² -1,0 °C 8,3 °C 4,8 km/h (1 Bft)
29.04.2017 16:59 8,3 °C 8,3 °C 52 % 1017,4 hPa 0,0 mm 1,8 km/h (1 Bft) O 90 ° 1 min 0,000 mm 2,0 UV-I 297 W/m² -1,0 °C 8,3 °C 4,8 km/h (1 Bft)
29.04.2017 17:00 8,3 °C 8,3 °C 52 % 1017,5 hPa 0,0 mm 0,1 km/h (0 Bft) O 90 ° 1 min 0,152 mm 2,2 UV-I 323 W/m² -1,0 °C 8,3 °C 1,6 km/h (1 Bft)
29.04.2017 17:01 8,3 °C 8,3 °C 54 % 1017,5 hPa 0,0 mm 3,1 km/h (1 Bft) O 84 ° 1 min 0,000 mm 2,2 UV-I 359 W/m² -0,5 °C 8,3 °C 4,8 km/h (1 Bft)
29.04.2017 17:02 8,4 °C 8,4 °C 55 % 1017,4 hPa 0,0 mm 3,5 km/h (1 Bft) O 84 ° 1 min 0,000 mm 2,3 UV-I 371 W/m² -0,1 °C 8,4 °C 4,8 km/h (1 Bft)
29.04.2017 17:03 8,6 °C 8,6 °C 54 % 1017,4 hPa 0,0 mm 1,9 km/h (1 Bft) O 80 ° 1 min 0,000 mm 2,2 UV-I 327 W/m² -0,2 °C 8,6 °C 4,8 km/h (1 Bft)
29.04.2017 17:04 8,7 °C 8,7 °C 53 % 1017,4 hPa 0,0 mm 3,0 km/h (1 Bft) O-NO 68 ° 1 min 0,000 mm 2,1 UV-I 332 W/m² -0,3 °C 8,7 °C 4,8 km/h (1 Bft)
29.04.2017 17:05 8,6 °C 8,7 °C 55 % 1017,4 hPa 0,0 mm 1,5 km/h (1 Bft) O-NO 78 ° 0 min 0,000 mm 2,1 UV-I 283 W/m² 0,1 °C 8,6 °C 3,2 km/h (1 Bft)
29.04.2017 17:06 8,7 °C 8,7 °C 53 % 1017,4 hPa 0,0 mm 5,6 km/h (1 Bft) O 81 ° 0 min 0,000 mm 1,8 UV-I 186 W/m² -0,3 °C 8,1 °C 8,0 km/h (2 Bft)
29.04.2017 17:07 8,7 °C 8,7 °C 52 % 1017,4 hPa 0,0 mm 2,6 km/h (1 Bft) O 84 ° 0 min 0,000 mm 1,7 UV-I 142 W/m² -0,6 °C 8,7 °C 4,8 km/h (1 Bft)
29.04.2017 17:08 8,7 °C 8,7 °C 54 % 1017,4 hPa 0,0 mm 3,3 km/h (1 Bft) O-NO 77 ° 0 min 0,000 mm 1,6 UV-I 95 W/m² -0,1 °C 8,7 °C 6,4 km/h (2 Bft)
29.04.2017 17:09 8,7 °C 8,7 °C 54 % 1017,4 hPa 0,0 mm 2,5 km/h (1 Bft) O-NO 77 ° 0 min 0,000 mm 1,6 UV-I 120 W/m² -0,1 °C 8,7 °C 4,8 km/h (1 Bft)
29.04.2017 17:10 8,7 °C 8,7 °C 55 % 1017,4 hPa 0,0 mm 2,3 km/h (1 Bft) O 93 ° 0 min 0,000 mm 1,8 UV-I 211 W/m² 0,2 °C 8,7 °C 4,8 km/h (1 Bft)
29.04.2017 17:11 8,6 °C 8,7 °C 53 % 1017,3 hPa 0,0 mm 2,5 km/h (1 Bft) SW 224 ° 0 min 0,000 mm 1,9 UV-I 251 W/m² -0,4 °C 8,6 °C 3,2 km/h (1 Bft)
29.04.2017 17:12 8,7 °C 8,7 °C 52 % 1017,3 hPa 0,0 mm 2,5 km/h (1 Bft) O 94 ° 0 min 0,000 mm 1,6 UV-I 251 W/m² -0,6 °C 8,7 °C 4,8 km/h (1 Bft)
29.04.2017 17:13 8,7 °C 8,7 °C 52 % 1017,3 hPa 0,0 mm 4,8 km/h (1 Bft) O-NO 78 ° 0 min 0,000 mm 1,5 UV-I 70 W/m² -0,6 °C 8,3 °C 8,0 km/h (2 Bft)
29.04.2017 17:14 8,6 °C 8,7 °C 55 % 1017,3 hPa 0,0 mm 8,4 km/h (2 Bft) O-NO 73 ° 0 min 0,000 mm 1,5 UV-I 74 W/m² 0,1 °C 7,3 °C 9,7 km/h (2 Bft)
29.04.2017 17:15 8,4 °C 8,6 °C 58 % 1017,3 hPa 0,0 mm 6,7 km/h (2 Bft) O-NO 68 ° 0 min 0,000 mm 1,6 UV-I 142 W/m² 0,6 °C 7,4 °C 8,0 km/h (2 Bft)
29.04.2017 17:16 8,2 °C 8,4 °C 58 % 1017,4 hPa 0,0 mm 5,4 km/h (1 Bft) O-NO 69 ° 0 min 0,000 mm 1,8 UV-I 186 W/m² 0,4 °C 7,6 °C 8,0 km/h (2 Bft)
29.04.2017 17:17 8,1 °C 8,2 °C 57 % 1017,3 hPa 0,0 mm 6,8 km/h (2 Bft) O-NO 67 ° 0 min 0,000 mm 1,8 UV-I 225 W/m² 0,1 °C 7,1 °C 11,3 km/h (2 Bft)
29.04.2017 17:18 8,0 °C 8,1 °C 58 % 1017,4 hPa 0,0 mm 5,8 km/h (2 Bft) O-SO 113 ° 0 min 0,000 mm 1,7 UV-I 176 W/m² 0,3 °C 7,2 °C 9,7 km/h (2 Bft)
29.04.2017 17:19 8,0 °C 8,0 °C 58 % 1017,3 hPa 0,0 mm 6,8 km/h (2 Bft) O 83 ° 0 min 0,000 mm 1,5 UV-I 102 W/m² 0,3 °C 7,0 °C 12,9 km/h (3 Bft)
29.04.2017 17:20 8,0 °C 8,0 °C 58 % 1017,3 hPa 0,0 mm 4,8 km/h (1 Bft) O-NO 75 ° 0 min 0,000 mm 1,5 UV-I 100 W/m² 0,3 °C 7,6 °C 9,7 km/h (2 Bft)
29.04.2017 17:21 8,1 °C 8,1 °C 54 % 1017,4 hPa 0,0 mm 2,5 km/h (1 Bft) O-NO 78 ° 0 min 0,000 mm 1,6 UV-I 186 W/m² -0,6 °C 8,1 °C 4,8 km/h (1 Bft)
29.04.2017 17:22 8,2 °C 8,2 °C 53 % 1017,3 hPa 0,0 mm 0,4 km/h (0 Bft) O-NO 78 ° 0 min 0,000 mm 1,7 UV-I 267 W/m² -0,8 °C 8,2 °C 1,6 km/h (1 Bft)
29.04.2017 17:23 8,3 °C 8,3 °C 53 % 1017,3 hPa 0,0 mm 1,5 km/h (1 Bft) O-NO 72 ° 0 min 0,000 mm 1,8 UV-I 214 W/m² -0,7 °C 8,3 °C 6,4 km/h (2 Bft)
29.04.2017 17:24 8,4 °C 8,4 °C 56 % 1017,3 hPa 0,0 mm 5,6 km/h (1 Bft) O-NO 69 ° 0 min 0,000 mm 1,7 UV-I 200 W/m² 0,1 °C 7,7 °C 8,0 km/h (2 Bft)
29.04.2017 17:25 8,6 °C 8,6 °C 53 % 1017,3 hPa 0,0 mm 7,0 km/h (2 Bft) O-NO 67 ° 0 min 0,000 mm 1,6 UV-I 174 W/m² -0,4 °C 7,6 °C 8,0 km/h (2 Bft)
29.04.2017 17:26 8,7 °C 8,7 °C 53 % 1017,3 hPa 0,0 mm 5,4 km/h (1 Bft) O-NO 63 ° 0 min 0,000 mm 1,5 UV-I 132 W/m² -0,3 °C 8,2 °C 9,7 km/h (2 Bft)
29.04.2017 17:27 8,7 °C 8,7 °C 54 % 1017,3 hPa 0,0 mm 4,4 km/h (1 Bft) O 101 ° 0 min 0,000 mm 1,5 UV-I 135 W/m² -0,1 °C 8,7 °C 8,0 km/h (2 Bft)
29.04.2017 17:28 8,6 °C 8,7 °C 58 % 1017,3 hPa 0,0 mm 3,9 km/h (1 Bft) O 97 ° 0 min 0,000 mm 1,5 UV-I 167 W/m² 0,8 °C 8,6 °C 9,7 km/h (2 Bft)
29.04.2017 17:29 8,4 °C 8,6 °C 54 % 1017,3 hPa 0,0 mm 4,1 km/h (1 Bft) S 177 ° 0 min 0,000 mm 1,4 UV-I 98 W/m² -0,4 °C 8,4 °C 8,0 km/h (2 Bft)
29.04.2017 17:30 8,4 °C 8,4 °C 52 % 1017,3 hPa 0,0 mm 4,0 km/h (1 Bft) O-NO 76 ° 0 min 0,000 mm 1,3 UV-I 63 W/m² -0,9 °C 8,4 °C 8,0 km/h (2 Bft)
29.04.2017 17:31 8,4 °C 8,4 °C 54 % 1017,3 hPa 0,0 mm 6,8 km/h (2 Bft) NO 50 ° 0 min 0,000 mm 1,3 UV-I 56 W/m² -0,4 °C 7,4 °C 11,3 km/h (2 Bft)
29.04.2017 17:32 8,5 °C 8,6 °C 55 % 1017,3 hPa 0,0 mm 6,3 km/h (2 Bft) O-SO 106 ° 0 min 0,000 mm 1,3 UV-I 54 W/m² -0,0 °C 7,7 °C 8,0 km/h (2 Bft)
29.04.2017 17:33 8,4 °C 8,5 °C 56 % 1017,3 hPa 0,0 mm 3,8 km/h (1 Bft) NO 46 ° 0 min 0,000 mm 1,3 UV-I 56 W/m² 0,1 °C 8,4 °C 9,7 km/h (2 Bft)
29.04.2017 17:34 8,4 °C 8,4 °C 58 % 1017,3 hPa 0,0 mm 5,1 km/h (1 Bft) O 90 ° 0 min 0,000 mm 1,3 UV-I 104 W/m² 0,6 °C 7,9 °C 6,4 km/h (2 Bft)
29.04.2017 17:35 8,4 °C 8,4 °C 54 % 1017,3 hPa 0,0 mm 4,5 km/h (1 Bft) O 85 ° 0 min 0,000 mm 1,4 UV-I 120 W/m² -0,4 °C 8,4 °C 9,7 km/h (2 Bft)
29.04.2017 17:36 8,4 °C 8,4 °C 54 % 1017,4 hPa 0,0 mm 6,1 km/h (2 Bft) O 86 ° 0 min 0,000 mm 1,3 UV-I 81 W/m² -0,4 °C 7,6 °C 11,3 km/h (2 Bft)
29.04.2017 17:37 8,4 °C 8,4 °C 53 % 1017,3 hPa 0,0 mm 7,1 km/h (2 Bft) NO 53 ° 0 min 0,000 mm 1,3 UV-I 56 W/m² -0,6 °C 7,3 °C 12,9 km/h (3 Bft)
29.04.2017 17:38 8,6 °C 8,6 °C 54 % 1017,3 hPa 0,0 mm 7,5 km/h (2 Bft) O-NO 74 ° 0 min 0,000 mm 0,0 UV-I 51 W/m² -0,2 °C 7,5 °C 12,9 km/h (3 Bft)
29.04.2017 17:39 8,7 °C 8,7 °C 54 % 1017,2 hPa 0,0 mm 7,1 km/h (2 Bft) O-SO 105 ° 0 min 0,000 mm 0,0 UV-I 47 W/m² -0,1 °C 7,7 °C 11,3 km/h (2 Bft)
29.04.2017 17:40 8,6 °C 8,7 °C 53 % 1017,2 hPa 0,0 mm 4,1 km/h (1 Bft) O-NO 75 ° 0 min 0,000 mm 0,0 UV-I 47 W/m² -0,4 °C 8,6 °C 8,0 km/h (2 Bft)
29.04.2017 17:41 8,6 °C 8,6 °C 54 % 1017,2 hPa 0,0 mm 2,3 km/h (1 Bft) NO 55 ° 0 min 0,000 mm 0,0 UV-I 47 W/m² -0,2 °C 8,6 °C 4,8 km/h (1 Bft)
29.04.2017 17:42 8,5 °C 8,6 °C 55 % 1017,3 hPa 0,0 mm 2,0 km/h (1 Bft) NO 55 ° 0 min 0,000 mm 0,0 UV-I 46 W/m² -0,0 °C 8,5 °C 4,8 km/h (1 Bft)
29.04.2017 17:43 8,5 °C 8,5 °C 54 % 1017,2 hPa 0,0 mm 3,2 km/h (1 Bft) O-NO 61 ° 0 min 0,000 mm 0,0 UV-I 47 W/m² -0,3 °C 8,5 °C 6,4 km/h (2 Bft)
29.04.2017 17:44 8,5 °C 8,5 °C 53 % 1017,2 hPa 0,0 mm 3,8 km/h (1 Bft) O-NO 63 ° 0 min 0,000 mm 0,0 UV-I 53 W/m² -0,5 °C 8,5 °C 6,4 km/h (2 Bft)
29.04.2017 17:45 8,5 °C 8,5 °C 54 % 1017,2 hPa 0,0 mm 4,8 km/h (1 Bft) O-NO 75 ° 0 min 0,000 mm 0,0 UV-I 49 W/m² -0,3 °C 8,1 °C 6,4 km/h (2 Bft)
29.04.2017 17:46 8,4 °C 8,5 °C 53 % 1017,2 hPa 0,0 mm 2,7 km/h (1 Bft) O-NO 75 ° 0 min 0,000 mm 0,0 UV-I 77 W/m² -0,6 °C 8,4 °C 4,8 km/h (1 Bft)
29.04.2017 17:47 8,3 °C 8,4 °C 54 % 1017,3 hPa 0,0 mm 2,6 km/h (1 Bft) N-NO 22 ° 0 min 0,000 mm 1,3 UV-I 105 W/m² -0,5 °C 8,3 °C 4,8 km/h (1 Bft)
29.04.2017 17:48 8,3 °C 8,3 °C 55 % 1017,2 hPa 0,0 mm 2,7 km/h (1 Bft) O 79 ° 0 min 0,000 mm 1,2 UV-I 69 W/m² -0,2 °C 8,3 °C 6,4 km/h (2 Bft)
29.04.2017 17:49 8,2 °C 8,3 °C 56 % 1017,2 hPa 0,0 mm 6,2 km/h (2 Bft) NO 55 ° 0 min 0,000 mm 1,2 UV-I 58 W/m² -0,0 °C 7,3 °C 11,3 km/h (2 Bft)
29.04.2017 17:50 8,2 °C 8,2 °C 54 % 1017,3 hPa 0,0 mm 5,6 km/h (1 Bft) O-NO 71 ° 0 min 0,000 mm 1,2 UV-I 62 W/m² -0,5 °C 7,5 °C 11,3 km/h (2 Bft)
29.04.2017 17:51 8,3 °C 8,3 °C 54 % 1017,3 hPa 0,0 mm 6,3 km/h (2 Bft) N 5 ° 0 min 0,000 mm 1,3 UV-I 123 W/m² -0,5 °C 7,4 °C 9,7 km/h (2 Bft)
29.04.2017 17:52 8,4 °C 8,4 °C 53 % 1017,2 hPa 0,0 mm 5,8 km/h (2 Bft) N-NO 31 ° 0 min 0,000 mm 1,3 UV-I 118 W/m² -0,6 °C 7,7 °C 8,0 km/h (2 Bft)
29.04.2017 17:53 8,4 °C 8,4 °C 52 % 1017,2 hPa 0,0 mm 3,9 km/h (1 Bft) O-NO 57 ° 0 min 0,000 mm 1,3 UV-I 146 W/m² -0,9 °C 8,4 °C 6,4 km/h (2 Bft)
29.04.2017 17:54 8,5 °C 8,5 °C 52 % 1017,3 hPa 0,0 mm 3,6 km/h (1 Bft) O 86 ° 0 min 0,000 mm 1,4 UV-I 218 W/m² -0,8 °C 8,5 °C 8,0 km/h (2 Bft)
29.04.2017 17:55 8,6 °C 8,6 °C 52 % 1017,3 hPa 0,0 mm 4,9 km/h (1 Bft) NO 53 ° 0 min 0,000 mm 1,3 UV-I 225 W/m² -0,7 °C 8,2 °C 8,0 km/h (2 Bft)
29.04.2017 17:56 8,6 °C 8,6 °C 53 % 1017,2 hPa 0,0 mm 5,8 km/h (2 Bft) NO 56 ° 0 min 0,000 mm 1,3 UV-I 207 W/m² -0,4 °C 7,9 °C 8,0 km/h (2 Bft)
29.04.2017 17:57 8,6 °C 8,6 °C 51 % 1017,3 hPa 0,0 mm 5,7 km/h (1 Bft) O-NO 67 ° 0 min 0,000 mm 1,3 UV-I 165 W/m² -1,0 °C 7,9 °C 12,9 km/h (3 Bft)
29.04.2017 17:58 8,6 °C 8,6 °C 52 % 1017,3 hPa 0,0 mm 7,7 km/h (2 Bft) O 92 ° 0 min 0,000 mm 1,2 UV-I 74 W/m² -0,7 °C 7,4 °C 11,3 km/h (2 Bft)
29.04.2017 17:59 8,6 °C 8,6 °C 52 % 1017,3 hPa 0,0 mm 5,5 km/h (1 Bft) O-SO 108 ° 0 min 0,000 mm 1,2 UV-I 84 W/m² -0,7 °C 8,0 °C 8,0 km/h (2 Bft)
29.04.2017 18:00 8,6 °C 8,6 °C 52 % 1017,3 hPa 0,0 mm 5,7 km/h (1 Bft) NO 51 ° 0 min 0,000 mm 1,1 UV-I 86 W/m² -0,7 °C 7,9 °C 6,4 km/h (2 Bft)
29.04.2017 18:01 8,6 °C 8,6 °C 51 % 1017,3 hPa 0,0 mm 4,8 km/h (1 Bft) N-NO 30 ° 0 min 0,076 mm 1,1 UV-I 70 W/m² -1,0 °C 8,2 °C 6,4 km/h (2 Bft)
29.04.2017 18:02 8,7 °C 8,7 °C 52 % 1017,2 hPa 0,0 mm 3,1 km/h (1 Bft) N-NO 30 ° 0 min 0,000 mm 1,1 UV-I 118 W/m² -0,6 °C 8,7 °C 4,8 km/h (1 Bft)
29.04.2017 18:03 8,8 °C 8,8 °C 52 % 1017,3 hPa 0,0 mm 6,5 km/h (2 Bft) NO 34 ° 0 min 0,000 mm 1,2 UV-I 142 W/m² -0,5 °C 8,0 °C 11,3 km/h (2 Bft)
29.04.2017 18:04 8,8 °C 8,8 °C 51 % 1017,3 hPa 0,0 mm 8,0 km/h (2 Bft) O-NO 67 ° 0 min 0,000 mm 1,2 UV-I 156 W/m² -0,8 °C 7,6 °C 11,3 km/h (2 Bft)
29.04.2017 18:05 8,7 °C 8,8 °C 55 % 1017,3 hPa 0,0 mm 12,1 km/h (2 Bft) O 100 ° 0 min 0,000 mm 1,2 UV-I 174 W/m² 0,2 °C 6,7 °C 16,1 km/h (3 Bft)
29.04.2017 18:06 8,5 °C 8,7 °C 55 % 1017,4 hPa 0,0 mm 5,0 km/h (1 Bft) O-NO 66 ° 0 min 0,000 mm 1,3 UV-I 206 W/m² -0,0 °C 8,1 °C 6,4 km/h (2 Bft)
29.04.2017 18:07 8,4 °C 8,5 °C 54 % 1017,2 hPa 0,0 mm 5,7 km/h (1 Bft) O-NO 59 ° 0 min 0,000 mm 1,3 UV-I 250 W/m² -0,4 °C 7,7 °C 8,0 km/h (2 Bft)
29.04.2017 18:08 8,3 °C 8,4 °C 56 % 1017,3 hPa 0,0 mm 2,6 km/h (1 Bft) O-NO 75 ° 0 min 0,000 mm 1,2 UV-I 269 W/m² 0,0 °C 8,3 °C 4,8 km/h (1 Bft)
29.04.2017 18:09 8,3 °C 8,3 °C 55 % 1017,3 hPa 0,0 mm 2,4 km/h (1 Bft) O-NO 75 ° 0 min 0,000 mm 1,2 UV-I 200 W/m² -0,2 °C 8,3 °C 4,8 km/h (1 Bft)
29.04.2017 18:10 8,3 °C 8,3 °C 56 % 1017,2 hPa 0,0 mm 4,9 km/h (1 Bft) O 82 ° 0 min 0,000 mm 1,2 UV-I 207 W/m² 0,0 °C 7,9 °C 9,7 km/h (2 Bft)
29.04.2017 18:11 8,2 °C 8,3 °C 56 % 1017,2 hPa 0,0 mm 5,0 km/h (1 Bft) O 83 ° 0 min 0,000 mm 1,2 UV-I 253 W/m² -0,0 °C 7,7 °C 6,4 km/h (2 Bft)
29.04.2017 18:12 8,1 °C 8,2 °C 56 % 1017,2 hPa 0,0 mm 5,2 km/h (1 Bft) O 98 ° 0 min 0,000 mm 1,2 UV-I 176 W/m² -0,1 °C 7,5 °C 6,4 km/h (2 Bft)
29.04.2017 18:13 8,1 °C 8,1 °C 56 % 1017,2 hPa 0,0 mm 3,4 km/h (1 Bft) SO 134 ° 0 min 0,000 mm 1,1 UV-I 155 W/m² -0,1 °C 8,1 °C 6,4 km/h (2 Bft)
29.04.2017 18:14 8,1 °C 8,1 °C 57 % 1017,2 hPa 0,0 mm 1,1 km/h (1 Bft) SO 134 ° 0 min 0,000 mm 1,1 UV-I 193 W/m² 0,1 °C 8,1 °C 3,2 km/h (1 Bft)
29.04.2017 18:15 7,9 °C 8,1 °C 59 % 1017,1 hPa 0,0 mm 2,4 km/h (1 Bft) O-NO 63 ° 0 min 0,000 mm 1,1 UV-I 163 W/m² 0,4 °C 7,9 °C 3,2 km/h (1 Bft)
29.04.2017 18:16 7,8 °C 7,9 °C 60 % 1017,2 hPa 0,0 mm 6,8 km/h (2 Bft) O-NO 73 ° 0 min 0,000 mm 1,1 UV-I 134 W/m² 0,5 °C 6,7 °C 11,3 km/h (2 Bft)
29.04.2017 18:17 7,7 °C 7,8 °C 60 % 1017,1 hPa 0,0 mm 6,2 km/h (2 Bft) O-NO 73 ° 0 min 0,000 mm 1,0 UV-I 95 W/m² 0,4 °C 6,8 °C 8,0 km/h (2 Bft)
29.04.2017 18:18 7,6 °C 7,7 °C 60 % 1017,2 hPa 0,0 mm 6,2 km/h (2 Bft) O 92 ° 0 min 0,000 mm 1,0 UV-I 146 W/m² 0,3 °C 6,7 °C 9,7 km/h (2 Bft)
29.04.2017 18:19 7,7 °C 7,7 °C 57 % 1017,2 hPa 0,0 mm 3,4 km/h (1 Bft) O 83 ° 0 min 0,000 mm 1,1 UV-I 174 W/m² -0,3 °C 7,7 °C 6,4 km/h (2 Bft)
29.04.2017 18:20 7,8 °C 7,8 °C 57 % 1017,2 hPa 0,0 mm 0,4 km/h (0 Bft) O 83 ° 0 min 0,000 mm 1,0 UV-I 114 W/m² -0,2 °C 7,8 °C 1,6 km/h (1 Bft)
29.04.2017 18:21 7,8 °C 7,8 °C 57 % 1017,1 hPa 0,0 mm 3,3 km/h (1 Bft) O 80 ° 0 min 0,000 mm 1,0 UV-I 91 W/m² -0,2 °C 7,8 °C 12,9 km/h (3 Bft)
29.04.2017 18:22 7,9 °C 7,9 °C 56 % 1017,2 hPa 0,0 mm 4,8 km/h (1 Bft) O-SO 106 ° 0 min 0,000 mm 1,0 UV-I 90 W/m² -0,3 °C 7,4 °C 9,7 km/h (2 Bft)
29.04.2017 18:23 7,9 °C 7,9 °C 56 % 1017,1 hPa 0,0 mm 2,5 km/h (1 Bft) SO 143 ° 0 min 0,000 mm 1,0 UV-I 113 W/m² -0,3 °C 7,9 °C 4,8 km/h (1 Bft)
29.04.2017 18:24 7,9 °C 7,9 °C 57 % 1017,1 hPa 0,0 mm 1,9 km/h (1 Bft) O-SO 122 ° 0 min 0,000 mm 0,9 UV-I 127 W/m² -0,1 °C 7,9 °C 4,8 km/h (1 Bft)
29.04.2017 18:25 8,0 °C 8,0 °C 57 % 1017,1 hPa 0,0 mm 6,2 km/h (2 Bft) O 92 ° 0 min 0,000 mm 0,9 UV-I 98 W/m² 0,0 °C 7,1 °C 9,7 km/h (2 Bft)
29.04.2017 18:26 8,0 °C 8,0 °C 57 % 1017,1 hPa 0,0 mm 3,2 km/h (1 Bft) O 82 ° 0 min 0,000 mm 0,9 UV-I 90 W/m² 0,0 °C 8,0 °C 4,8 km/h (1 Bft)
29.04.2017 18:27 8,0 °C 8,0 °C 56 % 1017,1 hPa 0,0 mm 2,3 km/h (1 Bft) O-NO 66 ° 0 min 0,000 mm 0,9 UV-I 192 W/m² -0,2 °C 8,0 °C 4,8 km/h (1 Bft)
29.04.2017 18:28 8,0 °C 8,0 °C 57 % 1017,1 hPa 0,0 mm 4,7 km/h (1 Bft) O 86 ° 0 min 0,000 mm 1,0 UV-I 207 W/m² 0,0 °C 7,6 °C 8,0 km/h (2 Bft)
29.04.2017 18:29 7,9 °C 8,0 °C 57 % 1017,1 hPa 0,0 mm 4,2 km/h (1 Bft) O-SO 111 ° 0 min 0,000 mm 1,0 UV-I 200 W/m² -0,1 °C 7,9 °C 6,4 km/h (2 Bft)
29.04.2017 18:30 7,9 °C 8,0 °C 57 % 1017,1 hPa 0,0 mm 4,2 km/h (1 Bft) NO 49 ° 0 min 0,000 mm 0,9 UV-I 186 W/m² -0,1 °C 7,9 °C 8,0 km/h (2 Bft)
29.04.2017 18:31 7,9 °C 8,0 °C 56 % 1017,0 hPa 0,0 mm 6,8 km/h (2 Bft) N-NO 30 ° 0 min 0,000 mm 0,9 UV-I 167 W/m² -0,3 °C 6,8 °C 9,7 km/h (2 Bft)
29.04.2017 18:32 8,2 °C 8,2 °C 56 % 1017,1 hPa 0,0 mm 4,9 km/h (1 Bft) NO 55 ° 0 min 0,000 mm 0,9 UV-I 186 W/m² -0,0 °C 7,7 °C 6,4 km/h (2 Bft)
29.04.2017 18:33 8,3 °C 8,3 °C 55 % 1017,0 hPa 0,0 mm 6,8 km/h (2 Bft) N-NO 22 ° 0 min 0,000 mm 0,9 UV-I 169 W/m² -0,2 °C 7,3 °C 11,3 km/h (2 Bft)
29.04.2017 18:34 8,4 °C 8,4 °C 56 % 1017,1 hPa 0,0 mm 3,5 km/h (1 Bft) O 80 ° 0 min 0,000 mm 0,9 UV-I 206 W/m² 0,1 °C 8,4 °C 11,3 km/h (2 Bft)
29.04.2017 18:35 8,5 °C 8,5 °C 54 % 1017,1 hPa 0,0 mm 10,2 km/h (2 Bft) O 96 ° 0 min 0,000 mm 0,9 UV-I 202 W/m² -0,3 °C 6,8 °C 14,5 km/h (3 Bft)
29.04.2017 18:36 8,4 °C 8,5 °C 56 % 1017,0 hPa 0,0 mm 5,4 km/h (1 Bft) O 80 ° 0 min 0,000 mm 0,9 UV-I 183 W/m² 0,1 °C 7,8 °C 11,3 km/h (2 Bft)
29.04.2017 18:37 8,5 °C 8,5 °C 55 % 1017,0 hPa 0,0 mm 10,2 km/h (2 Bft) O-NO 74 ° 0 min 0,000 mm 0,9 UV-I 178 W/m² -0,0 °C 6,8 °C 12,9 km/h (3 Bft)
29.04.2017 18:38 8,4 °C 8,5 °C 57 % 1017,0 hPa 0,0 mm 5,6 km/h (1 Bft) O-NO 60 ° 0 min 0,000 mm 0,9 UV-I 174 W/m² 0,4 °C 7,7 °C 9,7 km/h (2 Bft)
29.04.2017 18:39 8,4 °C 8,4 °C 56 % 1017,0 hPa 0,0 mm 3,4 km/h (1 Bft) O-NO 61 ° 0 min 0,000 mm 0,9 UV-I 139 W/m² 0,1 °C 8,4 °C 6,4 km/h (2 Bft)
29.04.2017 18:40 8,3 °C 8,4 °C 58 % 1017,0 hPa 0,0 mm 3,8 km/h (1 Bft) NO 52 ° 0 min 0,000 mm 0,8 UV-I 97 W/m² 0,5 °C 8,3 °C 6,4 km/h (2 Bft)
29.04.2017 18:41 8,2 °C 8,3 °C 56 % 1017,0 hPa 0,0 mm 5,8 km/h (2 Bft) O 93 ° 0 min 0,000 mm 0,8 UV-I 98 W/m² -0,0 °C 7,5 °C 11,3 km/h (2 Bft)
29.04.2017 18:42 8,2 °C 8,2 °C 55 % 1017,0 hPa 0,0 mm 3,8 km/h (1 Bft) NO 50 ° 0 min 0,000 mm 0,8 UV-I 121 W/m² -0,3 °C 8,2 °C 8,0 km/h (2 Bft)
29.04.2017 18:43 8,2 °C 8,2 °C 57 % 1017,0 hPa 0,0 mm 7,4 km/h (2 Bft) O-NO 61 ° 0 min 0,000 mm 0,8 UV-I 158 W/m² 0,2 °C 7,0 °C 12,9 km/h (3 Bft)
29.04.2017 18:44 8,1 °C 8,2 °C 57 % 1017,1 hPa 0,0 mm 7,0 km/h (2 Bft) O-NO 74 ° 0 min 0,000 mm 0,8 UV-I 162 W/m² 0,1 °C 7,0 °C 12,9 km/h (3 Bft)
29.04.2017 18:45 8,1 °C 8,1 °C 59 % 1017,0 hPa 0,0 mm 4,2 km/h (1 Bft) O-NO 74 ° 0 min 0,000 mm 0,8 UV-I 178 W/m² 0,6 °C 8,1 °C 8,0 km/h (2 Bft)
29.04.2017 18:46 8,0 °C 8,1 °C 58 % 1016,9 hPa 0,0 mm 2,7 km/h (1 Bft) O-NO 67 ° 0 min 0,000 mm 0,8 UV-I 171 W/m² 0,3 °C 8,0 °C 4,8 km/h (1 Bft)
29.04.2017 18:47 8,1 °C 8,1 °C 58 % 1017,0 hPa 0,0 mm 1,4 km/h (1 Bft) O-NO 76 ° 0 min 0,000 mm 0,7 UV-I 148 W/m² 0,3 °C 8,1 °C 4,8 km/h (1 Bft)
29.04.2017 18:48 8,1 °C 8,2 °C 57 % 1017,1 hPa 0,0 mm 1,0 km/h (0 Bft) O 80 ° 0 min 0,000 mm 0,7 UV-I 132 W/m² 0,1 °C 8,1 °C 3,2 km/h (1 Bft)
29.04.2017 18:49 8,1 °C 8,1 °C 55 % 1017,0 hPa 0,0 mm 6,1 km/h (2 Bft) NO 39 ° 0 min 0,000 mm 0,7 UV-I 118 W/m² -0,4 °C 7,3 °C 12,9 km/h (3 Bft)
29.04.2017 18:50 8,1 °C 8,1 °C 56 % 1017,0 hPa 0,0 mm 5,5 km/h (1 Bft) O 83 ° 0 min 0,000 mm 0,7 UV-I 116 W/m² -0,1 °C 7,4 °C 8,0 km/h (2 Bft)
29.04.2017 18:51 8,2 °C 8,2 °C 55 % 1017,0 hPa 0,0 mm 7,2 km/h (2 Bft) O 83 ° 0 min 0,000 mm 0,7 UV-I 121 W/m² -0,3 °C 7,1 °C 11,3 km/h (2 Bft)
29.04.2017 18:52 8,2 °C 8,2 °C 57 % 1016,9 hPa 0,0 mm 6,6 km/h (2 Bft) NO 56 ° 0 min 0,000 mm 0,7 UV-I 123 W/m² 0,2 °C 7,2 °C 9,7 km/h (2 Bft)
29.04.2017 18:53 8,2 °C 8,2 °C 57 % 1017,0 hPa 0,0 mm 6,6 km/h (2 Bft) NO 49 ° 0 min 0,000 mm 0,7 UV-I 135 W/m² 0,2 °C 7,2 °C 11,3 km/h (2 Bft)
29.04.2017 18:54 8,2 °C 8,3 °C 56 % 1017,0 hPa 0,0 mm 7,5 km/h (2 Bft) NO 53 ° 0 min 0,000 mm 0,7 UV-I 125 W/m² -0,0 °C 7,0 °C 11,3 km/h (2 Bft)
29.04.2017 18:55 8,2 °C 8,3 °C 57 % 1017,0 hPa 0,0 mm 4,0 km/h (1 Bft) O 95 ° 0 min 0,000 mm 0,6 UV-I 135 W/m² 0,2 °C 8,2 °C 8,0 km/h (2 Bft)
29.04.2017 18:56 8,2 °C 8,2 °C 57 % 1017,0 hPa 0,0 mm 3,5 km/h (1 Bft) O 84 ° 0 min 0,000 mm 0,6 UV-I 139 W/m² 0,2 °C 8,2 °C 8,0 km/h (2 Bft)
29.04.2017 18:57 8,1 °C 8,2 °C 56 % 1017,0 hPa 0,0 mm 2,3 km/h (1 Bft) O 84 ° 0 min 0,000 mm 0,6 UV-I 148 W/m² -0,1 °C 8,1 °C 4,8 km/h (1 Bft)
29.04.2017 18:58 8,1 °C 8,1 °C 55 % 1016,9 hPa 0,0 mm 1,4 km/h (1 Bft) O 84 ° 0 min 0,000 mm 0,6 UV-I 144 W/m² -0,4 °C 8,1 °C 3,2 km/h (1 Bft)
29.04.2017 18:59 8,1 °C 8,1 °C 56 % 1016,9 hPa 0,0 mm 1,5 km/h (1 Bft) O 81 ° 0 min 0,000 mm 0,6 UV-I 141 W/m² -0,1 °C 8,1 °C 3,2 km/h (1 Bft)
29.04.2017 19:00 8,2 °C 8,2 °C 58 % 1016,9 hPa 0,0 mm 2,5 km/h (1 Bft) O 81 ° 0 min 0,000 mm 0,6 UV-I 148 W/m² 0,4 °C 8,2 °C 4,8 km/h (1 Bft)
29.04.2017 19:01 8,1 °C 8,2 °C 55 % 1016,9 hPa 0,0 mm 6,1 km/h (2 Bft) O 98 ° 0 min 0,102 mm 0,6 UV-I 134 W/m² -0,4 °C 7,3 °C 9,7 km/h (2 Bft)
29.04.2017 19:02 8,1 °C 8,2 °C 57 % 1016,9 hPa 0,0 mm 6,2 km/h (2 Bft) O 101 ° 0 min 0,000 mm 0,6 UV-I 125 W/m² 0,1 °C 7,2 °C 9,7 km/h (2 Bft)
29.04.2017 19:03 7,9 °C 8,1 °C 57 % 1017,0 hPa 0,0 mm 7,4 km/h (2 Bft) O 88 ° 0 min 0,000 mm 0,6 UV-I 121 W/m² -0,1 °C 6,7 °C 11,3 km/h (2 Bft)
29.04.2017 19:04 7,9 °C 8,0 °C 59 % 1017,0 hPa 0,0 mm 8,6 km/h (2 Bft) O-NO 69 ° 0 min 0,000 mm 0,6 UV-I 113 W/m² 0,4 °C 6,4 °C 11,3 km/h (2 Bft)
29.04.2017 19:05 7,8 °C 7,9 °C 58 % 1016,9 hPa 0,0 mm 6,0 km/h (2 Bft) O-NO 72 ° 0 min 0,000 mm 0,5 UV-I 118 W/m² 0,1 °C 6,9 °C 8,0 km/h (2 Bft)
29.04.2017 19:06 7,8 °C 7,9 °C 59 % 1016,9 hPa 0,0 mm 4,6 km/h (1 Bft) O 83 ° 0 min 0,000 mm 0,5 UV-I 120 W/m² 0,3 °C 7,4 °C 8,0 km/h (2 Bft)
29.04.2017 19:07 7,8 °C 7,8 °C 58 % 1016,9 hPa 0,0 mm 4,2 km/h (1 Bft) O-NO 71 ° 0 min 0,000 mm 0,5 UV-I 123 W/m² 0,1 °C 7,8 °C 6,4 km/h (2 Bft)
29.04.2017 19:08 7,8 °C 7,8 °C 59 % 1016,9 hPa 0,0 mm 3,4 km/h (1 Bft) O-NO 78 ° 0 min 0,000 mm 0,5 UV-I 141 W/m² 0,3 °C 7,8 °C 6,4 km/h (2 Bft)
29.04.2017 19:09 7,8 °C 7,8 °C 57 % 1016,9 hPa 0,0 mm 3,3 km/h (1 Bft) O-NO 78 ° 0 min 0,000 mm 0,5 UV-I 137 W/m² -0,2 °C 7,8 °C 4,8 km/h (1 Bft)
29.04.2017 19:10 7,8 °C 7,8 °C 58 % 1016,9 hPa 0,0 mm 4,2 km/h (1 Bft) O-NO 78 ° 0 min 0,000 mm 0,5 UV-I 135 W/m² 0,1 °C 7,8 °C 8,0 km/h (2 Bft)
29.04.2017 19:11 7,9 °C 7,9 °C 57 % 1016,9 hPa 0,0 mm 4,8 km/h (1 Bft) O 81 ° 0 min 0,000 mm 0,5 UV-I 132 W/m² -0,1 °C 7,4 °C 6,4 km/h (2 Bft)
29.04.2017 19:12 8,0 °C 8,0 °C 55 % 1016,9 hPa 0,0 mm 2,7 km/h (1 Bft) O 81 ° 0 min 0,000 mm 0,5 UV-I 130 W/m² -0,5 °C 8,0 °C 4,8 km/h (1 Bft)
29.04.2017 19:13 8,0 °C 8,0 °C 59 % 1016,9 hPa 0,0 mm 3,8 km/h (1 Bft) O 82 ° 0 min 0,000 mm 0,5 UV-I 127 W/m² 0,5 °C 8,0 °C 6,4 km/h (2 Bft)
29.04.2017 19:14 7,9 °C 8,0 °C 57 % 1016,9 hPa 0,0 mm 2,6 km/h (1 Bft) O 82 ° 0 min 0,000 mm 0,5 UV-I 113 W/m² -0,1 °C 7,9 °C 4,8 km/h (1 Bft)
29.04.2017 19:15 7,9 °C 7,9 °C 57 % 1016,8 hPa 0,0 mm 1,3 km/h (1 Bft) O 82 ° 0 min 0,000 mm 0,5 UV-I 104 W/m² -0,1 °C 7,9 °C 3,2 km/h (1 Bft)
29.04.2017 19:16 7,9 °C 7,9 °C 57 % 1016,8 hPa 0,0 mm 1,6 km/h (1 Bft) O 86 ° 0 min 0,000 mm 0,5 UV-I 104 W/m² -0,1 °C 7,9 °C 3,2 km/h (1 Bft)
29.04.2017 19:17 7,8 °C 7,9 °C 58 % 1016,9 hPa 0,0 mm 0,2 km/h (0 Bft) O 86 ° 0 min 0,000 mm 0,0 UV-I 111 W/m² 0,1 °C 7,8 °C 1,6 km/h (1 Bft)
29.04.2017 19:18 7,7 °C 7,8 °C 57 % 1016,9 hPa 0,0 mm 0,2 km/h (0 Bft) O 86 ° 0 min 0,000 mm 0,0 UV-I 113 W/m² -0,3 °C 7,7 °C 1,6 km/h (1 Bft)
29.04.2017 19:19 7,7 °C 7,8 °C 59 % 1016,9 hPa 0,0 mm 0,6 km/h (0 Bft) O 86 ° 0 min 0,000 mm 0,0 UV-I 109 W/m² 0,2 °C 7,7 °C 1,6 km/h (1 Bft)
29.04.2017 19:20 7,6 °C 7,7 °C 58 % 1016,9 hPa 0,0 mm 1,5 km/h (1 Bft) O 86 ° 0 min 0,000 mm 0,0 UV-I 104 W/m² -0,1 °C 7,6 °C 3,2 km/h (1 Bft)
29.04.2017 19:21 7,6 °C 7,6 °C 59 % 1016,9 hPa 0,0 mm 2,2 km/h (1 Bft) O 86 ° 0 min 0,000 mm 0,0 UV-I 102 W/m² 0,1 °C 7,6 °C 3,2 km/h (1 Bft)
29.04.2017 19:22 7,6 °C 7,6 °C 61 % 1016,9 hPa 0,0 mm 1,8 km/h (1 Bft) NO 49 ° 0 min 0,000 mm 0,0 UV-I 98 W/m² 0,6 °C 7,6 °C 3,2 km/h (1 Bft)
29.04.2017 19:23 7,5 °C 7,6 °C 59 % 1016,9 hPa 0,0 mm 3,7 km/h (1 Bft) O-NO 61 ° 0 min 0,000 mm 0,0 UV-I 95 W/m² 0,0 °C 7,5 °C 6,4 km/h (2 Bft)
29.04.2017 19:24 7,5 °C 7,5 °C 59 % 1016,9 hPa 0,0 mm 4,3 km/h (1 Bft) O-NO 60 ° 0 min 0,000 mm 0,0 UV-I 93 W/m² 0,0 °C 7,5 °C 6,4 km/h (2 Bft)
29.04.2017 19:25 7,5 °C 7,6 °C 59 % 1016,9 hPa 0,0 mm 2,5 km/h (1 Bft) O 90 ° 0 min 0,000 mm 0,0 UV-I 91 W/m² 0,0 °C 7,5 °C 6,4 km/h (2 Bft)
29.04.2017 19:26 7,5 °C 7,5 °C 59 % 1016,9 hPa 0,0 mm 1,8 km/h (1 Bft) O 90 ° 0 min 0,000 mm 0,0 UV-I 86 W/m² 0,0 °C 7,5 °C 3,2 km/h (1 Bft)
29.04.2017 19:27 7,4 °C 7,5 °C 61 % 1016,9 hPa 0,0 mm 1,5 km/h (1 Bft) O 101 ° 0 min 0,000 mm 0,0 UV-I 84 W/m² 0,4 °C 7,4 °C 3,2 km/h (1 Bft)
29.04.2017 19:28 7,3 °C 7,4 °C 61 % 1016,8 hPa 0,0 mm 0,9 km/h (0 Bft) O 101 ° 0 min 0,000 mm 0,0 UV-I 83 W/m² 0,3 °C 7,3 °C 3,2 km/h (1 Bft)
29.04.2017 19:29 7,4 °C 7,4 °C 59 % 1016,8 hPa 0,0 mm 2,9 km/h (1 Bft) O 96 ° 0 min 0,000 mm 0,0 UV-I 79 W/m² -0,1 °C 7,4 °C 4,8 km/h (1 Bft)
29.04.2017 19:30 7,4 °C 7,4 °C 59 % 1016,9 hPa 0,0 mm 0,3 km/h (0 Bft) O 96 ° 0 min 0,000 mm 0,0 UV-I 77 W/m² -0,1 °C 7,4 °C 1,6 km/h (1 Bft)
29.04.2017 19:31 7,4 °C 7,4 °C 61 % 1016,9 hPa 0,0 mm 2,0 km/h (1 Bft) O 96 ° 0 min 0,000 mm 0,0 UV-I 72 W/m² 0,4 °C 7,4 °C 4,8 km/h (1 Bft)
29.04.2017 19:32 7,3 °C 7,4 °C 60 % 1016,9 hPa 0,0 mm 0,1 km/h (0 Bft) O 96 ° 0 min 0,000 mm 0,0 UV-I 70 W/m² 0,1 °C 7,3 °C 1,6 km/h (1 Bft)
29.04.2017 19:33 7,3 °C 7,3 °C 59 % 1016,9 hPa 0,0 mm 0,0 km/h (0 Bft) O 96 ° 0 min 0,000 mm 0,0 UV-I 69 W/m² -0,2 °C 7,3 °C 0,0 km/h (0 Bft)
29.04.2017 19:34 7,4 °C 7,4 °C 59 % 1016,9 hPa 0,0 mm 1,4 km/h (1 Bft) O 96 ° 0 min 0,000 mm 0,0 UV-I 67 W/m² -0,1 °C 7,4 °C 3,2 km/h (1 Bft)
29.04.2017 19:35 7,3 °C 7,4 °C 60 % 1017,0 hPa 0,0 mm 0,0 km/h (0 Bft) O 96 ° 0 min 0,000 mm 0,0 UV-I 67 W/m² 0,1 °C 7,3 °C 0,0 km/h (0 Bft)
29.04.2017 19:36 7,3 °C 7,3 °C 60 % 1016,9 hPa 0,0 mm 0,3 km/h (0 Bft) O 96 ° 0 min 0,000 mm 0,0 UV-I 63 W/m² 0,1 °C 7,3 °C 1,6 km/h (1 Bft)
29.04.2017 19:37 7,3 °C 7,3 °C 60 % 1016,9 hPa 0,0 mm 0,2 km/h (0 Bft) O 96 ° 0 min 0,000 mm 0,0 UV-I 58 W/m² 0,1 °C 7,3 °C 1,6 km/h (1 Bft)
29.04.2017 19:38 7,3 °C 7,3 °C 60 % 1016,9 hPa 0,0 mm 0,1 km/h (0 Bft) O 96 ° 0 min 0,000 mm 0,0 UV-I 56 W/m² 0,1 °C 7,3 °C 1,6 km/h (1 Bft)
29.04.2017 19:39 7,2 °C 7,3 °C 59 % 1016,9 hPa 0,0 mm 0,9 km/h (0 Bft) O 96 ° 0 min 0,000 mm 0,0 UV-I 54 W/m² -0,3 °C 7,2 °C 1,6 km/h (1 Bft)
29.04.2017 19:40 7,2 °C 7,2 °C 58 % 1016,9 hPa 0,0 mm 0,8 km/h (0 Bft) O 96 ° 0 min 0,000 mm 0,0 UV-I 49 W/m² -0,5 °C 7,2 °C 1,6 km/h (1 Bft)
29.04.2017 19:41 7,1 °C 7,2 °C 60 % 1016,9 hPa 0,0 mm 0,9 km/h (0 Bft) O 96 ° 0 min 0,000 mm 0,0 UV-I 46 W/m² -0,1 °C 7,1 °C 1,6 km/h (1 Bft)
29.04.2017 19:42 7,1 °C 7,1 °C 60 % 1016,9 hPa 0,0 mm 1,8 km/h (1 Bft) O 96 ° 0 min 0,000 mm 0,0 UV-I 40 W/m² -0,1 °C 7,1 °C 3,2 km/h (1 Bft)
29.04.2017 19:43 7,1 °C 7,1 °C 59 % 1016,9 hPa 0,0 mm 0,0 km/h (0 Bft) O 96 ° 0 min 0,000 mm 0,0 UV-I 32 W/m² -0,4 °C 7,1 °C 0,0 km/h (0 Bft)
29.04.2017 19:44 6,9 °C 7,1 °C 62 % 1016,9 hPa 0,0 mm 1,9 km/h (1 Bft) O 96 ° 0 min 0,000 mm 0,0 UV-I 30 W/m² 0,1 °C 6,9 °C 3,2 km/h (1 Bft)
29.04.2017 19:45 6,8 °C 6,9 °C 61 % 1016,9 hPa 0,0 mm 0,9 km/h (0 Bft) O 96 ° 0 min 0,000 mm 0,0 UV-I 30 W/m² -0,2 °C 6,8 °C 3,2 km/h (1 Bft)
29.04.2017 19:46 6,8 °C 6,8 °C 61 % 1016,9 hPa 0,0 mm 1,7 km/h (1 Bft) O 96 ° 0 min 0,000 mm 0,0 UV-I 30 W/m² -0,2 °C 6,8 °C 3,2 km/h (1 Bft)
29.04.2017 19:47 6,8 °C 6,8 °C 61 % 1017,0 hPa 0,0 mm 1,8 km/h (1 Bft) O 96 ° 0 min 0,000 mm 0,0 UV-I 30 W/m² -0,2 °C 6,8 °C 3,2 km/h (1 Bft)
29.04.2017 19:48 6,8 °C 6,8 °C 61 % 1017,0 hPa 0,0 mm 0,7 km/h (0 Bft) O 96 ° 0 min 0,000 mm 0,0 UV-I 30 W/m² -0,2 °C 6,8 °C 1,6 km/h (1 Bft)
29.04.2017 19:49 6,8 °C 6,8 °C 61 % 1017,0 hPa 0,0 mm 3,7 km/h (1 Bft) O-SO 107 ° 0 min 0,000 mm 0,0 UV-I 30 W/m² -0,2 °C 6,8 °C 4,8 km/h (1 Bft)
29.04.2017 19:50 6,7 °C 6,8 °C 62 % 1017,0 hPa 0,0 mm 1,5 km/h (1 Bft) O-SO 107 ° 0 min 0,000 mm 0,0 UV-I 30 W/m² -0,1 °C 6,7 °C 3,2 km/h (1 Bft)
29.04.2017 19:51 6,6 °C 6,7 °C 62 % 1017,0 hPa 0,0 mm 2,3 km/h (1 Bft) O-SO 107 ° 0 min 0,000 mm 0,0 UV-I 28 W/m² -0,1 °C 6,6 °C 3,2 km/h (1 Bft)
29.04.2017 19:52 6,7 °C 6,7 °C 62 % 1017,0 hPa 0,0 mm 2,0 km/h (1 Bft) O-SO 108 ° 0 min 0,000 mm 0,0 UV-I 28 W/m² -0,1 °C 6,7 °C 3,2 km/h (1 Bft)
29.04.2017 19:53 6,7 °C 6,7 °C 61 % 1017,0 hPa 0,0 mm 1,8 km/h (1 Bft) O-SO 108 ° 0 min 0,000 mm 0,0 UV-I 26 W/m² -0,3 °C 6,7 °C 3,2 km/h (1 Bft)
29.04.2017 19:54 6,8 °C 6,8 °C 61 % 1016,9 hPa 0,0 mm 1,4 km/h (1 Bft) O-SO 108 ° 0 min 0,000 mm 0,0 UV-I 26 W/m² -0,2 °C 6,8 °C 1,6 km/h (1 Bft)
29.04.2017 19:55 6,8 °C 6,8 °C 61 % 1017,0 hPa 0,0 mm 0,4 km/h (0 Bft) O-SO 108 ° 0 min 0,000 mm 0,0 UV-I 26 W/m² -0,2 °C 6,8 °C 1,6 km/h (1 Bft)
29.04.2017 19:56 6,8 °C 6,8 °C 60 % 1017,0 hPa 0,0 mm 1,0 km/h (0 Bft) O-SO 108 ° 0 min 0,000 mm 0,0 UV-I 25 W/m² -0,4 °C 6,8 °C 3,2 km/h (1 Bft)
29.04.2017 19:57 6,8 °C 6,8 °C 61 % 1017,0 hPa 0,0 mm 2,0 km/h (1 Bft) O-SO 108 ° 0 min 0,000 mm 0,0 UV-I 25 W/m² -0,2 °C 6,8 °C 4,8 km/h (1 Bft)
29.04.2017 19:58 6,8 °C 6,8 °C 61 % 1017,0 hPa 0,0 mm 1,9 km/h (1 Bft) O-SO 108 ° 0 min 0,000 mm 0,0 UV-I 23 W/m² -0,2 °C 6,8 °C 3,2 km/h (1 Bft)
29.04.2017 19:59 6,7 °C 6,8 °C 63 % 1016,9 hPa 0,0 mm 1,3 km/h (1 Bft) O-SO 108 ° 0 min 0,000 mm 0,0 UV-I 21 W/m² 0,2 °C 6,7 °C 1,6 km/h (1 Bft)
29.04.2017 20:00 6,6 °C 6,7 °C 62 % 1017,0 hPa 0,0 mm 0,9 km/h (0 Bft) O-SO 108 ° 0 min 0,000 mm 0,0 UV-I 21 W/m² -0,1 °C 6,6 °C 1,6 km/h (1 Bft)
29.04.2017 20:01 6,5 °C 6,6 °C 62 % 1016,9 hPa 0,0 mm 1,3 km/h (1 Bft) O-SO 108 ° 0 min 0,051 mm 0,0 UV-I 18 W/m² -0,2 °C 6,5 °C 3,2 km/h (1 Bft)
29.04.2017 20:02 6,4 °C 6,5 °C 62 % 1016,9 hPa 0,0 mm 1,0 km/h (0 Bft) O-SO 108 ° 0 min 0,000 mm 0,0 UV-I 18 W/m² -0,3 °C 6,4 °C 3,2 km/h (1 Bft)
29.04.2017 20:03 6,4 °C 6,4 °C 62 % 1016,9 hPa 0,0 mm 1,5 km/h (1 Bft) O-SO 108 ° 0 min 0,000 mm 0,0 UV-I 16 W/m² -0,3 °C 6,4 °C 3,2 km/h (1 Bft)
29.04.2017 20:04 6,4 °C 6,4 °C 63 % 1016,9 hPa 0,0 mm 1,9 km/h (1 Bft) O-SO 108 ° 0 min 0,000 mm 0,0 UV-I 16 W/m² -0,1 °C 6,4 °C 3,2 km/h (1 Bft)
29.04.2017 20:05 6,2 °C 6,4 °C 64 % 1016,9 hPa 0,0 mm 1,3 km/h (1 Bft) O-SO 108 ° 0 min 0,000 mm 0,0 UV-I 16 W/m² -0,1 °C 6,2 °C 3,2 km/h (1 Bft)
29.04.2017 20:06 6,1 °C 6,2 °C 64 % 1016,9 hPa 0,0 mm 0,6 km/h (0 Bft) O-SO 108 ° 0 min 0,000 mm 0,0 UV-I 14 W/m² -0,2 °C 6,1 °C 1,6 km/h (1 Bft)
29.04.2017 20:07 6,1 °C 6,1 °C 64 % 1016,9 hPa 0,0 mm 0,5 km/h (0 Bft) O-SO 108 ° 0 min 0,000 mm 0,0 UV-I 14 W/m² -0,2 °C 6,1 °C 1,6 km/h (1 Bft)
29.04.2017 20:08 6,0 °C 6,1 °C 65 % 1016,9 hPa 0,0 mm 1,4 km/h (1 Bft) O-SO 108 ° 0 min 0,000 mm 0,0 UV-I 12 W/m² -0,1 °C 6,0 °C 3,2 km/h (1 Bft)
29.04.2017 20:09 5,9 °C 6,0 °C 65 % 1016,9 hPa 0,0 mm 0,8 km/h (0 Bft) O-SO 108 ° 0 min 0,000 mm 0,0 UV-I 12 W/m² -0,2 °C 5,9 °C 1,6 km/h (1 Bft)
29.04.2017 20:10 5,9 °C 5,9 °C 65 % 1016,9 hPa 0,0 mm 1,3 km/h (1 Bft) O-SO 108 ° 0 min 0,000 mm 0,0 UV-I 12 W/m² -0,2 °C 5,9 °C 1,6 km/h (1 Bft)
29.04.2017 20:11 5,9 °C 5,9 °C 65 % 1016,9 hPa 0,0 mm 0,5 km/h (0 Bft) O-SO 108 ° 0 min 0,000 mm 0,0 UV-I 12 W/m² -0,2 °C 5,9 °C 1,6 km/h (1 Bft)
29.04.2017 20:12 5,8 °C 5,9 °C 65 % 1016,9 hPa 0,0 mm 1,0 km/h (0 Bft) O-SO 108 ° 0 min 0,000 mm 0,0 UV-I 12 W/m² -0,3 °C 5,8 °C 1,6 km/h (1 Bft)
29.04.2017 20:13 5,8 °C 5,9 °C 65 % 1016,9 hPa 0,0 mm 0,0 km/h (0 Bft) O-SO 108 ° 0 min 0,000 mm 0,0 UV-I 11 W/m² -0,3 °C 5,8 °C 0,0 km/h (0 Bft)
29.04.2017 20:14 5,8 °C 5,8 °C 66 % 1016,9 hPa 0,0 mm 0,0 km/h (0 Bft) O-SO 108 ° 0 min 0,000 mm 0,0 UV-I 11 W/m² -0,0 °C 5,8 °C 0,0 km/h (0 Bft)
29.04.2017 20:15 5,8 °C 5,8 °C 66 % 1016,9 hPa 0,0 mm 2,3 km/h (1 Bft) O-SO 108 ° 0 min 0,000 mm 0,0 UV-I 11 W/m² -0,0 °C 5,8 °C 3,2 km/h (1 Bft)
29.04.2017 20:16 5,7 °C 5,8 °C 66 % 1016,9 hPa 0,0 mm 0,3 km/h (0 Bft) O-SO 108 ° 0 min 0,000 mm 0,0 UV-I 9 W/m² -0,1 °C 5,7 °C 3,2 km/h (1 Bft)
29.04.2017 20:17 5,7 °C 5,7 °C 67 % 1016,9 hPa 0,0 mm 0,8 km/h (0 Bft) O-SO 108 ° 0 min 0,000 mm 0,0 UV-I 9 W/m² 0,1 °C 5,7 °C 1,6 km/h (1 Bft)
29.04.2017 20:18 5,7 °C 5,7 °C 66 % 1016,9 hPa 0,0 mm 0,6 km/h (0 Bft) O-SO 108 ° 0 min 0,000 mm 0,0 UV-I 7 W/m² -0,1 °C 5,7 °C 1,6 km/h (1 Bft)
29.04.2017 20:19 5,6 °C 5,7 °C 66 % 1016,9 hPa 0,0 mm 0,6 km/h (0 Bft) O-SO 108 ° 0 min 0,000 mm 0,0 UV-I 7 W/m² -0,2 °C 5,6 °C 1,6 km/h (1 Bft)
29.04.2017 20:20 5,6 °C 5,6 °C 66 % 1016,9 hPa 0,0 mm 0,7 km/h (0 Bft) O-SO 108 ° 0 min 0,000 mm 0,0 UV-I 7 W/m² -0,2 °C 5,6 °C 3,2 km/h (1 Bft)
29.04.2017 20:21 5,6 °C 5,6 °C 66 % 1016,9 hPa 0,0 mm 0,1 km/h (0 Bft) O-SO 108 ° 0 min 0,000 mm 0,0 UV-I 7 W/m² -0,2 °C 5,6 °C 1,6 km/h (1 Bft)
29.04.2017 20:22 5,5 °C 5,6 °C 68 % 1016,9 hPa 0,0 mm 0,0 km/h (0 Bft) O-SO 108 ° 0 min 0,000 mm 0,0 UV-I 5 W/m² 0,1 °C 5,5 °C 0,0 km/h (0 Bft)
29.04.2017 20:23 5,3 °C 5,5 °C 68 % 1016,9 hPa 0,0 mm 0,0 km/h (0 Bft) O-SO 108 ° 0 min 0,000 mm 0,0 UV-I 5 W/m² -0,1 °C 5,3 °C 0,0 km/h (0 Bft)
29.04.2017 20:24 5,3 °C 5,3 °C 69 % 1016,9 hPa 0,0 mm 0,0 km/h (0 Bft) O-SO 108 ° 0 min 0,000 mm 0,0 UV-I 5 W/m² 0,1 °C 5,3 °C 0,0 km/h (0 Bft)
29.04.2017 20:25 5,2 °C 5,3 °C 69 % 1016,9 hPa 0,0 mm 0,1 km/h (0 Bft) O-SO 109 ° 0 min 0,000 mm 0,0 UV-I 5 W/m² -0,0 °C 5,2 °C 1,6 km/h (1 Bft)
29.04.2017 20:26 5,2 °C 5,2 °C 69 % 1016,9 hPa 0,0 mm 0,1 km/h (0 Bft) O-SO 110 ° 0 min 0,000 mm 0,0 UV-I 5 W/m² -0,0 °C 5,2 °C 1,6 km/h (1 Bft)
29.04.2017 20:27 5,1 °C 5,2 °C 69 % 1016,9 hPa 0,0 mm 0,0 km/h (0 Bft) O-SO 110 ° 0 min 0,000 mm 0,0 UV-I 0 W/m² -0,1 °C 5,1 °C 0,0 km/h (0 Bft)
29.04.2017 20:28 5,1 °C 5,1 °C 70 % 1016,9 hPa 0,0 mm 0,0 km/h (0 Bft) O-SO 110 ° 0 min 0,000 mm 0,0 UV-I 0 W/m² 0,1 °C 5,1 °C 0,0 km/h (0 Bft)
29.04.2017 20:29 4,9 °C 5,1 °C 71 % 1016,9 hPa 0,0 mm 0,0 km/h (0 Bft) O-SO 110 ° 0 min 0,000 mm 0,0 UV-I 0 W/m² 0,1 °C 4,9 °C 0,0 km/h (0 Bft)
29.04.2017 20:30 4,7 °C 4,9 °C 71 % 1016,9 hPa 0,0 mm 0,5 km/h (0 Bft) O-SO 110 ° 0 min 0,000 mm 0,0 UV-I 0 W/m² -0,1 °C 4,7 °C 3,2 km/h (1 Bft)
29.04.2017 20:31 4,6 °C 4,7 °C 72 % 1017,0 hPa 0,0 mm 1,0 km/h (0 Bft) O-SO 110 ° 0 min 0,000 mm 0,0 UV-I 0 W/m² -0,0 °C 4,6 °C 3,2 km/h (1 Bft)
29.04.2017 20:32 4,4 °C 4,6 °C 73 % 1016,9 hPa 0,0 mm 0,5 km/h (0 Bft) O-SO 110 ° 0 min 0,000 mm 0,0 UV-I 0 W/m² -0,0 °C 4,4 °C 1,6 km/h (1 Bft)
29.04.2017 20:33 4,3 °C 4,4 °C 73 % 1016,9 hPa 0,0 mm 0,9 km/h (0 Bft) O-SO 110 ° 0 min 0,000 mm 0,0 UV-I 0 W/m² -0,1 °C 4,3 °C 1,6 km/h (1 Bft)
29.04.2017 20:34 4,2 °C 4,3 °C 74 % 1016,9 hPa 0,0 mm 0,4 km/h (0 Bft) O-SO 113 ° 0 min 0,000 mm 0,0 UV-I 0 W/m² -0,0 °C 4,2 °C 1,6 km/h (1 Bft)
29.04.2017 20:35 4,1 °C 4,2 °C 74 % 1016,9 hPa 0,0 mm 1,3 km/h (1 Bft) SO 131 ° 0 min 0,000 mm 0,0 UV-I 0 W/m² -0,1 °C 4,1 °C 1,6 km/h (1 Bft)
29.04.2017 20:36 4,0 °C 4,1 °C 75 % 1016,9 hPa 0,0 mm 1,2 km/h (1 Bft) SO 131 ° 0 min 0,000 mm 0,0 UV-I 0 W/m² -0,0 °C 4,0 °C 3,2 km/h (1 Bft)
29.04.2017 20:37 3,9 °C 4,0 °C 76 % 1016,9 hPa 0,0 mm 0,2 km/h (0 Bft) SO 131 ° 0 min 0,000 mm 0,0 UV-I 0 W/m² 0,1 °C 3,9 °C 1,6 km/h (1 Bft)
29.04.2017 20:38 3,8 °C 3,9 °C 76 % 1016,9 hPa 0,0 mm 0,0 km/h (0 Bft) SO 131 ° 0 min 0,000 mm 0,0 UV-I 0 W/m² -0,0 °C 3,8 °C 0,0 km/h (0 Bft)
29.04.2017 20:39 3,7 °C 3,8 °C 78 % 1016,9 hPa 0,0 mm 0,0 km/h (0 Bft) SO 132 ° 0 min 0,000 mm 0,0 UV-I 0 W/m² 0,2 °C 3,7 °C 0,0 km/h (0 Bft)
29.04.2017 20:40 3,7 °C 3,7 °C 78 % 1017,0 hPa 0,0 mm 0,0 km/h (0 Bft) SO 131 ° 0 min 0,000 mm 0,0 UV-I 0 W/m² 0,2 °C 3,7 °C 0,0 km/h (0 Bft)
29.04.2017 20:41 3,6 °C 3,7 °C 78 % 1016,9 hPa 0,0 mm 0,0 km/h (0 Bft) SO 131 ° 0 min 0,000 mm 0,0 UV-I 0 W/m² 0,1 °C 3,6 °C 0,0 km/h (0 Bft)
29.04.2017 20:42 3,4 °C 3,6 °C 79 % 1016,9 hPa 0,0 mm 0,0 km/h (0 Bft) SO 131 ° 0 min 0,000 mm 0,0 UV-I 0 W/m² 0,1 °C 3,4 °C 0,0 km/h (0 Bft)
29.04.2017 20:43 3,2 °C 3,4 °C 79 % 1016,9 hPa 0,0 mm 0,0 km/h (0 Bft) SO 131 ° 0 min 0,000 mm 0,0 UV-I 0 W/m² -0,1 °C 3,2 °C 0,0 km/h (0 Bft)
29.04.2017 20:44 2,9 °C 3,2 °C 79 % 1016,9 hPa 0,0 mm 0,0 km/h (0 Bft) SO 131 ° 0 min 0,000 mm 0,0 UV-I 0 W/m² -0,4 °C 2,9 °C 0,0 km/h (0 Bft)
29.04.2017 20:45 2,8 °C 2,9 °C 81 % 1017,0 hPa 0,0 mm 0,0 km/h (0 Bft) SO 131 ° 0 min 0,000 mm 0,0 UV-I 0 W/m² -0,1 °C 2,8 °C 0,0 km/h (0 Bft)
29.04.2017 20:46 2,7 °C 2,8 °C 82 % 1016,9 hPa 0,0 mm 0,0 km/h (0 Bft) SO 131 ° 0 min 0,000 mm 0,0 UV-I 0 W/m² -0,1 °C 2,7 °C 0,0 km/h (0 Bft)
29.04.2017 20:47 2,6 °C 2,7 °C 82 % 1017,0 hPa 0,0 mm 0,0 km/h (0 Bft) SO 131 ° 0 min 0,000 mm 0,0 UV-I 0 W/m² -0,2 °C 2,6 °C 0,0 km/h (0 Bft)
29.04.2017 20:48 2,6 °C 2,6 °C 83 % 1017,0 hPa 0,0 mm 0,0 km/h (0 Bft) SO 131 ° 0 min 0,000 mm 0,0 UV-I 0 W/m² 0,0 °C 2,6 °C 0,0 km/h (0 Bft)
29.04.2017 20:49 2,6 °C 2,6 °C 83 % 1017,0 hPa 0,0 mm 0,0 km/h (0 Bft) SO 131 ° 0 min 0,000 mm 0,0 UV-I 0 W/m² 0,0 °C 2,6 °C 0,0 km/h (0 Bft)
29.04.2017 20:50 2,6 °C 2,6 °C 83 % 1017,0 hPa 0,0 mm 0,0 km/h (0 Bft) SO 131 ° 0 min 0,000 mm 0,0 UV-I 0 W/m² 0,0 °C 2,6 °C 0,0 km/h (0 Bft)
29.04.2017 20:51 2,7 °C 2,7 °C 83 % 1017,0 hPa 0,0 mm 0,0 km/h (0 Bft) SO 131 ° 0 min 0,000 mm 0,0 UV-I 0 W/m² 0,1 °C 2,7 °C 0,0 km/h (0 Bft)
29.04.2017 20:52 2,8 °C 2,8 °C 83 % 1017,0 hPa 0,0 mm 0,0 km/h (0 Bft) SO 131 ° 0 min 0,000 mm 0,0 UV-I 0 W/m² 0,2 °C 2,8 °C 0,0 km/h (0 Bft)
29.04.2017 20:53 2,9 °C 2,9 °C 83 % 1017,0 hPa 0,0 mm 0,0 km/h (0 Bft) SO 131 ° 0 min 0,000 mm 0,0 UV-I 0 W/m² 0,3 °C 2,9 °C 0,0 km/h (0 Bft)
29.04.2017 20:54 2,9 °C 2,9 °C 83 % 1017,0 hPa 0,0 mm 0,0 km/h (0 Bft) SO 131 ° 0 min 0,000 mm 0,0 UV-I 0 W/m² 0,3 °C 2,9 °C 0,0 km/h (0 Bft)
29.04.2017 20:55 3,1 °C 3,1 °C 83 % 1017,0 hPa 0,0 mm 0,0 km/h (0 Bft) SO 131 ° 0 min 0,000 mm 0,0 UV-I 0 W/m² 0,5 °C 3,1 °C 0,0 km/h (0 Bft)
29.04.2017 20:56 3,1 °C 3,1 °C 83 % 1017,0 hPa 0,0 mm 0,0 km/h (0 Bft) SO 131 ° 0 min 0,000 mm 0,0 UV-I 0 W/m² 0,5 °C 3,1 °C 0,0 km/h (0 Bft)
29.04.2017 20:57 3,1 °C 3,1 °C 82 % 1017,0 hPa 0,0 mm 0,0 km/h (0 Bft) SO 131 ° 0 min 0,000 mm 0,0 UV-I 0 W/m² 0,3 °C 3,1 °C 0,0 km/h (0 Bft)
29.04.2017 20:58 3,1 °C 3,1 °C 82 % 1017,0 hPa 0,0 mm 0,0 km/h (0 Bft) SO 131 ° 0 min 0,000 mm 0,0 UV-I 0 W/m² 0,3 °C 3,1 °C 0,0 km/h (0 Bft)
29.04.2017 20:59 2,9 °C 3,1 °C 82 % 1017,1 hPa 0,0 mm 0,0 km/h (0 Bft) SO 131 ° 0 min 0,000 mm 0,0 UV-I 0 W/m² 0,1 °C 2,9 °C 0,0 km/h (0 Bft)
29.04.2017 21:00 2,7 °C 2,9 °C 82 % 1017,0 hPa 0,0 mm 0,0 km/h (0 Bft) SO 131 ° 0 min 0,000 mm 0,0 UV-I 0 W/m² -0,1 °C 2,7 °C 0,0 km/h (0 Bft)
29.04.2017 21:01 2,7 °C 2,7 °C 83 % 1017,0 hPa 0,0 mm 0,0 km/h (0 Bft) SO 131 ° 0 min 0,000 mm 0,0 UV-I 0 W/m² 0,1 °C 2,7 °C 0,0 km/h (0 Bft)
29.04.2017 21:02 2,7 °C 2,7 °C 84 % 1017,1 hPa 0,0 mm 0,0 km/h (0 Bft) SO 131 ° 0 min 0,000 mm 0,0 UV-I 0 W/m² 0,3 °C 2,7 °C 0,0 km/h (0 Bft)
29.04.2017 21:03 2,6 °C 2,7 °C 83 % 1017,0 hPa 0,0 mm 0,0 km/h (0 Bft) SO 131 ° 0 min 0,000 mm 0,0 UV-I 0 W/m² 0,0 °C 2,6 °C 0,0 km/h (0 Bft)
29.04.2017 21:04 2,6 °C 2,6 °C 84 % 1017,1 hPa 0,0 mm 0,2 km/h (0 Bft) SO 131 ° 0 min 0,000 mm 0,0 UV-I 0 W/m² 0,2 °C 2,6 °C 1,6 km/h (1 Bft)
29.04.2017 21:05 2,6 °C 2,6 °C 84 % 1017,1 hPa 0,0 mm 0,1 km/h (0 Bft) SO 131 ° 0 min 0,000 mm 0,0 UV-I 0 W/m² 0,2 °C 2,6 °C 1,6 km/h (1 Bft)
29.04.2017 21:06 2,6 °C 2,7 °C 84 % 1017,1 hPa 0,0 mm 0,0 km/h (0 Bft) SO 131 ° 0 min 0,000 mm 0,0 UV-I 0 W/m² 0,2 °C 2,6 °C 0,0 km/h (0 Bft)
29.04.2017 21:07 2,6 °C 2,7 °C 84 % 1017,1 hPa 0,0 mm 0,0 km/h (0 Bft) SO 131 ° 0 min 0,000 mm 0,0 UV-I 0 W/m² 0,2 °C 2,6 °C 0,0 km/h (0 Bft)
29.04.2017 21:08 2,5 °C 2,6 °C 84 % 1017,1 hPa 0,0 mm 0,0 km/h (0 Bft) SO 131 ° 0 min 0,000 mm 0,0 UV-I 0 W/m² 0,1 °C 2,5 °C 0,0 km/h (0 Bft)
29.04.2017 21:09 2,5 °C 2,6 °C 85 % 1017,0 hPa 0,0 mm 0,0 km/h (0 Bft) SO 131 ° 0 min 0,000 mm 0,0 UV-I 0 W/m² 0,2 °C 2,5 °C 0,0 km/h (0 Bft)
29.04.2017 21:10 2,6 °C 2,6 °C 85 % 1017,1 hPa 0,0 mm 0,0 km/h (0 Bft) SO 131 ° 0 min 0,000 mm 0,0 UV-I 0 W/m² 0,3 °C 2,6 °C 0,0 km/h (0 Bft)
29.04.2017 21:11 2,7 °C 2,7 °C 85 % 1017,0 hPa 0,0 mm 0,0 km/h (0 Bft) SO 131 ° 0 min 0,000 mm 0,0 UV-I 0 W/m² 0,4 °C 2,7 °C 0,0 km/h (0 Bft)
29.04.2017 21:12 2,7 °C 2,7 °C 85 % 1017,0 hPa 0,0 mm 0,0 km/h (0 Bft) SO 131 ° 0 min 0,000 mm 0,0 UV-I 0 W/m² 0,4 °C 2,7 °C 0,0 km/h (0 Bft)
29.04.2017 21:13 2,8 °C 2,8 °C 84 % 1017,0 hPa 0,0 mm 0,0 km/h (0 Bft) SO 131 ° 0 min 0,000 mm 0,0 UV-I 0 W/m² 0,4 °C 2,8 °C 0,0 km/h (0 Bft)
29.04.2017 21:14 2,8 °C 2,8 °C 84 % 1017,0 hPa 0,0 mm 0,0 km/h (0 Bft) SO 131 ° 0 min 0,000 mm 0,0 UV-I 0 W/m² 0,4 °C 2,8 °C 0,0 km/h (0 Bft)
29.04.2017 21:15 2,7 °C 2,8 °C 83 % 1017,1 hPa 0,0 mm 0,0 km/h (0 Bft) SO 131 ° 0 min 0,000 mm 0,0 UV-I 0 W/m² 0,1 °C 2,7 °C 0,0 km/h (0 Bft)
29.04.2017 21:16 2,7 °C 2,7 °C 84 % 1017,1 hPa 0,0 mm 0,0 km/h (0 Bft) SO 131 ° 0 min 0,000 mm 0,0 UV-I 0 W/m² 0,3 °C 2,7 °C 0,0 km/h (0 Bft)
29.04.2017 21:17 2,5 °C 2,7 °C 83 % 1017,0 hPa 0,0 mm 0,0 km/h (0 Bft) SO 131 ° 0 min 0,000 mm 0,0 UV-I 0 W/m² -0,1 °C 2,5 °C 0,0 km/h (0 Bft)
29.04.2017 21:18 2,3 °C 2,5 °C 83 % 1017,0 hPa 0,0 mm 0,0 km/h (0 Bft) SO 131 ° 0 min 0,000 mm 0,0 UV-I 0 W/m² -0,3 °C 2,3 °C 0,0 km/h (0 Bft)
29.04.2017 21:19 2,2 °C 2,3 °C 84 % 1017,0 hPa 0,0 mm 0,0 km/h (0 Bft) SO 131 ° 0 min 0,000 mm 0,0 UV-I 0 W/m² -0,2 °C 2,2 °C 0,0 km/h (0 Bft)
29.04.2017 21:20 2,1 °C 2,2 °C 84 % 1017,0 hPa 0,0 mm 0,0 km/h (0 Bft) SO 131 ° 0 min 0,000 mm 0,0 UV-I 0 W/m² -0,3 °C 2,1 °C 0,0 km/h (0 Bft)
29.04.2017 21:21 2,0 °C 2,1 °C 86 % 1017,0 hPa 0,0 mm 0,0 km/h (0 Bft) SO 131 ° 0 min 0,000 mm 0,0 UV-I 0 W/m² -0,1 °C 2,0 °C 0,0 km/h (0 Bft)
29.04.2017 21:22 1,9 °C 2,0 °C 86 % 1017,0 hPa 0,0 mm 0,0 km/h (0 Bft) SO 131 ° 0 min 0,000 mm 0,0 UV-I 0 W/m² -0,2 °C 1,9 °C 0,0 km/h (0 Bft)
29.04.2017 21:23 1,9 °C 1,9 °C 87 % 1017,0 hPa 0,0 mm 0,0 km/h (0 Bft) SO 131 ° 0 min 0,000 mm 0,0 UV-I 0 W/m² -0,0 °C 1,9 °C 0,0 km/h (0 Bft)
29.04.2017 21:24 1,9 °C 1,9 °C 87 % 1017,0 hPa 0,0 mm 0,0 km/h (0 Bft) SO 131 ° 0 min 0,000 mm 0,0 UV-I 0 W/m² -0,0 °C 1,9 °C 0,0 km/h (0 Bft)
29.04.2017 21:25 1,9 °C 1,9 °C 87 % 1017,0 hPa 0,0 mm 0,0 km/h (0 Bft) SO 131 ° 0 min 0,000 mm 0,0 UV-I 0 W/m² -0,0 °C 1,9 °C 0,0 km/h (0 Bft)
29.04.2017 21:26 1,8 °C 1,9 °C 87 % 1017,0 hPa 0,0 mm 0,0 km/h (0 Bft) SO 131 ° 0 min 0,000 mm 0,0 UV-I 0 W/m² -0,1 °C 1,8 °C 0,0 km/h (0 Bft)
29.04.2017 21:27 1,8 °C 1,8 °C 87 % 1017,1 hPa 0,0 mm 0,0 km/h (0 Bft) SO 131 ° 0 min 0,000 mm 0,0 UV-I 0 W/m² -0,1 °C 1,8 °C 0,0 km/h (0 Bft)
29.04.2017 21:28 1,8 °C 1,8 °C 88 % 1017,0 hPa 0,0 mm 0,0 km/h (0 Bft) SO 131 ° 0 min 0,000 mm 0,0 UV-I 0 W/m² 0,0 °C 1,8 °C 0,0 km/h (0 Bft)
29.04.2017 21:29 1,8 °C 1,8 °C 88 % 1017,0 hPa 0,0 mm 0,0 km/h (0 Bft) SO 131 ° 0 min 0,000 mm 0,0 UV-I 0 W/m² 0,0 °C 1,8 °C 0,0 km/h (0 Bft)
29.04.2017 21:30 1,8 °C 1,8 °C 88 % 1017,0 hPa 0,0 mm 0,0 km/h (0 Bft) SO 131 ° 0 min 0,000 mm 0,0 UV-I 0 W/m² 0,0 °C 1,8 °C 0,0 km/h (0 Bft)
29.04.2017 21:31 1,8 °C 1,8 °C 88 % 1017,0 hPa 0,0 mm 0,0 km/h (0 Bft) SO 131 ° 0 min 0,000 mm 0,0 UV-I 0 W/m² 0,0 °C 1,8 °C 0,0 km/h (0 Bft)
29.04.2017 21:32 1,8 °C 1,8 °C 87 % 1017,1 hPa 0,0 mm 0,0 km/h (0 Bft) SO 131 ° 0 min 0,000 mm 0,0 UV-I 0 W/m² -0,1 °C 1,8 °C 0,0 km/h (0 Bft)
29.04.2017 21:33 1,7 °C 1,8 °C 87 % 1017,0 hPa 0,0 mm 0,0 km/h (0 Bft) SO 131 ° 0 min 0,000 mm 0,0 UV-I 0 W/m² -0,2 °C 1,7 °C 0,0 km/h (0 Bft)
29.04.2017 21:34 1,7 °C 1,7 °C 88 % 1017,0 hPa 0,0 mm 0,0 km/h (0 Bft) SO 131 ° 0 min 0,000 mm 0,0 UV-I 0 W/m² -0,1 °C 1,7 °C 0,0 km/h (0 Bft)
29.04.2017 21:35 1,7 °C 1,7 °C 88 % 1017,1 hPa 0,0 mm 0,0 km/h (0 Bft) SO 131 ° 0 min 0,000 mm 0,0 UV-I 0 W/m² -0,1 °C 1,7 °C 0,0 km/h (0 Bft)
29.04.2017 21:36 1,7 °C 1,7 °C 88 % 1017,0 hPa 0,0 mm 0,0 km/h (0 Bft) SO 131 ° 0 min 0,000 mm 0,0 UV-I 0 W/m² -0,1 °C 1,7 °C 0,0 km/h (0 Bft)
29.04.2017 21:37 1,7 °C 1,8 °C 88 % 1017,1 hPa 0,0 mm 0,0 km/h (0 Bft) SO 131 ° 0 min 0,000 mm 0,0 UV-I 0 W/m² -0,1 °C 1,7 °C 0,0 km/h (0 Bft)
29.04.2017 21:38 1,7 °C 1,7 °C 88 % 1017,1 hPa 0,0 mm 0,0 km/h (0 Bft) SO 131 ° 0 min 0,000 mm 0,0 UV-I 0 W/m² -0,1 °C 1,7 °C 0,0 km/h (0 Bft)
29.04.2017 21:39 1,7 °C 1,7 °C 88 % 1017,1 hPa 0,0 mm 0,0 km/h (0 Bft) SO 131 ° 0 min 0,000 mm 0,0 UV-I 0 W/m² -0,1 °C 1,7 °C 0,0 km/h (0 Bft)
29.04.2017 21:40 1,7 °C 1,7 °C 88 % 1017,0 hPa 0,0 mm 0,0 km/h (0 Bft) SO 131 ° 0 min 0,000 mm 0,0 UV-I 0 W/m² -0,1 °C 1,7 °C 0,0 km/h (0 Bft)
29.04.2017 21:41 1,7 °C 1,7 °C 88 % 1017,0 hPa 0,0 mm 0,0 km/h (0 Bft) SO 131 ° 0 min 0,000 mm 0,0 UV-I 0 W/m² -0,1 °C 1,7 °C 0,0 km/h (0 Bft)
29.04.2017 21:42 1,7 °C 1,7 °C 88 % 1017,1 hPa 0,0 mm 0,0 km/h (0 Bft) SO 131 ° 0 min 0,000 mm 0,0 UV-I 0 W/m² -0,1 °C 1,7 °C 0,0 km/h (0 Bft)
29.04.2017 21:43 1,7 °C 1,7 °C 88 % 1017,1 hPa 0,0 mm 0,0 km/h (0 Bft) SO 131 ° 0 min 0,000 mm 0,0 UV-I 0 W/m² -0,1 °C 1,7 °C 0,0 km/h (0 Bft)
29.04.2017 21:44 1,6 °C 1,7 °C 88 % 1017,1 hPa 0,0 mm 0,0 km/h (0 Bft) SO 131 ° 0 min 0,000 mm 0,0 UV-I 0 W/m² -0,2 °C 1,6 °C 0,0 km/h (0 Bft)
29.04.2017 21:45 1,6 °C 1,6 °C 88 % 1017,0 hPa 0,0 mm 0,0 km/h (0 Bft) SO 131 ° 0 min 0,000 mm 0,0 UV-I 0 W/m² -0,2 °C 1,6 °C 0,0 km/h (0 Bft)
29.04.2017 21:46 1,6 °C 1,6 °C 88 % 1017,0 hPa 0,0 mm 0,0 km/h (0 Bft) SO 131 ° 0 min 0,000 mm 0,0 UV-I 0 W/m² -0,2 °C 1,6 °C 0,0 km/h (0 Bft)
29.04.2017 21:47 1,6 °C 1,6 °C 88 % 1017,1 hPa 0,0 mm 0,0 km/h (0 Bft) SO 131 ° 0 min 0,000 mm 0,0 UV-I 0 W/m² -0,2 °C 1,6 °C 0,0 km/h (0 Bft)
29.04.2017 21:48 1,6 °C 1,6 °C 89 % 1017,1 hPa 0,0 mm 0,0 km/h (0 Bft) SO 131 ° 0 min 0,000 mm 0,0 UV-I 0 W/m² -0,0 °C 1,6 °C 0,0 km/h (0 Bft)
29.04.2017 21:49 1,6 °C 1,6 °C 88 % 1017,1 hPa 0,0 mm 0,0 km/h (0 Bft) SO 131 ° 0 min 0,000 mm 0,0 UV-I 0 W/m² -0,2 °C 1,6 °C 0,0 km/h (0 Bft)
29.04.2017 21:50 1,6 °C 1,6 °C 88 % 1017,1 hPa 0,0 mm 0,0 km/h (0 Bft) SO 131 ° 0 min 0,000 mm 0,0 UV-I 0 W/m² -0,2 °C 1,6 °C 0,0 km/h (0 Bft)
29.04.2017 21:51 1,6 °C 1,6 °C 88 % 1017,1 hPa 0,0 mm 0,0 km/h (0 Bft) SO 131 ° 0 min 0,000 mm 0,0 UV-I 0 W/m² -0,2 °C 1,6 °C 0,0 km/h (0 Bft)
29.04.2017 21:52 1,5 °C 1,6 °C 88 % 1017,1 hPa 0,0 mm 0,0 km/h (0 Bft) SO 131 ° 0 min 0,000 mm 0,0 UV-I 0 W/m² -0,3 °C 1,5 °C 0,0 km/h (0 Bft)
29.04.2017 21:53 1,5 °C 1,5 °C 88 % 1017,2 hPa 0,0 mm 0,0 km/h (0 Bft) SO 131 ° 0 min 0,000 mm 0,0 UV-I 0 W/m² -0,3 °C 1,5 °C 0,0 km/h (0 Bft)
29.04.2017 21:54 1,5 °C 1,5 °C 88 % 1017,1 hPa 0,0 mm 0,0 km/h (0 Bft) SO 131 ° 0 min 0,000 mm 0,0 UV-I 0 W/m² -0,3 °C 1,5 °C 0,0 km/h (0 Bft)
29.04.2017 21:55 1,4 °C 1,5 °C 89 % 1017,1 hPa 0,0 mm 0,0 km/h (0 Bft) SO 131 ° 0 min 0,000 mm 0,0 UV-I 0 W/m² -0,2 °C 1,4 °C 0,0 km/h (0 Bft)
29.04.2017 21:56 1,4 °C 1,5 °C 89 % 1017,1 hPa 0,0 mm 0,0 km/h (0 Bft) SO 131 ° 0 min 0,000 mm 0,0 UV-I 0 W/m² -0,2 °C 1,4 °C 0,0 km/h (0 Bft)
29.04.2017 21:57 1,5 °C 1,5 °C 89 % 1017,1 hPa 0,0 mm 0,0 km/h (0 Bft) SO 131 ° 0 min 0,000 mm 0,0 UV-I 0 W/m² -0,1 °C 1,5 °C 0,0 km/h (0 Bft)
29.04.2017 21:58 1,4 °C 1,5 °C 88 % 1017,0 hPa 0,0 mm 0,0 km/h (0 Bft) SO 131 ° 0 min 0,000 mm 0,0 UV-I 0 W/m² -0,4 °C 1,4 °C 0,0 km/h (0 Bft)
29.04.2017 21:59 1,4 °C 1,4 °C 89 % 1017,1 hPa 0,0 mm 0,0 km/h (0 Bft) SO 131 ° 0 min 0,000 mm 0,0 UV-I 0 W/m² -0,2 °C 1,4 °C 0,0 km/h (0 Bft)
29.04.2017 22:00 1,3 °C 1,4 °C 89 % 1017,1 hPa 0,0 mm 0,0 km/h (0 Bft) SO 131 ° 0 min 0,000 mm 0,0 UV-I 0 W/m² -0,3 °C 1,3 °C 0,0 km/h (0 Bft)
29.04.2017 22:01 1,4 °C 1,4 °C 89 % 1017,1 hPa 0,0 mm 0,0 km/h (0 Bft) SO 131 ° 0 min 0,000 mm 0,0 UV-I 0 W/m² -0,2 °C 1,4 °C 0,0 km/h (0 Bft)
29.04.2017 22:02 1,3 °C 1,4 °C 89 % 1017,0 hPa 0,0 mm 0,0 km/h (0 Bft) SO 131 ° 0 min 0,000 mm 0,0 UV-I 0 W/m² -0,3 °C 1,3 °C 0,0 km/h (0 Bft)
29.04.2017 22:03 1,3 °C 1,3 °C 89 % 1017,1 hPa 0,0 mm 0,0 km/h (0 Bft) SO 131 ° 0 min 0,000 mm 0,0 UV-I 0 W/m² -0,3 °C 1,3 °C 0,0 km/h (0 Bft)
29.04.2017 22:04 1,3 °C 1,3 °C 89 % 1017,0 hPa 0,0 mm 0,0 km/h (0 Bft) SO 131 ° 0 min 0,000 mm 0,0 UV-I 0 W/m² -0,3 °C 1,3 °C 0,0 km/h (0 Bft)
29.04.2017 22:05 1,2 °C 1,3 °C 89 % 1017,0 hPa 0,0 mm 0,0 km/h (0 Bft) SO 131 ° 0 min 0,000 mm 0,0 UV-I 0 W/m² -0,4 °C 1,2 °C 0,0 km/h (0 Bft)
29.04.2017 22:06 1,2 °C 1,2 °C 89 % 1017,0 hPa 0,0 mm 0,0 km/h (0 Bft) SO 131 ° 0 min 0,000 mm 0,0 UV-I 0 W/m² -0,4 °C 1,2 °C 0,0 km/h (0 Bft)
29.04.2017 22:07 1,2 °C 1,2 °C 89 % 1017,0 hPa 0,0 mm 0,0 km/h (0 Bft) SO 131 ° 0 min 0,000 mm 0,0 UV-I 0 W/m² -0,4 °C 1,2 °C 0,0 km/h (0 Bft)
29.04.2017 22:08 1,1 °C 1,2 °C 90 % 1017,0 hPa 0,0 mm 0,0 km/h (0 Bft) SO 131 ° 0 min 0,000 mm 0,0 UV-I 0 W/m² -0,4 °C 1,1 °C 0,0 km/h (0 Bft)
29.04.2017 22:09 1,1 °C 1,1 °C 90 % 1017,0 hPa 0,0 mm 0,0 km/h (0 Bft) SO 131 ° 0 min 0,000 mm 0,0 UV-I 0 W/m² -0,4 °C 1,1 °C 0,0 km/h (0 Bft)
29.04.2017 22:10 1,1 °C 1,1 °C 90 % 1017,0 hPa 0,0 mm 0,0 km/h (0 Bft) SO 131 ° 0 min 0,000 mm 0,0 UV-I 0 W/m² -0,4 °C 1,1 °C 0,0 km/h (0 Bft)
29.04.2017 22:11 1,1 °C 1,1 °C 90 % 1017,0 hPa 0,0 mm 0,0 km/h (0 Bft) SO 131 ° 0 min 0,000 mm 0,0 UV-I 0 W/m² -0,4 °C 1,1 °C 0,0 km/h (0 Bft)
29.04.2017 22:12 1,1 °C 1,1 °C 90 % 1017,0 hPa 0,0 mm 0,0 km/h (0 Bft) SO 131 ° 0 min 0,000 mm 0,0 UV-I 0 W/m² -0,4 °C 1,1 °C 0,0 km/h (0 Bft)
29.04.2017 22:13 1,0 °C 1,1 °C 90 % 1017,0 hPa 0,0 mm 0,0 km/h (0 Bft) SO 131 ° 0 min 0,000 mm 0,0 UV-I 0 W/m² -0,5 °C 1,0 °C 0,0 km/h (0 Bft)
29.04.2017 22:14 0,9 °C 1,0 °C 90 % 1017,0 hPa 0,0 mm 0,0 km/h (0 Bft) SO 131 ° 0 min 0,000 mm 0,0 UV-I 0 W/m² -0,6 °C 0,9 °C 0,0 km/h (0 Bft)
29.04.2017 22:15 0,9 °C 0,9 °C 90 % 1016,9 hPa 0,0 mm 0,0 km/h (0 Bft) SO 131 ° 0 min 0,000 mm 0,0 UV-I 0 W/m² -0,6 °C 0,9 °C 0,0 km/h (0 Bft)
29.04.2017 22:16 0,9 °C 0,9 °C 90 % 1017,0 hPa 0,0 mm 0,0 km/h (0 Bft) SO 131 ° 0 min 0,000 mm 0,0 UV-I 0 W/m² -0,6 °C 0,9 °C 0,0 km/h (0 Bft)
29.04.2017 22:17 0,9 °C 0,9 °C 90 % 1016,9 hPa 0,0 mm 0,0 km/h (0 Bft) SO 131 ° 0 min 0,000 mm 0,0 UV-I 0 W/m² -0,6 °C 0,9 °C 0,0 km/h (0 Bft)
29.04.2017 22:18 0,9 °C 0,9 °C 90 % 1016,9 hPa 0,0 mm 0,0 km/h (0 Bft) SO 131 ° 0 min 0,000 mm 0,0 UV-I 0 W/m² -0,6 °C 0,9 °C 0,0 km/h (0 Bft)
29.04.2017 22:19 0,9 °C 0,9 °C 91 % 1016,9 hPa 0,0 mm 0,0 km/h (0 Bft) SO 131 ° 0 min 0,000 mm 0,0 UV-I 0 W/m² -0,4 °C 0,9 °C 0,0 km/h (0 Bft)
29.04.2017 22:20 0,9 °C 0,9 °C 91 % 1016,9 hPa 0,0 mm 0,0 km/h (0 Bft) SO 131 ° 0 min 0,000 mm 0,0 UV-I 0 W/m² -0,4 °C 0,9 °C 0,0 km/h (0 Bft)
29.04.2017 22:21 0,9 °C 0,9 °C 91 % 1016,9 hPa 0,0 mm 0,0 km/h (0 Bft) SO 131 ° 0 min 0,000 mm 0,0 UV-I 0 W/m² -0,4 °C 0,9 °C 0,0 km/h (0 Bft)
29.04.2017 22:22 1,0 °C 1,0 °C 91 % 1016,9 hPa 0,0 mm 0,0 km/h (0 Bft) SO 131 ° 0 min 0,000 mm 0,0 UV-I 0 W/m² -0,3 °C 1,0 °C 0,0 km/h (0 Bft)
29.04.2017 22:23 1,0 °C 1,0 °C 91 % 1016,9 hPa 0,0 mm 0,0 km/h (0 Bft) SO 131 ° 0 min 0,000 mm 0,0 UV-I 0 W/m² -0,3 °C 1,0 °C 0,0 km/h (0 Bft)
29.04.2017 22:24 1,0 °C 1,0 °C 91 % 1016,8 hPa 0,0 mm 0,0 km/h (0 Bft) SO 131 ° 0 min 0,000 mm 0,0 UV-I 0 W/m² -0,3 °C 1,0 °C 0,0 km/h (0 Bft)
29.04.2017 22:25 1,0 °C 1,0 °C 91 % 1016,9 hPa 0,0 mm 0,0 km/h (0 Bft) SO 131 ° 0 min 0,000 mm 0,0 UV-I 0 W/m² -0,3 °C 1,0 °C 0,0 km/h (0 Bft)
29.04.2017 22:26 1,0 °C 1,0 °C 90 % 1016,9 hPa 0,0 mm 0,0 km/h (0 Bft) SO 131 ° 0 min 0,000 mm 0,0 UV-I 0 W/m² -0,5 °C 1,0 °C 0,0 km/h (0 Bft)
29.04.2017 22:27 0,9 °C 1,0 °C 90 % 1016,9 hPa 0,0 mm 0,0 km/h (0 Bft) SO 131 ° 0 min 0,000 mm 0,0 UV-I 0 W/m² -0,6 °C 0,9 °C 0,0 km/h (0 Bft)
29.04.2017 22:28 0,9 °C 0,9 °C 90 % 1016,9 hPa 0,0 mm 0,0 km/h (0 Bft) SO 131 ° 0 min 0,000 mm 0,0 UV-I 0 W/m² -0,6 °C 0,9 °C 0,0 km/h (0 Bft)
29.04.2017 22:29 0,9 °C 0,9 °C 90 % 1016,9 hPa 0,0 mm 0,0 km/h (0 Bft) SO 131 ° 0 min 0,000 mm 0,0 UV-I 0 W/m² -0,6 °C 0,9 °C 0,0 km/h (0 Bft)
29.04.2017 22:30 0,9 °C 0,9 °C 91 % 1016,9 hPa 0,0 mm 0,0 km/h (0 Bft) SO 131 ° 0 min 0,000 mm 0,0 UV-I 0 W/m² -0,4 °C 0,9 °C 0,0 km/h (0 Bft)
29.04.2017 22:31 0,9 °C 0,9 °C 90 % 1016,9 hPa 0,0 mm 0,0 km/h (0 Bft) SO 131 ° 0 min 0,000 mm 0,0 UV-I 0 W/m² -0,6 °C 0,9 °C 0,0 km/h (0 Bft)
29.04.2017 22:32 0,8 °C 0,9 °C 90 % 1016,8 hPa 0,0 mm 0,0 km/h (0 Bft) SO 131 ° 0 min 0,000 mm 0,0 UV-I 0 W/m² -0,6 °C 0,8 °C 0,0 km/h (0 Bft)
29.04.2017 22:33 0,8 °C 0,8 °C 90 % 1016,9 hPa 0,0 mm 0,0 km/h (0 Bft) SO 131 ° 0 min 0,000 mm 0,0 UV-I 0 W/m² -0,6 °C 0,8 °C 0,0 km/h (0 Bft)
29.04.2017 22:34 0,8 °C 0,8 °C 91 % 1016,9 hPa 0,0 mm 0,0 km/h (0 Bft) SO 131 ° 0 min 0,000 mm 0,0 UV-I 0 W/m² -0,5 °C 0,8 °C 0,0 km/h (0 Bft)
29.04.2017 22:35 0,8 °C 0,8 °C 91 % 1016,9 hPa 0,0 mm 0,0 km/h (0 Bft) SO 131 ° 0 min 0,000 mm 0,0 UV-I 0 W/m² -0,5 °C 0,8 °C 0,0 km/h (0 Bft)
29.04.2017 22:36 0,8 °C 0,8 °C 91 % 1016,9 hPa 0,0 mm 0,0 km/h (0 Bft) SO 131 ° 0 min 0,000 mm 0,0 UV-I 0 W/m² -0,5 °C 0,8 °C 0,0 km/h (0 Bft)
29.04.2017 22:37 0,8 °C 0,8 °C 91 % 1016,9 hPa 0,0 mm 0,0 km/h (0 Bft) SO 131 ° 0 min 0,000 mm 0,0 UV-I 0 W/m² -0,5 °C 0,8 °C 0,0 km/h (0 Bft)
29.04.2017 22:38 0,7 °C 0,8 °C 91 % 1016,9 hPa 0,0 mm 0,0 km/h (0 Bft) SO 131 ° 0 min 0,000 mm 0,0 UV-I 0 W/m² -0,6 °C 0,7 °C 0,0 km/h (0 Bft)
29.04.2017 22:39 0,8 °C 0,8 °C 91 % 1016,9 hPa 0,0 mm 0,0 km/h (0 Bft) SO 131 ° 0 min 0,000 mm 0,0 UV-I 0 W/m² -0,5 °C 0,8 °C 0,0 km/h (0 Bft)
29.04.2017 22:40 0,7 °C 0,8 °C 91 % 1016,9 hPa 0,0 mm 0,0 km/h (0 Bft) SO 131 ° 0 min 0,000 mm 0,0 UV-I 0 W/m² -0,6 °C 0,7 °C 0,0 km/h (0 Bft)
29.04.2017 22:41 0,7 °C 0,7 °C 91 % 1016,9 hPa 0,0 mm 0,0 km/h (0 Bft) SO 131 ° 0 min 0,000 mm 0,0 UV-I 0 W/m² -0,6 °C 0,7 °C 0,0 km/h (0 Bft)
29.04.2017 22:42 0,6 °C 0,7 °C 91 % 1016,9 hPa 0,0 mm 0,0 km/h (0 Bft) SO 131 ° 0 min 0,000 mm 0,0 UV-I 0 W/m² -0,7 °C 0,6 °C 0,0 km/h (0 Bft)
29.04.2017 22:43 0,6 °C 0,6 °C 91 % 1016,9 hPa 0,0 mm 0,0 km/h (0 Bft) SO 131 ° 0 min 0,000 mm 0,0 UV-I 0 W/m² -0,7 °C 0,6 °C 0,0 km/h (0 Bft)
29.04.2017 22:44 0,6 °C 0,6 °C 91 % 1016,8 hPa 0,0 mm 0,0 km/h (0 Bft) SO 131 ° 0 min 0,000 mm 0,0 UV-I 0 W/m² -0,7 °C 0,6 °C 0,0 km/h (0 Bft)
29.04.2017 22:45 0,6 °C 0,6 °C 92 % 1016,9 hPa 0,0 mm 0,0 km/h (0 Bft) SO 131 ° 0 min 0,000 mm 0,0 UV-I 0 W/m² -0,5 °C 0,6 °C 0,0 km/h (0 Bft)
29.04.2017 22:46 0,6 °C 0,7 °C 92 % 1016,9 hPa 0,0 mm 0,0 km/h (0 Bft) SO 131 ° 0 min 0,000 mm 0,0 UV-I 0 W/m² -0,5 °C 0,6 °C 0,0 km/h (0 Bft)
29.04.2017 22:47 0,6 °C 0,6 °C 92 % 1016,8 hPa 0,0 mm 0,0 km/h (0 Bft) SO 131 ° 0 min 0,000 mm 0,0 UV-I 0 W/m² -0,5 °C 0,6 °C 0,0 km/h (0 Bft)
29.04.2017 22:48 0,6 °C 0,6 °C 91 % 1016,9 hPa 0,0 mm 0,0 km/h (0 Bft) SO 131 ° 0 min 0,000 mm 0,0 UV-I 0 W/m² -0,7 °C 0,6 °C 0,0 km/h (0 Bft)
29.04.2017 22:49 0,5 °C 0,6 °C 91 % 1016,9 hPa 0,0 mm 0,0 km/h (0 Bft) SO 131 ° 0 min 0,000 mm 0,0 UV-I 0 W/m² -0,8 °C 0,5 °C 0,0 km/h (0 Bft)
29.04.2017 22:50 0,4 °C 0,5 °C 91 % 1016,8 hPa 0,0 mm 0,0 km/h (0 Bft) SO 131 ° 0 min 0,000 mm 0,0 UV-I 0 W/m² -0,9 °C 0,4 °C 0,0 km/h (0 Bft)
29.04.2017 22:51 0,4 °C 0,5 °C 91 % 1016,8 hPa 0,0 mm 0,0 km/h (0 Bft) SO 131 ° 0 min 0,000 mm 0,0 UV-I 0 W/m² -0,9 °C 0,4 °C 0,0 km/h (0 Bft)
29.04.2017 22:52 0,4 °C 0,4 °C 91 % 1016,8 hPa 0,0 mm 0,0 km/h (0 Bft) SO 131 ° 0 min 0,000 mm 0,0 UV-I 0 W/m² -0,9 °C 0,4 °C 0,0 km/h (0 Bft)
29.04.2017 22:53 0,4 °C 0,4 °C 91 % 1016,8 hPa 0,0 mm 0,0 km/h (0 Bft) SO 131 ° 0 min 0,000 mm 0,0 UV-I 0 W/m² -0,9 °C 0,4 °C 0,0 km/h (0 Bft)
29.04.2017 22:54 0,4 °C 0,4 °C 92 % 1016,8 hPa 0,0 mm 0,0 km/h (0 Bft) SO 131 ° 0 min 0,000 mm 0,0 UV-I 0 W/m² -0,7 °C 0,4 °C 0,0 km/h (0 Bft)
29.04.2017 22:55 0,4 °C 0,4 °C 92 % 1016,8 hPa 0,0 mm 0,0 km/h (0 Bft) SO 131 ° 0 min 0,000 mm 0,0 UV-I 0 W/m² -0,7 °C 0,4 °C 0,0 km/h (0 Bft)
29.04.2017 22:56 0,4 °C 0,4 °C 92 % 1016,8 hPa 0,0 mm 0,0 km/h (0 Bft) SO 131 ° 0 min 0,000 mm 0,0 UV-I 0 W/m² -0,7 °C 0,4 °C 0,0 km/h (0 Bft)
29.04.2017 22:57 0,4 °C 0,4 °C 92 % 1016,8 hPa 0,0 mm 0,0 km/h (0 Bft) SO 131 ° 0 min 0,000 mm 0,0 UV-I 0 W/m² -0,7 °C 0,4 °C 0,0 km/h (0 Bft)
29.04.2017 22:58 0,3 °C 0,4 °C 92 % 1016,8 hPa 0,0 mm 0,0 km/h (0 Bft) SO 131 ° 0 min 0,000 mm 0,0 UV-I 0 W/m² -0,8 °C 0,3 °C 0,0 km/h (0 Bft)
29.04.2017 22:59 0,4 °C 0,4 °C 92 % 1016,8 hPa 0,0 mm 0,0 km/h (0 Bft) SO 131 ° 0 min 0,000 mm 0,0 UV-I 0 W/m² -0,7 °C 0,4 °C 0,0 km/h (0 Bft)
29.04.2017 23:00 0,3 °C 0,4 °C 92 % 1016,8 hPa 0,0 mm 0,0 km/h (0 Bft) SO 131 ° 0 min 0,000 mm 0,0 UV-I 0 W/m² -0,8 °C 0,3 °C 0,0 km/h (0 Bft)
29.04.2017 23:01 0,3 °C 0,3 °C 92 % 1016,8 hPa 0,0 mm 0,0 km/h (0 Bft) SO 131 ° 0 min 0,000 mm 0,0 UV-I 0 W/m² -0,8 °C 0,3 °C 0,0 km/h (0 Bft)
29.04.2017 23:02 0,3 °C 0,3 °C 92 % 1016,8 hPa 0,0 mm 0,0 km/h (0 Bft) SO 131 ° 0 min 0,000 mm 0,0 UV-I 0 W/m² -0,8 °C 0,3 °C 0,0 km/h (0 Bft)
29.04.2017 23:03 0,2 °C 0,3 °C 92 % 1016,8 hPa 0,0 mm 0,0 km/h (0 Bft) SO 131 ° 0 min 0,000 mm 0,0 UV-I 0 W/m² -0,9 °C 0,2 °C 0,0 km/h (0 Bft)
29.04.2017 23:04 0,3 °C 0,3 °C 92 % 1016,8 hPa 0,0 mm 0,0 km/h (0 Bft) SO 131 ° 0 min 0,000 mm 0,0 UV-I 0 W/m² -0,8 °C 0,3 °C 0,0 km/h (0 Bft)
29.04.2017 23:05 0,2 °C 0,3 °C 92 % 1016,8 hPa 0,0 mm 0,0 km/h (0 Bft) SO 131 ° 0 min 0,000 mm 0,0 UV-I 0 W/m² -0,9 °C 0,2 °C 0,0 km/h (0 Bft)
29.04.2017 23:06 0,2 °C 0,2 °C 92 % 1016,8 hPa 0,0 mm 0,0 km/h (0 Bft) SO 131 ° 0 min 0,000 mm 0,0 UV-I 0 W/m² -0,9 °C 0,2 °C 0,0 km/h (0 Bft)
29.04.2017 23:07 0,3 °C 0,3 °C 92 % 1016,8 hPa 0,0 mm 0,0 km/h (0 Bft) SO 131 ° 0 min 0,000 mm 0,0 UV-I 0 W/m² -0,8 °C 0,3 °C 0,0 km/h (0 Bft)
29.04.2017 23:08 0,3 °C 0,3 °C 93 % 1016,8 hPa 0,0 mm 0,0 km/h (0 Bft) SO 131 ° 0 min 0,000 mm 0,0 UV-I 0 W/m² -0,7 °C 0,3 °C 0,0 km/h (0 Bft)
29.04.2017 23:09 0,4 °C 0,4 °C 93 % 1016,8 hPa 0,0 mm 0,0 km/h (0 Bft) SO 131 ° 0 min 0,000 mm 0,0 UV-I 0 W/m² -0,6 °C 0,4 °C 0,0 km/h (0 Bft)
29.04.2017 23:10 0,4 °C 0,4 °C 93 % 1016,8 hPa 0,0 mm 0,0 km/h (0 Bft) SO 131 ° 0 min 0,000 mm 0,0 UV-I 0 W/m² -0,6 °C 0,4 °C 0,0 km/h (0 Bft)
29.04.2017 23:11 0,4 °C 0,4 °C 93 % 1016,8 hPa 0,0 mm 0,0 km/h (0 Bft) SO 131 ° 0 min 0,000 mm 0,0 UV-I 0 W/m² -0,6 °C 0,4 °C 0,0 km/h (0 Bft)
29.04.2017 23:12 0,5 °C 0,6 °C 92 % 1016,7 hPa 0,0 mm 0,0 km/h (0 Bft) SO 131 ° 0 min 0,000 mm 0,0 UV-I 0 W/m² -0,6 °C 0,5 °C 0,0 km/h (0 Bft)
29.04.2017 23:13 0,6 °C 0,6 °C 93 % 1016,8 hPa 0,0 mm 0,0 km/h (0 Bft) SO 131 ° 0 min 0,000 mm 0,0 UV-I 0 W/m² -0,4 °C 0,6 °C 0,0 km/h (0 Bft)
29.04.2017 23:14 0,6 °C 0,6 °C 92 % 1016,7 hPa 0,0 mm 0,0 km/h (0 Bft) SO 131 ° 0 min 0,000 mm 0,0 UV-I 0 W/m² -0,5 °C 0,6 °C 0,0 km/h (0 Bft)
29.04.2017 23:15 0,6 °C 0,6 °C 93 % 1016,7 hPa 0,0 mm 0,0 km/h (0 Bft) SO 131 ° 0 min 0,000 mm 0,0 UV-I 0 W/m² -0,4 °C 0,6 °C 0,0 km/h (0 Bft)
29.04.2017 23:16 0,7 °C 0,7 °C 93 % 1016,7 hPa 0,0 mm 0,0 km/h (0 Bft) SO 131 ° 0 min 0,000 mm 0,0 UV-I 0 W/m² -0,3 °C 0,7 °C 0,0 km/h (0 Bft)
29.04.2017 23:17 0,6 °C 0,7 °C 92 % 1016,8 hPa 0,0 mm 0,0 km/h (0 Bft) SO 131 ° 0 min 0,000 mm 0,0 UV-I 0 W/m² -0,5 °C 0,6 °C 0,0 km/h (0 Bft)
29.04.2017 23:18 0,5 °C 0,6 °C 92 % 1016,7 hPa 0,0 mm 0,0 km/h (0 Bft) SO 131 ° 0 min 0,000 mm 0,0 UV-I 0 W/m² -0,6 °C 0,5 °C 0,0 km/h (0 Bft)
29.04.2017 23:19 0,4 °C 0,5 °C 91 % 1016,7 hPa 0,0 mm 0,0 km/h (0 Bft) SO 131 ° 0 min 0,000 mm 0,0 UV-I 0 W/m² -0,9 °C 0,4 °C 0,0 km/h (0 Bft)
29.04.2017 23:20 0,4 °C 0,4 °C 91 % 1016,7 hPa 0,0 mm 0,0 km/h (0 Bft) SO 131 ° 0 min 0,000 mm 0,0 UV-I 0 W/m² -0,9 °C 0,4 °C 0,0 km/h (0 Bft)
29.04.2017 23:21 0,3 °C 0,4 °C 92 % 1016,7 hPa 0,0 mm 0,0 km/h (0 Bft) SO 131 ° 0 min 0,000 mm 0,0 UV-I 0 W/m² -0,8 °C 0,3 °C 0,0 km/h (0 Bft)
29.04.2017 23:22 0,3 °C 0,3 °C 91 % 1016,7 hPa 0,0 mm 0,0 km/h (0 Bft) SO 131 ° 0 min 0,000 mm 0,0 UV-I 0 W/m² -1,0 °C 0,3 °C 0,0 km/h (0 Bft)
29.04.2017 23:23 0,2 °C 0,3 °C 92 % 1016,7 hPa 0,0 mm 0,0 km/h (0 Bft) SO 131 ° 0 min 0,000 mm 0,0 UV-I 0 W/m² -0,9 °C 0,2 °C 0,0 km/h (0 Bft)
29.04.2017 23:24 0,2 °C 0,3 °C 92 % 1016,6 hPa 0,0 mm 0,0 km/h (0 Bft) SO 131 ° 0 min 0,000 mm 0,0 UV-I 0 W/m² -0,9 °C 0,2 °C 0,0 km/h (0 Bft)
29.04.2017 23:25 0,2 °C 0,3 °C 92 % 1016,6 hPa 0,0 mm 0,0 km/h (0 Bft) SO 131 ° 0 min 0,000 mm 0,0 UV-I 0 W/m² -0,9 °C 0,2 °C 0,0 km/h (0 Bft)
29.04.2017 23:26 0,2 °C 0,3 °C 92 % 1016,6 hPa 0,0 mm 0,0 km/h (0 Bft) SO 131 ° 0 min 0,000 mm 0,0 UV-I 0 W/m² -0,9 °C 0,2 °C 0,0 km/h (0 Bft)
29.04.2017 23:27 0,3 °C 0,3 °C 92 % 1016,6 hPa 0,0 mm 0,0 km/h (0 Bft) SO 131 ° 0 min 0,000 mm 0,0 UV-I 0 W/m² -0,8 °C 0,3 °C 0,0 km/h (0 Bft)
29.04.2017 23:28 0,3 °C 0,3 °C 92 % 1016,6 hPa 0,0 mm 0,0 km/h (0 Bft) SO 131 ° 0 min 0,000 mm 0,0 UV-I 0 W/m² -0,8 °C 0,3 °C 0,0 km/h (0 Bft)
29.04.2017 23:29 0,3 °C 0,3 °C 93 % 1016,6 hPa 0,0 mm 0,0 km/h (0 Bft) SO 131 ° 0 min 0,000 mm 0,0 UV-I 0 W/m² -0,7 °C 0,3 °C 0,0 km/h (0 Bft)
29.04.2017 23:30 0,3 °C 0,4 °C 93 % 1016,6 hPa 0,0 mm 0,0 km/h (0 Bft) SO 131 ° 0 min 0,000 mm 0,0 UV-I 0 W/m² -0,7 °C 0,3 °C 0,0 km/h (0 Bft)
29.04.2017 23:31 0,4 °C 0,4 °C 92 % 1016,6 hPa 0,0 mm 0,0 km/h (0 Bft) SO 131 ° 0 min 0,000 mm 0,0 UV-I 0 W/m² -0,7 °C 0,4 °C 0,0 km/h (0 Bft)
29.04.2017 23:32 0,3 °C 0,4 °C 92 % 1016,6 hPa 0,0 mm 0,0 km/h (0 Bft) SO 131 ° 0 min 0,000 mm 0,0 UV-I 0 W/m² -0,8 °C 0,3 °C 0,0 km/h (0 Bft)
29.04.2017 23:33 0,3 °C 0,3 °C 92 % 1016,6 hPa 0,0 mm 0,0 km/h (0 Bft) SO 131 ° 0 min 0,000 mm 0,0 UV-I 0 W/m² -0,8 °C 0,3 °C 0,0 km/h (0 Bft)
29.04.2017 23:34 0,2 °C 0,3 °C 92 % 1016,6 hPa 0,0 mm 0,0 km/h (0 Bft) SO 131 ° 0 min 0,000 mm 0,0 UV-I 0 W/m² -0,9 °C 0,2 °C 0,0 km/h (0 Bft)
29.04.2017 23:35 0,2 °C 0,2 °C 92 % 1016,6 hPa 0,0 mm 0,0 km/h (0 Bft) SO 131 ° 0 min 0,000 mm 0,0 UV-I 0 W/m² -0,9 °C 0,2 °C 0,0 km/h (0 Bft)
29.04.2017 23:36 0,1 °C 0,2 °C 92 % 1016,6 hPa 0,0 mm 0,0 km/h (0 Bft) SO 131 ° 0 min 0,000 mm 0,0 UV-I 0 W/m² -1,0 °C 0,1 °C 0,0 km/h (0 Bft)
29.04.2017 23:37 0,1 °C 0,1 °C 92 % 1016,6 hPa 0,0 mm 0,0 km/h (0 Bft) SO 131 ° 0 min 0,000 mm 0,0 UV-I 0 W/m² -1,0 °C 0,1 °C 0,0 km/h (0 Bft)
29.04.2017 23:38 0,0 °C 0,1 °C 92 % 1016,6 hPa 0,0 mm 0,0 km/h (0 Bft) SO 131 ° 0 min 0,000 mm 0,0 UV-I 0 W/m² -1,1 °C 0,0 °C 0,0 km/h (0 Bft)
29.04.2017 23:39 -0,1 °C 0,0 °C 92 % 1016,6 hPa 0,0 mm 0,0 km/h (0 Bft) SO 131 ° 0 min 0,000 mm 0,0 UV-I 0 W/m² -1,2 °C -0,1 °C 0,0 km/h (0 Bft)
29.04.2017 23:40 -0,1 °C 0,0 °C 92 % 1016,6 hPa 0,0 mm 0,0 km/h (0 Bft) SO 131 ° 0 min 0,000 mm 0,0 UV-I 0 W/m² -1,2 °C -0,1 °C 0,0 km/h (0 Bft)
29.04.2017 23:41 0,0 °C 0,0 °C 92 % 1016,6 hPa 0,0 mm 0,0 km/h (0 Bft) SO 131 ° 0 min 0,000 mm 0,0 UV-I 0 W/m² -1,1 °C 0,0 °C 0,0 km/h (0 Bft)
29.04.2017 23:42 0,0 °C 0,0 °C 93 % 1016,6 hPa 0,0 mm 0,0 km/h (0 Bft) SO 131 ° 0 min 0,000 mm 0,0 UV-I 0 W/m² -1,0 °C 0,0 °C 0,0 km/h (0 Bft)
29.04.2017 23:43 0,1 °C 0,1 °C 93 % 1016,6 hPa 0,0 mm 0,0 km/h (0 Bft) SO 131 ° 0 min 0,000 mm 0,0 UV-I 0 W/m² -0,9 °C 0,1 °C 0,0 km/h (0 Bft)
29.04.2017 23:44 0,1 °C 0,1 °C 93 % 1016,6 hPa 0,0 mm 0,0 km/h (0 Bft) SO 131 ° 0 min 0,000 mm 0,0 UV-I 0 W/m² -0,9 °C 0,1 °C 0,0 km/h (0 Bft)
29.04.2017 23:45 0,1 °C 0,1 °C 93 % 1016,6 hPa 0,0 mm 0,0 km/h (0 Bft) SO 131 ° 0 min 0,000 mm 0,0 UV-I 0 W/m² -0,9 °C 0,1 °C 0,0 km/h (0 Bft)
29.04.2017 23:46 0,0 °C 0,1 °C 93 % 1016,6 hPa 0,0 mm 0,0 km/h (0 Bft) SO 131 ° 0 min 0,000 mm 0,0 UV-I 0 W/m² -1,0 °C 0,0 °C 0,0 km/h (0 Bft)
29.04.2017 23:47 0,0 °C 0,1 °C 93 % 1016,6 hPa 0,0 mm 0,0 km/h (0 Bft) SO 131 ° 0 min 0,000 mm 0,0 UV-I 0 W/m² -1,0 °C 0,0 °C 0,0 km/h (0 Bft)
29.04.2017 23:48 0,0 °C 0,1 °C 93 % 1016,6 hPa 0,0 mm 0,0 km/h (0 Bft) SO 131 ° 0 min 0,000 mm 0,0 UV-I 0 W/m² -1,0 °C 0,0 °C 0,0 km/h (0 Bft)
29.04.2017 23:49 0,1 °C 0,1 °C 93 % 1016,6 hPa 0,0 mm 0,0 km/h (0 Bft) SO 131 ° 0 min 0,000 mm 0,0 UV-I 0 W/m² -0,9 °C 0,1 °C 0,0 km/h (0 Bft)
29.04.2017 23:50 0,1 °C 0,1 °C 93 % 1016,5 hPa 0,0 mm 0,0 km/h (0 Bft) SO 131 ° 0 min 0,000 mm 0,0 UV-I 0 W/m² -0,9 °C 0,1 °C 0,0 km/h (0 Bft)
29.04.2017 23:51 0,1 °C 0,2 °C 93 % 1016,5 hPa 0,0 mm 0,0 km/h (0 Bft) SO 131 ° 0 min 0,000 mm 0,0 UV-I 0 W/m² -0,9 °C 0,1 °C 0,0 km/h (0 Bft)
29.04.2017 23:52 0,2 °C 0,2 °C 93 % 1016,5 hPa 0,0 mm 0,0 km/h (0 Bft) SO 131 ° 0 min 0,000 mm 0,0 UV-I 0 W/m² -0,8 °C 0,2 °C 0,0 km/h (0 Bft)
29.04.2017 23:53 0,2 °C 0,2 °C 93 % 1016,5 hPa 0,0 mm 0,0 km/h (0 Bft) SO 131 ° 0 min 0,000 mm 0,0 UV-I 0 W/m² -0,8 °C 0,2 °C 0,0 km/h (0 Bft)
29.04.2017 23:54 0,2 °C 0,2 °C 92 % 1016,5 hPa 0,0 mm 0,0 km/h (0 Bft) SO 131 ° 0 min 0,000 mm 0,0 UV-I 0 W/m² -0,9 °C 0,2 °C 0,0 km/h (0 Bft)
29.04.2017 23:55 0,1 °C 0,2 °C 92 % 1016,5 hPa 0,0 mm 0,0 km/h (0 Bft) SO 131 ° 0 min 0,000 mm 0,0 UV-I 0 W/m² -1,0 °C 0,1 °C 0,0 km/h (0 Bft)
29.04.2017 23:56 0,1 °C 0,1 °C 92 % 1016,4 hPa 0,0 mm 0,0 km/h (0 Bft) SO 131 ° 0 min 0,000 mm 0,0 UV-I 0 W/m² -1,0 °C 0,1 °C 0,0 km/h (0 Bft)
29.04.2017 23:57 0,1 °C 0,1 °C 92 % 1016,5 hPa 0,0 mm 0,0 km/h (0 Bft) SO 131 ° 0 min 0,000 mm 0,0 UV-I 0 W/m² -1,0 °C 0,1 °C 0,0 km/h (0 Bft)
29.04.2017 23:58 0,1 °C 0,1 °C 92 % 1016,5 hPa 0,0 mm 0,0 km/h (0 Bft) SO 131 ° 0 min 0,000 mm 0,0 UV-I 0 W/m² -1,0 °C 0,1 °C 0,0 km/h (0 Bft)
29.04.2017 23:59 0,1 °C 0,2 °C 92 % 1016,4 hPa 0,0 mm 0,0 km/h (0 Bft) SO 131 ° 0 min 0,000 mm 0,0 UV-I 0 W/m² -1,0 °C 0,1 °C 0,0 km/h (0 Bft)
_ Min-Zeit 06:23 06:22 15:45 23:59 - 23:59 - - - - - - 06:23 05:14 23:59
Minimum _ -1,3 °C -1,3 °C 50 % 1016,4 hPa - 0,0 km/h (0 Bft) - - - - - - -2,0 °C -2,7 °C 0,0 km/h (0 Bft)
_ Max-Zeit 16:12 16:13 07:14 10:40 13:00 18:05 - - 17:04 15:01 13:25 14:40 14:57 16:11 18:05
Maximum _ 8,9 °C 8,9 °C 96 % 1020,1 hPa 0,2 mm 12,1 km/h
O (2 Bft)
- - 1 min 0,381 mm 6,9 UV-I 940 W/m² 1,7 °C 8,8 °C 16,1 km/h
O-NO (3 Bft)
Durchschnitt _ 3,4 °C 3,4 °C 79 % 1018,7 hPa #12,6 mm 1,6 km/h (1 Bft) O - #8:13 h #2,769 mm 3,7 UV-I 274 W/m² -0,4 °C 3,2 °C 2,9 km/h (1 Bft)